<?xml version="1.0" encoding="UTF-8" standalone="no" ?>
<gpx xmlns="http://www.topografix.com/GPX/1/1" xmlns:xsi="http://www.w3.org/2001/XMLSchema-instance" xsi:schemaLocation="http://www.topografix.com/GPX/1/1 http://www.topografix.com/GPX/1/1/gpx.xsd" version="1.1" creator="VisuGPX - https://www.visugpx.com">
  <metadata>
    <name>Graye-et-Charnay Cyclisme sur route</name>
  </metadata>
  <trk>
    <name><![CDATA[Graye-et-Charnay Cyclisme sur route_1]]></name>
    <trkseg>
      <trkpt lat="46.46443" lon="5.45215">
        <ele>377</ele>
        <time>2022-04-14T10:43:11Z</time>
      </trkpt>
      <trkpt lat="46.46443" lon="5.45215">
        <ele>372.6</ele>
        <time>2022-04-14T10:43:12Z</time>
      </trkpt>
      <trkpt lat="46.4644" lon="5.45214">
        <ele>372.8</ele>
        <time>2022-04-14T10:43:20Z</time>
      </trkpt>
      <trkpt lat="46.46439" lon="5.45213">
        <ele>373</ele>
        <time>2022-04-14T10:43:21Z</time>
      </trkpt>
      <trkpt lat="46.46448" lon="5.45218">
        <ele>372.6</ele>
        <time>2022-04-14T10:43:34Z</time>
      </trkpt>
      <trkpt lat="46.46454" lon="5.45221">
        <ele>372.6</ele>
        <time>2022-04-14T10:43:36Z</time>
      </trkpt>
      <trkpt lat="46.46475" lon="5.45234">
        <ele>372</ele>
        <time>2022-04-14T10:43:42Z</time>
      </trkpt>
      <trkpt lat="46.4648" lon="5.45235">
        <ele>372</ele>
        <time>2022-04-14T10:43:43Z</time>
      </trkpt>
      <trkpt lat="46.46494" lon="5.45243">
        <ele>371.6</ele>
        <time>2022-04-14T10:43:46Z</time>
      </trkpt>
      <trkpt lat="46.46499" lon="5.45245">
        <ele>371.6</ele>
        <time>2022-04-14T10:43:47Z</time>
      </trkpt>
      <trkpt lat="46.46509" lon="5.45249">
        <ele>371.6</ele>
        <time>2022-04-14T10:43:49Z</time>
      </trkpt>
      <trkpt lat="46.46514" lon="5.45251">
        <ele>371.6</ele>
        <time>2022-04-14T10:43:50Z</time>
      </trkpt>
      <trkpt lat="46.4653" lon="5.45258">
        <ele>372</ele>
        <time>2022-04-14T10:43:53Z</time>
      </trkpt>
      <trkpt lat="46.46569" lon="5.45271">
        <ele>372.4</ele>
        <time>2022-04-14T10:44:01Z</time>
      </trkpt>
      <trkpt lat="46.46575" lon="5.45272">
        <ele>372.4</ele>
        <time>2022-04-14T10:44:02Z</time>
      </trkpt>
      <trkpt lat="46.466" lon="5.45267">
        <ele>372.6</ele>
        <time>2022-04-14T10:44:07Z</time>
      </trkpt>
      <trkpt lat="46.4661" lon="5.45262">
        <ele>372.6</ele>
        <time>2022-04-14T10:44:09Z</time>
      </trkpt>
      <trkpt lat="46.46624" lon="5.45256">
        <ele>372.6</ele>
        <time>2022-04-14T10:44:12Z</time>
      </trkpt>
      <trkpt lat="46.46633" lon="5.45256">
        <ele>372.8</ele>
        <time>2022-04-14T10:44:14Z</time>
      </trkpt>
      <trkpt lat="46.46638" lon="5.45256">
        <ele>373</ele>
        <time>2022-04-14T10:44:15Z</time>
      </trkpt>
      <trkpt lat="46.46648" lon="5.45256">
        <ele>373.2</ele>
        <time>2022-04-14T10:44:17Z</time>
      </trkpt>
      <trkpt lat="46.46661" lon="5.45256">
        <ele>373.6</ele>
        <time>2022-04-14T10:44:20Z</time>
      </trkpt>
      <trkpt lat="46.46666" lon="5.45256">
        <ele>374</ele>
        <time>2022-04-14T10:44:21Z</time>
      </trkpt>
      <trkpt lat="46.46692" lon="5.4526">
        <ele>374.6</ele>
        <time>2022-04-14T10:44:26Z</time>
      </trkpt>
      <trkpt lat="46.46697" lon="5.45261">
        <ele>374.8</ele>
        <time>2022-04-14T10:44:27Z</time>
      </trkpt>
      <trkpt lat="46.46702" lon="5.45263">
        <ele>375.2</ele>
        <time>2022-04-14T10:44:28Z</time>
      </trkpt>
      <trkpt lat="46.4673" lon="5.45267">
        <ele>375.6</ele>
        <time>2022-04-14T10:44:34Z</time>
      </trkpt>
      <trkpt lat="46.46735" lon="5.45268">
        <ele>375.6</ele>
        <time>2022-04-14T10:44:35Z</time>
      </trkpt>
      <trkpt lat="46.46746" lon="5.45271">
        <ele>375.8</ele>
        <time>2022-04-14T10:44:38Z</time>
      </trkpt>
      <trkpt lat="46.46755" lon="5.45272">
        <ele>376.4</ele>
        <time>2022-04-14T10:44:40Z</time>
      </trkpt>
      <trkpt lat="46.46773" lon="5.45273">
        <ele>377.6</ele>
        <time>2022-04-14T10:44:44Z</time>
      </trkpt>
      <trkpt lat="46.46804" lon="5.45276">
        <ele>378.6</ele>
        <time>2022-04-14T10:44:51Z</time>
      </trkpt>
      <trkpt lat="46.46808" lon="5.45276">
        <ele>379</ele>
        <time>2022-04-14T10:44:52Z</time>
      </trkpt>
      <trkpt lat="46.46813" lon="5.45277">
        <ele>379</ele>
        <time>2022-04-14T10:44:53Z</time>
      </trkpt>
      <trkpt lat="46.46834" lon="5.45281">
        <ele>379.8</ele>
        <time>2022-04-14T10:44:58Z</time>
      </trkpt>
      <trkpt lat="46.46842" lon="5.45282">
        <ele>380</ele>
        <time>2022-04-14T10:45:00Z</time>
      </trkpt>
      <trkpt lat="46.4685" lon="5.45284">
        <ele>380.2</ele>
        <time>2022-04-14T10:45:02Z</time>
      </trkpt>
      <trkpt lat="46.46859" lon="5.45283">
        <ele>380.4</ele>
        <time>2022-04-14T10:45:04Z</time>
      </trkpt>
      <trkpt lat="46.46874" lon="5.45279">
        <ele>380.8</ele>
        <time>2022-04-14T10:45:08Z</time>
      </trkpt>
      <trkpt lat="46.4688" lon="5.45273">
        <ele>381</ele>
        <time>2022-04-14T10:45:10Z</time>
      </trkpt>
      <trkpt lat="46.46893" lon="5.45248">
        <ele>382.2</ele>
        <time>2022-04-14T10:45:15Z</time>
      </trkpt>
      <trkpt lat="46.46903" lon="5.45219">
        <ele>382.6</ele>
        <time>2022-04-14T10:45:19Z</time>
      </trkpt>
      <trkpt lat="46.46907" lon="5.45214">
        <ele>382.6</ele>
        <time>2022-04-14T10:45:20Z</time>
      </trkpt>
      <trkpt lat="46.46912" lon="5.4521">
        <ele>382</ele>
        <time>2022-04-14T10:45:21Z</time>
      </trkpt>
      <trkpt lat="46.46929" lon="5.45204">
        <ele>381.6</ele>
        <time>2022-04-14T10:45:24Z</time>
      </trkpt>
      <trkpt lat="46.46938" lon="5.45198">
        <ele>381.6</ele>
        <time>2022-04-14T10:45:26Z</time>
      </trkpt>
      <trkpt lat="46.46945" lon="5.45188">
        <ele>381.6</ele>
        <time>2022-04-14T10:45:28Z</time>
      </trkpt>
      <trkpt lat="46.4695" lon="5.45166">
        <ele>382.2</ele>
        <time>2022-04-14T10:45:32Z</time>
      </trkpt>
      <trkpt lat="46.46951" lon="5.45159">
        <ele>382.6</ele>
        <time>2022-04-14T10:45:33Z</time>
      </trkpt>
      <trkpt lat="46.46959" lon="5.45149">
        <ele>382.8</ele>
        <time>2022-04-14T10:45:35Z</time>
      </trkpt>
      <trkpt lat="46.46983" lon="5.45139">
        <ele>382.4</ele>
        <time>2022-04-14T10:45:39Z</time>
      </trkpt>
      <trkpt lat="46.46995" lon="5.45139">
        <ele>381.8</ele>
        <time>2022-04-14T10:45:41Z</time>
      </trkpt>
      <trkpt lat="46.47008" lon="5.45144">
        <ele>381.2</ele>
        <time>2022-04-14T10:45:43Z</time>
      </trkpt>
      <trkpt lat="46.47028" lon="5.45154">
        <ele>380.4</ele>
        <time>2022-04-14T10:45:46Z</time>
      </trkpt>
      <trkpt lat="46.47034" lon="5.45158">
        <ele>380.2</ele>
        <time>2022-04-14T10:45:47Z</time>
      </trkpt>
      <trkpt lat="46.47045" lon="5.45166">
        <ele>379.2</ele>
        <time>2022-04-14T10:45:49Z</time>
      </trkpt>
      <trkpt lat="46.4705" lon="5.45171">
        <ele>378.8</ele>
        <time>2022-04-14T10:45:50Z</time>
      </trkpt>
      <trkpt lat="46.47056" lon="5.45175">
        <ele>378.6</ele>
        <time>2022-04-14T10:45:51Z</time>
      </trkpt>
      <trkpt lat="46.4709" lon="5.45198">
        <ele>378.4</ele>
        <time>2022-04-14T10:45:57Z</time>
      </trkpt>
      <trkpt lat="46.47135" lon="5.45224">
        <ele>379.2</ele>
        <time>2022-04-14T10:46:05Z</time>
      </trkpt>
      <trkpt lat="46.47173" lon="5.45243">
        <ele>379.2</ele>
        <time>2022-04-14T10:46:12Z</time>
      </trkpt>
      <trkpt lat="46.4723" lon="5.45269">
        <ele>379.4</ele>
        <time>2022-04-14T10:46:22Z</time>
      </trkpt>
      <trkpt lat="46.47282" lon="5.45292">
        <ele>379.4</ele>
        <time>2022-04-14T10:46:31Z</time>
      </trkpt>
      <trkpt lat="46.47287" lon="5.45295">
        <ele>379.4</ele>
        <time>2022-04-14T10:46:32Z</time>
      </trkpt>
      <trkpt lat="46.47333" lon="5.45315">
        <ele>379.6</ele>
        <time>2022-04-14T10:46:40Z</time>
      </trkpt>
      <trkpt lat="46.47372" lon="5.4533">
        <ele>379.6</ele>
        <time>2022-04-14T10:46:47Z</time>
      </trkpt>
      <trkpt lat="46.47418" lon="5.45344">
        <ele>379.4</ele>
        <time>2022-04-14T10:46:55Z</time>
      </trkpt>
      <trkpt lat="46.47472" lon="5.45359">
        <ele>378.8</ele>
        <time>2022-04-14T10:47:04Z</time>
      </trkpt>
      <trkpt lat="46.47478" lon="5.45361">
        <ele>378.8</ele>
        <time>2022-04-14T10:47:05Z</time>
      </trkpt>
      <trkpt lat="46.4751" lon="5.45372">
        <ele>379.8</ele>
        <time>2022-04-14T10:47:11Z</time>
      </trkpt>
      <trkpt lat="46.47515" lon="5.45375">
        <ele>380.2</ele>
        <time>2022-04-14T10:47:12Z</time>
      </trkpt>
      <trkpt lat="46.47519" lon="5.45377">
        <ele>380.4</ele>
        <time>2022-04-14T10:47:13Z</time>
      </trkpt>
      <trkpt lat="46.47539" lon="5.45392">
        <ele>380.8</ele>
        <time>2022-04-14T10:47:17Z</time>
      </trkpt>
      <trkpt lat="46.47548" lon="5.45398">
        <ele>381.4</ele>
        <time>2022-04-14T10:47:19Z</time>
      </trkpt>
      <trkpt lat="46.4756" lon="5.45406">
        <ele>382.4</ele>
        <time>2022-04-14T10:47:22Z</time>
      </trkpt>
      <trkpt lat="46.47564" lon="5.45409">
        <ele>382.6</ele>
        <time>2022-04-14T10:47:23Z</time>
      </trkpt>
      <trkpt lat="46.4758" lon="5.45423">
        <ele>383.6</ele>
        <time>2022-04-14T10:47:27Z</time>
      </trkpt>
      <trkpt lat="46.47589" lon="5.45431">
        <ele>384.2</ele>
        <time>2022-04-14T10:47:29Z</time>
      </trkpt>
      <trkpt lat="46.47609" lon="5.45444">
        <ele>384.6</ele>
        <time>2022-04-14T10:47:33Z</time>
      </trkpt>
      <trkpt lat="46.47624" lon="5.45452">
        <ele>385</ele>
        <time>2022-04-14T10:47:36Z</time>
      </trkpt>
      <trkpt lat="46.47647" lon="5.45461">
        <ele>385.2</ele>
        <time>2022-04-14T10:47:40Z</time>
      </trkpt>
      <trkpt lat="46.47659" lon="5.45466">
        <ele>385.2</ele>
        <time>2022-04-14T10:47:42Z</time>
      </trkpt>
      <trkpt lat="46.47664" lon="5.45471">
        <ele>385.2</ele>
        <time>2022-04-14T10:47:43Z</time>
      </trkpt>
      <trkpt lat="46.47697" lon="5.45496">
        <ele>385</ele>
        <time>2022-04-14T10:47:49Z</time>
      </trkpt>
      <trkpt lat="46.47744" lon="5.45537">
        <ele>384.8</ele>
        <time>2022-04-14T10:47:58Z</time>
      </trkpt>
      <trkpt lat="46.47777" lon="5.45555">
        <ele>385.2</ele>
        <time>2022-04-14T10:48:04Z</time>
      </trkpt>
      <trkpt lat="46.47788" lon="5.45558">
        <ele>385.2</ele>
        <time>2022-04-14T10:48:06Z</time>
      </trkpt>
      <trkpt lat="46.47806" lon="5.4556">
        <ele>385.2</ele>
        <time>2022-04-14T10:48:09Z</time>
      </trkpt>
      <trkpt lat="46.47843" lon="5.4557">
        <ele>384.8</ele>
        <time>2022-04-14T10:48:15Z</time>
      </trkpt>
      <trkpt lat="46.47886" lon="5.45587">
        <ele>384.4</ele>
        <time>2022-04-14T10:48:21Z</time>
      </trkpt>
      <trkpt lat="46.47926" lon="5.45604">
        <ele>383.4</ele>
        <time>2022-04-14T10:48:26Z</time>
      </trkpt>
      <trkpt lat="46.47949" lon="5.45613">
        <ele>382</ele>
        <time>2022-04-14T10:48:29Z</time>
      </trkpt>
      <trkpt lat="46.47957" lon="5.45617">
        <ele>381.6</ele>
        <time>2022-04-14T10:48:30Z</time>
      </trkpt>
      <trkpt lat="46.47965" lon="5.45619">
        <ele>380.8</ele>
        <time>2022-04-14T10:48:31Z</time>
      </trkpt>
      <trkpt lat="46.48005" lon="5.45635">
        <ele>379.6</ele>
        <time>2022-04-14T10:48:36Z</time>
      </trkpt>
      <trkpt lat="46.48022" lon="5.45642">
        <ele>379.4</ele>
        <time>2022-04-14T10:48:38Z</time>
      </trkpt>
      <trkpt lat="46.48046" lon="5.45655">
        <ele>378.6</ele>
        <time>2022-04-14T10:48:41Z</time>
      </trkpt>
      <trkpt lat="46.48069" lon="5.45671">
        <ele>378.2</ele>
        <time>2022-04-14T10:48:44Z</time>
      </trkpt>
      <trkpt lat="46.48115" lon="5.45716">
        <ele>378</ele>
        <time>2022-04-14T10:48:51Z</time>
      </trkpt>
      <trkpt lat="46.48142" lon="5.45749">
        <ele>378</ele>
        <time>2022-04-14T10:48:56Z</time>
      </trkpt>
      <trkpt lat="46.48176" lon="5.4579">
        <ele>378.4</ele>
        <time>2022-04-14T10:49:03Z</time>
      </trkpt>
      <trkpt lat="46.482" lon="5.45823">
        <ele>379.8</ele>
        <time>2022-04-14T10:49:09Z</time>
      </trkpt>
      <trkpt lat="46.48214" lon="5.45844">
        <ele>381</ele>
        <time>2022-04-14T10:49:13Z</time>
      </trkpt>
      <trkpt lat="46.48222" lon="5.45854">
        <ele>381.6</ele>
        <time>2022-04-14T10:49:15Z</time>
      </trkpt>
      <trkpt lat="46.48231" lon="5.45866">
        <ele>382.2</ele>
        <time>2022-04-14T10:49:17Z</time>
      </trkpt>
      <trkpt lat="46.48248" lon="5.45887">
        <ele>383.2</ele>
        <time>2022-04-14T10:49:21Z</time>
      </trkpt>
      <trkpt lat="46.48256" lon="5.45897">
        <ele>383.6</ele>
        <time>2022-04-14T10:49:23Z</time>
      </trkpt>
      <trkpt lat="46.48277" lon="5.45927">
        <ele>384.2</ele>
        <time>2022-04-14T10:49:29Z</time>
      </trkpt>
      <trkpt lat="46.4828" lon="5.45932">
        <ele>384.4</ele>
        <time>2022-04-14T10:49:30Z</time>
      </trkpt>
      <trkpt lat="46.48302" lon="5.45962">
        <ele>385.4</ele>
        <time>2022-04-14T10:49:36Z</time>
      </trkpt>
      <trkpt lat="46.4831" lon="5.45973">
        <ele>385.8</ele>
        <time>2022-04-14T10:49:38Z</time>
      </trkpt>
      <trkpt lat="46.48338" lon="5.46019">
        <ele>386.4</ele>
        <time>2022-04-14T10:49:46Z</time>
      </trkpt>
      <trkpt lat="46.48367" lon="5.46075">
        <ele>386.4</ele>
        <time>2022-04-14T10:49:55Z</time>
      </trkpt>
      <trkpt lat="46.48381" lon="5.461">
        <ele>386.4</ele>
        <time>2022-04-14T10:49:59Z</time>
      </trkpt>
      <trkpt lat="46.48391" lon="5.46121">
        <ele>386.4</ele>
        <time>2022-04-14T10:50:02Z</time>
      </trkpt>
      <trkpt lat="46.48394" lon="5.46128">
        <ele>386.6</ele>
        <time>2022-04-14T10:50:03Z</time>
      </trkpt>
      <trkpt lat="46.48417" lon="5.46179">
        <ele>386.4</ele>
        <time>2022-04-14T10:50:10Z</time>
      </trkpt>
      <trkpt lat="46.48429" lon="5.46231">
        <ele>385.8</ele>
        <time>2022-04-14T10:50:15Z</time>
      </trkpt>
      <trkpt lat="46.48435" lon="5.46253">
        <ele>385.6</ele>
        <time>2022-04-14T10:50:17Z</time>
      </trkpt>
      <trkpt lat="46.48439" lon="5.46262">
        <ele>385</ele>
        <time>2022-04-14T10:50:18Z</time>
      </trkpt>
      <trkpt lat="46.48441" lon="5.46272">
        <ele>384.8</ele>
        <time>2022-04-14T10:50:19Z</time>
      </trkpt>
      <trkpt lat="46.48438" lon="5.46292">
        <ele>384.2</ele>
        <time>2022-04-14T10:50:21Z</time>
      </trkpt>
      <trkpt lat="46.48434" lon="5.46302">
        <ele>383.2</ele>
        <time>2022-04-14T10:50:22Z</time>
      </trkpt>
      <trkpt lat="46.48424" lon="5.46323">
        <ele>382.2</ele>
        <time>2022-04-14T10:50:24Z</time>
      </trkpt>
      <trkpt lat="46.48409" lon="5.46355">
        <ele>381</ele>
        <time>2022-04-14T10:50:27Z</time>
      </trkpt>
      <trkpt lat="46.48388" lon="5.46413">
        <ele>380.4</ele>
        <time>2022-04-14T10:50:32Z</time>
      </trkpt>
      <trkpt lat="46.48386" lon="5.46462">
        <ele>380.2</ele>
        <time>2022-04-14T10:50:36Z</time>
      </trkpt>
      <trkpt lat="46.48385" lon="5.46486">
        <ele>380</ele>
        <time>2022-04-14T10:50:38Z</time>
      </trkpt>
      <trkpt lat="46.48383" lon="5.46498">
        <ele>380</ele>
        <time>2022-04-14T10:50:39Z</time>
      </trkpt>
      <trkpt lat="46.4838" lon="5.46508">
        <ele>380</ele>
        <time>2022-04-14T10:50:40Z</time>
      </trkpt>
      <trkpt lat="46.48358" lon="5.46563">
        <ele>380</ele>
        <time>2022-04-14T10:50:46Z</time>
      </trkpt>
      <trkpt lat="46.48347" lon="5.46584">
        <ele>380</ele>
        <time>2022-04-14T10:50:49Z</time>
      </trkpt>
      <trkpt lat="46.48344" lon="5.46589">
        <ele>380</ele>
        <time>2022-04-14T10:50:50Z</time>
      </trkpt>
      <trkpt lat="46.4834" lon="5.46606">
        <ele>380.2</ele>
        <time>2022-04-14T10:50:54Z</time>
      </trkpt>
      <trkpt lat="46.48349" lon="5.46613">
        <ele>380.2</ele>
        <time>2022-04-14T10:50:56Z</time>
      </trkpt>
      <trkpt lat="46.48354" lon="5.46616">
        <ele>380.2</ele>
        <time>2022-04-14T10:50:57Z</time>
      </trkpt>
      <trkpt lat="46.48385" lon="5.46633">
        <ele>380</ele>
        <time>2022-04-14T10:51:02Z</time>
      </trkpt>
      <trkpt lat="46.48434" lon="5.46662">
        <ele>380</ele>
        <time>2022-04-14T10:51:10Z</time>
      </trkpt>
      <trkpt lat="46.48484" lon="5.46692">
        <ele>380.8</ele>
        <time>2022-04-14T10:51:19Z</time>
      </trkpt>
      <trkpt lat="46.48504" lon="5.46704">
        <ele>381.2</ele>
        <time>2022-04-14T10:51:23Z</time>
      </trkpt>
      <trkpt lat="46.48513" lon="5.46709">
        <ele>381.4</ele>
        <time>2022-04-14T10:51:25Z</time>
      </trkpt>
      <trkpt lat="46.48551" lon="5.46732">
        <ele>382.2</ele>
        <time>2022-04-14T10:51:33Z</time>
      </trkpt>
      <trkpt lat="46.48566" lon="5.4674">
        <ele>382.6</ele>
        <time>2022-04-14T10:51:36Z</time>
      </trkpt>
      <trkpt lat="46.48607" lon="5.46765">
        <ele>383.4</ele>
        <time>2022-04-14T10:51:45Z</time>
      </trkpt>
      <trkpt lat="46.48617" lon="5.46771">
        <ele>383.4</ele>
        <time>2022-04-14T10:51:47Z</time>
      </trkpt>
      <trkpt lat="46.48662" lon="5.46797">
        <ele>384.4</ele>
        <time>2022-04-14T10:51:57Z</time>
      </trkpt>
      <trkpt lat="46.48667" lon="5.46799">
        <ele>384.4</ele>
        <time>2022-04-14T10:51:58Z</time>
      </trkpt>
      <trkpt lat="46.487" lon="5.46819">
        <ele>385.4</ele>
        <time>2022-04-14T10:52:06Z</time>
      </trkpt>
      <trkpt lat="46.48704" lon="5.46821">
        <ele>385.6</ele>
        <time>2022-04-14T10:52:07Z</time>
      </trkpt>
      <trkpt lat="46.48719" lon="5.46831">
        <ele>386.4</ele>
        <time>2022-04-14T10:52:11Z</time>
      </trkpt>
      <trkpt lat="46.48734" lon="5.46839">
        <ele>387.6</ele>
        <time>2022-04-14T10:52:15Z</time>
      </trkpt>
      <trkpt lat="46.48758" lon="5.46852">
        <ele>388.6</ele>
        <time>2022-04-14T10:52:21Z</time>
      </trkpt>
      <trkpt lat="46.48777" lon="5.46864">
        <ele>389.6</ele>
        <time>2022-04-14T10:52:26Z</time>
      </trkpt>
      <trkpt lat="46.48781" lon="5.46866">
        <ele>390</ele>
        <time>2022-04-14T10:52:27Z</time>
      </trkpt>
      <trkpt lat="46.488" lon="5.46876">
        <ele>391.2</ele>
        <time>2022-04-14T10:52:32Z</time>
      </trkpt>
      <trkpt lat="46.48811" lon="5.46884">
        <ele>391.6</ele>
        <time>2022-04-14T10:52:35Z</time>
      </trkpt>
      <trkpt lat="46.48819" lon="5.46888">
        <ele>392.2</ele>
        <time>2022-04-14T10:52:37Z</time>
      </trkpt>
      <trkpt lat="46.4884" lon="5.46899">
        <ele>393.4</ele>
        <time>2022-04-14T10:52:43Z</time>
      </trkpt>
      <trkpt lat="46.48858" lon="5.46909">
        <ele>394.4</ele>
        <time>2022-04-14T10:52:48Z</time>
      </trkpt>
      <trkpt lat="46.48869" lon="5.46912">
        <ele>394.8</ele>
        <time>2022-04-14T10:52:51Z</time>
      </trkpt>
      <trkpt lat="46.48883" lon="5.46917">
        <ele>395.6</ele>
        <time>2022-04-14T10:52:55Z</time>
      </trkpt>
      <trkpt lat="46.48898" lon="5.4692">
        <ele>396.4</ele>
        <time>2022-04-14T10:52:59Z</time>
      </trkpt>
      <trkpt lat="46.48902" lon="5.4692">
        <ele>396.6</ele>
        <time>2022-04-14T10:53:00Z</time>
      </trkpt>
      <trkpt lat="46.48922" lon="5.46924">
        <ele>397.6</ele>
        <time>2022-04-14T10:53:06Z</time>
      </trkpt>
      <trkpt lat="46.48925" lon="5.46923">
        <ele>397.8</ele>
        <time>2022-04-14T10:53:07Z</time>
      </trkpt>
      <trkpt lat="46.48936" lon="5.46923">
        <ele>398.8</ele>
        <time>2022-04-14T10:53:10Z</time>
      </trkpt>
      <trkpt lat="46.48953" lon="5.46917">
        <ele>400.2</ele>
        <time>2022-04-14T10:53:15Z</time>
      </trkpt>
      <trkpt lat="46.48983" lon="5.46901">
        <ele>401.4</ele>
        <time>2022-04-14T10:53:24Z</time>
      </trkpt>
      <trkpt lat="46.4899" lon="5.46895">
        <ele>402.2</ele>
        <time>2022-04-14T10:53:26Z</time>
      </trkpt>
      <trkpt lat="46.48995" lon="5.46891">
        <ele>402.6</ele>
        <time>2022-04-14T10:53:28Z</time>
      </trkpt>
      <trkpt lat="46.49012" lon="5.46877">
        <ele>403.6</ele>
        <time>2022-04-14T10:53:34Z</time>
      </trkpt>
      <trkpt lat="46.49024" lon="5.46869">
        <ele>404.6</ele>
        <time>2022-04-14T10:53:38Z</time>
      </trkpt>
      <trkpt lat="46.49027" lon="5.46866">
        <ele>405</ele>
        <time>2022-04-14T10:53:39Z</time>
      </trkpt>
      <trkpt lat="46.49042" lon="5.46854">
        <ele>405.8</ele>
        <time>2022-04-14T10:53:44Z</time>
      </trkpt>
      <trkpt lat="46.49047" lon="5.46849">
        <ele>406</ele>
        <time>2022-04-14T10:53:46Z</time>
      </trkpt>
      <trkpt lat="46.49059" lon="5.46838">
        <ele>406.6</ele>
        <time>2022-04-14T10:53:50Z</time>
      </trkpt>
      <trkpt lat="46.49075" lon="5.46823">
        <ele>407.6</ele>
        <time>2022-04-14T10:53:55Z</time>
      </trkpt>
      <trkpt lat="46.49078" lon="5.4682">
        <ele>407.8</ele>
        <time>2022-04-14T10:53:56Z</time>
      </trkpt>
      <trkpt lat="46.49096" lon="5.46802">
        <ele>408.6</ele>
        <time>2022-04-14T10:54:02Z</time>
      </trkpt>
      <trkpt lat="46.49101" lon="5.46795">
        <ele>408.8</ele>
        <time>2022-04-14T10:54:04Z</time>
      </trkpt>
      <trkpt lat="46.49116" lon="5.46783">
        <ele>409.8</ele>
        <time>2022-04-14T10:54:09Z</time>
      </trkpt>
      <trkpt lat="46.49138" lon="5.46767">
        <ele>410.8</ele>
        <time>2022-04-14T10:54:16Z</time>
      </trkpt>
      <trkpt lat="46.49144" lon="5.46763">
        <ele>411.4</ele>
        <time>2022-04-14T10:54:18Z</time>
      </trkpt>
      <trkpt lat="46.4915" lon="5.46759">
        <ele>411.8</ele>
        <time>2022-04-14T10:54:20Z</time>
      </trkpt>
      <trkpt lat="46.49169" lon="5.46752">
        <ele>413.2</ele>
        <time>2022-04-14T10:54:25Z</time>
      </trkpt>
      <trkpt lat="46.49192" lon="5.46749">
        <ele>414</ele>
        <time>2022-04-14T10:54:32Z</time>
      </trkpt>
      <trkpt lat="46.49202" lon="5.4675">
        <ele>414.4</ele>
        <time>2022-04-14T10:54:35Z</time>
      </trkpt>
      <trkpt lat="46.49214" lon="5.46752">
        <ele>415.2</ele>
        <time>2022-04-14T10:54:39Z</time>
      </trkpt>
      <trkpt lat="46.49217" lon="5.46752">
        <ele>415.4</ele>
        <time>2022-04-14T10:54:40Z</time>
      </trkpt>
      <trkpt lat="46.49236" lon="5.46761">
        <ele>416.6</ele>
        <time>2022-04-14T10:54:46Z</time>
      </trkpt>
      <trkpt lat="46.49257" lon="5.46772">
        <ele>417.6</ele>
        <time>2022-04-14T10:54:52Z</time>
      </trkpt>
      <trkpt lat="46.49267" lon="5.46778">
        <ele>418.2</ele>
        <time>2022-04-14T10:54:55Z</time>
      </trkpt>
      <trkpt lat="46.49274" lon="5.46782">
        <ele>418.6</ele>
        <time>2022-04-14T10:54:57Z</time>
      </trkpt>
      <trkpt lat="46.4929" lon="5.46792">
        <ele>419.8</ele>
        <time>2022-04-14T10:55:02Z</time>
      </trkpt>
      <trkpt lat="46.49303" lon="5.46799">
        <ele>420.4</ele>
        <time>2022-04-14T10:55:06Z</time>
      </trkpt>
      <trkpt lat="46.49313" lon="5.46805">
        <ele>421</ele>
        <time>2022-04-14T10:55:09Z</time>
      </trkpt>
      <trkpt lat="46.49334" lon="5.46817">
        <ele>422</ele>
        <time>2022-04-14T10:55:16Z</time>
      </trkpt>
      <trkpt lat="46.49348" lon="5.46825">
        <ele>423</ele>
        <time>2022-04-14T10:55:20Z</time>
      </trkpt>
      <trkpt lat="46.49361" lon="5.46832">
        <ele>423.8</ele>
        <time>2022-04-14T10:55:24Z</time>
      </trkpt>
      <trkpt lat="46.49365" lon="5.46834">
        <ele>424.2</ele>
        <time>2022-04-14T10:55:25Z</time>
      </trkpt>
      <trkpt lat="46.49389" lon="5.46845">
        <ele>425.2</ele>
        <time>2022-04-14T10:55:31Z</time>
      </trkpt>
      <trkpt lat="46.49397" lon="5.46849">
        <ele>425.2</ele>
        <time>2022-04-14T10:55:33Z</time>
      </trkpt>
      <trkpt lat="46.49436" lon="5.46869">
        <ele>426.2</ele>
        <time>2022-04-14T10:55:43Z</time>
      </trkpt>
      <trkpt lat="46.49443" lon="5.46872">
        <ele>426.2</ele>
        <time>2022-04-14T10:55:45Z</time>
      </trkpt>
      <trkpt lat="46.49473" lon="5.46888">
        <ele>427.6</ele>
        <time>2022-04-14T10:55:52Z</time>
      </trkpt>
      <trkpt lat="46.49483" lon="5.46893">
        <ele>428.4</ele>
        <time>2022-04-14T10:55:55Z</time>
      </trkpt>
      <trkpt lat="46.49495" lon="5.46899">
        <ele>428.6</ele>
        <time>2022-04-14T10:55:58Z</time>
      </trkpt>
      <trkpt lat="46.49533" lon="5.46918">
        <ele>429.8</ele>
        <time>2022-04-14T10:56:07Z</time>
      </trkpt>
      <trkpt lat="46.49537" lon="5.4692">
        <ele>430</ele>
        <time>2022-04-14T10:56:08Z</time>
      </trkpt>
      <trkpt lat="46.49581" lon="5.46938">
        <ele>430.6</ele>
        <time>2022-04-14T10:56:18Z</time>
      </trkpt>
      <trkpt lat="46.49586" lon="5.46939">
        <ele>430.8</ele>
        <time>2022-04-14T10:56:19Z</time>
      </trkpt>
      <trkpt lat="46.49624" lon="5.4695">
        <ele>432</ele>
        <time>2022-04-14T10:56:27Z</time>
      </trkpt>
      <trkpt lat="46.49629" lon="5.46951">
        <ele>432</ele>
        <time>2022-04-14T10:56:28Z</time>
      </trkpt>
      <trkpt lat="46.49684" lon="5.46964">
        <ele>432.6</ele>
        <time>2022-04-14T10:56:39Z</time>
      </trkpt>
      <trkpt lat="46.49689" lon="5.46965">
        <ele>432.8</ele>
        <time>2022-04-14T10:56:40Z</time>
      </trkpt>
      <trkpt lat="46.49724" lon="5.46971">
        <ele>433.4</ele>
        <time>2022-04-14T10:56:47Z</time>
      </trkpt>
      <trkpt lat="46.4974" lon="5.46974">
        <ele>433.8</ele>
        <time>2022-04-14T10:56:50Z</time>
      </trkpt>
      <trkpt lat="46.49776" lon="5.4698">
        <ele>434.2</ele>
        <time>2022-04-14T10:56:57Z</time>
      </trkpt>
      <trkpt lat="46.49806" lon="5.46985">
        <ele>435</ele>
        <time>2022-04-14T10:57:03Z</time>
      </trkpt>
      <trkpt lat="46.49837" lon="5.4699">
        <ele>435.6</ele>
        <time>2022-04-14T10:57:09Z</time>
      </trkpt>
      <trkpt lat="46.49859" lon="5.46995">
        <ele>436</ele>
        <time>2022-04-14T10:57:13Z</time>
      </trkpt>
      <trkpt lat="46.49885" lon="5.46999">
        <ele>436.4</ele>
        <time>2022-04-14T10:57:18Z</time>
      </trkpt>
      <trkpt lat="46.49932" lon="5.47009">
        <ele>437</ele>
        <time>2022-04-14T10:57:27Z</time>
      </trkpt>
      <trkpt lat="46.49937" lon="5.47011">
        <ele>437.2</ele>
        <time>2022-04-14T10:57:28Z</time>
      </trkpt>
      <trkpt lat="46.49986" lon="5.47025">
        <ele>437.8</ele>
        <time>2022-04-14T10:57:37Z</time>
      </trkpt>
      <trkpt lat="46.50015" lon="5.47029">
        <ele>438.2</ele>
        <time>2022-04-14T10:57:42Z</time>
      </trkpt>
      <trkpt lat="46.50027" lon="5.47029">
        <ele>438.2</ele>
        <time>2022-04-14T10:57:44Z</time>
      </trkpt>
      <trkpt lat="46.50076" lon="5.47021">
        <ele>438.8</ele>
        <time>2022-04-14T10:57:53Z</time>
      </trkpt>
      <trkpt lat="46.50091" lon="5.47017">
        <ele>439.2</ele>
        <time>2022-04-14T10:57:56Z</time>
      </trkpt>
      <trkpt lat="46.50124" lon="5.47005">
        <ele>439.8</ele>
        <time>2022-04-14T10:58:02Z</time>
      </trkpt>
      <trkpt lat="46.50135" lon="5.47001">
        <ele>439.8</ele>
        <time>2022-04-14T10:58:04Z</time>
      </trkpt>
      <trkpt lat="46.50175" lon="5.46987">
        <ele>440</ele>
        <time>2022-04-14T10:58:11Z</time>
      </trkpt>
      <trkpt lat="46.50203" lon="5.46979">
        <ele>440.2</ele>
        <time>2022-04-14T10:58:16Z</time>
      </trkpt>
      <trkpt lat="46.50226" lon="5.46975">
        <ele>440</ele>
        <time>2022-04-14T10:58:20Z</time>
      </trkpt>
      <trkpt lat="46.50277" lon="5.46971">
        <ele>440.4</ele>
        <time>2022-04-14T10:58:29Z</time>
      </trkpt>
      <trkpt lat="46.50295" lon="5.4697">
        <ele>440.6</ele>
        <time>2022-04-14T10:58:32Z</time>
      </trkpt>
      <trkpt lat="46.50313" lon="5.46969">
        <ele>440.6</ele>
        <time>2022-04-14T10:58:35Z</time>
      </trkpt>
      <trkpt lat="46.50354" lon="5.46968">
        <ele>439.2</ele>
        <time>2022-04-14T10:58:41Z</time>
      </trkpt>
      <trkpt lat="46.5036" lon="5.46968">
        <ele>439</ele>
        <time>2022-04-14T10:58:42Z</time>
      </trkpt>
      <trkpt lat="46.50402" lon="5.46969">
        <ele>438</ele>
        <time>2022-04-14T10:58:48Z</time>
      </trkpt>
      <trkpt lat="46.50449" lon="5.4698">
        <ele>437.6</ele>
        <time>2022-04-14T10:58:55Z</time>
      </trkpt>
      <trkpt lat="46.50477" lon="5.4699">
        <ele>436.4</ele>
        <time>2022-04-14T10:58:59Z</time>
      </trkpt>
      <trkpt lat="46.50504" lon="5.47">
        <ele>435.6</ele>
        <time>2022-04-14T10:59:03Z</time>
      </trkpt>
      <trkpt lat="46.5053" lon="5.47008">
        <ele>435.4</ele>
        <time>2022-04-14T10:59:07Z</time>
      </trkpt>
      <trkpt lat="46.50557" lon="5.47017">
        <ele>435.2</ele>
        <time>2022-04-14T10:59:11Z</time>
      </trkpt>
      <trkpt lat="46.50577" lon="5.47023">
        <ele>434.8</ele>
        <time>2022-04-14T10:59:14Z</time>
      </trkpt>
      <trkpt lat="46.50633" lon="5.47041">
        <ele>435.2</ele>
        <time>2022-04-14T10:59:23Z</time>
      </trkpt>
      <trkpt lat="46.50652" lon="5.47046">
        <ele>435.4</ele>
        <time>2022-04-14T10:59:26Z</time>
      </trkpt>
      <trkpt lat="46.50701" lon="5.4706">
        <ele>436.2</ele>
        <time>2022-04-14T10:59:34Z</time>
      </trkpt>
      <trkpt lat="46.50743" lon="5.47078">
        <ele>436</ele>
        <time>2022-04-14T10:59:41Z</time>
      </trkpt>
      <trkpt lat="46.50785" lon="5.47097">
        <ele>436.2</ele>
        <time>2022-04-14T10:59:48Z</time>
      </trkpt>
      <trkpt lat="46.50791" lon="5.47099">
        <ele>436.4</ele>
        <time>2022-04-14T10:59:49Z</time>
      </trkpt>
      <trkpt lat="46.50813" lon="5.47108">
        <ele>437.4</ele>
        <time>2022-04-14T10:59:53Z</time>
      </trkpt>
      <trkpt lat="46.50845" lon="5.47121">
        <ele>438.2</ele>
        <time>2022-04-14T10:59:59Z</time>
      </trkpt>
      <trkpt lat="46.50883" lon="5.47136">
        <ele>438.4</ele>
        <time>2022-04-14T11:00:06Z</time>
      </trkpt>
      <trkpt lat="46.50919" lon="5.47152">
        <ele>437.8</ele>
        <time>2022-04-14T11:00:12Z</time>
      </trkpt>
      <trkpt lat="46.50925" lon="5.47155">
        <ele>437.8</ele>
        <time>2022-04-14T11:00:13Z</time>
      </trkpt>
      <trkpt lat="46.50966" lon="5.47175">
        <ele>437.6</ele>
        <time>2022-04-14T11:00:20Z</time>
      </trkpt>
      <trkpt lat="46.51015" lon="5.47195">
        <ele>437.8</ele>
        <time>2022-04-14T11:00:28Z</time>
      </trkpt>
      <trkpt lat="46.51068" lon="5.47216">
        <ele>437.6</ele>
        <time>2022-04-14T11:00:36Z</time>
      </trkpt>
      <trkpt lat="46.51123" lon="5.47235">
        <ele>437.6</ele>
        <time>2022-04-14T11:00:45Z</time>
      </trkpt>
      <trkpt lat="46.51135" lon="5.47239">
        <ele>437.4</ele>
        <time>2022-04-14T11:00:47Z</time>
      </trkpt>
      <trkpt lat="46.51173" lon="5.47254">
        <ele>437.6</ele>
        <time>2022-04-14T11:00:53Z</time>
      </trkpt>
      <trkpt lat="46.51228" lon="5.47276">
        <ele>438</ele>
        <time>2022-04-14T11:01:02Z</time>
      </trkpt>
      <trkpt lat="46.51234" lon="5.47278">
        <ele>438</ele>
        <time>2022-04-14T11:01:03Z</time>
      </trkpt>
      <trkpt lat="46.5129" lon="5.47302">
        <ele>438</ele>
        <time>2022-04-14T11:01:12Z</time>
      </trkpt>
      <trkpt lat="46.51346" lon="5.47324">
        <ele>438.2</ele>
        <time>2022-04-14T11:01:21Z</time>
      </trkpt>
      <trkpt lat="46.51371" lon="5.47335">
        <ele>438</ele>
        <time>2022-04-14T11:01:25Z</time>
      </trkpt>
      <trkpt lat="46.51415" lon="5.47352">
        <ele>437.2</ele>
        <time>2022-04-14T11:01:32Z</time>
      </trkpt>
      <trkpt lat="46.51433" lon="5.47358">
        <ele>437.2</ele>
        <time>2022-04-14T11:01:35Z</time>
      </trkpt>
      <trkpt lat="46.51478" lon="5.47377">
        <ele>438</ele>
        <time>2022-04-14T11:01:43Z</time>
      </trkpt>
      <trkpt lat="46.51533" lon="5.474">
        <ele>438</ele>
        <time>2022-04-14T11:01:52Z</time>
      </trkpt>
      <trkpt lat="46.51545" lon="5.47405">
        <ele>438.2</ele>
        <time>2022-04-14T11:01:54Z</time>
      </trkpt>
      <trkpt lat="46.51597" lon="5.47427">
        <ele>438.6</ele>
        <time>2022-04-14T11:02:02Z</time>
      </trkpt>
      <trkpt lat="46.51603" lon="5.47429">
        <ele>438.8</ele>
        <time>2022-04-14T11:02:03Z</time>
      </trkpt>
      <trkpt lat="46.51641" lon="5.47445">
        <ele>439</ele>
        <time>2022-04-14T11:02:09Z</time>
      </trkpt>
      <trkpt lat="46.51678" lon="5.4746">
        <ele>439.2</ele>
        <time>2022-04-14T11:02:15Z</time>
      </trkpt>
      <trkpt lat="46.51733" lon="5.47483">
        <ele>439.4</ele>
        <time>2022-04-14T11:02:24Z</time>
      </trkpt>
      <trkpt lat="46.51744" lon="5.47487">
        <ele>439.4</ele>
        <time>2022-04-14T11:02:26Z</time>
      </trkpt>
      <trkpt lat="46.51798" lon="5.47508">
        <ele>440</ele>
        <time>2022-04-14T11:02:35Z</time>
      </trkpt>
      <trkpt lat="46.51804" lon="5.47511">
        <ele>440</ele>
        <time>2022-04-14T11:02:36Z</time>
      </trkpt>
      <trkpt lat="46.51859" lon="5.47533">
        <ele>440.2</ele>
        <time>2022-04-14T11:02:45Z</time>
      </trkpt>
      <trkpt lat="46.51865" lon="5.47536">
        <ele>440.2</ele>
        <time>2022-04-14T11:02:46Z</time>
      </trkpt>
      <trkpt lat="46.51919" lon="5.47558">
        <ele>440.4</ele>
        <time>2022-04-14T11:02:55Z</time>
      </trkpt>
      <trkpt lat="46.51923" lon="5.47559">
        <ele>440.4</ele>
        <time>2022-04-14T11:02:56Z</time>
      </trkpt>
      <trkpt lat="46.51971" lon="5.47578">
        <ele>440.6</ele>
        <time>2022-04-14T11:03:04Z</time>
      </trkpt>
      <trkpt lat="46.52025" lon="5.476">
        <ele>440.6</ele>
        <time>2022-04-14T11:03:13Z</time>
      </trkpt>
      <trkpt lat="46.52037" lon="5.47605">
        <ele>440.8</ele>
        <time>2022-04-14T11:03:15Z</time>
      </trkpt>
      <trkpt lat="46.5205" lon="5.4761">
        <ele>441</ele>
        <time>2022-04-14T11:03:17Z</time>
      </trkpt>
      <trkpt lat="46.52104" lon="5.47631">
        <ele>441.2</ele>
        <time>2022-04-14T11:03:26Z</time>
      </trkpt>
      <trkpt lat="46.52116" lon="5.47636">
        <ele>441.4</ele>
        <time>2022-04-14T11:03:28Z</time>
      </trkpt>
      <trkpt lat="46.52166" lon="5.47662">
        <ele>441.6</ele>
        <time>2022-04-14T11:03:36Z</time>
      </trkpt>
      <trkpt lat="46.52221" lon="5.4769">
        <ele>441.6</ele>
        <time>2022-04-14T11:03:45Z</time>
      </trkpt>
      <trkpt lat="46.52234" lon="5.47696">
        <ele>441.6</ele>
        <time>2022-04-14T11:03:47Z</time>
      </trkpt>
      <trkpt lat="46.52291" lon="5.47723">
        <ele>441.2</ele>
        <time>2022-04-14T11:03:56Z</time>
      </trkpt>
      <trkpt lat="46.52346" lon="5.47748">
        <ele>441.6</ele>
        <time>2022-04-14T11:04:05Z</time>
      </trkpt>
      <trkpt lat="46.52357" lon="5.47754">
        <ele>441.8</ele>
        <time>2022-04-14T11:04:07Z</time>
      </trkpt>
      <trkpt lat="46.52364" lon="5.47757">
        <ele>441.8</ele>
        <time>2022-04-14T11:04:08Z</time>
      </trkpt>
      <trkpt lat="46.5241" lon="5.47776">
        <ele>442</ele>
        <time>2022-04-14T11:04:16Z</time>
      </trkpt>
      <trkpt lat="46.52422" lon="5.47781">
        <ele>442</ele>
        <time>2022-04-14T11:04:18Z</time>
      </trkpt>
      <trkpt lat="46.52458" lon="5.47795">
        <ele>442.2</ele>
        <time>2022-04-14T11:04:24Z</time>
      </trkpt>
      <trkpt lat="46.52504" lon="5.47812">
        <ele>442.8</ele>
        <time>2022-04-14T11:04:32Z</time>
      </trkpt>
      <trkpt lat="46.52521" lon="5.47818">
        <ele>443.2</ele>
        <time>2022-04-14T11:04:35Z</time>
      </trkpt>
      <trkpt lat="46.52565" lon="5.47833">
        <ele>443.8</ele>
        <time>2022-04-14T11:04:43Z</time>
      </trkpt>
      <trkpt lat="46.5257" lon="5.47835">
        <ele>444</ele>
        <time>2022-04-14T11:04:44Z</time>
      </trkpt>
      <trkpt lat="46.52613" lon="5.47851">
        <ele>444.8</ele>
        <time>2022-04-14T11:04:52Z</time>
      </trkpt>
      <trkpt lat="46.52633" lon="5.47858">
        <ele>445</ele>
        <time>2022-04-14T11:04:56Z</time>
      </trkpt>
      <trkpt lat="46.52669" lon="5.47872">
        <ele>445.8</ele>
        <time>2022-04-14T11:05:03Z</time>
      </trkpt>
      <trkpt lat="46.52695" lon="5.47881">
        <ele>446.2</ele>
        <time>2022-04-14T11:05:08Z</time>
      </trkpt>
      <trkpt lat="46.52721" lon="5.4789">
        <ele>446.2</ele>
        <time>2022-04-14T11:05:13Z</time>
      </trkpt>
      <trkpt lat="46.5276" lon="5.47903">
        <ele>446.2</ele>
        <time>2022-04-14T11:05:21Z</time>
      </trkpt>
      <trkpt lat="46.52803" lon="5.47918">
        <ele>446.8</ele>
        <time>2022-04-14T11:05:29Z</time>
      </trkpt>
      <trkpt lat="46.52815" lon="5.47922">
        <ele>447.2</ele>
        <time>2022-04-14T11:05:31Z</time>
      </trkpt>
      <trkpt lat="46.52847" lon="5.47932">
        <ele>447.2</ele>
        <time>2022-04-14T11:05:37Z</time>
      </trkpt>
      <trkpt lat="46.52887" lon="5.4795">
        <ele>447.2</ele>
        <time>2022-04-14T11:05:44Z</time>
      </trkpt>
      <trkpt lat="46.52913" lon="5.47965">
        <ele>447.4</ele>
        <time>2022-04-14T11:05:49Z</time>
      </trkpt>
      <trkpt lat="46.52919" lon="5.47969">
        <ele>447.4</ele>
        <time>2022-04-14T11:05:50Z</time>
      </trkpt>
      <trkpt lat="46.52958" lon="5.47991">
        <ele>448</ele>
        <time>2022-04-14T11:05:57Z</time>
      </trkpt>
      <trkpt lat="46.52993" lon="5.48007">
        <ele>447.4</ele>
        <time>2022-04-14T11:06:03Z</time>
      </trkpt>
      <trkpt lat="46.53" lon="5.48008">
        <ele>447.6</ele>
        <time>2022-04-14T11:06:04Z</time>
      </trkpt>
      <trkpt lat="46.53039" lon="5.48013">
        <ele>446.8</ele>
        <time>2022-04-14T11:06:10Z</time>
      </trkpt>
      <trkpt lat="46.53068" lon="5.4801">
        <ele>445.8</ele>
        <time>2022-04-14T11:06:14Z</time>
      </trkpt>
      <trkpt lat="46.53087" lon="5.48008">
        <ele>445.2</ele>
        <time>2022-04-14T11:06:17Z</time>
      </trkpt>
      <trkpt lat="46.53138" lon="5.48">
        <ele>445.2</ele>
        <time>2022-04-14T11:06:25Z</time>
      </trkpt>
      <trkpt lat="46.53182" lon="5.47993">
        <ele>446.2</ele>
        <time>2022-04-14T11:06:33Z</time>
      </trkpt>
      <trkpt lat="46.53219" lon="5.47986">
        <ele>447</ele>
        <time>2022-04-14T11:06:40Z</time>
      </trkpt>
      <trkpt lat="46.53225" lon="5.47984">
        <ele>447</ele>
        <time>2022-04-14T11:06:41Z</time>
      </trkpt>
      <trkpt lat="46.53253" lon="5.47974">
        <ele>448</ele>
        <time>2022-04-14T11:06:47Z</time>
      </trkpt>
      <trkpt lat="46.53268" lon="5.47967">
        <ele>448.4</ele>
        <time>2022-04-14T11:06:50Z</time>
      </trkpt>
      <trkpt lat="46.5332" lon="5.47943">
        <ele>448</ele>
        <time>2022-04-14T11:07:00Z</time>
      </trkpt>
      <trkpt lat="46.53326" lon="5.4794">
        <ele>448</ele>
        <time>2022-04-14T11:07:01Z</time>
      </trkpt>
      <trkpt lat="46.53376" lon="5.47916">
        <ele>449.2</ele>
        <time>2022-04-14T11:07:11Z</time>
      </trkpt>
      <trkpt lat="46.53381" lon="5.47913">
        <ele>449.4</ele>
        <time>2022-04-14T11:07:12Z</time>
      </trkpt>
      <trkpt lat="46.53427" lon="5.4789">
        <ele>449.8</ele>
        <time>2022-04-14T11:07:22Z</time>
      </trkpt>
      <trkpt lat="46.53432" lon="5.47888">
        <ele>449.8</ele>
        <time>2022-04-14T11:07:23Z</time>
      </trkpt>
      <trkpt lat="46.53446" lon="5.47881">
        <ele>450.2</ele>
        <time>2022-04-14T11:07:26Z</time>
      </trkpt>
      <trkpt lat="46.53468" lon="5.4787">
        <ele>450.8</ele>
        <time>2022-04-14T11:07:31Z</time>
      </trkpt>
      <trkpt lat="46.53478" lon="5.47866">
        <ele>451.4</ele>
        <time>2022-04-14T11:07:33Z</time>
      </trkpt>
      <trkpt lat="46.53508" lon="5.47851">
        <ele>451.8</ele>
        <time>2022-04-14T11:07:40Z</time>
      </trkpt>
      <trkpt lat="46.5353" lon="5.47841">
        <ele>452.4</ele>
        <time>2022-04-14T11:07:45Z</time>
      </trkpt>
      <trkpt lat="46.53536" lon="5.47839">
        <ele>452.6</ele>
        <time>2022-04-14T11:07:46Z</time>
      </trkpt>
      <trkpt lat="46.5354" lon="5.47838">
        <ele>452.8</ele>
        <time>2022-04-14T11:07:47Z</time>
      </trkpt>
      <trkpt lat="46.53556" lon="5.4783">
        <ele>453.4</ele>
        <time>2022-04-14T11:07:51Z</time>
      </trkpt>
      <trkpt lat="46.53573" lon="5.47822">
        <ele>454</ele>
        <time>2022-04-14T11:07:55Z</time>
      </trkpt>
      <trkpt lat="46.53595" lon="5.47812">
        <ele>454.6</ele>
        <time>2022-04-14T11:08:01Z</time>
      </trkpt>
      <trkpt lat="46.53607" lon="5.47809">
        <ele>455.2</ele>
        <time>2022-04-14T11:08:04Z</time>
      </trkpt>
      <trkpt lat="46.53615" lon="5.47806">
        <ele>456</ele>
        <time>2022-04-14T11:08:06Z</time>
      </trkpt>
      <trkpt lat="46.53636" lon="5.47801">
        <ele>457.4</ele>
        <time>2022-04-14T11:08:11Z</time>
      </trkpt>
      <trkpt lat="46.53648" lon="5.47799">
        <ele>457.6</ele>
        <time>2022-04-14T11:08:14Z</time>
      </trkpt>
      <trkpt lat="46.53655" lon="5.47798">
        <ele>458</ele>
        <time>2022-04-14T11:08:16Z</time>
      </trkpt>
      <trkpt lat="46.53672" lon="5.47798">
        <ele>458.4</ele>
        <time>2022-04-14T11:08:20Z</time>
      </trkpt>
      <trkpt lat="46.53685" lon="5.47797">
        <ele>458.6</ele>
        <time>2022-04-14T11:08:23Z</time>
      </trkpt>
      <trkpt lat="46.5371" lon="5.47797">
        <ele>459.4</ele>
        <time>2022-04-14T11:08:30Z</time>
      </trkpt>
      <trkpt lat="46.53718" lon="5.47796">
        <ele>459.6</ele>
        <time>2022-04-14T11:08:32Z</time>
      </trkpt>
      <trkpt lat="46.53742" lon="5.47796">
        <ele>460.4</ele>
        <time>2022-04-14T11:08:38Z</time>
      </trkpt>
      <trkpt lat="46.53757" lon="5.47797">
        <ele>461.2</ele>
        <time>2022-04-14T11:08:42Z</time>
      </trkpt>
      <trkpt lat="46.53761" lon="5.47797">
        <ele>461.6</ele>
        <time>2022-04-14T11:08:43Z</time>
      </trkpt>
      <trkpt lat="46.53782" lon="5.47798">
        <ele>462.6</ele>
        <time>2022-04-14T11:08:48Z</time>
      </trkpt>
      <trkpt lat="46.53792" lon="5.478">
        <ele>462.8</ele>
        <time>2022-04-14T11:08:50Z</time>
      </trkpt>
      <trkpt lat="46.53801" lon="5.47802">
        <ele>462.8</ele>
        <time>2022-04-14T11:08:52Z</time>
      </trkpt>
      <trkpt lat="46.53841" lon="5.47817">
        <ele>463</ele>
        <time>2022-04-14T11:09:01Z</time>
      </trkpt>
      <trkpt lat="46.53882" lon="5.47835">
        <ele>463.6</ele>
        <time>2022-04-14T11:09:10Z</time>
      </trkpt>
      <trkpt lat="46.53914" lon="5.47851">
        <ele>464</ele>
        <time>2022-04-14T11:09:17Z</time>
      </trkpt>
      <trkpt lat="46.53923" lon="5.47854">
        <ele>464.2</ele>
        <time>2022-04-14T11:09:19Z</time>
      </trkpt>
      <trkpt lat="46.53957" lon="5.4787">
        <ele>464.6</ele>
        <time>2022-04-14T11:09:27Z</time>
      </trkpt>
      <trkpt lat="46.5397" lon="5.47876">
        <ele>464.8</ele>
        <time>2022-04-14T11:09:30Z</time>
      </trkpt>
      <trkpt lat="46.54007" lon="5.4789">
        <ele>465</ele>
        <time>2022-04-14T11:09:39Z</time>
      </trkpt>
      <trkpt lat="46.54025" lon="5.47897">
        <ele>465.4</ele>
        <time>2022-04-14T11:09:43Z</time>
      </trkpt>
      <trkpt lat="46.54032" lon="5.47901">
        <ele>465.8</ele>
        <time>2022-04-14T11:09:45Z</time>
      </trkpt>
      <trkpt lat="46.54036" lon="5.47903">
        <ele>466.2</ele>
        <time>2022-04-14T11:09:46Z</time>
      </trkpt>
      <trkpt lat="46.54053" lon="5.4791">
        <ele>467</ele>
        <time>2022-04-14T11:09:50Z</time>
      </trkpt>
      <trkpt lat="46.54061" lon="5.47914">
        <ele>467.4</ele>
        <time>2022-04-14T11:09:52Z</time>
      </trkpt>
      <trkpt lat="46.54065" lon="5.47917">
        <ele>467.4</ele>
        <time>2022-04-14T11:09:53Z</time>
      </trkpt>
      <trkpt lat="46.54074" lon="5.47922">
        <ele>468.4</ele>
        <time>2022-04-14T11:09:55Z</time>
      </trkpt>
      <trkpt lat="46.54091" lon="5.47932">
        <ele>469.2</ele>
        <time>2022-04-14T11:09:59Z</time>
      </trkpt>
      <trkpt lat="46.54095" lon="5.47934">
        <ele>469.4</ele>
        <time>2022-04-14T11:10:00Z</time>
      </trkpt>
      <trkpt lat="46.541" lon="5.47938">
        <ele>469.6</ele>
        <time>2022-04-14T11:10:01Z</time>
      </trkpt>
      <trkpt lat="46.54127" lon="5.4796">
        <ele>469.8</ele>
        <time>2022-04-14T11:10:08Z</time>
      </trkpt>
      <trkpt lat="46.54135" lon="5.47968">
        <ele>470</ele>
        <time>2022-04-14T11:10:10Z</time>
      </trkpt>
      <trkpt lat="46.54149" lon="5.47985">
        <ele>470.4</ele>
        <time>2022-04-14T11:10:14Z</time>
      </trkpt>
      <trkpt lat="46.54168" lon="5.48011">
        <ele>471.4</ele>
        <time>2022-04-14T11:10:20Z</time>
      </trkpt>
      <trkpt lat="46.54171" lon="5.48015">
        <ele>471.6</ele>
        <time>2022-04-14T11:10:21Z</time>
      </trkpt>
      <trkpt lat="46.54198" lon="5.48053">
        <ele>472.4</ele>
        <time>2022-04-14T11:10:29Z</time>
      </trkpt>
      <trkpt lat="46.54204" lon="5.48062">
        <ele>472.8</ele>
        <time>2022-04-14T11:10:31Z</time>
      </trkpt>
      <trkpt lat="46.54228" lon="5.48094">
        <ele>473.6</ele>
        <time>2022-04-14T11:10:38Z</time>
      </trkpt>
      <trkpt lat="46.54239" lon="5.48106">
        <ele>473.6</ele>
        <time>2022-04-14T11:10:41Z</time>
      </trkpt>
      <trkpt lat="46.54263" lon="5.48126">
        <ele>474.4</ele>
        <time>2022-04-14T11:10:47Z</time>
      </trkpt>
      <trkpt lat="46.54275" lon="5.48136">
        <ele>475</ele>
        <time>2022-04-14T11:10:50Z</time>
      </trkpt>
      <trkpt lat="46.54301" lon="5.48152">
        <ele>476</ele>
        <time>2022-04-14T11:10:56Z</time>
      </trkpt>
      <trkpt lat="46.54305" lon="5.48154">
        <ele>476.2</ele>
        <time>2022-04-14T11:10:57Z</time>
      </trkpt>
      <trkpt lat="46.54325" lon="5.48165">
        <ele>476.6</ele>
        <time>2022-04-14T11:11:02Z</time>
      </trkpt>
      <trkpt lat="46.54338" lon="5.48172">
        <ele>476.8</ele>
        <time>2022-04-14T11:11:05Z</time>
      </trkpt>
      <trkpt lat="46.54351" lon="5.48178">
        <ele>477</ele>
        <time>2022-04-14T11:11:08Z</time>
      </trkpt>
      <trkpt lat="46.54374" lon="5.4819">
        <ele>478</ele>
        <time>2022-04-14T11:11:13Z</time>
      </trkpt>
      <trkpt lat="46.54378" lon="5.48192">
        <ele>478.2</ele>
        <time>2022-04-14T11:11:14Z</time>
      </trkpt>
      <trkpt lat="46.54408" lon="5.48209">
        <ele>478.8</ele>
        <time>2022-04-14T11:11:21Z</time>
      </trkpt>
      <trkpt lat="46.54412" lon="5.48212">
        <ele>479</ele>
        <time>2022-04-14T11:11:22Z</time>
      </trkpt>
      <trkpt lat="46.5442" lon="5.48219">
        <ele>479</ele>
        <time>2022-04-14T11:11:24Z</time>
      </trkpt>
      <trkpt lat="46.54444" lon="5.48235">
        <ele>479.2</ele>
        <time>2022-04-14T11:11:29Z</time>
      </trkpt>
      <trkpt lat="46.54474" lon="5.48256">
        <ele>479.8</ele>
        <time>2022-04-14T11:11:35Z</time>
      </trkpt>
      <trkpt lat="46.54487" lon="5.48266">
        <ele>480.2</ele>
        <time>2022-04-14T11:11:38Z</time>
      </trkpt>
      <trkpt lat="46.54517" lon="5.48291">
        <ele>481.2</ele>
        <time>2022-04-14T11:11:45Z</time>
      </trkpt>
      <trkpt lat="46.54521" lon="5.48295">
        <ele>481.4</ele>
        <time>2022-04-14T11:11:46Z</time>
      </trkpt>
      <trkpt lat="46.54537" lon="5.48307">
        <ele>482.2</ele>
        <time>2022-04-14T11:11:50Z</time>
      </trkpt>
      <trkpt lat="46.54542" lon="5.48312">
        <ele>482.6</ele>
        <time>2022-04-14T11:11:51Z</time>
      </trkpt>
      <trkpt lat="46.54546" lon="5.48315">
        <ele>482.8</ele>
        <time>2022-04-14T11:11:52Z</time>
      </trkpt>
      <trkpt lat="46.54554" lon="5.4832">
        <ele>483.2</ele>
        <time>2022-04-14T11:11:54Z</time>
      </trkpt>
      <trkpt lat="46.54561" lon="5.48327">
        <ele>483.6</ele>
        <time>2022-04-14T11:11:56Z</time>
      </trkpt>
      <trkpt lat="46.54579" lon="5.48342">
        <ele>485</ele>
        <time>2022-04-14T11:12:01Z</time>
      </trkpt>
      <trkpt lat="46.54589" lon="5.48347">
        <ele>485.6</ele>
        <time>2022-04-14T11:12:03Z</time>
      </trkpt>
      <trkpt lat="46.54598" lon="5.48351">
        <ele>485.8</ele>
        <time>2022-04-14T11:12:05Z</time>
      </trkpt>
      <trkpt lat="46.54609" lon="5.48357">
        <ele>486.2</ele>
        <time>2022-04-14T11:12:08Z</time>
      </trkpt>
      <trkpt lat="46.54639" lon="5.48371">
        <ele>487</ele>
        <time>2022-04-14T11:12:15Z</time>
      </trkpt>
      <trkpt lat="46.54653" lon="5.48378">
        <ele>487.2</ele>
        <time>2022-04-14T11:12:18Z</time>
      </trkpt>
      <trkpt lat="46.54674" lon="5.48388">
        <ele>488</ele>
        <time>2022-04-14T11:12:23Z</time>
      </trkpt>
      <trkpt lat="46.54683" lon="5.48391">
        <ele>488.4</ele>
        <time>2022-04-14T11:12:25Z</time>
      </trkpt>
      <trkpt lat="46.54697" lon="5.48398">
        <ele>488.4</ele>
        <time>2022-04-14T11:12:28Z</time>
      </trkpt>
      <trkpt lat="46.54701" lon="5.484">
        <ele>488.6</ele>
        <time>2022-04-14T11:12:29Z</time>
      </trkpt>
      <trkpt lat="46.5472" lon="5.48407">
        <ele>489</ele>
        <time>2022-04-14T11:12:33Z</time>
      </trkpt>
      <trkpt lat="46.54747" lon="5.4842">
        <ele>490.2</ele>
        <time>2022-04-14T11:12:39Z</time>
      </trkpt>
      <trkpt lat="46.54752" lon="5.48422">
        <ele>490.2</ele>
        <time>2022-04-14T11:12:40Z</time>
      </trkpt>
      <trkpt lat="46.54773" lon="5.48433">
        <ele>491.2</ele>
        <time>2022-04-14T11:12:45Z</time>
      </trkpt>
      <trkpt lat="46.54783" lon="5.48437">
        <ele>491.4</ele>
        <time>2022-04-14T11:12:47Z</time>
      </trkpt>
      <trkpt lat="46.54807" lon="5.48448">
        <ele>492</ele>
        <time>2022-04-14T11:12:52Z</time>
      </trkpt>
      <trkpt lat="46.54815" lon="5.48452">
        <ele>492.4</ele>
        <time>2022-04-14T11:12:54Z</time>
      </trkpt>
      <trkpt lat="46.5482" lon="5.48454">
        <ele>492.6</ele>
        <time>2022-04-14T11:12:55Z</time>
      </trkpt>
      <trkpt lat="46.54848" lon="5.48469">
        <ele>493.4</ele>
        <time>2022-04-14T11:13:02Z</time>
      </trkpt>
      <trkpt lat="46.54856" lon="5.48474">
        <ele>493.6</ele>
        <time>2022-04-14T11:13:04Z</time>
      </trkpt>
      <trkpt lat="46.54879" lon="5.48491">
        <ele>494.4</ele>
        <time>2022-04-14T11:13:10Z</time>
      </trkpt>
      <trkpt lat="46.54891" lon="5.485">
        <ele>497.8</ele>
        <time>2022-04-14T11:13:13Z</time>
      </trkpt>
      <trkpt lat="46.54915" lon="5.48518">
        <ele>495.4</ele>
        <time>2022-04-14T11:13:19Z</time>
      </trkpt>
      <trkpt lat="46.54918" lon="5.48521">
        <ele>495.8</ele>
        <time>2022-04-14T11:13:20Z</time>
      </trkpt>
      <trkpt lat="46.54926" lon="5.48529">
        <ele>496.2</ele>
        <time>2022-04-14T11:13:22Z</time>
      </trkpt>
      <trkpt lat="46.54933" lon="5.48538">
        <ele>496.6</ele>
        <time>2022-04-14T11:13:24Z</time>
      </trkpt>
      <trkpt lat="46.54941" lon="5.48546">
        <ele>496.8</ele>
        <time>2022-04-14T11:13:26Z</time>
      </trkpt>
      <trkpt lat="46.54946" lon="5.48551">
        <ele>497</ele>
        <time>2022-04-14T11:13:27Z</time>
      </trkpt>
      <trkpt lat="46.5496" lon="5.4857">
        <ele>498</ele>
        <time>2022-04-14T11:13:31Z</time>
      </trkpt>
      <trkpt lat="46.54964" lon="5.48575">
        <ele>498.2</ele>
        <time>2022-04-14T11:13:32Z</time>
      </trkpt>
      <trkpt lat="46.54975" lon="5.48588">
        <ele>498.6</ele>
        <time>2022-04-14T11:13:35Z</time>
      </trkpt>
      <trkpt lat="46.54989" lon="5.48606">
        <ele>499</ele>
        <time>2022-04-14T11:13:39Z</time>
      </trkpt>
      <trkpt lat="46.54992" lon="5.4861">
        <ele>499</ele>
        <time>2022-04-14T11:13:40Z</time>
      </trkpt>
      <trkpt lat="46.55025" lon="5.48642">
        <ele>499.2</ele>
        <time>2022-04-14T11:13:47Z</time>
      </trkpt>
      <trkpt lat="46.5506" lon="5.48666">
        <ele>499</ele>
        <time>2022-04-14T11:13:53Z</time>
      </trkpt>
      <trkpt lat="46.55089" lon="5.48688">
        <ele>498.8</ele>
        <time>2022-04-14T11:13:58Z</time>
      </trkpt>
      <trkpt lat="46.55094" lon="5.48692">
        <ele>498.8</ele>
        <time>2022-04-14T11:13:59Z</time>
      </trkpt>
      <trkpt lat="46.55115" lon="5.48713">
        <ele>498.8</ele>
        <time>2022-04-14T11:14:03Z</time>
      </trkpt>
      <trkpt lat="46.55124" lon="5.48725">
        <ele>498.6</ele>
        <time>2022-04-14T11:14:05Z</time>
      </trkpt>
      <trkpt lat="46.55131" lon="5.48737">
        <ele>498.4</ele>
        <time>2022-04-14T11:14:07Z</time>
      </trkpt>
      <trkpt lat="46.55143" lon="5.48765">
        <ele>498.4</ele>
        <time>2022-04-14T11:14:11Z</time>
      </trkpt>
      <trkpt lat="46.55153" lon="5.48811">
        <ele>498.2</ele>
        <time>2022-04-14T11:14:17Z</time>
      </trkpt>
      <trkpt lat="46.55156" lon="5.4886">
        <ele>498.6</ele>
        <time>2022-04-14T11:14:23Z</time>
      </trkpt>
      <trkpt lat="46.55153" lon="5.48898">
        <ele>498.2</ele>
        <time>2022-04-14T11:14:27Z</time>
      </trkpt>
      <trkpt lat="46.55153" lon="5.48909">
        <ele>498.2</ele>
        <time>2022-04-14T11:14:28Z</time>
      </trkpt>
      <trkpt lat="46.55151" lon="5.48943">
        <ele>497.6</ele>
        <time>2022-04-14T11:14:31Z</time>
      </trkpt>
      <trkpt lat="46.55151" lon="5.48981">
        <ele>496.2</ele>
        <time>2022-04-14T11:14:34Z</time>
      </trkpt>
      <trkpt lat="46.55151" lon="5.49008">
        <ele>495.2</ele>
        <time>2022-04-14T11:14:36Z</time>
      </trkpt>
      <trkpt lat="46.5515" lon="5.49034">
        <ele>494.2</ele>
        <time>2022-04-14T11:14:38Z</time>
      </trkpt>
      <trkpt lat="46.5515" lon="5.49047">
        <ele>493.6</ele>
        <time>2022-04-14T11:14:39Z</time>
      </trkpt>
      <trkpt lat="46.55149" lon="5.49071">
        <ele>492.6</ele>
        <time>2022-04-14T11:14:41Z</time>
      </trkpt>
      <trkpt lat="46.55149" lon="5.49115">
        <ele>492</ele>
        <time>2022-04-14T11:14:45Z</time>
      </trkpt>
      <trkpt lat="46.5515" lon="5.49158">
        <ele>491.8</ele>
        <time>2022-04-14T11:14:49Z</time>
      </trkpt>
      <trkpt lat="46.55152" lon="5.4917">
        <ele>491.8</ele>
        <time>2022-04-14T11:14:50Z</time>
      </trkpt>
      <trkpt lat="46.55155" lon="5.49178">
        <ele>491.8</ele>
        <time>2022-04-14T11:14:51Z</time>
      </trkpt>
      <trkpt lat="46.55165" lon="5.49198">
        <ele>491.8</ele>
        <time>2022-04-14T11:14:53Z</time>
      </trkpt>
      <trkpt lat="46.55182" lon="5.49219">
        <ele>491.6</ele>
        <time>2022-04-14T11:14:56Z</time>
      </trkpt>
      <trkpt lat="46.55201" lon="5.49243">
        <ele>491.6</ele>
        <time>2022-04-14T11:14:59Z</time>
      </trkpt>
      <trkpt lat="46.5524" lon="5.49289">
        <ele>491</ele>
        <time>2022-04-14T11:15:05Z</time>
      </trkpt>
      <trkpt lat="46.55247" lon="5.49297">
        <ele>490.6</ele>
        <time>2022-04-14T11:15:06Z</time>
      </trkpt>
      <trkpt lat="46.55269" lon="5.49324">
        <ele>489.6</ele>
        <time>2022-04-14T11:15:09Z</time>
      </trkpt>
      <trkpt lat="46.55282" lon="5.49334">
        <ele>489</ele>
        <time>2022-04-14T11:15:11Z</time>
      </trkpt>
      <trkpt lat="46.55311" lon="5.49341">
        <ele>488.2</ele>
        <time>2022-04-14T11:15:15Z</time>
      </trkpt>
      <trkpt lat="46.55318" lon="5.49344">
        <ele>488</ele>
        <time>2022-04-14T11:15:16Z</time>
      </trkpt>
      <trkpt lat="46.55325" lon="5.49355">
        <ele>487.8</ele>
        <time>2022-04-14T11:15:18Z</time>
      </trkpt>
      <trkpt lat="46.55322" lon="5.49371">
        <ele>487.8</ele>
        <time>2022-04-14T11:15:20Z</time>
      </trkpt>
      <trkpt lat="46.55321" lon="5.4938">
        <ele>487.8</ele>
        <time>2022-04-14T11:15:21Z</time>
      </trkpt>
      <trkpt lat="46.55317" lon="5.49403">
        <ele>487.8</ele>
        <time>2022-04-14T11:15:24Z</time>
      </trkpt>
      <trkpt lat="46.55313" lon="5.4943">
        <ele>489.4</ele>
        <time>2022-04-14T11:15:28Z</time>
      </trkpt>
      <trkpt lat="46.55312" lon="5.49445">
        <ele>490</ele>
        <time>2022-04-14T11:15:30Z</time>
      </trkpt>
      <trkpt lat="46.55311" lon="5.49455">
        <ele>490.6</ele>
        <time>2022-04-14T11:15:32Z</time>
      </trkpt>
      <trkpt lat="46.55309" lon="5.49468">
        <ele>491.2</ele>
        <time>2022-04-14T11:15:34Z</time>
      </trkpt>
      <trkpt lat="46.55307" lon="5.49479">
        <ele>492</ele>
        <time>2022-04-14T11:15:36Z</time>
      </trkpt>
      <trkpt lat="46.55306" lon="5.49489">
        <ele>492.6</ele>
        <time>2022-04-14T11:15:38Z</time>
      </trkpt>
      <trkpt lat="46.55305" lon="5.49499">
        <ele>493</ele>
        <time>2022-04-14T11:15:40Z</time>
      </trkpt>
      <trkpt lat="46.55301" lon="5.49514">
        <ele>494.2</ele>
        <time>2022-04-14T11:15:43Z</time>
      </trkpt>
      <trkpt lat="46.55297" lon="5.49529">
        <ele>495.2</ele>
        <time>2022-04-14T11:15:46Z</time>
      </trkpt>
      <trkpt lat="46.55295" lon="5.49541">
        <ele>496</ele>
        <time>2022-04-14T11:15:48Z</time>
      </trkpt>
      <trkpt lat="46.55295" lon="5.49544">
        <ele>496.2</ele>
        <time>2022-04-14T11:15:49Z</time>
      </trkpt>
      <trkpt lat="46.55295" lon="5.49565">
        <ele>497.4</ele>
        <time>2022-04-14T11:15:53Z</time>
      </trkpt>
      <trkpt lat="46.553" lon="5.49593">
        <ele>498.6</ele>
        <time>2022-04-14T11:15:59Z</time>
      </trkpt>
      <trkpt lat="46.55306" lon="5.49605">
        <ele>499.8</ele>
        <time>2022-04-14T11:16:02Z</time>
      </trkpt>
      <trkpt lat="46.55311" lon="5.49616">
        <ele>500.4</ele>
        <time>2022-04-14T11:16:05Z</time>
      </trkpt>
      <trkpt lat="46.55313" lon="5.4962">
        <ele>500.8</ele>
        <time>2022-04-14T11:16:06Z</time>
      </trkpt>
      <trkpt lat="46.55321" lon="5.49632">
        <ele>502</ele>
        <time>2022-04-14T11:16:10Z</time>
      </trkpt>
      <trkpt lat="46.55323" lon="5.49636">
        <ele>502.6</ele>
        <time>2022-04-14T11:16:11Z</time>
      </trkpt>
      <trkpt lat="46.55326" lon="5.49641">
        <ele>503.4</ele>
        <time>2022-04-14T11:16:13Z</time>
      </trkpt>
      <trkpt lat="46.55332" lon="5.49651">
        <ele>504.4</ele>
        <time>2022-04-14T11:16:16Z</time>
      </trkpt>
      <trkpt lat="46.55335" lon="5.49657">
        <ele>505</ele>
        <time>2022-04-14T11:16:18Z</time>
      </trkpt>
      <trkpt lat="46.55339" lon="5.49664">
        <ele>505.4</ele>
        <time>2022-04-14T11:16:20Z</time>
      </trkpt>
      <trkpt lat="46.55345" lon="5.49674">
        <ele>506.8</ele>
        <time>2022-04-14T11:16:23Z</time>
      </trkpt>
      <trkpt lat="46.55352" lon="5.49685">
        <ele>507.4</ele>
        <time>2022-04-14T11:16:26Z</time>
      </trkpt>
      <trkpt lat="46.55357" lon="5.49694">
        <ele>507.8</ele>
        <time>2022-04-14T11:16:29Z</time>
      </trkpt>
      <trkpt lat="46.55365" lon="5.49709">
        <ele>508.8</ele>
        <time>2022-04-14T11:16:33Z</time>
      </trkpt>
      <trkpt lat="46.55368" lon="5.49712">
        <ele>509</ele>
        <time>2022-04-14T11:16:34Z</time>
      </trkpt>
      <trkpt lat="46.5538" lon="5.4973">
        <ele>510</ele>
        <time>2022-04-14T11:16:39Z</time>
      </trkpt>
      <trkpt lat="46.55384" lon="5.49737">
        <ele>510.6</ele>
        <time>2022-04-14T11:16:41Z</time>
      </trkpt>
      <trkpt lat="46.55387" lon="5.49751">
        <ele>511.2</ele>
        <time>2022-04-14T11:16:44Z</time>
      </trkpt>
      <trkpt lat="46.55387" lon="5.49756">
        <ele>511.6</ele>
        <time>2022-04-14T11:16:45Z</time>
      </trkpt>
      <trkpt lat="46.55385" lon="5.49772">
        <ele>512.2</ele>
        <time>2022-04-14T11:16:48Z</time>
      </trkpt>
      <trkpt lat="46.55381" lon="5.49789">
        <ele>512.8</ele>
        <time>2022-04-14T11:16:51Z</time>
      </trkpt>
      <trkpt lat="46.55375" lon="5.49806">
        <ele>513.2</ele>
        <time>2022-04-14T11:16:54Z</time>
      </trkpt>
      <trkpt lat="46.5537" lon="5.49827">
        <ele>513.4</ele>
        <time>2022-04-14T11:16:57Z</time>
      </trkpt>
      <trkpt lat="46.55368" lon="5.49832">
        <ele>513.4</ele>
        <time>2022-04-14T11:16:58Z</time>
      </trkpt>
      <trkpt lat="46.55363" lon="5.49847">
        <ele>513.4</ele>
        <time>2022-04-14T11:17:01Z</time>
      </trkpt>
      <trkpt lat="46.55363" lon="5.49848">
        <ele>513.6</ele>
        <time>2022-04-14T11:17:04Z</time>
      </trkpt>
      <trkpt lat="46.55363" lon="5.49848">
        <ele>513.6</ele>
        <time>2022-04-14T11:17:05Z</time>
      </trkpt>
      <trkpt lat="46.55362" lon="5.49856">
        <ele>513.8</ele>
        <time>2022-04-14T11:20:07Z</time>
      </trkpt>
      <trkpt lat="46.55362" lon="5.49866">
        <ele>513.8</ele>
        <time>2022-04-14T11:20:09Z</time>
      </trkpt>
      <trkpt lat="46.55365" lon="5.49892">
        <ele>513.6</ele>
        <time>2022-04-14T11:20:13Z</time>
      </trkpt>
      <trkpt lat="46.55367" lon="5.49899">
        <ele>513.8</ele>
        <time>2022-04-14T11:20:14Z</time>
      </trkpt>
      <trkpt lat="46.55374" lon="5.49925">
        <ele>513.8</ele>
        <time>2022-04-14T11:20:18Z</time>
      </trkpt>
      <trkpt lat="46.5538" lon="5.49939">
        <ele>514</ele>
        <time>2022-04-14T11:20:20Z</time>
      </trkpt>
      <trkpt lat="46.55387" lon="5.49976">
        <ele>514</ele>
        <time>2022-04-14T11:20:24Z</time>
      </trkpt>
      <trkpt lat="46.55388" lon="5.49987">
        <ele>514</ele>
        <time>2022-04-14T11:20:25Z</time>
      </trkpt>
      <trkpt lat="46.55385" lon="5.5001">
        <ele>513.8</ele>
        <time>2022-04-14T11:20:27Z</time>
      </trkpt>
      <trkpt lat="46.55375" lon="5.50032">
        <ele>513</ele>
        <time>2022-04-14T11:20:29Z</time>
      </trkpt>
      <trkpt lat="46.55369" lon="5.50042">
        <ele>512.4</ele>
        <time>2022-04-14T11:20:30Z</time>
      </trkpt>
      <trkpt lat="46.55363" lon="5.50051">
        <ele>511.8</ele>
        <time>2022-04-14T11:20:31Z</time>
      </trkpt>
      <trkpt lat="46.55348" lon="5.50069">
        <ele>510.4</ele>
        <time>2022-04-14T11:20:33Z</time>
      </trkpt>
      <trkpt lat="46.5534" lon="5.50077">
        <ele>510.2</ele>
        <time>2022-04-14T11:20:34Z</time>
      </trkpt>
      <trkpt lat="46.55324" lon="5.50093">
        <ele>509.2</ele>
        <time>2022-04-14T11:20:36Z</time>
      </trkpt>
      <trkpt lat="46.55299" lon="5.50116">
        <ele>507.8</ele>
        <time>2022-04-14T11:20:39Z</time>
      </trkpt>
      <trkpt lat="46.55271" lon="5.50135">
        <ele>506.2</ele>
        <time>2022-04-14T11:20:42Z</time>
      </trkpt>
      <trkpt lat="46.55242" lon="5.50155">
        <ele>504.8</ele>
        <time>2022-04-14T11:20:45Z</time>
      </trkpt>
      <trkpt lat="46.55222" lon="5.50169">
        <ele>503.6</ele>
        <time>2022-04-14T11:20:47Z</time>
      </trkpt>
      <trkpt lat="46.55201" lon="5.50182">
        <ele>502.4</ele>
        <time>2022-04-14T11:20:49Z</time>
      </trkpt>
      <trkpt lat="46.5518" lon="5.50195">
        <ele>501.2</ele>
        <time>2022-04-14T11:20:51Z</time>
      </trkpt>
      <trkpt lat="46.55169" lon="5.50202">
        <ele>500.8</ele>
        <time>2022-04-14T11:20:52Z</time>
      </trkpt>
      <trkpt lat="46.55159" lon="5.50209">
        <ele>500</ele>
        <time>2022-04-14T11:20:53Z</time>
      </trkpt>
      <trkpt lat="46.55149" lon="5.50218">
        <ele>498.8</ele>
        <time>2022-04-14T11:20:54Z</time>
      </trkpt>
      <trkpt lat="46.55128" lon="5.50235">
        <ele>497.2</ele>
        <time>2022-04-14T11:20:56Z</time>
      </trkpt>
      <trkpt lat="46.55118" lon="5.50244">
        <ele>496.6</ele>
        <time>2022-04-14T11:20:57Z</time>
      </trkpt>
      <trkpt lat="46.55107" lon="5.50253">
        <ele>495.6</ele>
        <time>2022-04-14T11:20:58Z</time>
      </trkpt>
      <trkpt lat="46.55076" lon="5.50279">
        <ele>494.2</ele>
        <time>2022-04-14T11:21:01Z</time>
      </trkpt>
      <trkpt lat="46.55045" lon="5.50307">
        <ele>493.2</ele>
        <time>2022-04-14T11:21:04Z</time>
      </trkpt>
      <trkpt lat="46.55034" lon="5.50315">
        <ele>491.8</ele>
        <time>2022-04-14T11:21:05Z</time>
      </trkpt>
      <trkpt lat="46.55011" lon="5.50328">
        <ele>490.8</ele>
        <time>2022-04-14T11:21:07Z</time>
      </trkpt>
      <trkpt lat="46.54988" lon="5.50341">
        <ele>489.2</ele>
        <time>2022-04-14T11:21:09Z</time>
      </trkpt>
      <trkpt lat="46.54977" lon="5.50349">
        <ele>488.2</ele>
        <time>2022-04-14T11:21:10Z</time>
      </trkpt>
      <trkpt lat="46.54956" lon="5.50369">
        <ele>486.4</ele>
        <time>2022-04-14T11:21:12Z</time>
      </trkpt>
      <trkpt lat="46.54946" lon="5.50379">
        <ele>485.8</ele>
        <time>2022-04-14T11:21:13Z</time>
      </trkpt>
      <trkpt lat="46.54937" lon="5.5039">
        <ele>484.4</ele>
        <time>2022-04-14T11:21:14Z</time>
      </trkpt>
      <trkpt lat="46.54919" lon="5.50414">
        <ele>482.8</ele>
        <time>2022-04-14T11:21:16Z</time>
      </trkpt>
      <trkpt lat="46.54912" lon="5.50427">
        <ele>482.2</ele>
        <time>2022-04-14T11:21:17Z</time>
      </trkpt>
      <trkpt lat="46.54906" lon="5.50443">
        <ele>481.8</ele>
        <time>2022-04-14T11:21:18Z</time>
      </trkpt>
      <trkpt lat="46.54899" lon="5.50474">
        <ele>481</ele>
        <time>2022-04-14T11:21:20Z</time>
      </trkpt>
      <trkpt lat="46.54894" lon="5.50487">
        <ele>480.8</ele>
        <time>2022-04-14T11:21:21Z</time>
      </trkpt>
      <trkpt lat="46.54886" lon="5.50498">
        <ele>480.8</ele>
        <time>2022-04-14T11:21:22Z</time>
      </trkpt>
      <trkpt lat="46.54878" lon="5.50506">
        <ele>480.8</ele>
        <time>2022-04-14T11:21:23Z</time>
      </trkpt>
      <trkpt lat="46.54861" lon="5.50515">
        <ele>480.8</ele>
        <time>2022-04-14T11:21:25Z</time>
      </trkpt>
      <trkpt lat="46.54829" lon="5.50516">
        <ele>481.4</ele>
        <time>2022-04-14T11:21:29Z</time>
      </trkpt>
      <trkpt lat="46.54823" lon="5.50517">
        <ele>482</ele>
        <time>2022-04-14T11:21:30Z</time>
      </trkpt>
      <trkpt lat="46.5481" lon="5.50517">
        <ele>483.2</ele>
        <time>2022-04-14T11:21:32Z</time>
      </trkpt>
      <trkpt lat="46.54805" lon="5.50516">
        <ele>484.2</ele>
        <time>2022-04-14T11:21:33Z</time>
      </trkpt>
      <trkpt lat="46.54799" lon="5.50516">
        <ele>485</ele>
        <time>2022-04-14T11:21:34Z</time>
      </trkpt>
      <trkpt lat="46.54794" lon="5.50516">
        <ele>485.8</ele>
        <time>2022-04-14T11:21:35Z</time>
      </trkpt>
      <trkpt lat="46.54785" lon="5.50518">
        <ele>487.8</ele>
        <time>2022-04-14T11:21:37Z</time>
      </trkpt>
      <trkpt lat="46.54772" lon="5.50521">
        <ele>489.2</ele>
        <time>2022-04-14T11:21:40Z</time>
      </trkpt>
      <trkpt lat="46.54755" lon="5.50522">
        <ele>490.4</ele>
        <time>2022-04-14T11:21:43Z</time>
      </trkpt>
      <trkpt lat="46.54739" lon="5.50524">
        <ele>491.6</ele>
        <time>2022-04-14T11:21:46Z</time>
      </trkpt>
      <trkpt lat="46.54735" lon="5.50524">
        <ele>492</ele>
        <time>2022-04-14T11:21:47Z</time>
      </trkpt>
      <trkpt lat="46.54726" lon="5.50524">
        <ele>492.6</ele>
        <time>2022-04-14T11:21:49Z</time>
      </trkpt>
      <trkpt lat="46.54702" lon="5.50521">
        <ele>493.8</ele>
        <time>2022-04-14T11:21:55Z</time>
      </trkpt>
      <trkpt lat="46.54691" lon="5.50519">
        <ele>494.6</ele>
        <time>2022-04-14T11:21:58Z</time>
      </trkpt>
      <trkpt lat="46.54684" lon="5.50517">
        <ele>495</ele>
        <time>2022-04-14T11:22:00Z</time>
      </trkpt>
      <trkpt lat="46.54673" lon="5.50514">
        <ele>496.2</ele>
        <time>2022-04-14T11:22:03Z</time>
      </trkpt>
      <trkpt lat="46.54655" lon="5.50509">
        <ele>497.2</ele>
        <time>2022-04-14T11:22:08Z</time>
      </trkpt>
      <trkpt lat="46.54647" lon="5.50507">
        <ele>497.8</ele>
        <time>2022-04-14T11:22:10Z</time>
      </trkpt>
      <trkpt lat="46.54636" lon="5.50507">
        <ele>498.4</ele>
        <time>2022-04-14T11:22:13Z</time>
      </trkpt>
      <trkpt lat="46.54633" lon="5.5051">
        <ele>498.6</ele>
        <time>2022-04-14T11:22:14Z</time>
      </trkpt>
      <trkpt lat="46.54631" lon="5.50513">
        <ele>498.8</ele>
        <time>2022-04-14T11:22:15Z</time>
      </trkpt>
      <trkpt lat="46.5463" lon="5.50521">
        <ele>499.2</ele>
        <time>2022-04-14T11:22:17Z</time>
      </trkpt>
      <trkpt lat="46.54631" lon="5.5053">
        <ele>499.6</ele>
        <time>2022-04-14T11:22:19Z</time>
      </trkpt>
      <trkpt lat="46.54635" lon="5.50537">
        <ele>500</ele>
        <time>2022-04-14T11:22:21Z</time>
      </trkpt>
      <trkpt lat="46.54637" lon="5.5054">
        <ele>500.6</ele>
        <time>2022-04-14T11:22:22Z</time>
      </trkpt>
      <trkpt lat="46.54656" lon="5.5055">
        <ele>501.8</ele>
        <time>2022-04-14T11:22:26Z</time>
      </trkpt>
      <trkpt lat="46.54666" lon="5.50559">
        <ele>502.8</ele>
        <time>2022-04-14T11:22:30Z</time>
      </trkpt>
      <trkpt lat="46.54678" lon="5.50567">
        <ele>503.6</ele>
        <time>2022-04-14T11:22:33Z</time>
      </trkpt>
      <trkpt lat="46.54684" lon="5.50571">
        <ele>504</ele>
        <time>2022-04-14T11:22:35Z</time>
      </trkpt>
      <trkpt lat="46.54696" lon="5.50582">
        <ele>504.8</ele>
        <time>2022-04-14T11:22:39Z</time>
      </trkpt>
      <trkpt lat="46.54703" lon="5.50588">
        <ele>505.2</ele>
        <time>2022-04-14T11:22:41Z</time>
      </trkpt>
      <trkpt lat="46.54716" lon="5.50595">
        <ele>505.8</ele>
        <time>2022-04-14T11:22:44Z</time>
      </trkpt>
      <trkpt lat="46.54729" lon="5.50604">
        <ele>506.6</ele>
        <time>2022-04-14T11:22:47Z</time>
      </trkpt>
      <trkpt lat="46.54737" lon="5.5061">
        <ele>507</ele>
        <time>2022-04-14T11:22:49Z</time>
      </trkpt>
      <trkpt lat="46.5475" lon="5.50622">
        <ele>508</ele>
        <time>2022-04-14T11:22:53Z</time>
      </trkpt>
      <trkpt lat="46.54757" lon="5.50628">
        <ele>508.6</ele>
        <time>2022-04-14T11:22:55Z</time>
      </trkpt>
      <trkpt lat="46.54765" lon="5.50638">
        <ele>509.2</ele>
        <time>2022-04-14T11:22:58Z</time>
      </trkpt>
      <trkpt lat="46.54779" lon="5.5066">
        <ele>510</ele>
        <time>2022-04-14T11:23:04Z</time>
      </trkpt>
      <trkpt lat="46.54782" lon="5.50664">
        <ele>510.2</ele>
        <time>2022-04-14T11:23:05Z</time>
      </trkpt>
      <trkpt lat="46.5479" lon="5.50687">
        <ele>511.2</ele>
        <time>2022-04-14T11:23:10Z</time>
      </trkpt>
      <trkpt lat="46.54791" lon="5.50692">
        <ele>511.4</ele>
        <time>2022-04-14T11:23:11Z</time>
      </trkpt>
      <trkpt lat="46.54791" lon="5.50716">
        <ele>512.2</ele>
        <time>2022-04-14T11:23:16Z</time>
      </trkpt>
      <trkpt lat="46.54781" lon="5.50736">
        <ele>513.4</ele>
        <time>2022-04-14T11:23:21Z</time>
      </trkpt>
      <trkpt lat="46.54773" lon="5.50746">
        <ele>514.4</ele>
        <time>2022-04-14T11:23:24Z</time>
      </trkpt>
      <trkpt lat="46.5476" lon="5.50755">
        <ele>515.8</ele>
        <time>2022-04-14T11:23:28Z</time>
      </trkpt>
      <trkpt lat="46.54752" lon="5.5076">
        <ele>516.8</ele>
        <time>2022-04-14T11:23:31Z</time>
      </trkpt>
      <trkpt lat="46.54743" lon="5.50763">
        <ele>517.2</ele>
        <time>2022-04-14T11:23:34Z</time>
      </trkpt>
      <trkpt lat="46.54732" lon="5.50767">
        <ele>517.6</ele>
        <time>2022-04-14T11:23:37Z</time>
      </trkpt>
      <trkpt lat="46.54726" lon="5.50769">
        <ele>517.8</ele>
        <time>2022-04-14T11:23:39Z</time>
      </trkpt>
      <trkpt lat="46.54715" lon="5.50772">
        <ele>518.8</ele>
        <time>2022-04-14T11:23:41Z</time>
      </trkpt>
      <trkpt lat="46.54695" lon="5.5078">
        <ele>520</ele>
        <time>2022-04-14T11:23:45Z</time>
      </trkpt>
      <trkpt lat="46.54667" lon="5.50793">
        <ele>521</ele>
        <time>2022-04-14T11:23:51Z</time>
      </trkpt>
      <trkpt lat="46.54663" lon="5.50795">
        <ele>521</ele>
        <time>2022-04-14T11:23:52Z</time>
      </trkpt>
      <trkpt lat="46.54655" lon="5.508">
        <ele>521.2</ele>
        <time>2022-04-14T11:23:54Z</time>
      </trkpt>
      <trkpt lat="46.5463" lon="5.50821">
        <ele>521.8</ele>
        <time>2022-04-14T11:24:00Z</time>
      </trkpt>
      <trkpt lat="46.54621" lon="5.5083">
        <ele>522</ele>
        <time>2022-04-14T11:24:02Z</time>
      </trkpt>
      <trkpt lat="46.54596" lon="5.50858">
        <ele>522.8</ele>
        <time>2022-04-14T11:24:08Z</time>
      </trkpt>
      <trkpt lat="46.54579" lon="5.50877">
        <ele>523</ele>
        <time>2022-04-14T11:24:12Z</time>
      </trkpt>
      <trkpt lat="46.54555" lon="5.50902">
        <ele>523.8</ele>
        <time>2022-04-14T11:24:18Z</time>
      </trkpt>
      <trkpt lat="46.54551" lon="5.50906">
        <ele>524</ele>
        <time>2022-04-14T11:24:19Z</time>
      </trkpt>
      <trkpt lat="46.54527" lon="5.50931">
        <ele>525.2</ele>
        <time>2022-04-14T11:24:25Z</time>
      </trkpt>
      <trkpt lat="46.54518" lon="5.50939">
        <ele>526</ele>
        <time>2022-04-14T11:24:27Z</time>
      </trkpt>
      <trkpt lat="46.54501" lon="5.50954">
        <ele>526.4</ele>
        <time>2022-04-14T11:24:31Z</time>
      </trkpt>
      <trkpt lat="46.54477" lon="5.50972">
        <ele>527.6</ele>
        <time>2022-04-14T11:24:36Z</time>
      </trkpt>
      <trkpt lat="46.54468" lon="5.50978">
        <ele>527.8</ele>
        <time>2022-04-14T11:24:38Z</time>
      </trkpt>
      <trkpt lat="46.5444" lon="5.50999">
        <ele>528.6</ele>
        <time>2022-04-14T11:24:44Z</time>
      </trkpt>
      <trkpt lat="46.54435" lon="5.51003">
        <ele>528.6</ele>
        <time>2022-04-14T11:24:45Z</time>
      </trkpt>
      <trkpt lat="46.54421" lon="5.51013">
        <ele>528.8</ele>
        <time>2022-04-14T11:24:48Z</time>
      </trkpt>
      <trkpt lat="46.54397" lon="5.5103">
        <ele>530.2</ele>
        <time>2022-04-14T11:24:53Z</time>
      </trkpt>
      <trkpt lat="46.54383" lon="5.5104">
        <ele>531</ele>
        <time>2022-04-14T11:24:56Z</time>
      </trkpt>
      <trkpt lat="46.54378" lon="5.51044">
        <ele>531.4</ele>
        <time>2022-04-14T11:24:57Z</time>
      </trkpt>
      <trkpt lat="46.54365" lon="5.51058">
        <ele>531.8</ele>
        <time>2022-04-14T11:25:00Z</time>
      </trkpt>
      <trkpt lat="46.54356" lon="5.51068">
        <ele>532.4</ele>
        <time>2022-04-14T11:25:02Z</time>
      </trkpt>
      <trkpt lat="46.54352" lon="5.51074">
        <ele>532.6</ele>
        <time>2022-04-14T11:25:03Z</time>
      </trkpt>
      <trkpt lat="46.54331" lon="5.51112">
        <ele>533.4</ele>
        <time>2022-04-14T11:25:09Z</time>
      </trkpt>
      <trkpt lat="46.54328" lon="5.51119">
        <ele>533.6</ele>
        <time>2022-04-14T11:25:10Z</time>
      </trkpt>
      <trkpt lat="46.54323" lon="5.51134">
        <ele>533.6</ele>
        <time>2022-04-14T11:25:12Z</time>
      </trkpt>
      <trkpt lat="46.5432" lon="5.5115">
        <ele>533.8</ele>
        <time>2022-04-14T11:25:14Z</time>
      </trkpt>
      <trkpt lat="46.54316" lon="5.5119">
        <ele>534.2</ele>
        <time>2022-04-14T11:25:19Z</time>
      </trkpt>
      <trkpt lat="46.54314" lon="5.51198">
        <ele>534.4</ele>
        <time>2022-04-14T11:25:20Z</time>
      </trkpt>
      <trkpt lat="46.54311" lon="5.51205">
        <ele>534.4</ele>
        <time>2022-04-14T11:25:21Z</time>
      </trkpt>
      <trkpt lat="46.54303" lon="5.51218">
        <ele>534.4</ele>
        <time>2022-04-14T11:25:23Z</time>
      </trkpt>
      <trkpt lat="46.54299" lon="5.51223">
        <ele>534.4</ele>
        <time>2022-04-14T11:25:24Z</time>
      </trkpt>
      <trkpt lat="46.54289" lon="5.51232">
        <ele>534.6</ele>
        <time>2022-04-14T11:25:26Z</time>
      </trkpt>
      <trkpt lat="46.5426" lon="5.51258">
        <ele>535.2</ele>
        <time>2022-04-14T11:25:32Z</time>
      </trkpt>
      <trkpt lat="46.54241" lon="5.51277">
        <ele>535.6</ele>
        <time>2022-04-14T11:25:36Z</time>
      </trkpt>
      <trkpt lat="46.54238" lon="5.51283">
        <ele>535.8</ele>
        <time>2022-04-14T11:25:37Z</time>
      </trkpt>
      <trkpt lat="46.54235" lon="5.51291">
        <ele>535.8</ele>
        <time>2022-04-14T11:25:38Z</time>
      </trkpt>
      <trkpt lat="46.54232" lon="5.51308">
        <ele>536</ele>
        <time>2022-04-14T11:25:40Z</time>
      </trkpt>
      <trkpt lat="46.54229" lon="5.51367">
        <ele>536</ele>
        <time>2022-04-14T11:25:46Z</time>
      </trkpt>
      <trkpt lat="46.54225" lon="5.51401">
        <ele>535.4</ele>
        <time>2022-04-14T11:25:49Z</time>
      </trkpt>
      <trkpt lat="46.54222" lon="5.51412">
        <ele>534.8</ele>
        <time>2022-04-14T11:25:50Z</time>
      </trkpt>
      <trkpt lat="46.54218" lon="5.51423">
        <ele>534.4</ele>
        <time>2022-04-14T11:25:51Z</time>
      </trkpt>
      <trkpt lat="46.54199" lon="5.51469">
        <ele>533</ele>
        <time>2022-04-14T11:25:55Z</time>
      </trkpt>
      <trkpt lat="46.54187" lon="5.51491">
        <ele>531.6</ele>
        <time>2022-04-14T11:25:57Z</time>
      </trkpt>
      <trkpt lat="46.54175" lon="5.51513">
        <ele>530.2</ele>
        <time>2022-04-14T11:25:59Z</time>
      </trkpt>
      <trkpt lat="46.54171" lon="5.51525">
        <ele>529.8</ele>
        <time>2022-04-14T11:26:00Z</time>
      </trkpt>
      <trkpt lat="46.54167" lon="5.51538">
        <ele>528.8</ele>
        <time>2022-04-14T11:26:01Z</time>
      </trkpt>
      <trkpt lat="46.54164" lon="5.51552">
        <ele>528.4</ele>
        <time>2022-04-14T11:26:02Z</time>
      </trkpt>
      <trkpt lat="46.54163" lon="5.51565">
        <ele>527.8</ele>
        <time>2022-04-14T11:26:03Z</time>
      </trkpt>
      <trkpt lat="46.54163" lon="5.51579">
        <ele>527.4</ele>
        <time>2022-04-14T11:26:04Z</time>
      </trkpt>
      <trkpt lat="46.54164" lon="5.51605">
        <ele>527.2</ele>
        <time>2022-04-14T11:26:06Z</time>
      </trkpt>
      <trkpt lat="46.54166" lon="5.51617">
        <ele>527.2</ele>
        <time>2022-04-14T11:26:07Z</time>
      </trkpt>
      <trkpt lat="46.54167" lon="5.51629">
        <ele>526.8</ele>
        <time>2022-04-14T11:26:08Z</time>
      </trkpt>
      <trkpt lat="46.54168" lon="5.51647">
        <ele>526.8</ele>
        <time>2022-04-14T11:26:10Z</time>
      </trkpt>
      <trkpt lat="46.54169" lon="5.51654">
        <ele>526.6</ele>
        <time>2022-04-14T11:26:11Z</time>
      </trkpt>
      <trkpt lat="46.54171" lon="5.51662">
        <ele>526.6</ele>
        <time>2022-04-14T11:26:12Z</time>
      </trkpt>
      <trkpt lat="46.54174" lon="5.5167">
        <ele>526.4</ele>
        <time>2022-04-14T11:26:13Z</time>
      </trkpt>
      <trkpt lat="46.54177" lon="5.51677">
        <ele>526.4</ele>
        <time>2022-04-14T11:26:14Z</time>
      </trkpt>
      <trkpt lat="46.54187" lon="5.51691">
        <ele>526.2</ele>
        <time>2022-04-14T11:26:16Z</time>
      </trkpt>
      <trkpt lat="46.54194" lon="5.51698">
        <ele>526</ele>
        <time>2022-04-14T11:26:17Z</time>
      </trkpt>
      <trkpt lat="46.54206" lon="5.51711">
        <ele>525.4</ele>
        <time>2022-04-14T11:26:19Z</time>
      </trkpt>
      <trkpt lat="46.54212" lon="5.51717">
        <ele>525</ele>
        <time>2022-04-14T11:26:20Z</time>
      </trkpt>
      <trkpt lat="46.54246" lon="5.51746">
        <ele>524.6</ele>
        <time>2022-04-14T11:26:25Z</time>
      </trkpt>
      <trkpt lat="46.54268" lon="5.51757">
        <ele>524.4</ele>
        <time>2022-04-14T11:26:28Z</time>
      </trkpt>
      <trkpt lat="46.54292" lon="5.51766">
        <ele>524</ele>
        <time>2022-04-14T11:26:31Z</time>
      </trkpt>
      <trkpt lat="46.54339" lon="5.51785">
        <ele>523</ele>
        <time>2022-04-14T11:26:37Z</time>
      </trkpt>
      <trkpt lat="46.54347" lon="5.51791">
        <ele>522.8</ele>
        <time>2022-04-14T11:26:38Z</time>
      </trkpt>
      <trkpt lat="46.54363" lon="5.51804">
        <ele>522</ele>
        <time>2022-04-14T11:26:40Z</time>
      </trkpt>
      <trkpt lat="46.54384" lon="5.51827">
        <ele>520.4</ele>
        <time>2022-04-14T11:26:43Z</time>
      </trkpt>
      <trkpt lat="46.54422" lon="5.51871">
        <ele>519</ele>
        <time>2022-04-14T11:26:48Z</time>
      </trkpt>
      <trkpt lat="46.54438" lon="5.51889">
        <ele>518.4</ele>
        <time>2022-04-14T11:26:50Z</time>
      </trkpt>
      <trkpt lat="46.54454" lon="5.51907">
        <ele>518</ele>
        <time>2022-04-14T11:26:52Z</time>
      </trkpt>
      <trkpt lat="46.54477" lon="5.51932">
        <ele>516.6</ele>
        <time>2022-04-14T11:26:55Z</time>
      </trkpt>
      <trkpt lat="46.54492" lon="5.51948">
        <ele>516.2</ele>
        <time>2022-04-14T11:26:57Z</time>
      </trkpt>
      <trkpt lat="46.54537" lon="5.51998">
        <ele>516.6</ele>
        <time>2022-04-14T11:27:04Z</time>
      </trkpt>
      <trkpt lat="46.5458" lon="5.52047">
        <ele>516.8</ele>
        <time>2022-04-14T11:27:11Z</time>
      </trkpt>
      <trkpt lat="46.54612" lon="5.52083">
        <ele>516.8</ele>
        <time>2022-04-14T11:27:16Z</time>
      </trkpt>
      <trkpt lat="46.54641" lon="5.52109">
        <ele>516.6</ele>
        <time>2022-04-14T11:27:20Z</time>
      </trkpt>
      <trkpt lat="46.54682" lon="5.52134">
        <ele>515.6</ele>
        <time>2022-04-14T11:27:25Z</time>
      </trkpt>
      <trkpt lat="46.547" lon="5.52141">
        <ele>514.6</ele>
        <time>2022-04-14T11:27:27Z</time>
      </trkpt>
      <trkpt lat="46.54718" lon="5.52146">
        <ele>513.4</ele>
        <time>2022-04-14T11:27:29Z</time>
      </trkpt>
      <trkpt lat="46.54736" lon="5.52154">
        <ele>512.4</ele>
        <time>2022-04-14T11:27:31Z</time>
      </trkpt>
      <trkpt lat="46.54755" lon="5.52163">
        <ele>511.2</ele>
        <time>2022-04-14T11:27:33Z</time>
      </trkpt>
      <trkpt lat="46.54764" lon="5.52168">
        <ele>510.2</ele>
        <time>2022-04-14T11:27:34Z</time>
      </trkpt>
      <trkpt lat="46.54783" lon="5.52182">
        <ele>509</ele>
        <time>2022-04-14T11:27:36Z</time>
      </trkpt>
      <trkpt lat="46.54812" lon="5.52205">
        <ele>507.6</ele>
        <time>2022-04-14T11:27:39Z</time>
      </trkpt>
      <trkpt lat="46.54832" lon="5.52219">
        <ele>506.4</ele>
        <time>2022-04-14T11:27:41Z</time>
      </trkpt>
      <trkpt lat="46.54843" lon="5.52225">
        <ele>506</ele>
        <time>2022-04-14T11:27:42Z</time>
      </trkpt>
      <trkpt lat="46.54853" lon="5.52231">
        <ele>505</ele>
        <time>2022-04-14T11:27:43Z</time>
      </trkpt>
      <trkpt lat="46.54875" lon="5.5224">
        <ele>503.4</ele>
        <time>2022-04-14T11:27:45Z</time>
      </trkpt>
      <trkpt lat="46.54897" lon="5.52248">
        <ele>502.2</ele>
        <time>2022-04-14T11:27:47Z</time>
      </trkpt>
      <trkpt lat="46.54929" lon="5.5226">
        <ele>500</ele>
        <time>2022-04-14T11:27:50Z</time>
      </trkpt>
      <trkpt lat="46.54951" lon="5.52271">
        <ele>498.8</ele>
        <time>2022-04-14T11:27:52Z</time>
      </trkpt>
      <trkpt lat="46.54961" lon="5.52276">
        <ele>497.8</ele>
        <time>2022-04-14T11:27:53Z</time>
      </trkpt>
      <trkpt lat="46.54971" lon="5.52283">
        <ele>497.6</ele>
        <time>2022-04-14T11:27:54Z</time>
      </trkpt>
      <trkpt lat="46.54981" lon="5.52291">
        <ele>496.8</ele>
        <time>2022-04-14T11:27:55Z</time>
      </trkpt>
      <trkpt lat="46.5499" lon="5.52301">
        <ele>496.4</ele>
        <time>2022-04-14T11:27:56Z</time>
      </trkpt>
      <trkpt lat="46.54999" lon="5.52311">
        <ele>496</ele>
        <time>2022-04-14T11:27:57Z</time>
      </trkpt>
      <trkpt lat="46.55013" lon="5.52338">
        <ele>495</ele>
        <time>2022-04-14T11:27:59Z</time>
      </trkpt>
      <trkpt lat="46.55018" lon="5.52352">
        <ele>494.4</ele>
        <time>2022-04-14T11:28:00Z</time>
      </trkpt>
      <trkpt lat="46.55024" lon="5.52366">
        <ele>494.2</ele>
        <time>2022-04-14T11:28:01Z</time>
      </trkpt>
      <trkpt lat="46.55028" lon="5.52381">
        <ele>494</ele>
        <time>2022-04-14T11:28:02Z</time>
      </trkpt>
      <trkpt lat="46.55037" lon="5.52407">
        <ele>492.6</ele>
        <time>2022-04-14T11:28:04Z</time>
      </trkpt>
      <trkpt lat="46.55042" lon="5.52425">
        <ele>492</ele>
        <time>2022-04-14T11:28:05Z</time>
      </trkpt>
      <trkpt lat="46.55048" lon="5.52439">
        <ele>490.4</ele>
        <time>2022-04-14T11:28:06Z</time>
      </trkpt>
      <trkpt lat="46.55052" lon="5.52453">
        <ele>489.4</ele>
        <time>2022-04-14T11:28:07Z</time>
      </trkpt>
      <trkpt lat="46.55066" lon="5.52497">
        <ele>488.2</ele>
        <time>2022-04-14T11:28:10Z</time>
      </trkpt>
      <trkpt lat="46.55075" lon="5.52526">
        <ele>487</ele>
        <time>2022-04-14T11:28:12Z</time>
      </trkpt>
      <trkpt lat="46.55085" lon="5.52555">
        <ele>485.6</ele>
        <time>2022-04-14T11:28:14Z</time>
      </trkpt>
      <trkpt lat="46.55094" lon="5.52585">
        <ele>484.4</ele>
        <time>2022-04-14T11:28:16Z</time>
      </trkpt>
      <trkpt lat="46.55097" lon="5.52599">
        <ele>483.8</ele>
        <time>2022-04-14T11:28:17Z</time>
      </trkpt>
      <trkpt lat="46.551" lon="5.5261">
        <ele>483.2</ele>
        <time>2022-04-14T11:28:18Z</time>
      </trkpt>
      <trkpt lat="46.55111" lon="5.52626">
        <ele>482</ele>
        <time>2022-04-14T11:28:20Z</time>
      </trkpt>
      <trkpt lat="46.55128" lon="5.52634">
        <ele>480.8</ele>
        <time>2022-04-14T11:28:22Z</time>
      </trkpt>
      <trkpt lat="46.55145" lon="5.52644">
        <ele>479.8</ele>
        <time>2022-04-14T11:28:24Z</time>
      </trkpt>
      <trkpt lat="46.55153" lon="5.5265">
        <ele>479</ele>
        <time>2022-04-14T11:28:25Z</time>
      </trkpt>
      <trkpt lat="46.55179" lon="5.52668">
        <ele>478.2</ele>
        <time>2022-04-14T11:28:28Z</time>
      </trkpt>
      <trkpt lat="46.55187" lon="5.52673">
        <ele>477.8</ele>
        <time>2022-04-14T11:28:29Z</time>
      </trkpt>
      <trkpt lat="46.55236" lon="5.52697">
        <ele>476.8</ele>
        <time>2022-04-14T11:28:35Z</time>
      </trkpt>
      <trkpt lat="46.55292" lon="5.52725">
        <ele>476.4</ele>
        <time>2022-04-14T11:28:42Z</time>
      </trkpt>
      <trkpt lat="46.55306" lon="5.52733">
        <ele>476.2</ele>
        <time>2022-04-14T11:28:44Z</time>
      </trkpt>
      <trkpt lat="46.55313" lon="5.52736">
        <ele>476.2</ele>
        <time>2022-04-14T11:28:45Z</time>
      </trkpt>
      <trkpt lat="46.55356" lon="5.52752">
        <ele>476.2</ele>
        <time>2022-04-14T11:28:51Z</time>
      </trkpt>
      <trkpt lat="46.55395" lon="5.52763">
        <ele>476.4</ele>
        <time>2022-04-14T11:28:57Z</time>
      </trkpt>
      <trkpt lat="46.55401" lon="5.52764">
        <ele>476.6</ele>
        <time>2022-04-14T11:28:58Z</time>
      </trkpt>
      <trkpt lat="46.55418" lon="5.52767">
        <ele>476.8</ele>
        <time>2022-04-14T11:29:01Z</time>
      </trkpt>
      <trkpt lat="46.55429" lon="5.52768">
        <ele>477.2</ele>
        <time>2022-04-14T11:29:03Z</time>
      </trkpt>
      <trkpt lat="46.55439" lon="5.52766">
        <ele>477.8</ele>
        <time>2022-04-14T11:29:05Z</time>
      </trkpt>
      <trkpt lat="46.55444" lon="5.52765">
        <ele>478.2</ele>
        <time>2022-04-14T11:29:06Z</time>
      </trkpt>
      <trkpt lat="46.55449" lon="5.52763">
        <ele>478.8</ele>
        <time>2022-04-14T11:29:07Z</time>
      </trkpt>
      <trkpt lat="46.55472" lon="5.52757">
        <ele>480.2</ele>
        <time>2022-04-14T11:29:11Z</time>
      </trkpt>
      <trkpt lat="46.55495" lon="5.52754">
        <ele>480.6</ele>
        <time>2022-04-14T11:29:15Z</time>
      </trkpt>
      <trkpt lat="46.55539" lon="5.52763">
        <ele>481</ele>
        <time>2022-04-14T11:29:22Z</time>
      </trkpt>
      <trkpt lat="46.55551" lon="5.5277">
        <ele>481</ele>
        <time>2022-04-14T11:29:24Z</time>
      </trkpt>
      <trkpt lat="46.55567" lon="5.52786">
        <ele>480.8</ele>
        <time>2022-04-14T11:29:27Z</time>
      </trkpt>
      <trkpt lat="46.55584" lon="5.52806">
        <ele>480.8</ele>
        <time>2022-04-14T11:29:30Z</time>
      </trkpt>
      <trkpt lat="46.55591" lon="5.52811">
        <ele>480.6</ele>
        <time>2022-04-14T11:29:31Z</time>
      </trkpt>
      <trkpt lat="46.55598" lon="5.52816">
        <ele>480.4</ele>
        <time>2022-04-14T11:29:32Z</time>
      </trkpt>
      <trkpt lat="46.55613" lon="5.52822">
        <ele>479.6</ele>
        <time>2022-04-14T11:29:34Z</time>
      </trkpt>
      <trkpt lat="46.55628" lon="5.52825">
        <ele>479</ele>
        <time>2022-04-14T11:29:36Z</time>
      </trkpt>
      <trkpt lat="46.55671" lon="5.52827">
        <ele>477.8</ele>
        <time>2022-04-14T11:29:42Z</time>
      </trkpt>
      <trkpt lat="46.55694" lon="5.52827">
        <ele>477.4</ele>
        <time>2022-04-14T11:29:45Z</time>
      </trkpt>
      <trkpt lat="46.55748" lon="5.52829">
        <ele>476.8</ele>
        <time>2022-04-14T11:29:52Z</time>
      </trkpt>
      <trkpt lat="46.55755" lon="5.52829">
        <ele>476.6</ele>
        <time>2022-04-14T11:29:53Z</time>
      </trkpt>
      <trkpt lat="46.5581" lon="5.5283">
        <ele>476.4</ele>
        <time>2022-04-14T11:30:01Z</time>
      </trkpt>
      <trkpt lat="46.55823" lon="5.5283">
        <ele>476.4</ele>
        <time>2022-04-14T11:30:03Z</time>
      </trkpt>
      <trkpt lat="46.55863" lon="5.52831">
        <ele>477.2</ele>
        <time>2022-04-14T11:30:09Z</time>
      </trkpt>
      <trkpt lat="46.5587" lon="5.52831">
        <ele>477.2</ele>
        <time>2022-04-14T11:30:10Z</time>
      </trkpt>
      <trkpt lat="46.559" lon="5.52831">
        <ele>475.6</ele>
        <time>2022-04-14T11:30:14Z</time>
      </trkpt>
      <trkpt lat="46.55923" lon="5.52831">
        <ele>475.2</ele>
        <time>2022-04-14T11:30:17Z</time>
      </trkpt>
      <trkpt lat="46.55946" lon="5.52831">
        <ele>474.6</ele>
        <time>2022-04-14T11:30:20Z</time>
      </trkpt>
      <trkpt lat="46.55988" lon="5.52831">
        <ele>474</ele>
        <time>2022-04-14T11:30:26Z</time>
      </trkpt>
      <trkpt lat="46.56041" lon="5.52831">
        <ele>475.4</ele>
        <time>2022-04-14T11:30:34Z</time>
      </trkpt>
      <trkpt lat="46.5606" lon="5.52831">
        <ele>476</ele>
        <time>2022-04-14T11:30:37Z</time>
      </trkpt>
      <trkpt lat="46.56109" lon="5.52831">
        <ele>476.4</ele>
        <time>2022-04-14T11:30:44Z</time>
      </trkpt>
      <trkpt lat="46.56124" lon="5.52831">
        <ele>476</ele>
        <time>2022-04-14T11:30:46Z</time>
      </trkpt>
      <trkpt lat="46.56169" lon="5.52832">
        <ele>475</ele>
        <time>2022-04-14T11:30:52Z</time>
      </trkpt>
      <trkpt lat="46.56177" lon="5.52832">
        <ele>474.6</ele>
        <time>2022-04-14T11:30:53Z</time>
      </trkpt>
      <trkpt lat="46.56215" lon="5.52833">
        <ele>473.8</ele>
        <time>2022-04-14T11:30:58Z</time>
      </trkpt>
      <trkpt lat="46.56275" lon="5.52833">
        <ele>473.2</ele>
        <time>2022-04-14T11:31:06Z</time>
      </trkpt>
      <trkpt lat="46.56283" lon="5.52833">
        <ele>473</ele>
        <time>2022-04-14T11:31:07Z</time>
      </trkpt>
      <trkpt lat="46.56314" lon="5.52833">
        <ele>472.8</ele>
        <time>2022-04-14T11:31:11Z</time>
      </trkpt>
      <trkpt lat="46.56367" lon="5.52833">
        <ele>471.8</ele>
        <time>2022-04-14T11:31:18Z</time>
      </trkpt>
      <trkpt lat="46.56424" lon="5.52835">
        <ele>471.2</ele>
        <time>2022-04-14T11:31:26Z</time>
      </trkpt>
      <trkpt lat="46.56463" lon="5.52829">
        <ele>471.4</ele>
        <time>2022-04-14T11:31:32Z</time>
      </trkpt>
      <trkpt lat="46.56498" lon="5.52803">
        <ele>471.8</ele>
        <time>2022-04-14T11:31:38Z</time>
      </trkpt>
      <trkpt lat="46.56522" lon="5.52784">
        <ele>471.8</ele>
        <time>2022-04-14T11:31:42Z</time>
      </trkpt>
      <trkpt lat="46.56555" lon="5.52756">
        <ele>471.8</ele>
        <time>2022-04-14T11:31:48Z</time>
      </trkpt>
      <trkpt lat="46.5659" lon="5.52723">
        <ele>472.2</ele>
        <time>2022-04-14T11:31:55Z</time>
      </trkpt>
      <trkpt lat="46.56603" lon="5.52708">
        <ele>472.8</ele>
        <time>2022-04-14T11:31:58Z</time>
      </trkpt>
      <trkpt lat="46.56625" lon="5.52685">
        <ele>473.4</ele>
        <time>2022-04-14T11:32:03Z</time>
      </trkpt>
      <trkpt lat="46.56644" lon="5.52666">
        <ele>473.8</ele>
        <time>2022-04-14T11:32:07Z</time>
      </trkpt>
      <trkpt lat="46.56656" lon="5.52657">
        <ele>474</ele>
        <time>2022-04-14T11:32:09Z</time>
      </trkpt>
      <trkpt lat="46.56662" lon="5.52653">
        <ele>474</ele>
        <time>2022-04-14T11:32:10Z</time>
      </trkpt>
      <trkpt lat="46.56697" lon="5.52641">
        <ele>474.2</ele>
        <time>2022-04-14T11:32:16Z</time>
      </trkpt>
      <trkpt lat="46.56737" lon="5.52637">
        <ele>474.6</ele>
        <time>2022-04-14T11:32:23Z</time>
      </trkpt>
      <trkpt lat="46.56747" lon="5.52635">
        <ele>475.2</ele>
        <time>2022-04-14T11:32:25Z</time>
      </trkpt>
      <trkpt lat="46.56773" lon="5.52629">
        <ele>476.2</ele>
        <time>2022-04-14T11:32:30Z</time>
      </trkpt>
      <trkpt lat="46.56788" lon="5.52624">
        <ele>476.6</ele>
        <time>2022-04-14T11:32:33Z</time>
      </trkpt>
      <trkpt lat="46.56814" lon="5.52619">
        <ele>477.2</ele>
        <time>2022-04-14T11:32:38Z</time>
      </trkpt>
      <trkpt lat="46.56825" lon="5.52619">
        <ele>477.2</ele>
        <time>2022-04-14T11:32:40Z</time>
      </trkpt>
      <trkpt lat="46.5683" lon="5.5262">
        <ele>477.2</ele>
        <time>2022-04-14T11:32:41Z</time>
      </trkpt>
      <trkpt lat="46.56856" lon="5.5262">
        <ele>477.6</ele>
        <time>2022-04-14T11:32:45Z</time>
      </trkpt>
      <trkpt lat="46.56892" lon="5.52613">
        <ele>478</ele>
        <time>2022-04-14T11:32:51Z</time>
      </trkpt>
      <trkpt lat="46.56919" lon="5.52602">
        <ele>478.2</ele>
        <time>2022-04-14T11:32:56Z</time>
      </trkpt>
      <trkpt lat="46.56936" lon="5.52594">
        <ele>478.4</ele>
        <time>2022-04-14T11:32:59Z</time>
      </trkpt>
      <trkpt lat="46.56976" lon="5.52577">
        <ele>477.8</ele>
        <time>2022-04-14T11:33:05Z</time>
      </trkpt>
      <trkpt lat="46.56984" lon="5.52575">
        <ele>477.6</ele>
        <time>2022-04-14T11:33:06Z</time>
      </trkpt>
      <trkpt lat="46.56992" lon="5.52575">
        <ele>477</ele>
        <time>2022-04-14T11:33:07Z</time>
      </trkpt>
      <trkpt lat="46.57" lon="5.52576">
        <ele>476.8</ele>
        <time>2022-04-14T11:33:08Z</time>
      </trkpt>
      <trkpt lat="46.57008" lon="5.52578">
        <ele>476.2</ele>
        <time>2022-04-14T11:33:09Z</time>
      </trkpt>
      <trkpt lat="46.57015" lon="5.52581">
        <ele>475.8</ele>
        <time>2022-04-14T11:33:10Z</time>
      </trkpt>
      <trkpt lat="46.57036" lon="5.52588">
        <ele>475</ele>
        <time>2022-04-14T11:33:13Z</time>
      </trkpt>
      <trkpt lat="46.57042" lon="5.52589">
        <ele>474.8</ele>
        <time>2022-04-14T11:33:14Z</time>
      </trkpt>
      <trkpt lat="46.57048" lon="5.52588">
        <ele>474.8</ele>
        <time>2022-04-14T11:33:15Z</time>
      </trkpt>
      <trkpt lat="46.57059" lon="5.52582">
        <ele>474.8</ele>
        <time>2022-04-14T11:33:17Z</time>
      </trkpt>
      <trkpt lat="46.57065" lon="5.52579">
        <ele>474.8</ele>
        <time>2022-04-14T11:33:18Z</time>
      </trkpt>
      <trkpt lat="46.57107" lon="5.52558">
        <ele>475.4</ele>
        <time>2022-04-14T11:33:26Z</time>
      </trkpt>
      <trkpt lat="46.5712" lon="5.52551">
        <ele>475.8</ele>
        <time>2022-04-14T11:33:29Z</time>
      </trkpt>
      <trkpt lat="46.57129" lon="5.52546">
        <ele>477</ele>
        <time>2022-04-14T11:33:31Z</time>
      </trkpt>
      <trkpt lat="46.57133" lon="5.52545">
        <ele>477.4</ele>
        <time>2022-04-14T11:33:32Z</time>
      </trkpt>
      <trkpt lat="46.5714" lon="5.52542">
        <ele>478</ele>
        <time>2022-04-14T11:33:34Z</time>
      </trkpt>
      <trkpt lat="46.57149" lon="5.52536">
        <ele>479</ele>
        <time>2022-04-14T11:33:37Z</time>
      </trkpt>
      <trkpt lat="46.57152" lon="5.52534">
        <ele>479.2</ele>
        <time>2022-04-14T11:33:38Z</time>
      </trkpt>
      <trkpt lat="46.57163" lon="5.52528">
        <ele>480.2</ele>
        <time>2022-04-14T11:33:41Z</time>
      </trkpt>
      <trkpt lat="46.5717" lon="5.52525">
        <ele>480.6</ele>
        <time>2022-04-14T11:33:43Z</time>
      </trkpt>
      <trkpt lat="46.5718" lon="5.5252">
        <ele>481.4</ele>
        <time>2022-04-14T11:33:46Z</time>
      </trkpt>
      <trkpt lat="46.57187" lon="5.52517">
        <ele>482.4</ele>
        <time>2022-04-14T11:33:48Z</time>
      </trkpt>
      <trkpt lat="46.5719" lon="5.52515">
        <ele>483</ele>
        <time>2022-04-14T11:33:49Z</time>
      </trkpt>
      <trkpt lat="46.57199" lon="5.5251">
        <ele>483.6</ele>
        <time>2022-04-14T11:33:52Z</time>
      </trkpt>
      <trkpt lat="46.57203" lon="5.52508">
        <ele>484</ele>
        <time>2022-04-14T11:33:53Z</time>
      </trkpt>
      <trkpt lat="46.5722" lon="5.52501">
        <ele>484.8</ele>
        <time>2022-04-14T11:33:58Z</time>
      </trkpt>
      <trkpt lat="46.57224" lon="5.525">
        <ele>485</ele>
        <time>2022-04-14T11:33:59Z</time>
      </trkpt>
      <trkpt lat="46.57236" lon="5.52499">
        <ele>486</ele>
        <time>2022-04-14T11:34:02Z</time>
      </trkpt>
      <trkpt lat="46.57243" lon="5.52499">
        <ele>486.4</ele>
        <time>2022-04-14T11:34:04Z</time>
      </trkpt>
      <trkpt lat="46.57249" lon="5.52499">
        <ele>487</ele>
        <time>2022-04-14T11:34:05Z</time>
      </trkpt>
      <trkpt lat="46.57269" lon="5.52507">
        <ele>488.2</ele>
        <time>2022-04-14T11:34:10Z</time>
      </trkpt>
      <trkpt lat="46.57272" lon="5.52509">
        <ele>488.4</ele>
        <time>2022-04-14T11:34:11Z</time>
      </trkpt>
      <trkpt lat="46.57288" lon="5.52519">
        <ele>489.2</ele>
        <time>2022-04-14T11:34:16Z</time>
      </trkpt>
      <trkpt lat="46.57298" lon="5.52525">
        <ele>489.6</ele>
        <time>2022-04-14T11:34:19Z</time>
      </trkpt>
      <trkpt lat="46.5731" lon="5.52533">
        <ele>490.2</ele>
        <time>2022-04-14T11:34:23Z</time>
      </trkpt>
      <trkpt lat="46.57326" lon="5.5254">
        <ele>491</ele>
        <time>2022-04-14T11:34:28Z</time>
      </trkpt>
      <trkpt lat="46.57332" lon="5.52544">
        <ele>491.2</ele>
        <time>2022-04-14T11:34:30Z</time>
      </trkpt>
      <trkpt lat="46.57357" lon="5.52555">
        <ele>492.8</ele>
        <time>2022-04-14T11:34:37Z</time>
      </trkpt>
      <trkpt lat="46.5736" lon="5.52556">
        <ele>493</ele>
        <time>2022-04-14T11:34:38Z</time>
      </trkpt>
      <trkpt lat="46.57372" lon="5.52562">
        <ele>493.8</ele>
        <time>2022-04-14T11:34:41Z</time>
      </trkpt>
      <trkpt lat="46.57393" lon="5.52573">
        <ele>494.4</ele>
        <time>2022-04-14T11:34:47Z</time>
      </trkpt>
      <trkpt lat="46.57406" lon="5.52581">
        <ele>494.8</ele>
        <time>2022-04-14T11:34:51Z</time>
      </trkpt>
      <trkpt lat="46.5742" lon="5.5259">
        <ele>495.4</ele>
        <time>2022-04-14T11:34:55Z</time>
      </trkpt>
      <trkpt lat="46.57431" lon="5.52597">
        <ele>495.8</ele>
        <time>2022-04-14T11:34:58Z</time>
      </trkpt>
      <trkpt lat="46.57448" lon="5.5261">
        <ele>496.6</ele>
        <time>2022-04-14T11:35:03Z</time>
      </trkpt>
      <trkpt lat="46.57467" lon="5.52624">
        <ele>497</ele>
        <time>2022-04-14T11:35:09Z</time>
      </trkpt>
      <trkpt lat="46.5749" lon="5.52643">
        <ele>498.2</ele>
        <time>2022-04-14T11:35:16Z</time>
      </trkpt>
      <trkpt lat="46.57494" lon="5.52646">
        <ele>498.4</ele>
        <time>2022-04-14T11:35:17Z</time>
      </trkpt>
      <trkpt lat="46.57513" lon="5.52661">
        <ele>499.2</ele>
        <time>2022-04-14T11:35:22Z</time>
      </trkpt>
      <trkpt lat="46.57529" lon="5.52673">
        <ele>499.6</ele>
        <time>2022-04-14T11:35:26Z</time>
      </trkpt>
      <trkpt lat="46.5755" lon="5.52686">
        <ele>500.4</ele>
        <time>2022-04-14T11:35:31Z</time>
      </trkpt>
      <trkpt lat="46.57566" lon="5.52693">
        <ele>500.8</ele>
        <time>2022-04-14T11:35:34Z</time>
      </trkpt>
      <trkpt lat="46.57606" lon="5.52708">
        <ele>501.4</ele>
        <time>2022-04-14T11:35:42Z</time>
      </trkpt>
      <trkpt lat="46.57611" lon="5.5271">
        <ele>501.6</ele>
        <time>2022-04-14T11:35:43Z</time>
      </trkpt>
      <trkpt lat="46.57649" lon="5.52716">
        <ele>502.2</ele>
        <time>2022-04-14T11:35:50Z</time>
      </trkpt>
      <trkpt lat="46.57683" lon="5.52707">
        <ele>502.2</ele>
        <time>2022-04-14T11:35:56Z</time>
      </trkpt>
      <trkpt lat="46.57697" lon="5.52706">
        <ele>502</ele>
        <time>2022-04-14T11:35:58Z</time>
      </trkpt>
      <trkpt lat="46.57709" lon="5.52706">
        <ele>501.8</ele>
        <time>2022-04-14T11:36:00Z</time>
      </trkpt>
      <trkpt lat="46.57717" lon="5.52708">
        <ele>501.6</ele>
        <time>2022-04-14T11:36:01Z</time>
      </trkpt>
      <trkpt lat="46.57724" lon="5.5271">
        <ele>501.6</ele>
        <time>2022-04-14T11:36:02Z</time>
      </trkpt>
      <trkpt lat="46.57749" lon="5.52722">
        <ele>501.2</ele>
        <time>2022-04-14T11:36:06Z</time>
      </trkpt>
      <trkpt lat="46.57803" lon="5.52747">
        <ele>500.6</ele>
        <time>2022-04-14T11:36:14Z</time>
      </trkpt>
      <trkpt lat="46.57818" lon="5.52752">
        <ele>499.8</ele>
        <time>2022-04-14T11:36:16Z</time>
      </trkpt>
      <trkpt lat="46.57825" lon="5.52754">
        <ele>499.6</ele>
        <time>2022-04-14T11:36:17Z</time>
      </trkpt>
      <trkpt lat="46.57854" lon="5.5276">
        <ele>499.4</ele>
        <time>2022-04-14T11:36:21Z</time>
      </trkpt>
      <trkpt lat="46.57868" lon="5.52767">
        <ele>499.2</ele>
        <time>2022-04-14T11:36:23Z</time>
      </trkpt>
      <trkpt lat="46.57883" lon="5.52779">
        <ele>499.4</ele>
        <time>2022-04-14T11:36:26Z</time>
      </trkpt>
      <trkpt lat="46.57917" lon="5.52806">
        <ele>499.6</ele>
        <time>2022-04-14T11:36:32Z</time>
      </trkpt>
      <trkpt lat="46.57962" lon="5.52834">
        <ele>499.8</ele>
        <time>2022-04-14T11:36:39Z</time>
      </trkpt>
      <trkpt lat="46.58014" lon="5.52873">
        <ele>500</ele>
        <time>2022-04-14T11:36:48Z</time>
      </trkpt>
      <trkpt lat="46.58048" lon="5.52898">
        <ele>501</ele>
        <time>2022-04-14T11:36:54Z</time>
      </trkpt>
      <trkpt lat="46.58059" lon="5.52906">
        <ele>501</ele>
        <time>2022-04-14T11:36:56Z</time>
      </trkpt>
      <trkpt lat="46.58109" lon="5.52943">
        <ele>501</ele>
        <time>2022-04-14T11:37:05Z</time>
      </trkpt>
      <trkpt lat="46.58155" lon="5.52965">
        <ele>501.2</ele>
        <time>2022-04-14T11:37:13Z</time>
      </trkpt>
      <trkpt lat="46.58162" lon="5.52966">
        <ele>501.2</ele>
        <time>2022-04-14T11:37:14Z</time>
      </trkpt>
      <trkpt lat="46.58196" lon="5.52968">
        <ele>501.4</ele>
        <time>2022-04-14T11:37:19Z</time>
      </trkpt>
      <trkpt lat="46.5824" lon="5.52977">
        <ele>501.6</ele>
        <time>2022-04-14T11:37:26Z</time>
      </trkpt>
      <trkpt lat="46.58263" lon="5.52983">
        <ele>502.2</ele>
        <time>2022-04-14T11:37:30Z</time>
      </trkpt>
      <trkpt lat="46.58287" lon="5.52988">
        <ele>502.6</ele>
        <time>2022-04-14T11:37:34Z</time>
      </trkpt>
      <trkpt lat="46.58305" lon="5.52987">
        <ele>502.8</ele>
        <time>2022-04-14T11:37:37Z</time>
      </trkpt>
      <trkpt lat="46.58318" lon="5.52983">
        <ele>502.8</ele>
        <time>2022-04-14T11:37:39Z</time>
      </trkpt>
      <trkpt lat="46.5835" lon="5.52964">
        <ele>502.4</ele>
        <time>2022-04-14T11:37:44Z</time>
      </trkpt>
      <trkpt lat="46.58358" lon="5.5296">
        <ele>502.2</ele>
        <time>2022-04-14T11:37:45Z</time>
      </trkpt>
      <trkpt lat="46.58376" lon="5.52958">
        <ele>501.8</ele>
        <time>2022-04-14T11:37:47Z</time>
      </trkpt>
      <trkpt lat="46.58385" lon="5.52958">
        <ele>501.6</ele>
        <time>2022-04-14T11:37:48Z</time>
      </trkpt>
      <trkpt lat="46.58394" lon="5.5296">
        <ele>501.4</ele>
        <time>2022-04-14T11:37:49Z</time>
      </trkpt>
      <trkpt lat="46.584" lon="5.52962">
        <ele>501.2</ele>
        <time>2022-04-14T11:37:50Z</time>
      </trkpt>
      <trkpt lat="46.58418" lon="5.52967">
        <ele>500.2</ele>
        <time>2022-04-14T11:37:52Z</time>
      </trkpt>
      <trkpt lat="46.58426" lon="5.52969">
        <ele>499</ele>
        <time>2022-04-14T11:37:53Z</time>
      </trkpt>
      <trkpt lat="46.58464" lon="5.52982">
        <ele>498</ele>
        <time>2022-04-14T11:37:58Z</time>
      </trkpt>
      <trkpt lat="46.58521" lon="5.52993">
        <ele>498.8</ele>
        <time>2022-04-14T11:38:06Z</time>
      </trkpt>
      <trkpt lat="46.58563" lon="5.53006">
        <ele>498.6</ele>
        <time>2022-04-14T11:38:11Z</time>
      </trkpt>
      <trkpt lat="46.5858" lon="5.53015">
        <ele>497.8</ele>
        <time>2022-04-14T11:38:13Z</time>
      </trkpt>
      <trkpt lat="46.58596" lon="5.53026">
        <ele>496.8</ele>
        <time>2022-04-14T11:38:15Z</time>
      </trkpt>
      <trkpt lat="46.58604" lon="5.53032">
        <ele>496.6</ele>
        <time>2022-04-14T11:38:16Z</time>
      </trkpt>
      <trkpt lat="46.58622" lon="5.53043">
        <ele>495.4</ele>
        <time>2022-04-14T11:38:18Z</time>
      </trkpt>
      <trkpt lat="46.58638" lon="5.53053">
        <ele>494.2</ele>
        <time>2022-04-14T11:38:20Z</time>
      </trkpt>
      <trkpt lat="46.5867" lon="5.53075">
        <ele>493</ele>
        <time>2022-04-14T11:38:24Z</time>
      </trkpt>
      <trkpt lat="46.58709" lon="5.53096">
        <ele>492.4</ele>
        <time>2022-04-14T11:38:29Z</time>
      </trkpt>
      <trkpt lat="46.58745" lon="5.53103">
        <ele>492.2</ele>
        <time>2022-04-14T11:38:34Z</time>
      </trkpt>
      <trkpt lat="46.58779" lon="5.53107">
        <ele>492.2</ele>
        <time>2022-04-14T11:38:39Z</time>
      </trkpt>
      <trkpt lat="46.58827" lon="5.53114">
        <ele>492.6</ele>
        <time>2022-04-14T11:38:46Z</time>
      </trkpt>
      <trkpt lat="46.58866" lon="5.53136">
        <ele>492.4</ele>
        <time>2022-04-14T11:38:51Z</time>
      </trkpt>
      <trkpt lat="46.58897" lon="5.53164">
        <ele>491.8</ele>
        <time>2022-04-14T11:38:55Z</time>
      </trkpt>
      <trkpt lat="46.58905" lon="5.53171">
        <ele>491.2</ele>
        <time>2022-04-14T11:38:56Z</time>
      </trkpt>
      <trkpt lat="46.58913" lon="5.53179">
        <ele>490.8</ele>
        <time>2022-04-14T11:38:57Z</time>
      </trkpt>
      <trkpt lat="46.58929" lon="5.53196">
        <ele>489.8</ele>
        <time>2022-04-14T11:38:59Z</time>
      </trkpt>
      <trkpt lat="46.58953" lon="5.53222">
        <ele>488.4</ele>
        <time>2022-04-14T11:39:02Z</time>
      </trkpt>
      <trkpt lat="46.58961" lon="5.5323">
        <ele>487.2</ele>
        <time>2022-04-14T11:39:03Z</time>
      </trkpt>
      <trkpt lat="46.58992" lon="5.53264">
        <ele>486</ele>
        <time>2022-04-14T11:39:07Z</time>
      </trkpt>
      <trkpt lat="46.59014" lon="5.5329">
        <ele>485</ele>
        <time>2022-04-14T11:39:10Z</time>
      </trkpt>
      <trkpt lat="46.59021" lon="5.53298">
        <ele>484.8</ele>
        <time>2022-04-14T11:39:11Z</time>
      </trkpt>
      <trkpt lat="46.59042" lon="5.53322">
        <ele>484</ele>
        <time>2022-04-14T11:39:14Z</time>
      </trkpt>
      <trkpt lat="46.59064" lon="5.5334">
        <ele>483.8</ele>
        <time>2022-04-14T11:39:17Z</time>
      </trkpt>
      <trkpt lat="46.59077" lon="5.53351">
        <ele>484</ele>
        <time>2022-04-14T11:39:19Z</time>
      </trkpt>
      <trkpt lat="46.59081" lon="5.53359">
        <ele>484</ele>
        <time>2022-04-14T11:39:20Z</time>
      </trkpt>
      <trkpt lat="46.59082" lon="5.53368">
        <ele>484.2</ele>
        <time>2022-04-14T11:39:21Z</time>
      </trkpt>
      <trkpt lat="46.59081" lon="5.53377">
        <ele>484.4</ele>
        <time>2022-04-14T11:39:22Z</time>
      </trkpt>
      <trkpt lat="46.59077" lon="5.53385">
        <ele>484.4</ele>
        <time>2022-04-14T11:39:23Z</time>
      </trkpt>
      <trkpt lat="46.59065" lon="5.53399">
        <ele>485.2</ele>
        <time>2022-04-14T11:39:25Z</time>
      </trkpt>
      <trkpt lat="46.59031" lon="5.53436">
        <ele>485.4</ele>
        <time>2022-04-14T11:39:30Z</time>
      </trkpt>
      <trkpt lat="46.58996" lon="5.53474">
        <ele>484</ele>
        <time>2022-04-14T11:39:35Z</time>
      </trkpt>
      <trkpt lat="46.58989" lon="5.53484">
        <ele>483.6</ele>
        <time>2022-04-14T11:39:36Z</time>
      </trkpt>
      <trkpt lat="46.58984" lon="5.53494">
        <ele>483.6</ele>
        <time>2022-04-14T11:39:37Z</time>
      </trkpt>
      <trkpt lat="46.58975" lon="5.53518">
        <ele>483.2</ele>
        <time>2022-04-14T11:39:39Z</time>
      </trkpt>
      <trkpt lat="46.58968" lon="5.53541">
        <ele>482.8</ele>
        <time>2022-04-14T11:39:41Z</time>
      </trkpt>
      <trkpt lat="46.58958" lon="5.53586">
        <ele>481.8</ele>
        <time>2022-04-14T11:39:44Z</time>
      </trkpt>
      <trkpt lat="46.58949" lon="5.5363">
        <ele>480.4</ele>
        <time>2022-04-14T11:39:47Z</time>
      </trkpt>
      <trkpt lat="46.58941" lon="5.53661">
        <ele>479.6</ele>
        <time>2022-04-14T11:39:49Z</time>
      </trkpt>
      <trkpt lat="46.58936" lon="5.53676">
        <ele>479.2</ele>
        <time>2022-04-14T11:39:50Z</time>
      </trkpt>
      <trkpt lat="46.58926" lon="5.53709">
        <ele>477.4</ele>
        <time>2022-04-14T11:39:52Z</time>
      </trkpt>
      <trkpt lat="46.58916" lon="5.53742">
        <ele>475.8</ele>
        <time>2022-04-14T11:39:54Z</time>
      </trkpt>
      <trkpt lat="46.5891" lon="5.53759">
        <ele>475.2</ele>
        <time>2022-04-14T11:39:55Z</time>
      </trkpt>
      <trkpt lat="46.58905" lon="5.53776">
        <ele>474.2</ele>
        <time>2022-04-14T11:39:56Z</time>
      </trkpt>
      <trkpt lat="46.58894" lon="5.53811">
        <ele>473</ele>
        <time>2022-04-14T11:39:58Z</time>
      </trkpt>
      <trkpt lat="46.58889" lon="5.53828">
        <ele>471.4</ele>
        <time>2022-04-14T11:39:59Z</time>
      </trkpt>
      <trkpt lat="46.58878" lon="5.53862">
        <ele>469.2</ele>
        <time>2022-04-14T11:40:01Z</time>
      </trkpt>
      <trkpt lat="46.58873" lon="5.53879">
        <ele>468.4</ele>
        <time>2022-04-14T11:40:02Z</time>
      </trkpt>
      <trkpt lat="46.58868" lon="5.53895">
        <ele>467.4</ele>
        <time>2022-04-14T11:40:03Z</time>
      </trkpt>
      <trkpt lat="46.58858" lon="5.53927">
        <ele>466.2</ele>
        <time>2022-04-14T11:40:05Z</time>
      </trkpt>
      <trkpt lat="46.58844" lon="5.53975">
        <ele>465.2</ele>
        <time>2022-04-14T11:40:08Z</time>
      </trkpt>
      <trkpt lat="46.58824" lon="5.54048">
        <ele>464.4</ele>
        <time>2022-04-14T11:40:13Z</time>
      </trkpt>
      <trkpt lat="46.58821" lon="5.54062">
        <ele>464.4</ele>
        <time>2022-04-14T11:40:14Z</time>
      </trkpt>
      <trkpt lat="46.58812" lon="5.54107">
        <ele>464</ele>
        <time>2022-04-14T11:40:17Z</time>
      </trkpt>
      <trkpt lat="46.588" lon="5.54183">
        <ele>463.2</ele>
        <time>2022-04-14T11:40:22Z</time>
      </trkpt>
      <trkpt lat="46.58798" lon="5.54197">
        <ele>463</ele>
        <time>2022-04-14T11:40:23Z</time>
      </trkpt>
      <trkpt lat="46.5879" lon="5.54238">
        <ele>462.4</ele>
        <time>2022-04-14T11:40:26Z</time>
      </trkpt>
      <trkpt lat="46.5879" lon="5.54251">
        <ele>462.4</ele>
        <time>2022-04-14T11:40:27Z</time>
      </trkpt>
      <trkpt lat="46.58792" lon="5.54263">
        <ele>462.4</ele>
        <time>2022-04-14T11:40:28Z</time>
      </trkpt>
      <trkpt lat="46.58797" lon="5.54272">
        <ele>462.4</ele>
        <time>2022-04-14T11:40:29Z</time>
      </trkpt>
      <trkpt lat="46.58802" lon="5.54278">
        <ele>462.4</ele>
        <time>2022-04-14T11:40:30Z</time>
      </trkpt>
      <trkpt lat="46.58816" lon="5.54282">
        <ele>462.4</ele>
        <time>2022-04-14T11:40:32Z</time>
      </trkpt>
      <trkpt lat="46.58836" lon="5.5428">
        <ele>461.8</ele>
        <time>2022-04-14T11:40:35Z</time>
      </trkpt>
      <trkpt lat="46.58864" lon="5.54281">
        <ele>461.6</ele>
        <time>2022-04-14T11:40:39Z</time>
      </trkpt>
      <trkpt lat="46.5892" lon="5.54287">
        <ele>461.8</ele>
        <time>2022-04-14T11:40:47Z</time>
      </trkpt>
      <trkpt lat="46.58958" lon="5.54295">
        <ele>463</ele>
        <time>2022-04-14T11:40:53Z</time>
      </trkpt>
      <trkpt lat="46.58982" lon="5.54305">
        <ele>464.2</ele>
        <time>2022-04-14T11:40:57Z</time>
      </trkpt>
      <trkpt lat="46.59024" lon="5.54336">
        <ele>464</ele>
        <time>2022-04-14T11:41:04Z</time>
      </trkpt>
      <trkpt lat="46.59078" lon="5.54376">
        <ele>463.2</ele>
        <time>2022-04-14T11:41:13Z</time>
      </trkpt>
      <trkpt lat="46.59117" lon="5.54397">
        <ele>462.8</ele>
        <time>2022-04-14T11:41:19Z</time>
      </trkpt>
      <trkpt lat="46.59151" lon="5.54412">
        <ele>462</ele>
        <time>2022-04-14T11:41:24Z</time>
      </trkpt>
      <trkpt lat="46.59176" lon="5.54425">
        <ele>462</ele>
        <time>2022-04-14T11:41:28Z</time>
      </trkpt>
      <trkpt lat="46.59217" lon="5.54451">
        <ele>462.4</ele>
        <time>2022-04-14T11:41:35Z</time>
      </trkpt>
      <trkpt lat="46.59262" lon="5.54475">
        <ele>463</ele>
        <time>2022-04-14T11:41:43Z</time>
      </trkpt>
      <trkpt lat="46.59273" lon="5.54481">
        <ele>463</ele>
        <time>2022-04-14T11:41:45Z</time>
      </trkpt>
      <trkpt lat="46.59317" lon="5.54502">
        <ele>463.2</ele>
        <time>2022-04-14T11:41:53Z</time>
      </trkpt>
      <trkpt lat="46.59354" lon="5.54519">
        <ele>464.2</ele>
        <time>2022-04-14T11:42:00Z</time>
      </trkpt>
      <trkpt lat="46.59365" lon="5.54524">
        <ele>464.2</ele>
        <time>2022-04-14T11:42:02Z</time>
      </trkpt>
      <trkpt lat="46.59411" lon="5.5455">
        <ele>465</ele>
        <time>2022-04-14T11:42:11Z</time>
      </trkpt>
      <trkpt lat="46.59432" lon="5.54564">
        <ele>465.2</ele>
        <time>2022-04-14T11:42:15Z</time>
      </trkpt>
      <trkpt lat="46.59464" lon="5.54584">
        <ele>465.6</ele>
        <time>2022-04-14T11:42:21Z</time>
      </trkpt>
      <trkpt lat="46.59504" lon="5.54602">
        <ele>466</ele>
        <time>2022-04-14T11:42:29Z</time>
      </trkpt>
      <trkpt lat="46.59528" lon="5.5461">
        <ele>466.2</ele>
        <time>2022-04-14T11:42:34Z</time>
      </trkpt>
      <trkpt lat="46.59532" lon="5.54612">
        <ele>466.2</ele>
        <time>2022-04-14T11:42:35Z</time>
      </trkpt>
      <trkpt lat="46.59553" lon="5.54618">
        <ele>467.2</ele>
        <time>2022-04-14T11:42:40Z</time>
      </trkpt>
      <trkpt lat="46.59556" lon="5.54619">
        <ele>467.4</ele>
        <time>2022-04-14T11:42:41Z</time>
      </trkpt>
      <trkpt lat="46.59564" lon="5.54623">
        <ele>468.2</ele>
        <time>2022-04-14T11:42:43Z</time>
      </trkpt>
      <trkpt lat="46.59568" lon="5.54625">
        <ele>468.4</ele>
        <time>2022-04-14T11:42:44Z</time>
      </trkpt>
      <trkpt lat="46.5958" lon="5.54634">
        <ele>469.6</ele>
        <time>2022-04-14T11:42:47Z</time>
      </trkpt>
      <trkpt lat="46.59584" lon="5.54637">
        <ele>469.6</ele>
        <time>2022-04-14T11:42:48Z</time>
      </trkpt>
      <trkpt lat="46.59595" lon="5.5465">
        <ele>470.6</ele>
        <time>2022-04-14T11:42:51Z</time>
      </trkpt>
      <trkpt lat="46.59605" lon="5.54659">
        <ele>470.8</ele>
        <time>2022-04-14T11:42:53Z</time>
      </trkpt>
      <trkpt lat="46.59617" lon="5.54666">
        <ele>471</ele>
        <time>2022-04-14T11:42:55Z</time>
      </trkpt>
      <trkpt lat="46.5963" lon="5.54669">
        <ele>471</ele>
        <time>2022-04-14T11:42:57Z</time>
      </trkpt>
      <trkpt lat="46.59669" lon="5.54666">
        <ele>470</ele>
        <time>2022-04-14T11:43:02Z</time>
      </trkpt>
      <trkpt lat="46.59676" lon="5.54665">
        <ele>469.4</ele>
        <time>2022-04-14T11:43:03Z</time>
      </trkpt>
      <trkpt lat="46.59705" lon="5.54664">
        <ele>467.2</ele>
        <time>2022-04-14T11:43:06Z</time>
      </trkpt>
      <trkpt lat="46.59714" lon="5.54665">
        <ele>466.6</ele>
        <time>2022-04-14T11:43:07Z</time>
      </trkpt>
      <trkpt lat="46.59724" lon="5.54665">
        <ele>466</ele>
        <time>2022-04-14T11:43:08Z</time>
      </trkpt>
      <trkpt lat="46.5975" lon="5.54668">
        <ele>464.6</ele>
        <time>2022-04-14T11:43:11Z</time>
      </trkpt>
      <trkpt lat="46.59778" lon="5.54671">
        <ele>463.2</ele>
        <time>2022-04-14T11:43:14Z</time>
      </trkpt>
      <trkpt lat="46.59787" lon="5.54672">
        <ele>462.6</ele>
        <time>2022-04-14T11:43:15Z</time>
      </trkpt>
      <trkpt lat="46.59819" lon="5.54675">
        <ele>462.2</ele>
        <time>2022-04-14T11:43:19Z</time>
      </trkpt>
      <trkpt lat="46.59843" lon="5.54677">
        <ele>461.8</ele>
        <time>2022-04-14T11:43:22Z</time>
      </trkpt>
      <trkpt lat="46.59904" lon="5.54684">
        <ele>461.6</ele>
        <time>2022-04-14T11:43:30Z</time>
      </trkpt>
      <trkpt lat="46.59918" lon="5.54686">
        <ele>461.4</ele>
        <time>2022-04-14T11:43:32Z</time>
      </trkpt>
      <trkpt lat="46.59973" lon="5.54694">
        <ele>461.4</ele>
        <time>2022-04-14T11:43:40Z</time>
      </trkpt>
      <trkpt lat="46.5998" lon="5.54694">
        <ele>461.4</ele>
        <time>2022-04-14T11:43:41Z</time>
      </trkpt>
      <trkpt lat="46.60027" lon="5.54701">
        <ele>461</ele>
        <time>2022-04-14T11:43:48Z</time>
      </trkpt>
      <trkpt lat="46.6004" lon="5.54705">
        <ele>460.8</ele>
        <time>2022-04-14T11:43:50Z</time>
      </trkpt>
      <trkpt lat="46.60099" lon="5.54722">
        <ele>460.4</ele>
        <time>2022-04-14T11:43:59Z</time>
      </trkpt>
      <trkpt lat="46.60118" lon="5.54727">
        <ele>460.4</ele>
        <time>2022-04-14T11:44:02Z</time>
      </trkpt>
      <trkpt lat="46.60156" lon="5.54737">
        <ele>460</ele>
        <time>2022-04-14T11:44:08Z</time>
      </trkpt>
      <trkpt lat="46.60178" lon="5.54743">
        <ele>459.8</ele>
        <time>2022-04-14T11:44:12Z</time>
      </trkpt>
      <trkpt lat="46.6023" lon="5.54765">
        <ele>460</ele>
        <time>2022-04-14T11:44:21Z</time>
      </trkpt>
      <trkpt lat="46.60285" lon="5.54797">
        <ele>461</ele>
        <time>2022-04-14T11:44:30Z</time>
      </trkpt>
      <trkpt lat="46.60336" lon="5.54827">
        <ele>461</ele>
        <time>2022-04-14T11:44:39Z</time>
      </trkpt>
      <trkpt lat="46.60342" lon="5.54831">
        <ele>461.2</ele>
        <time>2022-04-14T11:44:40Z</time>
      </trkpt>
      <trkpt lat="46.60372" lon="5.54847">
        <ele>461.6</ele>
        <time>2022-04-14T11:44:46Z</time>
      </trkpt>
      <trkpt lat="46.60394" lon="5.54856">
        <ele>462.4</ele>
        <time>2022-04-14T11:44:51Z</time>
      </trkpt>
      <trkpt lat="46.60397" lon="5.54857">
        <ele>462.6</ele>
        <time>2022-04-14T11:44:52Z</time>
      </trkpt>
      <trkpt lat="46.60417" lon="5.54867">
        <ele>463.4</ele>
        <time>2022-04-14T11:44:57Z</time>
      </trkpt>
      <trkpt lat="46.60424" lon="5.54871">
        <ele>464.2</ele>
        <time>2022-04-14T11:44:59Z</time>
      </trkpt>
      <trkpt lat="46.60427" lon="5.54873">
        <ele>464.6</ele>
        <time>2022-04-14T11:45:00Z</time>
      </trkpt>
      <trkpt lat="46.60438" lon="5.54882">
        <ele>465.6</ele>
        <time>2022-04-14T11:45:03Z</time>
      </trkpt>
      <trkpt lat="46.60445" lon="5.54891">
        <ele>466.4</ele>
        <time>2022-04-14T11:45:06Z</time>
      </trkpt>
      <trkpt lat="46.60448" lon="5.54894">
        <ele>466.6</ele>
        <time>2022-04-14T11:45:07Z</time>
      </trkpt>
      <trkpt lat="46.60455" lon="5.54905">
        <ele>467.6</ele>
        <time>2022-04-14T11:45:10Z</time>
      </trkpt>
      <trkpt lat="46.60462" lon="5.54915">
        <ele>468.8</ele>
        <time>2022-04-14T11:45:13Z</time>
      </trkpt>
      <trkpt lat="46.60469" lon="5.54926">
        <ele>469.2</ele>
        <time>2022-04-14T11:45:16Z</time>
      </trkpt>
      <trkpt lat="46.60471" lon="5.5493">
        <ele>469.8</ele>
        <time>2022-04-14T11:45:17Z</time>
      </trkpt>
      <trkpt lat="46.60479" lon="5.54946">
        <ele>470.8</ele>
        <time>2022-04-14T11:45:21Z</time>
      </trkpt>
      <trkpt lat="46.60484" lon="5.54954">
        <ele>471.6</ele>
        <time>2022-04-14T11:45:23Z</time>
      </trkpt>
      <trkpt lat="46.60487" lon="5.54958">
        <ele>472</ele>
        <time>2022-04-14T11:45:24Z</time>
      </trkpt>
      <trkpt lat="46.605" lon="5.54979">
        <ele>473.2</ele>
        <time>2022-04-14T11:45:29Z</time>
      </trkpt>
      <trkpt lat="46.60507" lon="5.54989">
        <ele>473.2</ele>
        <time>2022-04-14T11:45:31Z</time>
      </trkpt>
      <trkpt lat="46.60524" lon="5.55022">
        <ele>473.2</ele>
        <time>2022-04-14T11:45:36Z</time>
      </trkpt>
      <trkpt lat="46.60546" lon="5.55064">
        <ele>471.4</ele>
        <time>2022-04-14T11:45:41Z</time>
      </trkpt>
      <trkpt lat="46.6055" lon="5.55072">
        <ele>470.8</ele>
        <time>2022-04-14T11:45:42Z</time>
      </trkpt>
      <trkpt lat="46.60561" lon="5.55086">
        <ele>470.2</ele>
        <time>2022-04-14T11:45:44Z</time>
      </trkpt>
      <trkpt lat="46.60573" lon="5.55097">
        <ele>469.4</ele>
        <time>2022-04-14T11:45:46Z</time>
      </trkpt>
      <trkpt lat="46.60579" lon="5.55101">
        <ele>469</ele>
        <time>2022-04-14T11:45:47Z</time>
      </trkpt>
      <trkpt lat="46.60604" lon="5.55113">
        <ele>468.4</ele>
        <time>2022-04-14T11:45:51Z</time>
      </trkpt>
      <trkpt lat="46.60638" lon="5.5513">
        <ele>468.8</ele>
        <time>2022-04-14T11:45:57Z</time>
      </trkpt>
      <trkpt lat="46.60662" lon="5.55144">
        <ele>470.4</ele>
        <time>2022-04-14T11:46:03Z</time>
      </trkpt>
      <trkpt lat="46.60678" lon="5.55158">
        <ele>471.6</ele>
        <time>2022-04-14T11:46:07Z</time>
      </trkpt>
      <trkpt lat="46.60689" lon="5.5517">
        <ele>473</ele>
        <time>2022-04-14T11:46:10Z</time>
      </trkpt>
      <trkpt lat="46.60692" lon="5.55174">
        <ele>472.8</ele>
        <time>2022-04-14T11:46:11Z</time>
      </trkpt>
      <trkpt lat="46.60695" lon="5.55179">
        <ele>473.6</ele>
        <time>2022-04-14T11:46:12Z</time>
      </trkpt>
      <trkpt lat="46.60698" lon="5.55184">
        <ele>474</ele>
        <time>2022-04-14T11:46:13Z</time>
      </trkpt>
      <trkpt lat="46.60709" lon="5.55203">
        <ele>475</ele>
        <time>2022-04-14T11:46:17Z</time>
      </trkpt>
      <trkpt lat="46.60715" lon="5.55215">
        <ele>475.4</ele>
        <time>2022-04-14T11:46:19Z</time>
      </trkpt>
      <trkpt lat="46.60722" lon="5.55227">
        <ele>475.8</ele>
        <time>2022-04-14T11:46:21Z</time>
      </trkpt>
      <trkpt lat="46.60729" lon="5.55238">
        <ele>476</ele>
        <time>2022-04-14T11:46:23Z</time>
      </trkpt>
      <trkpt lat="46.60732" lon="5.55242">
        <ele>476.2</ele>
        <time>2022-04-14T11:46:24Z</time>
      </trkpt>
      <trkpt lat="46.60745" lon="5.55259">
        <ele>477</ele>
        <time>2022-04-14T11:46:28Z</time>
      </trkpt>
      <trkpt lat="46.60765" lon="5.55284">
        <ele>477.8</ele>
        <time>2022-04-14T11:46:34Z</time>
      </trkpt>
      <trkpt lat="46.60767" lon="5.55288">
        <ele>478</ele>
        <time>2022-04-14T11:46:35Z</time>
      </trkpt>
      <trkpt lat="46.60779" lon="5.55307">
        <ele>479</ele>
        <time>2022-04-14T11:46:40Z</time>
      </trkpt>
      <trkpt lat="46.60781" lon="5.55311">
        <ele>479.2</ele>
        <time>2022-04-14T11:46:41Z</time>
      </trkpt>
      <trkpt lat="46.60789" lon="5.55326">
        <ele>480.4</ele>
        <time>2022-04-14T11:46:45Z</time>
      </trkpt>
      <trkpt lat="46.60794" lon="5.55343">
        <ele>481.4</ele>
        <time>2022-04-14T11:46:49Z</time>
      </trkpt>
      <trkpt lat="46.60795" lon="5.55347">
        <ele>481.8</ele>
        <time>2022-04-14T11:46:50Z</time>
      </trkpt>
      <trkpt lat="46.60803" lon="5.55373">
        <ele>482.8</ele>
        <time>2022-04-14T11:46:56Z</time>
      </trkpt>
      <trkpt lat="46.60805" lon="5.55377">
        <ele>483.2</ele>
        <time>2022-04-14T11:46:57Z</time>
      </trkpt>
      <trkpt lat="46.6081" lon="5.55388">
        <ele>484</ele>
        <time>2022-04-14T11:47:00Z</time>
      </trkpt>
      <trkpt lat="46.60819" lon="5.554">
        <ele>484.6</ele>
        <time>2022-04-14T11:47:04Z</time>
      </trkpt>
      <trkpt lat="46.60822" lon="5.55402">
        <ele>485.2</ele>
        <time>2022-04-14T11:47:05Z</time>
      </trkpt>
      <trkpt lat="46.60837" lon="5.55407">
        <ele>486.2</ele>
        <time>2022-04-14T11:47:10Z</time>
      </trkpt>
      <trkpt lat="46.60846" lon="5.55409">
        <ele>487.4</ele>
        <time>2022-04-14T11:47:13Z</time>
      </trkpt>
      <trkpt lat="46.60858" lon="5.5541">
        <ele>488.6</ele>
        <time>2022-04-14T11:47:17Z</time>
      </trkpt>
      <trkpt lat="46.60863" lon="5.55411">
        <ele>488.8</ele>
        <time>2022-04-14T11:47:19Z</time>
      </trkpt>
      <trkpt lat="46.60873" lon="5.55411">
        <ele>489.8</ele>
        <time>2022-04-14T11:47:22Z</time>
      </trkpt>
      <trkpt lat="46.60886" lon="5.55413">
        <ele>491</ele>
        <time>2022-04-14T11:47:26Z</time>
      </trkpt>
      <trkpt lat="46.60897" lon="5.55414">
        <ele>492</ele>
        <time>2022-04-14T11:47:29Z</time>
      </trkpt>
      <trkpt lat="46.60904" lon="5.55416">
        <ele>492.2</ele>
        <time>2022-04-14T11:47:31Z</time>
      </trkpt>
      <trkpt lat="46.60924" lon="5.5542">
        <ele>492.6</ele>
        <time>2022-04-14T11:47:36Z</time>
      </trkpt>
      <trkpt lat="46.60948" lon="5.55425">
        <ele>493.2</ele>
        <time>2022-04-14T11:47:42Z</time>
      </trkpt>
      <trkpt lat="46.60966" lon="5.5543">
        <ele>494</ele>
        <time>2022-04-14T11:47:46Z</time>
      </trkpt>
      <trkpt lat="46.60988" lon="5.55439">
        <ele>494.4</ele>
        <time>2022-04-14T11:47:50Z</time>
      </trkpt>
      <trkpt lat="46.61" lon="5.55444">
        <ele>494.2</ele>
        <time>2022-04-14T11:47:52Z</time>
      </trkpt>
      <trkpt lat="46.61033" lon="5.55459">
        <ele>493.4</ele>
        <time>2022-04-14T11:47:57Z</time>
      </trkpt>
      <trkpt lat="46.6104" lon="5.5546">
        <ele>493.2</ele>
        <time>2022-04-14T11:47:58Z</time>
      </trkpt>
      <trkpt lat="46.61081" lon="5.55459">
        <ele>492.8</ele>
        <time>2022-04-14T11:48:04Z</time>
      </trkpt>
      <trkpt lat="46.61118" lon="5.55458">
        <ele>493</ele>
        <time>2022-04-14T11:48:10Z</time>
      </trkpt>
      <trkpt lat="46.61153" lon="5.5546">
        <ele>493.8</ele>
        <time>2022-04-14T11:48:16Z</time>
      </trkpt>
      <trkpt lat="46.61179" lon="5.55459">
        <ele>494.2</ele>
        <time>2022-04-14T11:48:20Z</time>
      </trkpt>
      <trkpt lat="46.612" lon="5.55456">
        <ele>494.2</ele>
        <time>2022-04-14T11:48:23Z</time>
      </trkpt>
      <trkpt lat="46.61205" lon="5.55455">
        <ele>494.2</ele>
        <time>2022-04-14T11:48:24Z</time>
      </trkpt>
      <trkpt lat="46.61251" lon="5.55439">
        <ele>494.2</ele>
        <time>2022-04-14T11:48:31Z</time>
      </trkpt>
      <trkpt lat="46.61296" lon="5.55425">
        <ele>493.8</ele>
        <time>2022-04-14T11:48:38Z</time>
      </trkpt>
      <trkpt lat="46.61342" lon="5.55408">
        <ele>494.6</ele>
        <time>2022-04-14T11:48:45Z</time>
      </trkpt>
      <trkpt lat="46.61395" lon="5.55392">
        <ele>494</ele>
        <time>2022-04-14T11:48:53Z</time>
      </trkpt>
      <trkpt lat="46.61402" lon="5.55389">
        <ele>493.8</ele>
        <time>2022-04-14T11:48:54Z</time>
      </trkpt>
      <trkpt lat="46.61428" lon="5.55381">
        <ele>493.6</ele>
        <time>2022-04-14T11:48:58Z</time>
      </trkpt>
      <trkpt lat="46.61436" lon="5.55382">
        <ele>493.6</ele>
        <time>2022-04-14T11:48:59Z</time>
      </trkpt>
      <trkpt lat="46.61449" lon="5.55387">
        <ele>493.6</ele>
        <time>2022-04-14T11:49:01Z</time>
      </trkpt>
      <trkpt lat="46.61467" lon="5.55399">
        <ele>493.6</ele>
        <time>2022-04-14T11:49:04Z</time>
      </trkpt>
      <trkpt lat="46.61507" lon="5.5542">
        <ele>493.4</ele>
        <time>2022-04-14T11:49:11Z</time>
      </trkpt>
      <trkpt lat="46.61524" lon="5.55421">
        <ele>493.2</ele>
        <time>2022-04-14T11:49:14Z</time>
      </trkpt>
      <trkpt lat="46.61542" lon="5.55421">
        <ele>493.2</ele>
        <time>2022-04-14T11:49:17Z</time>
      </trkpt>
      <trkpt lat="46.61552" lon="5.55424">
        <ele>493</ele>
        <time>2022-04-14T11:49:19Z</time>
      </trkpt>
      <trkpt lat="46.61558" lon="5.55425">
        <ele>492.8</ele>
        <time>2022-04-14T11:49:20Z</time>
      </trkpt>
      <trkpt lat="46.61594" lon="5.55414">
        <ele>492.4</ele>
        <time>2022-04-14T11:49:26Z</time>
      </trkpt>
      <trkpt lat="46.616" lon="5.55412">
        <ele>492.2</ele>
        <time>2022-04-14T11:49:27Z</time>
      </trkpt>
      <trkpt lat="46.61612" lon="5.55412">
        <ele>492.2</ele>
        <time>2022-04-14T11:49:29Z</time>
      </trkpt>
      <trkpt lat="46.61623" lon="5.55414">
        <ele>492.2</ele>
        <time>2022-04-14T11:49:31Z</time>
      </trkpt>
      <trkpt lat="46.61647" lon="5.5543">
        <ele>492.4</ele>
        <time>2022-04-14T11:49:36Z</time>
      </trkpt>
      <trkpt lat="46.61666" lon="5.55442">
        <ele>493.4</ele>
        <time>2022-04-14T11:49:40Z</time>
      </trkpt>
      <trkpt lat="46.61678" lon="5.55454">
        <ele>493.4</ele>
        <time>2022-04-14T11:49:43Z</time>
      </trkpt>
      <trkpt lat="46.6169" lon="5.55461">
        <ele>493.6</ele>
        <time>2022-04-14T11:49:47Z</time>
      </trkpt>
      <trkpt lat="46.61699" lon="5.55461">
        <ele>493.4</ele>
        <time>2022-04-14T11:49:49Z</time>
      </trkpt>
      <trkpt lat="46.61712" lon="5.55458">
        <ele>493.4</ele>
        <time>2022-04-14T11:49:51Z</time>
      </trkpt>
      <trkpt lat="46.61719" lon="5.55457">
        <ele>493.4</ele>
        <time>2022-04-14T11:49:52Z</time>
      </trkpt>
      <trkpt lat="46.61744" lon="5.55453">
        <ele>493.2</ele>
        <time>2022-04-14T11:49:55Z</time>
      </trkpt>
      <trkpt lat="46.61761" lon="5.55449">
        <ele>491.6</ele>
        <time>2022-04-14T11:49:57Z</time>
      </trkpt>
      <trkpt lat="46.6178" lon="5.55445">
        <ele>490.4</ele>
        <time>2022-04-14T11:49:59Z</time>
      </trkpt>
      <trkpt lat="46.61799" lon="5.55442">
        <ele>489.2</ele>
        <time>2022-04-14T11:50:01Z</time>
      </trkpt>
      <trkpt lat="46.61808" lon="5.5544">
        <ele>488.4</ele>
        <time>2022-04-14T11:50:02Z</time>
      </trkpt>
      <trkpt lat="46.61817" lon="5.55439">
        <ele>488</ele>
        <time>2022-04-14T11:50:03Z</time>
      </trkpt>
      <trkpt lat="46.61853" lon="5.55433">
        <ele>486.8</ele>
        <time>2022-04-14T11:50:07Z</time>
      </trkpt>
      <trkpt lat="46.61889" lon="5.55425">
        <ele>485.6</ele>
        <time>2022-04-14T11:50:11Z</time>
      </trkpt>
      <trkpt lat="46.61925" lon="5.55411">
        <ele>484</ele>
        <time>2022-04-14T11:50:15Z</time>
      </trkpt>
      <trkpt lat="46.61944" lon="5.55402">
        <ele>482.6</ele>
        <time>2022-04-14T11:50:17Z</time>
      </trkpt>
      <trkpt lat="46.61972" lon="5.55386">
        <ele>480.6</ele>
        <time>2022-04-14T11:50:20Z</time>
      </trkpt>
      <trkpt lat="46.61996" lon="5.55373">
        <ele>479</ele>
        <time>2022-04-14T11:50:22Z</time>
      </trkpt>
      <trkpt lat="46.62018" lon="5.55361">
        <ele>476.8</ele>
        <time>2022-04-14T11:50:24Z</time>
      </trkpt>
      <trkpt lat="46.62029" lon="5.55356">
        <ele>475.8</ele>
        <time>2022-04-14T11:50:25Z</time>
      </trkpt>
      <trkpt lat="46.62041" lon="5.55351">
        <ele>475.2</ele>
        <time>2022-04-14T11:50:26Z</time>
      </trkpt>
      <trkpt lat="46.62053" lon="5.55348">
        <ele>474.2</ele>
        <time>2022-04-14T11:50:27Z</time>
      </trkpt>
      <trkpt lat="46.62065" lon="5.55348">
        <ele>473.8</ele>
        <time>2022-04-14T11:50:28Z</time>
      </trkpt>
      <trkpt lat="46.62076" lon="5.55349">
        <ele>473.2</ele>
        <time>2022-04-14T11:50:29Z</time>
      </trkpt>
      <trkpt lat="46.62088" lon="5.55352">
        <ele>472.8</ele>
        <time>2022-04-14T11:50:30Z</time>
      </trkpt>
      <trkpt lat="46.62099" lon="5.55357">
        <ele>472.4</ele>
        <time>2022-04-14T11:50:31Z</time>
      </trkpt>
      <trkpt lat="46.6211" lon="5.55362">
        <ele>471.8</ele>
        <time>2022-04-14T11:50:32Z</time>
      </trkpt>
      <trkpt lat="46.6213" lon="5.5537">
        <ele>470.4</ele>
        <time>2022-04-14T11:50:34Z</time>
      </trkpt>
      <trkpt lat="46.62144" lon="5.55374">
        <ele>470</ele>
        <time>2022-04-14T11:50:35Z</time>
      </trkpt>
      <trkpt lat="46.62178" lon="5.5538">
        <ele>468.6</ele>
        <time>2022-04-14T11:50:38Z</time>
      </trkpt>
      <trkpt lat="46.622" lon="5.55381">
        <ele>467.4</ele>
        <time>2022-04-14T11:50:40Z</time>
      </trkpt>
      <trkpt lat="46.62211" lon="5.55382">
        <ele>466.8</ele>
        <time>2022-04-14T11:50:41Z</time>
      </trkpt>
      <trkpt lat="46.62233" lon="5.55383">
        <ele>465.2</ele>
        <time>2022-04-14T11:50:43Z</time>
      </trkpt>
      <trkpt lat="46.62255" lon="5.55382">
        <ele>463.4</ele>
        <time>2022-04-14T11:50:45Z</time>
      </trkpt>
      <trkpt lat="46.62267" lon="5.5538">
        <ele>463</ele>
        <time>2022-04-14T11:50:46Z</time>
      </trkpt>
      <trkpt lat="46.62278" lon="5.55377">
        <ele>462</ele>
        <time>2022-04-14T11:50:47Z</time>
      </trkpt>
      <trkpt lat="46.62302" lon="5.5537">
        <ele>460.6</ele>
        <time>2022-04-14T11:50:49Z</time>
      </trkpt>
      <trkpt lat="46.62313" lon="5.55367">
        <ele>459</ele>
        <time>2022-04-14T11:50:50Z</time>
      </trkpt>
      <trkpt lat="46.62335" lon="5.55361">
        <ele>456.4</ele>
        <time>2022-04-14T11:50:52Z</time>
      </trkpt>
      <trkpt lat="46.62344" lon="5.55357">
        <ele>456</ele>
        <time>2022-04-14T11:50:53Z</time>
      </trkpt>
      <trkpt lat="46.62352" lon="5.55352">
        <ele>455.4</ele>
        <time>2022-04-14T11:50:54Z</time>
      </trkpt>
      <trkpt lat="46.62358" lon="5.55344">
        <ele>455</ele>
        <time>2022-04-14T11:50:55Z</time>
      </trkpt>
      <trkpt lat="46.62362" lon="5.55326">
        <ele>454.6</ele>
        <time>2022-04-14T11:50:57Z</time>
      </trkpt>
      <trkpt lat="46.62359" lon="5.5531">
        <ele>454.4</ele>
        <time>2022-04-14T11:50:59Z</time>
      </trkpt>
      <trkpt lat="46.62357" lon="5.55304">
        <ele>454.4</ele>
        <time>2022-04-14T11:51:00Z</time>
      </trkpt>
      <trkpt lat="46.62355" lon="5.55299">
        <ele>454.2</ele>
        <time>2022-04-14T11:51:01Z</time>
      </trkpt>
      <trkpt lat="46.62354" lon="5.55295">
        <ele>454.2</ele>
        <time>2022-04-14T11:51:03Z</time>
      </trkpt>
      <trkpt lat="46.62354" lon="5.55295">
        <ele>454.2</ele>
        <time>2022-04-14T11:51:06Z</time>
      </trkpt>
      <trkpt lat="46.62349" lon="5.5529">
        <ele>452.6</ele>
        <time>2022-04-14T11:51:50Z</time>
      </trkpt>
      <trkpt lat="46.62335" lon="5.55267">
        <ele>452.4</ele>
        <time>2022-04-14T11:51:56Z</time>
      </trkpt>
      <trkpt lat="46.62328" lon="5.55254">
        <ele>452.4</ele>
        <time>2022-04-14T11:51:58Z</time>
      </trkpt>
      <trkpt lat="46.62318" lon="5.5524">
        <ele>452.2</ele>
        <time>2022-04-14T11:52:00Z</time>
      </trkpt>
      <trkpt lat="46.62306" lon="5.55226">
        <ele>451.4</ele>
        <time>2022-04-14T11:52:02Z</time>
      </trkpt>
      <trkpt lat="46.62291" lon="5.55218">
        <ele>450.6</ele>
        <time>2022-04-14T11:52:04Z</time>
      </trkpt>
      <trkpt lat="46.62266" lon="5.55217">
        <ele>450.2</ele>
        <time>2022-04-14T11:52:07Z</time>
      </trkpt>
      <trkpt lat="46.62257" lon="5.55216">
        <ele>450</ele>
        <time>2022-04-14T11:52:08Z</time>
      </trkpt>
      <trkpt lat="46.62247" lon="5.55215">
        <ele>449.6</ele>
        <time>2022-04-14T11:52:09Z</time>
      </trkpt>
      <trkpt lat="46.62228" lon="5.55211">
        <ele>449.2</ele>
        <time>2022-04-14T11:52:11Z</time>
      </trkpt>
      <trkpt lat="46.62219" lon="5.55209">
        <ele>448.8</ele>
        <time>2022-04-14T11:52:12Z</time>
      </trkpt>
      <trkpt lat="46.62199" lon="5.55206">
        <ele>447.8</ele>
        <time>2022-04-14T11:52:14Z</time>
      </trkpt>
      <trkpt lat="46.62188" lon="5.55204">
        <ele>446.4</ele>
        <time>2022-04-14T11:52:15Z</time>
      </trkpt>
      <trkpt lat="46.62167" lon="5.55198">
        <ele>445</ele>
        <time>2022-04-14T11:52:17Z</time>
      </trkpt>
      <trkpt lat="46.62157" lon="5.55194">
        <ele>444</ele>
        <time>2022-04-14T11:52:18Z</time>
      </trkpt>
      <trkpt lat="46.62147" lon="5.55189">
        <ele>443.4</ele>
        <time>2022-04-14T11:52:19Z</time>
      </trkpt>
      <trkpt lat="46.62137" lon="5.55184">
        <ele>442.4</ele>
        <time>2022-04-14T11:52:20Z</time>
      </trkpt>
      <trkpt lat="46.62117" lon="5.55177">
        <ele>440.6</ele>
        <time>2022-04-14T11:52:22Z</time>
      </trkpt>
      <trkpt lat="46.62107" lon="5.55176">
        <ele>440</ele>
        <time>2022-04-14T11:52:23Z</time>
      </trkpt>
      <trkpt lat="46.62085" lon="5.55178">
        <ele>439</ele>
        <time>2022-04-14T11:52:25Z</time>
      </trkpt>
      <trkpt lat="46.62063" lon="5.55182">
        <ele>437.6</ele>
        <time>2022-04-14T11:52:27Z</time>
      </trkpt>
      <trkpt lat="46.62052" lon="5.55185">
        <ele>437</ele>
        <time>2022-04-14T11:52:28Z</time>
      </trkpt>
      <trkpt lat="46.6204" lon="5.55188">
        <ele>436</ele>
        <time>2022-04-14T11:52:29Z</time>
      </trkpt>
      <trkpt lat="46.62017" lon="5.55192">
        <ele>434.8</ele>
        <time>2022-04-14T11:52:31Z</time>
      </trkpt>
      <trkpt lat="46.61998" lon="5.55196">
        <ele>433.6</ele>
        <time>2022-04-14T11:52:33Z</time>
      </trkpt>
      <trkpt lat="46.6199" lon="5.55197">
        <ele>433.2</ele>
        <time>2022-04-14T11:52:34Z</time>
      </trkpt>
      <trkpt lat="46.61982" lon="5.55197">
        <ele>432.4</ele>
        <time>2022-04-14T11:52:35Z</time>
      </trkpt>
      <trkpt lat="46.61974" lon="5.55195">
        <ele>431.6</ele>
        <time>2022-04-14T11:52:36Z</time>
      </trkpt>
      <trkpt lat="46.61965" lon="5.55193">
        <ele>431.4</ele>
        <time>2022-04-14T11:52:37Z</time>
      </trkpt>
      <trkpt lat="46.61958" lon="5.55192">
        <ele>431</ele>
        <time>2022-04-14T11:52:38Z</time>
      </trkpt>
      <trkpt lat="46.61954" lon="5.55192">
        <ele>430.4</ele>
        <time>2022-04-14T11:52:39Z</time>
      </trkpt>
      <trkpt lat="46.61951" lon="5.55194">
        <ele>430.2</ele>
        <time>2022-04-14T11:52:40Z</time>
      </trkpt>
      <trkpt lat="46.61949" lon="5.55196">
        <ele>429.8</ele>
        <time>2022-04-14T11:52:41Z</time>
      </trkpt>
      <trkpt lat="46.61947" lon="5.55201">
        <ele>428.8</ele>
        <time>2022-04-14T11:52:43Z</time>
      </trkpt>
      <trkpt lat="46.61949" lon="5.55203">
        <ele>428.2</ele>
        <time>2022-04-14T11:52:44Z</time>
      </trkpt>
      <trkpt lat="46.61954" lon="5.55204">
        <ele>427.4</ele>
        <time>2022-04-14T11:52:45Z</time>
      </trkpt>
      <trkpt lat="46.61955" lon="5.55206">
        <ele>426.6</ele>
        <time>2022-04-14T11:52:46Z</time>
      </trkpt>
      <trkpt lat="46.61962" lon="5.55206">
        <ele>426.4</ele>
        <time>2022-04-14T11:52:47Z</time>
      </trkpt>
      <trkpt lat="46.61971" lon="5.55207">
        <ele>426</ele>
        <time>2022-04-14T11:52:48Z</time>
      </trkpt>
      <trkpt lat="46.62006" lon="5.5518">
        <ele>425.2</ele>
        <time>2022-04-14T11:52:49Z</time>
      </trkpt>
      <trkpt lat="46.62036" lon="5.55168">
        <ele>423.6</ele>
        <time>2022-04-14T11:52:50Z</time>
      </trkpt>
      <trkpt lat="46.6208" lon="5.55154">
        <ele>422.2</ele>
        <time>2022-04-14T11:52:52Z</time>
      </trkpt>
      <trkpt lat="46.62114" lon="5.55143">
        <ele>421.2</ele>
        <time>2022-04-14T11:52:54Z</time>
      </trkpt>
      <trkpt lat="46.6213" lon="5.55138">
        <ele>420.6</ele>
        <time>2022-04-14T11:52:55Z</time>
      </trkpt>
      <trkpt lat="46.62161" lon="5.55134">
        <ele>419.2</ele>
        <time>2022-04-14T11:52:57Z</time>
      </trkpt>
      <trkpt lat="46.62176" lon="5.55132">
        <ele>419</ele>
        <time>2022-04-14T11:52:58Z</time>
      </trkpt>
      <trkpt lat="46.6219" lon="5.55131">
        <ele>417.4</ele>
        <time>2022-04-14T11:52:59Z</time>
      </trkpt>
      <trkpt lat="46.62218" lon="5.55126">
        <ele>415.8</ele>
        <time>2022-04-14T11:53:01Z</time>
      </trkpt>
      <trkpt lat="46.62233" lon="5.55121">
        <ele>413.6</ele>
        <time>2022-04-14T11:53:02Z</time>
      </trkpt>
      <trkpt lat="46.62247" lon="5.55114">
        <ele>412.8</ele>
        <time>2022-04-14T11:53:03Z</time>
      </trkpt>
      <trkpt lat="46.62259" lon="5.55103">
        <ele>411.2</ele>
        <time>2022-04-14T11:53:04Z</time>
      </trkpt>
      <trkpt lat="46.6228" lon="5.55085">
        <ele>409.4</ele>
        <time>2022-04-14T11:53:06Z</time>
      </trkpt>
      <trkpt lat="46.6229" lon="5.55076">
        <ele>408</ele>
        <time>2022-04-14T11:53:07Z</time>
      </trkpt>
      <trkpt lat="46.62301" lon="5.55073">
        <ele>407.4</ele>
        <time>2022-04-14T11:53:08Z</time>
      </trkpt>
      <trkpt lat="46.62311" lon="5.55075">
        <ele>406.6</ele>
        <time>2022-04-14T11:53:09Z</time>
      </trkpt>
      <trkpt lat="46.62321" lon="5.55084">
        <ele>405.8</ele>
        <time>2022-04-14T11:53:10Z</time>
      </trkpt>
      <trkpt lat="46.62328" lon="5.55096">
        <ele>404.4</ele>
        <time>2022-04-14T11:53:11Z</time>
      </trkpt>
      <trkpt lat="46.62342" lon="5.5512">
        <ele>403.4</ele>
        <time>2022-04-14T11:53:13Z</time>
      </trkpt>
      <trkpt lat="46.62351" lon="5.5513">
        <ele>403</ele>
        <time>2022-04-14T11:53:14Z</time>
      </trkpt>
      <trkpt lat="46.6236" lon="5.55138">
        <ele>402.8</ele>
        <time>2022-04-14T11:53:15Z</time>
      </trkpt>
      <trkpt lat="46.6237" lon="5.55143">
        <ele>402.2</ele>
        <time>2022-04-14T11:53:16Z</time>
      </trkpt>
      <trkpt lat="46.62381" lon="5.55147">
        <ele>401.6</ele>
        <time>2022-04-14T11:53:17Z</time>
      </trkpt>
      <trkpt lat="46.62392" lon="5.5515">
        <ele>400.4</ele>
        <time>2022-04-14T11:53:18Z</time>
      </trkpt>
      <trkpt lat="46.62414" lon="5.55147">
        <ele>398.4</ele>
        <time>2022-04-14T11:53:20Z</time>
      </trkpt>
      <trkpt lat="46.62434" lon="5.55136">
        <ele>397</ele>
        <time>2022-04-14T11:53:22Z</time>
      </trkpt>
      <trkpt lat="46.62444" lon="5.55128">
        <ele>396.2</ele>
        <time>2022-04-14T11:53:23Z</time>
      </trkpt>
      <trkpt lat="46.62453" lon="5.55119">
        <ele>396</ele>
        <time>2022-04-14T11:53:24Z</time>
      </trkpt>
      <trkpt lat="46.62461" lon="5.55107">
        <ele>395.6</ele>
        <time>2022-04-14T11:53:25Z</time>
      </trkpt>
      <trkpt lat="46.6247" lon="5.55095">
        <ele>395.2</ele>
        <time>2022-04-14T11:53:26Z</time>
      </trkpt>
      <trkpt lat="46.6248" lon="5.55086">
        <ele>394.4</ele>
        <time>2022-04-14T11:53:27Z</time>
      </trkpt>
      <trkpt lat="46.62491" lon="5.55078">
        <ele>394</ele>
        <time>2022-04-14T11:53:28Z</time>
      </trkpt>
      <trkpt lat="46.62502" lon="5.55072">
        <ele>393.6</ele>
        <time>2022-04-14T11:53:29Z</time>
      </trkpt>
      <trkpt lat="46.62513" lon="5.55067">
        <ele>393</ele>
        <time>2022-04-14T11:53:30Z</time>
      </trkpt>
      <trkpt lat="46.62524" lon="5.55062">
        <ele>391.8</ele>
        <time>2022-04-14T11:53:31Z</time>
      </trkpt>
      <trkpt lat="46.62535" lon="5.55055">
        <ele>390.4</ele>
        <time>2022-04-14T11:53:32Z</time>
      </trkpt>
      <trkpt lat="46.62544" lon="5.55046">
        <ele>390</ele>
        <time>2022-04-14T11:53:33Z</time>
      </trkpt>
      <trkpt lat="46.62553" lon="5.55036">
        <ele>389.4</ele>
        <time>2022-04-14T11:53:34Z</time>
      </trkpt>
      <trkpt lat="46.62572" lon="5.55014">
        <ele>387.8</ele>
        <time>2022-04-14T11:53:36Z</time>
      </trkpt>
      <trkpt lat="46.62594" lon="5.54995">
        <ele>386.4</ele>
        <time>2022-04-14T11:53:38Z</time>
      </trkpt>
      <trkpt lat="46.62605" lon="5.54989">
        <ele>384.8</ele>
        <time>2022-04-14T11:53:39Z</time>
      </trkpt>
      <trkpt lat="46.62617" lon="5.54985">
        <ele>384</ele>
        <time>2022-04-14T11:53:40Z</time>
      </trkpt>
      <trkpt lat="46.6263" lon="5.54983">
        <ele>383</ele>
        <time>2022-04-14T11:53:41Z</time>
      </trkpt>
      <trkpt lat="46.62655" lon="5.54983">
        <ele>381.4</ele>
        <time>2022-04-14T11:53:43Z</time>
      </trkpt>
      <trkpt lat="46.62667" lon="5.54984">
        <ele>380.4</ele>
        <time>2022-04-14T11:53:44Z</time>
      </trkpt>
      <trkpt lat="46.62679" lon="5.54983">
        <ele>380</ele>
        <time>2022-04-14T11:53:45Z</time>
      </trkpt>
      <trkpt lat="46.62691" lon="5.54981">
        <ele>379.2</ele>
        <time>2022-04-14T11:53:46Z</time>
      </trkpt>
      <trkpt lat="46.62715" lon="5.54974">
        <ele>377.4</ele>
        <time>2022-04-14T11:53:48Z</time>
      </trkpt>
      <trkpt lat="46.62738" lon="5.54966">
        <ele>376</ele>
        <time>2022-04-14T11:53:50Z</time>
      </trkpt>
      <trkpt lat="46.62762" lon="5.54955">
        <ele>374.8</ele>
        <time>2022-04-14T11:53:52Z</time>
      </trkpt>
      <trkpt lat="46.62784" lon="5.5494">
        <ele>374</ele>
        <time>2022-04-14T11:53:54Z</time>
      </trkpt>
      <trkpt lat="46.62806" lon="5.54921">
        <ele>373.2</ele>
        <time>2022-04-14T11:53:56Z</time>
      </trkpt>
      <trkpt lat="46.62815" lon="5.54909">
        <ele>371.4</ele>
        <time>2022-04-14T11:53:57Z</time>
      </trkpt>
      <trkpt lat="46.62824" lon="5.54898">
        <ele>370.6</ele>
        <time>2022-04-14T11:53:58Z</time>
      </trkpt>
      <trkpt lat="46.62834" lon="5.54887">
        <ele>370.2</ele>
        <time>2022-04-14T11:53:59Z</time>
      </trkpt>
      <trkpt lat="46.62853" lon="5.54865">
        <ele>368.6</ele>
        <time>2022-04-14T11:54:01Z</time>
      </trkpt>
      <trkpt lat="46.62864" lon="5.54855">
        <ele>366.6</ele>
        <time>2022-04-14T11:54:02Z</time>
      </trkpt>
      <trkpt lat="46.62874" lon="5.54846">
        <ele>366</ele>
        <time>2022-04-14T11:54:03Z</time>
      </trkpt>
      <trkpt lat="46.62884" lon="5.54838">
        <ele>365.2</ele>
        <time>2022-04-14T11:54:04Z</time>
      </trkpt>
      <trkpt lat="46.62906" lon="5.54822">
        <ele>363.2</ele>
        <time>2022-04-14T11:54:06Z</time>
      </trkpt>
      <trkpt lat="46.62917" lon="5.54815">
        <ele>361.8</ele>
        <time>2022-04-14T11:54:07Z</time>
      </trkpt>
      <trkpt lat="46.62929" lon="5.54809">
        <ele>361.2</ele>
        <time>2022-04-14T11:54:08Z</time>
      </trkpt>
      <trkpt lat="46.6294" lon="5.54802">
        <ele>360</ele>
        <time>2022-04-14T11:54:09Z</time>
      </trkpt>
      <trkpt lat="46.62962" lon="5.54788">
        <ele>358.2</ele>
        <time>2022-04-14T11:54:11Z</time>
      </trkpt>
      <trkpt lat="46.62984" lon="5.54776">
        <ele>357.4</ele>
        <time>2022-04-14T11:54:13Z</time>
      </trkpt>
      <trkpt lat="46.62996" lon="5.54771">
        <ele>356.8</ele>
        <time>2022-04-14T11:54:14Z</time>
      </trkpt>
      <trkpt lat="46.63031" lon="5.54759">
        <ele>355.6</ele>
        <time>2022-04-14T11:54:17Z</time>
      </trkpt>
      <trkpt lat="46.63043" lon="5.54757">
        <ele>354.4</ele>
        <time>2022-04-14T11:54:18Z</time>
      </trkpt>
      <trkpt lat="46.63066" lon="5.54752">
        <ele>353.2</ele>
        <time>2022-04-14T11:54:20Z</time>
      </trkpt>
      <trkpt lat="46.63091" lon="5.54752">
        <ele>352.4</ele>
        <time>2022-04-14T11:54:22Z</time>
      </trkpt>
      <trkpt lat="46.63102" lon="5.54753">
        <ele>352</ele>
        <time>2022-04-14T11:54:23Z</time>
      </trkpt>
      <trkpt lat="46.63124" lon="5.54757">
        <ele>351</ele>
        <time>2022-04-14T11:54:25Z</time>
      </trkpt>
      <trkpt lat="46.63135" lon="5.5476">
        <ele>350.4</ele>
        <time>2022-04-14T11:54:26Z</time>
      </trkpt>
      <trkpt lat="46.63156" lon="5.54766">
        <ele>349.4</ele>
        <time>2022-04-14T11:54:28Z</time>
      </trkpt>
      <trkpt lat="46.63199" lon="5.54778">
        <ele>348.6</ele>
        <time>2022-04-14T11:54:32Z</time>
      </trkpt>
      <trkpt lat="46.6321" lon="5.54778">
        <ele>348.2</ele>
        <time>2022-04-14T11:54:33Z</time>
      </trkpt>
      <trkpt lat="46.63232" lon="5.54775">
        <ele>346.8</ele>
        <time>2022-04-14T11:54:35Z</time>
      </trkpt>
      <trkpt lat="46.63254" lon="5.54771">
        <ele>345.2</ele>
        <time>2022-04-14T11:54:37Z</time>
      </trkpt>
      <trkpt lat="46.63265" lon="5.5477">
        <ele>345</ele>
        <time>2022-04-14T11:54:38Z</time>
      </trkpt>
      <trkpt lat="46.63287" lon="5.54768">
        <ele>344.2</ele>
        <time>2022-04-14T11:54:40Z</time>
      </trkpt>
      <trkpt lat="46.63309" lon="5.54764">
        <ele>343</ele>
        <time>2022-04-14T11:54:42Z</time>
      </trkpt>
      <trkpt lat="46.63331" lon="5.54759">
        <ele>342.2</ele>
        <time>2022-04-14T11:54:44Z</time>
      </trkpt>
      <trkpt lat="46.63342" lon="5.54756">
        <ele>341.8</ele>
        <time>2022-04-14T11:54:45Z</time>
      </trkpt>
      <trkpt lat="46.63352" lon="5.54754">
        <ele>340.6</ele>
        <time>2022-04-14T11:54:46Z</time>
      </trkpt>
      <trkpt lat="46.63386" lon="5.54753">
        <ele>339.2</ele>
        <time>2022-04-14T11:54:49Z</time>
      </trkpt>
      <trkpt lat="46.63418" lon="5.54749">
        <ele>338</ele>
        <time>2022-04-14T11:54:52Z</time>
      </trkpt>
      <trkpt lat="46.63428" lon="5.54743">
        <ele>337</ele>
        <time>2022-04-14T11:54:53Z</time>
      </trkpt>
      <trkpt lat="46.63439" lon="5.54737">
        <ele>336.6</ele>
        <time>2022-04-14T11:54:54Z</time>
      </trkpt>
      <trkpt lat="46.63471" lon="5.54718">
        <ele>335</ele>
        <time>2022-04-14T11:54:57Z</time>
      </trkpt>
      <trkpt lat="46.63504" lon="5.54703">
        <ele>333.2</ele>
        <time>2022-04-14T11:55:00Z</time>
      </trkpt>
      <trkpt lat="46.63527" lon="5.54693">
        <ele>332.2</ele>
        <time>2022-04-14T11:55:02Z</time>
      </trkpt>
      <trkpt lat="46.63549" lon="5.54684">
        <ele>331</ele>
        <time>2022-04-14T11:55:04Z</time>
      </trkpt>
      <trkpt lat="46.63574" lon="5.54677">
        <ele>329.8</ele>
        <time>2022-04-14T11:55:06Z</time>
      </trkpt>
      <trkpt lat="46.63586" lon="5.54674">
        <ele>328.6</ele>
        <time>2022-04-14T11:55:07Z</time>
      </trkpt>
      <trkpt lat="46.63598" lon="5.54672">
        <ele>327.6</ele>
        <time>2022-04-14T11:55:08Z</time>
      </trkpt>
      <trkpt lat="46.6361" lon="5.54669">
        <ele>326</ele>
        <time>2022-04-14T11:55:09Z</time>
      </trkpt>
      <trkpt lat="46.63633" lon="5.54664">
        <ele>324.6</ele>
        <time>2022-04-14T11:55:11Z</time>
      </trkpt>
      <trkpt lat="46.63654" lon="5.54659">
        <ele>323.2</ele>
        <time>2022-04-14T11:55:13Z</time>
      </trkpt>
      <trkpt lat="46.63664" lon="5.54655">
        <ele>322.2</ele>
        <time>2022-04-14T11:55:14Z</time>
      </trkpt>
      <trkpt lat="46.63675" lon="5.54652">
        <ele>321.4</ele>
        <time>2022-04-14T11:55:15Z</time>
      </trkpt>
      <trkpt lat="46.63685" lon="5.54647">
        <ele>319.8</ele>
        <time>2022-04-14T11:55:16Z</time>
      </trkpt>
      <trkpt lat="46.63705" lon="5.54632">
        <ele>318.6</ele>
        <time>2022-04-14T11:55:18Z</time>
      </trkpt>
      <trkpt lat="46.63712" lon="5.54617">
        <ele>318</ele>
        <time>2022-04-14T11:55:19Z</time>
      </trkpt>
      <trkpt lat="46.63718" lon="5.54598">
        <ele>317.4</ele>
        <time>2022-04-14T11:55:20Z</time>
      </trkpt>
      <trkpt lat="46.63727" lon="5.54563">
        <ele>316.4</ele>
        <time>2022-04-14T11:55:22Z</time>
      </trkpt>
      <trkpt lat="46.63733" lon="5.54547">
        <ele>315.4</ele>
        <time>2022-04-14T11:55:23Z</time>
      </trkpt>
      <trkpt lat="46.63741" lon="5.54532">
        <ele>314.6</ele>
        <time>2022-04-14T11:55:24Z</time>
      </trkpt>
      <trkpt lat="46.63751" lon="5.54522">
        <ele>313.6</ele>
        <time>2022-04-14T11:55:25Z</time>
      </trkpt>
      <trkpt lat="46.63762" lon="5.54513">
        <ele>312.2</ele>
        <time>2022-04-14T11:55:26Z</time>
      </trkpt>
      <trkpt lat="46.63775" lon="5.54506">
        <ele>311.6</ele>
        <time>2022-04-14T11:55:27Z</time>
      </trkpt>
      <trkpt lat="46.63784" lon="5.545">
        <ele>310.2</ele>
        <time>2022-04-14T11:55:28Z</time>
      </trkpt>
      <trkpt lat="46.63794" lon="5.54493">
        <ele>309.6</ele>
        <time>2022-04-14T11:55:29Z</time>
      </trkpt>
      <trkpt lat="46.63804" lon="5.54485">
        <ele>308.4</ele>
        <time>2022-04-14T11:55:30Z</time>
      </trkpt>
      <trkpt lat="46.63813" lon="5.54475">
        <ele>307.8</ele>
        <time>2022-04-14T11:55:31Z</time>
      </trkpt>
      <trkpt lat="46.63822" lon="5.54463">
        <ele>306.8</ele>
        <time>2022-04-14T11:55:32Z</time>
      </trkpt>
      <trkpt lat="46.63846" lon="5.54431">
        <ele>305.6</ele>
        <time>2022-04-14T11:55:35Z</time>
      </trkpt>
      <trkpt lat="46.63855" lon="5.5442">
        <ele>305.2</ele>
        <time>2022-04-14T11:55:36Z</time>
      </trkpt>
      <trkpt lat="46.63864" lon="5.54409">
        <ele>304.4</ele>
        <time>2022-04-14T11:55:37Z</time>
      </trkpt>
      <trkpt lat="46.63882" lon="5.54387">
        <ele>302.6</ele>
        <time>2022-04-14T11:55:39Z</time>
      </trkpt>
      <trkpt lat="46.63902" lon="5.5437">
        <ele>300.4</ele>
        <time>2022-04-14T11:55:41Z</time>
      </trkpt>
      <trkpt lat="46.63912" lon="5.54362">
        <ele>299.2</ele>
        <time>2022-04-14T11:55:42Z</time>
      </trkpt>
      <trkpt lat="46.63943" lon="5.54341">
        <ele>298</ele>
        <time>2022-04-14T11:55:45Z</time>
      </trkpt>
      <trkpt lat="46.63963" lon="5.54331">
        <ele>296.8</ele>
        <time>2022-04-14T11:55:47Z</time>
      </trkpt>
      <trkpt lat="46.63974" lon="5.54326">
        <ele>296.2</ele>
        <time>2022-04-14T11:55:48Z</time>
      </trkpt>
      <trkpt lat="46.63984" lon="5.54322">
        <ele>295.4</ele>
        <time>2022-04-14T11:55:49Z</time>
      </trkpt>
      <trkpt lat="46.64006" lon="5.54315">
        <ele>293.8</ele>
        <time>2022-04-14T11:55:51Z</time>
      </trkpt>
      <trkpt lat="46.64038" lon="5.54308">
        <ele>292.4</ele>
        <time>2022-04-14T11:55:54Z</time>
      </trkpt>
      <trkpt lat="46.64049" lon="5.54305">
        <ele>291.4</ele>
        <time>2022-04-14T11:55:55Z</time>
      </trkpt>
      <trkpt lat="46.6406" lon="5.543">
        <ele>290.4</ele>
        <time>2022-04-14T11:55:56Z</time>
      </trkpt>
      <trkpt lat="46.64071" lon="5.54293">
        <ele>289.8</ele>
        <time>2022-04-14T11:55:57Z</time>
      </trkpt>
      <trkpt lat="46.64081" lon="5.54285">
        <ele>289.2</ele>
        <time>2022-04-14T11:55:58Z</time>
      </trkpt>
      <trkpt lat="46.6411" lon="5.54255">
        <ele>288.2</ele>
        <time>2022-04-14T11:56:01Z</time>
      </trkpt>
      <trkpt lat="46.6412" lon="5.54246">
        <ele>287</ele>
        <time>2022-04-14T11:56:02Z</time>
      </trkpt>
      <trkpt lat="46.64129" lon="5.54236">
        <ele>285.6</ele>
        <time>2022-04-14T11:56:03Z</time>
      </trkpt>
      <trkpt lat="46.64149" lon="5.54217">
        <ele>284.2</ele>
        <time>2022-04-14T11:56:05Z</time>
      </trkpt>
      <trkpt lat="46.64159" lon="5.54209">
        <ele>283.8</ele>
        <time>2022-04-14T11:56:06Z</time>
      </trkpt>
      <trkpt lat="46.6417" lon="5.54203">
        <ele>282.6</ele>
        <time>2022-04-14T11:56:07Z</time>
      </trkpt>
      <trkpt lat="46.64181" lon="5.54199">
        <ele>282</ele>
        <time>2022-04-14T11:56:08Z</time>
      </trkpt>
      <trkpt lat="46.64192" lon="5.54198">
        <ele>280.8</ele>
        <time>2022-04-14T11:56:09Z</time>
      </trkpt>
      <trkpt lat="46.64202" lon="5.54197">
        <ele>280</ele>
        <time>2022-04-14T11:56:10Z</time>
      </trkpt>
      <trkpt lat="46.64212" lon="5.54196">
        <ele>279.8</ele>
        <time>2022-04-14T11:56:11Z</time>
      </trkpt>
      <trkpt lat="46.64251" lon="5.54188">
        <ele>279</ele>
        <time>2022-04-14T11:56:15Z</time>
      </trkpt>
      <trkpt lat="46.64267" lon="5.54177">
        <ele>279</ele>
        <time>2022-04-14T11:56:17Z</time>
      </trkpt>
      <trkpt lat="46.64273" lon="5.5417">
        <ele>279</ele>
        <time>2022-04-14T11:56:18Z</time>
      </trkpt>
      <trkpt lat="46.64288" lon="5.54157">
        <ele>278.8</ele>
        <time>2022-04-14T11:56:20Z</time>
      </trkpt>
      <trkpt lat="46.64296" lon="5.54154">
        <ele>278.8</ele>
        <time>2022-04-14T11:56:21Z</time>
      </trkpt>
      <trkpt lat="46.64304" lon="5.54153">
        <ele>278.8</ele>
        <time>2022-04-14T11:56:22Z</time>
      </trkpt>
      <trkpt lat="46.64313" lon="5.54153">
        <ele>278.6</ele>
        <time>2022-04-14T11:56:23Z</time>
      </trkpt>
      <trkpt lat="46.6432" lon="5.54154">
        <ele>278.6</ele>
        <time>2022-04-14T11:56:24Z</time>
      </trkpt>
      <trkpt lat="46.64358" lon="5.54149">
        <ele>277.8</ele>
        <time>2022-04-14T11:56:29Z</time>
      </trkpt>
      <trkpt lat="46.64371" lon="5.54144">
        <ele>277.8</ele>
        <time>2022-04-14T11:56:31Z</time>
      </trkpt>
      <trkpt lat="46.64384" lon="5.54138">
        <ele>277.8</ele>
        <time>2022-04-14T11:56:33Z</time>
      </trkpt>
      <trkpt lat="46.64396" lon="5.54126">
        <ele>277.6</ele>
        <time>2022-04-14T11:56:35Z</time>
      </trkpt>
      <trkpt lat="46.64402" lon="5.54118">
        <ele>277.4</ele>
        <time>2022-04-14T11:56:36Z</time>
      </trkpt>
      <trkpt lat="46.64424" lon="5.54096">
        <ele>276.4</ele>
        <time>2022-04-14T11:56:40Z</time>
      </trkpt>
      <trkpt lat="46.64432" lon="5.5409">
        <ele>275.8</ele>
        <time>2022-04-14T11:56:43Z</time>
      </trkpt>
      <trkpt lat="46.64434" lon="5.54089">
        <ele>275.6</ele>
        <time>2022-04-14T11:56:44Z</time>
      </trkpt>
      <trkpt lat="46.64435" lon="5.5408">
        <ele>275.6</ele>
        <time>2022-04-14T11:56:46Z</time>
      </trkpt>
      <trkpt lat="46.6443" lon="5.5406">
        <ele>275.4</ele>
        <time>2022-04-14T11:56:49Z</time>
      </trkpt>
      <trkpt lat="46.64426" lon="5.54046">
        <ele>275.6</ele>
        <time>2022-04-14T11:56:51Z</time>
      </trkpt>
      <trkpt lat="46.64426" lon="5.54038">
        <ele>275.6</ele>
        <time>2022-04-14T11:56:52Z</time>
      </trkpt>
      <trkpt lat="46.64433" lon="5.54025">
        <ele>275.8</ele>
        <time>2022-04-14T11:56:54Z</time>
      </trkpt>
      <trkpt lat="46.64444" lon="5.54013">
        <ele>275.8</ele>
        <time>2022-04-14T11:56:56Z</time>
      </trkpt>
      <trkpt lat="46.64457" lon="5.54004">
        <ele>275.8</ele>
        <time>2022-04-14T11:56:58Z</time>
      </trkpt>
      <trkpt lat="46.64473" lon="5.54">
        <ele>275.2</ele>
        <time>2022-04-14T11:57:00Z</time>
      </trkpt>
      <trkpt lat="46.64489" lon="5.53998">
        <ele>274.4</ele>
        <time>2022-04-14T11:57:02Z</time>
      </trkpt>
      <trkpt lat="46.64497" lon="5.53997">
        <ele>274</ele>
        <time>2022-04-14T11:57:03Z</time>
      </trkpt>
      <trkpt lat="46.64519" lon="5.5399">
        <ele>273.2</ele>
        <time>2022-04-14T11:57:06Z</time>
      </trkpt>
      <trkpt lat="46.64527" lon="5.53986">
        <ele>273</ele>
        <time>2022-04-14T11:57:07Z</time>
      </trkpt>
      <trkpt lat="46.64534" lon="5.53981">
        <ele>272.6</ele>
        <time>2022-04-14T11:57:08Z</time>
      </trkpt>
      <trkpt lat="46.64561" lon="5.5396">
        <ele>272</ele>
        <time>2022-04-14T11:57:12Z</time>
      </trkpt>
      <trkpt lat="46.64596" lon="5.53934">
        <ele>271.6</ele>
        <time>2022-04-14T11:57:17Z</time>
      </trkpt>
      <trkpt lat="46.6461" lon="5.53925">
        <ele>271.4</ele>
        <time>2022-04-14T11:57:19Z</time>
      </trkpt>
      <trkpt lat="46.64645" lon="5.53904">
        <ele>270.6</ele>
        <time>2022-04-14T11:57:24Z</time>
      </trkpt>
      <trkpt lat="46.64652" lon="5.53902">
        <ele>270.6</ele>
        <time>2022-04-14T11:57:25Z</time>
      </trkpt>
      <trkpt lat="46.64658" lon="5.53902">
        <ele>270.6</ele>
        <time>2022-04-14T11:57:26Z</time>
      </trkpt>
      <trkpt lat="46.64671" lon="5.53901">
        <ele>270.6</ele>
        <time>2022-04-14T11:57:28Z</time>
      </trkpt>
      <trkpt lat="46.64684" lon="5.53895">
        <ele>270.4</ele>
        <time>2022-04-14T11:57:30Z</time>
      </trkpt>
      <trkpt lat="46.6469" lon="5.5389">
        <ele>270.2</ele>
        <time>2022-04-14T11:57:31Z</time>
      </trkpt>
      <trkpt lat="46.64698" lon="5.53886">
        <ele>270.2</ele>
        <time>2022-04-14T11:57:32Z</time>
      </trkpt>
      <trkpt lat="46.64721" lon="5.53875">
        <ele>270</ele>
        <time>2022-04-14T11:57:35Z</time>
      </trkpt>
      <trkpt lat="46.64743" lon="5.53862">
        <ele>269.2</ele>
        <time>2022-04-14T11:57:38Z</time>
      </trkpt>
      <trkpt lat="46.64756" lon="5.53849">
        <ele>268.8</ele>
        <time>2022-04-14T11:57:40Z</time>
      </trkpt>
      <trkpt lat="46.6478" lon="5.53807">
        <ele>268.2</ele>
        <time>2022-04-14T11:57:45Z</time>
      </trkpt>
      <trkpt lat="46.64791" lon="5.53781">
        <ele>268</ele>
        <time>2022-04-14T11:57:48Z</time>
      </trkpt>
      <trkpt lat="46.64803" lon="5.53749">
        <ele>268.2</ele>
        <time>2022-04-14T11:57:51Z</time>
      </trkpt>
      <trkpt lat="46.64831" lon="5.5367">
        <ele>268</ele>
        <time>2022-04-14T11:57:59Z</time>
      </trkpt>
      <trkpt lat="46.64838" lon="5.53652">
        <ele>267.8</ele>
        <time>2022-04-14T11:58:01Z</time>
      </trkpt>
      <trkpt lat="46.6485" lon="5.5362">
        <ele>267</ele>
        <time>2022-04-14T11:58:04Z</time>
      </trkpt>
      <trkpt lat="46.64873" lon="5.53559">
        <ele>266.4</ele>
        <time>2022-04-14T11:58:10Z</time>
      </trkpt>
      <trkpt lat="46.64889" lon="5.53518">
        <ele>266</ele>
        <time>2022-04-14T11:58:14Z</time>
      </trkpt>
      <trkpt lat="46.64896" lon="5.53499">
        <ele>265.8</ele>
        <time>2022-04-14T11:58:16Z</time>
      </trkpt>
      <trkpt lat="46.64924" lon="5.53435">
        <ele>264.2</ele>
        <time>2022-04-14T11:58:22Z</time>
      </trkpt>
      <trkpt lat="46.64932" lon="5.53415">
        <ele>263.8</ele>
        <time>2022-04-14T11:58:24Z</time>
      </trkpt>
      <trkpt lat="46.64952" lon="5.53369">
        <ele>263.2</ele>
        <time>2022-04-14T11:58:29Z</time>
      </trkpt>
      <trkpt lat="46.64965" lon="5.5334">
        <ele>263.2</ele>
        <time>2022-04-14T11:58:32Z</time>
      </trkpt>
      <trkpt lat="46.64994" lon="5.53281">
        <ele>262.4</ele>
        <time>2022-04-14T11:58:38Z</time>
      </trkpt>
      <trkpt lat="46.64998" lon="5.53274">
        <ele>262.4</ele>
        <time>2022-04-14T11:58:39Z</time>
      </trkpt>
      <trkpt lat="46.65003" lon="5.53264">
        <ele>262.2</ele>
        <time>2022-04-14T11:58:40Z</time>
      </trkpt>
      <trkpt lat="46.65032" lon="5.53191">
        <ele>261.2</ele>
        <time>2022-04-14T11:58:47Z</time>
      </trkpt>
      <trkpt lat="46.65055" lon="5.53142">
        <ele>260</ele>
        <time>2022-04-14T11:58:52Z</time>
      </trkpt>
      <trkpt lat="46.65087" lon="5.53081">
        <ele>259</ele>
        <time>2022-04-14T11:58:59Z</time>
      </trkpt>
      <trkpt lat="46.65092" lon="5.5307">
        <ele>259</ele>
        <time>2022-04-14T11:59:00Z</time>
      </trkpt>
      <trkpt lat="46.65108" lon="5.53033">
        <ele>259</ele>
        <time>2022-04-14T11:59:04Z</time>
      </trkpt>
      <trkpt lat="46.65137" lon="5.52968">
        <ele>259.2</ele>
        <time>2022-04-14T11:59:11Z</time>
      </trkpt>
      <trkpt lat="46.6514" lon="5.52961">
        <ele>259</ele>
        <time>2022-04-14T11:59:12Z</time>
      </trkpt>
      <trkpt lat="46.6517" lon="5.52906">
        <ele>258.6</ele>
        <time>2022-04-14T11:59:18Z</time>
      </trkpt>
      <trkpt lat="46.65192" lon="5.52865">
        <ele>258</ele>
        <time>2022-04-14T11:59:23Z</time>
      </trkpt>
      <trkpt lat="46.65195" lon="5.52856">
        <ele>258</ele>
        <time>2022-04-14T11:59:24Z</time>
      </trkpt>
      <trkpt lat="46.65203" lon="5.52821">
        <ele>258.2</ele>
        <time>2022-04-14T11:59:28Z</time>
      </trkpt>
      <trkpt lat="46.65205" lon="5.52811">
        <ele>258.4</ele>
        <time>2022-04-14T11:59:29Z</time>
      </trkpt>
      <trkpt lat="46.65209" lon="5.52803">
        <ele>258.6</ele>
        <time>2022-04-14T11:59:30Z</time>
      </trkpt>
      <trkpt lat="46.65215" lon="5.52798">
        <ele>258.6</ele>
        <time>2022-04-14T11:59:31Z</time>
      </trkpt>
      <trkpt lat="46.65223" lon="5.52794">
        <ele>258.6</ele>
        <time>2022-04-14T11:59:32Z</time>
      </trkpt>
      <trkpt lat="46.65237" lon="5.52792">
        <ele>258.6</ele>
        <time>2022-04-14T11:59:34Z</time>
      </trkpt>
      <trkpt lat="46.65245" lon="5.52789">
        <ele>258.6</ele>
        <time>2022-04-14T11:59:35Z</time>
      </trkpt>
      <trkpt lat="46.65252" lon="5.52783">
        <ele>258.6</ele>
        <time>2022-04-14T11:59:36Z</time>
      </trkpt>
      <trkpt lat="46.65275" lon="5.52763">
        <ele>258.4</ele>
        <time>2022-04-14T11:59:39Z</time>
      </trkpt>
      <trkpt lat="46.65304" lon="5.52735">
        <ele>256.8</ele>
        <time>2022-04-14T11:59:43Z</time>
      </trkpt>
      <trkpt lat="46.65318" lon="5.5272">
        <ele>256.4</ele>
        <time>2022-04-14T11:59:45Z</time>
      </trkpt>
      <trkpt lat="46.65338" lon="5.52698">
        <ele>255.6</ele>
        <time>2022-04-14T11:59:48Z</time>
      </trkpt>
      <trkpt lat="46.65356" lon="5.52673">
        <ele>255</ele>
        <time>2022-04-14T11:59:51Z</time>
      </trkpt>
      <trkpt lat="46.65361" lon="5.52663">
        <ele>254.8</ele>
        <time>2022-04-14T11:59:52Z</time>
      </trkpt>
      <trkpt lat="46.65376" lon="5.52634">
        <ele>254.2</ele>
        <time>2022-04-14T11:59:55Z</time>
      </trkpt>
      <trkpt lat="46.65386" lon="5.52603">
        <ele>253.8</ele>
        <time>2022-04-14T11:59:58Z</time>
      </trkpt>
      <trkpt lat="46.65392" lon="5.52582">
        <ele>253.6</ele>
        <time>2022-04-14T12:00:00Z</time>
      </trkpt>
      <trkpt lat="46.6541" lon="5.5253">
        <ele>253.4</ele>
        <time>2022-04-14T12:00:05Z</time>
      </trkpt>
      <trkpt lat="46.65415" lon="5.52521">
        <ele>253.4</ele>
        <time>2022-04-14T12:00:06Z</time>
      </trkpt>
      <trkpt lat="46.6542" lon="5.52512">
        <ele>253.4</ele>
        <time>2022-04-14T12:00:07Z</time>
      </trkpt>
      <trkpt lat="46.65439" lon="5.5249">
        <ele>253.2</ele>
        <time>2022-04-14T12:00:10Z</time>
      </trkpt>
      <trkpt lat="46.65466" lon="5.52465">
        <ele>252.6</ele>
        <time>2022-04-14T12:00:14Z</time>
      </trkpt>
      <trkpt lat="46.65507" lon="5.52429">
        <ele>252.2</ele>
        <time>2022-04-14T12:00:20Z</time>
      </trkpt>
      <trkpt lat="46.65556" lon="5.52387">
        <ele>252</ele>
        <time>2022-04-14T12:00:27Z</time>
      </trkpt>
      <trkpt lat="46.65576" lon="5.52371">
        <ele>252</ele>
        <time>2022-04-14T12:00:30Z</time>
      </trkpt>
      <trkpt lat="46.65617" lon="5.52342">
        <ele>251.8</ele>
        <time>2022-04-14T12:00:36Z</time>
      </trkpt>
      <trkpt lat="46.65672" lon="5.52307">
        <ele>252</ele>
        <time>2022-04-14T12:00:44Z</time>
      </trkpt>
      <trkpt lat="46.65713" lon="5.52277">
        <ele>252.4</ele>
        <time>2022-04-14T12:00:51Z</time>
      </trkpt>
      <trkpt lat="46.65738" lon="5.52254">
        <ele>253.4</ele>
        <time>2022-04-14T12:00:56Z</time>
      </trkpt>
      <trkpt lat="46.65743" lon="5.52248">
        <ele>253.6</ele>
        <time>2022-04-14T12:00:57Z</time>
      </trkpt>
      <trkpt lat="46.65747" lon="5.52242">
        <ele>253.6</ele>
        <time>2022-04-14T12:00:58Z</time>
      </trkpt>
      <trkpt lat="46.65758" lon="5.52224">
        <ele>254.6</ele>
        <time>2022-04-14T12:01:01Z</time>
      </trkpt>
      <trkpt lat="46.65761" lon="5.52218">
        <ele>255</ele>
        <time>2022-04-14T12:01:02Z</time>
      </trkpt>
      <trkpt lat="46.65773" lon="5.52191">
        <ele>256.2</ele>
        <time>2022-04-14T12:01:06Z</time>
      </trkpt>
      <trkpt lat="46.65782" lon="5.52171">
        <ele>257</ele>
        <time>2022-04-14T12:01:09Z</time>
      </trkpt>
      <trkpt lat="46.65789" lon="5.52159">
        <ele>257.6</ele>
        <time>2022-04-14T12:01:11Z</time>
      </trkpt>
      <trkpt lat="46.65792" lon="5.52153">
        <ele>257.6</ele>
        <time>2022-04-14T12:01:12Z</time>
      </trkpt>
      <trkpt lat="46.65805" lon="5.52135">
        <ele>258.4</ele>
        <time>2022-04-14T12:01:15Z</time>
      </trkpt>
      <trkpt lat="46.6581" lon="5.52129">
        <ele>258.6</ele>
        <time>2022-04-14T12:01:16Z</time>
      </trkpt>
      <trkpt lat="46.65837" lon="5.52093">
        <ele>258.8</ele>
        <time>2022-04-14T12:01:22Z</time>
      </trkpt>
      <trkpt lat="46.65866" lon="5.52058">
        <ele>258.6</ele>
        <time>2022-04-14T12:01:28Z</time>
      </trkpt>
      <trkpt lat="46.65871" lon="5.52042">
        <ele>258.8</ele>
        <time>2022-04-14T12:01:30Z</time>
      </trkpt>
      <trkpt lat="46.65871" lon="5.52034">
        <ele>258.8</ele>
        <time>2022-04-14T12:01:31Z</time>
      </trkpt>
      <trkpt lat="46.6587" lon="5.52025">
        <ele>258.8</ele>
        <time>2022-04-14T12:01:32Z</time>
      </trkpt>
      <trkpt lat="46.65865" lon="5.51998">
        <ele>259</ele>
        <time>2022-04-14T12:01:35Z</time>
      </trkpt>
      <trkpt lat="46.65862" lon="5.51981">
        <ele>259.6</ele>
        <time>2022-04-14T12:01:37Z</time>
      </trkpt>
      <trkpt lat="46.65857" lon="5.51944">
        <ele>260</ele>
        <time>2022-04-14T12:01:41Z</time>
      </trkpt>
      <trkpt lat="46.65843" lon="5.51864">
        <ele>260.4</ele>
        <time>2022-04-14T12:01:49Z</time>
      </trkpt>
      <trkpt lat="46.65841" lon="5.51854">
        <ele>260.4</ele>
        <time>2022-04-14T12:01:50Z</time>
      </trkpt>
      <trkpt lat="46.65829" lon="5.5177">
        <ele>259</ele>
        <time>2022-04-14T12:01:58Z</time>
      </trkpt>
      <trkpt lat="46.65822" lon="5.51717">
        <ele>258.6</ele>
        <time>2022-04-14T12:02:03Z</time>
      </trkpt>
      <trkpt lat="46.65812" lon="5.51655">
        <ele>258</ele>
        <time>2022-04-14T12:02:09Z</time>
      </trkpt>
      <trkpt lat="46.658" lon="5.51594">
        <ele>257.6</ele>
        <time>2022-04-14T12:02:15Z</time>
      </trkpt>
      <trkpt lat="46.65797" lon="5.51585">
        <ele>257.6</ele>
        <time>2022-04-14T12:02:16Z</time>
      </trkpt>
      <trkpt lat="46.65794" lon="5.51567">
        <ele>257.8</ele>
        <time>2022-04-14T12:02:18Z</time>
      </trkpt>
      <trkpt lat="46.65794" lon="5.51548">
        <ele>257.6</ele>
        <time>2022-04-14T12:02:20Z</time>
      </trkpt>
      <trkpt lat="46.658" lon="5.51536">
        <ele>257.6</ele>
        <time>2022-04-14T12:02:22Z</time>
      </trkpt>
      <trkpt lat="46.65804" lon="5.5153">
        <ele>257.4</ele>
        <time>2022-04-14T12:02:23Z</time>
      </trkpt>
      <trkpt lat="46.65806" lon="5.51524">
        <ele>257.6</ele>
        <time>2022-04-14T12:02:24Z</time>
      </trkpt>
      <trkpt lat="46.65807" lon="5.51517">
        <ele>257.6</ele>
        <time>2022-04-14T12:02:25Z</time>
      </trkpt>
      <trkpt lat="46.65805" lon="5.51509">
        <ele>257.6</ele>
        <time>2022-04-14T12:02:26Z</time>
      </trkpt>
      <trkpt lat="46.65793" lon="5.51487">
        <ele>257.4</ele>
        <time>2022-04-14T12:02:29Z</time>
      </trkpt>
      <trkpt lat="46.65789" lon="5.51467">
        <ele>257.2</ele>
        <time>2022-04-14T12:02:31Z</time>
      </trkpt>
      <trkpt lat="46.65789" lon="5.51457">
        <ele>257.2</ele>
        <time>2022-04-14T12:02:32Z</time>
      </trkpt>
      <trkpt lat="46.65787" lon="5.51375">
        <ele>256.8</ele>
        <time>2022-04-14T12:02:39Z</time>
      </trkpt>
      <trkpt lat="46.65785" lon="5.51295">
        <ele>255.8</ele>
        <time>2022-04-14T12:02:46Z</time>
      </trkpt>
      <trkpt lat="46.65785" lon="5.51283">
        <ele>255.6</ele>
        <time>2022-04-14T12:02:47Z</time>
      </trkpt>
      <trkpt lat="46.65784" lon="5.51235">
        <ele>254.6</ele>
        <time>2022-04-14T12:02:51Z</time>
      </trkpt>
      <trkpt lat="46.65781" lon="5.51188">
        <ele>254.2</ele>
        <time>2022-04-14T12:02:55Z</time>
      </trkpt>
      <trkpt lat="46.65779" lon="5.51102">
        <ele>253.6</ele>
        <time>2022-04-14T12:03:02Z</time>
      </trkpt>
      <trkpt lat="46.65779" lon="5.51093">
        <ele>253.6</ele>
        <time>2022-04-14T12:03:03Z</time>
      </trkpt>
      <trkpt lat="46.65777" lon="5.51019">
        <ele>252.4</ele>
        <time>2022-04-14T12:03:09Z</time>
      </trkpt>
      <trkpt lat="46.65778" lon="5.50991">
        <ele>252</ele>
        <time>2022-04-14T12:03:11Z</time>
      </trkpt>
      <trkpt lat="46.6578" lon="5.50949">
        <ele>251.2</ele>
        <time>2022-04-14T12:03:14Z</time>
      </trkpt>
      <trkpt lat="46.65779" lon="5.50923">
        <ele>250.6</ele>
        <time>2022-04-14T12:03:16Z</time>
      </trkpt>
      <trkpt lat="46.65776" lon="5.50909">
        <ele>250.2</ele>
        <time>2022-04-14T12:03:17Z</time>
      </trkpt>
      <trkpt lat="46.65772" lon="5.50896">
        <ele>249.6</ele>
        <time>2022-04-14T12:03:18Z</time>
      </trkpt>
      <trkpt lat="46.65759" lon="5.50874">
        <ele>248.2</ele>
        <time>2022-04-14T12:03:20Z</time>
      </trkpt>
      <trkpt lat="46.65725" lon="5.50853">
        <ele>246.6</ele>
        <time>2022-04-14T12:03:23Z</time>
      </trkpt>
      <trkpt lat="46.65716" lon="5.50846">
        <ele>246.2</ele>
        <time>2022-04-14T12:03:24Z</time>
      </trkpt>
      <trkpt lat="46.65707" lon="5.50834">
        <ele>245.4</ele>
        <time>2022-04-14T12:03:25Z</time>
      </trkpt>
      <trkpt lat="46.657" lon="5.50819">
        <ele>244.8</ele>
        <time>2022-04-14T12:03:26Z</time>
      </trkpt>
      <trkpt lat="46.65695" lon="5.50803">
        <ele>244.4</ele>
        <time>2022-04-14T12:03:27Z</time>
      </trkpt>
      <trkpt lat="46.65692" lon="5.50783">
        <ele>243</ele>
        <time>2022-04-14T12:03:28Z</time>
      </trkpt>
      <trkpt lat="46.6569" lon="5.50771">
        <ele>242.6</ele>
        <time>2022-04-14T12:03:29Z</time>
      </trkpt>
      <trkpt lat="46.6569" lon="5.50752">
        <ele>241.4</ele>
        <time>2022-04-14T12:03:30Z</time>
      </trkpt>
      <trkpt lat="46.65694" lon="5.50712">
        <ele>239.2</ele>
        <time>2022-04-14T12:03:32Z</time>
      </trkpt>
      <trkpt lat="46.65698" lon="5.507">
        <ele>237.4</ele>
        <time>2022-04-14T12:03:33Z</time>
      </trkpt>
      <trkpt lat="46.65709" lon="5.50668">
        <ele>236</ele>
        <time>2022-04-14T12:03:35Z</time>
      </trkpt>
      <trkpt lat="46.65714" lon="5.50653">
        <ele>235.8</ele>
        <time>2022-04-14T12:03:36Z</time>
      </trkpt>
      <trkpt lat="46.65722" lon="5.5062">
        <ele>235.2</ele>
        <time>2022-04-14T12:03:38Z</time>
      </trkpt>
      <trkpt lat="46.65723" lon="5.50608">
        <ele>235</ele>
        <time>2022-04-14T12:03:39Z</time>
      </trkpt>
      <trkpt lat="46.65722" lon="5.5059">
        <ele>234.8</ele>
        <time>2022-04-14T12:03:40Z</time>
      </trkpt>
      <trkpt lat="46.65717" lon="5.50563">
        <ele>234.6</ele>
        <time>2022-04-14T12:03:42Z</time>
      </trkpt>
      <trkpt lat="46.65706" lon="5.50507">
        <ele>234.6</ele>
        <time>2022-04-14T12:03:46Z</time>
      </trkpt>
      <trkpt lat="46.65704" lon="5.50493">
        <ele>234.6</ele>
        <time>2022-04-14T12:03:47Z</time>
      </trkpt>
      <trkpt lat="46.65703" lon="5.50426">
        <ele>234.6</ele>
        <time>2022-04-14T12:03:52Z</time>
      </trkpt>
      <trkpt lat="46.65701" lon="5.50347">
        <ele>234</ele>
        <time>2022-04-14T12:03:58Z</time>
      </trkpt>
      <trkpt lat="46.65699" lon="5.50322">
        <ele>233.8</ele>
        <time>2022-04-14T12:04:00Z</time>
      </trkpt>
      <trkpt lat="46.6569" lon="5.50247">
        <ele>234</ele>
        <time>2022-04-14T12:04:06Z</time>
      </trkpt>
      <trkpt lat="46.65676" lon="5.50184">
        <ele>234.4</ele>
        <time>2022-04-14T12:04:12Z</time>
      </trkpt>
      <trkpt lat="46.65664" lon="5.50135">
        <ele>234.8</ele>
        <time>2022-04-14T12:04:17Z</time>
      </trkpt>
      <trkpt lat="46.65663" lon="5.50124">
        <ele>234.8</ele>
        <time>2022-04-14T12:04:18Z</time>
      </trkpt>
      <trkpt lat="46.65663" lon="5.50118">
        <ele>235.2</ele>
        <time>2022-04-14T12:04:19Z</time>
      </trkpt>
      <trkpt lat="46.65669" lon="5.501">
        <ele>235.4</ele>
        <time>2022-04-14T12:04:21Z</time>
      </trkpt>
      <trkpt lat="46.65678" lon="5.50074">
        <ele>236.4</ele>
        <time>2022-04-14T12:04:24Z</time>
      </trkpt>
      <trkpt lat="46.65684" lon="5.50057">
        <ele>236.4</ele>
        <time>2022-04-14T12:04:26Z</time>
      </trkpt>
      <trkpt lat="46.65688" lon="5.5005">
        <ele>236.6</ele>
        <time>2022-04-14T12:04:27Z</time>
      </trkpt>
      <trkpt lat="46.65696" lon="5.50039">
        <ele>236.8</ele>
        <time>2022-04-14T12:04:29Z</time>
      </trkpt>
      <trkpt lat="46.65711" lon="5.50027">
        <ele>237.6</ele>
        <time>2022-04-14T12:04:32Z</time>
      </trkpt>
      <trkpt lat="46.65716" lon="5.50023">
        <ele>237.8</ele>
        <time>2022-04-14T12:04:33Z</time>
      </trkpt>
      <trkpt lat="46.65734" lon="5.50007">
        <ele>239</ele>
        <time>2022-04-14T12:04:37Z</time>
      </trkpt>
      <trkpt lat="46.65738" lon="5.50004">
        <ele>239.2</ele>
        <time>2022-04-14T12:04:38Z</time>
      </trkpt>
      <trkpt lat="46.65746" lon="5.49996">
        <ele>240.2</ele>
        <time>2022-04-14T12:04:40Z</time>
      </trkpt>
      <trkpt lat="46.65755" lon="5.49991">
        <ele>241.2</ele>
        <time>2022-04-14T12:04:42Z</time>
      </trkpt>
      <trkpt lat="46.65776" lon="5.4998">
        <ele>242.4</ele>
        <time>2022-04-14T12:04:46Z</time>
      </trkpt>
      <trkpt lat="46.65791" lon="5.49971">
        <ele>243.6</ele>
        <time>2022-04-14T12:04:49Z</time>
      </trkpt>
      <trkpt lat="46.65811" lon="5.49959">
        <ele>244</ele>
        <time>2022-04-14T12:04:53Z</time>
      </trkpt>
      <trkpt lat="46.6585" lon="5.49939">
        <ele>244.2</ele>
        <time>2022-04-14T12:05:01Z</time>
      </trkpt>
      <trkpt lat="46.6586" lon="5.49933">
        <ele>244.2</ele>
        <time>2022-04-14T12:05:03Z</time>
      </trkpt>
      <trkpt lat="46.65875" lon="5.49925">
        <ele>244.2</ele>
        <time>2022-04-14T12:05:06Z</time>
      </trkpt>
      <trkpt lat="46.6589" lon="5.49917">
        <ele>244.2</ele>
        <time>2022-04-14T12:05:09Z</time>
      </trkpt>
      <trkpt lat="46.65899" lon="5.49913">
        <ele>244</ele>
        <time>2022-04-14T12:05:11Z</time>
      </trkpt>
      <trkpt lat="46.65904" lon="5.49913">
        <ele>244</ele>
        <time>2022-04-14T12:05:12Z</time>
      </trkpt>
      <trkpt lat="46.65913" lon="5.49913">
        <ele>244.2</ele>
        <time>2022-04-14T12:05:14Z</time>
      </trkpt>
      <trkpt lat="46.6593" lon="5.49908">
        <ele>244.2</ele>
        <time>2022-04-14T12:05:17Z</time>
      </trkpt>
      <trkpt lat="46.65966" lon="5.49898">
        <ele>244.2</ele>
        <time>2022-04-14T12:05:23Z</time>
      </trkpt>
      <trkpt lat="46.66023" lon="5.49881">
        <ele>244.2</ele>
        <time>2022-04-14T12:05:32Z</time>
      </trkpt>
      <trkpt lat="46.66029" lon="5.49879">
        <ele>244.4</ele>
        <time>2022-04-14T12:05:33Z</time>
      </trkpt>
      <trkpt lat="46.66082" lon="5.49862">
        <ele>244.8</ele>
        <time>2022-04-14T12:05:41Z</time>
      </trkpt>
      <trkpt lat="46.66089" lon="5.4986">
        <ele>244.8</ele>
        <time>2022-04-14T12:05:42Z</time>
      </trkpt>
      <trkpt lat="46.66137" lon="5.49851">
        <ele>244.8</ele>
        <time>2022-04-14T12:05:49Z</time>
      </trkpt>
      <trkpt lat="46.66191" lon="5.49847">
        <ele>245</ele>
        <time>2022-04-14T12:05:57Z</time>
      </trkpt>
      <trkpt lat="46.6625" lon="5.49849">
        <ele>245.2</ele>
        <time>2022-04-14T12:06:05Z</time>
      </trkpt>
      <trkpt lat="46.66257" lon="5.49849">
        <ele>245</ele>
        <time>2022-04-14T12:06:06Z</time>
      </trkpt>
      <trkpt lat="46.66312" lon="5.49852">
        <ele>244</ele>
        <time>2022-04-14T12:06:13Z</time>
      </trkpt>
      <trkpt lat="46.66335" lon="5.49854">
        <ele>243.8</ele>
        <time>2022-04-14T12:06:16Z</time>
      </trkpt>
      <trkpt lat="46.66343" lon="5.49855">
        <ele>243.8</ele>
        <time>2022-04-14T12:06:17Z</time>
      </trkpt>
      <trkpt lat="46.66401" lon="5.49863">
        <ele>243.8</ele>
        <time>2022-04-14T12:06:25Z</time>
      </trkpt>
      <trkpt lat="46.66408" lon="5.49864">
        <ele>244</ele>
        <time>2022-04-14T12:06:26Z</time>
      </trkpt>
      <trkpt lat="46.66462" lon="5.49878">
        <ele>244.6</ele>
        <time>2022-04-14T12:06:34Z</time>
      </trkpt>
      <trkpt lat="46.66468" lon="5.4988">
        <ele>244.6</ele>
        <time>2022-04-14T12:06:35Z</time>
      </trkpt>
      <trkpt lat="46.66474" lon="5.49882">
        <ele>244.8</ele>
        <time>2022-04-14T12:06:36Z</time>
      </trkpt>
      <trkpt lat="46.66509" lon="5.49896">
        <ele>246</ele>
        <time>2022-04-14T12:06:42Z</time>
      </trkpt>
      <trkpt lat="46.66536" lon="5.49902">
        <ele>247.2</ele>
        <time>2022-04-14T12:06:47Z</time>
      </trkpt>
      <trkpt lat="46.66552" lon="5.49906">
        <ele>247.8</ele>
        <time>2022-04-14T12:06:50Z</time>
      </trkpt>
      <trkpt lat="46.66558" lon="5.49907">
        <ele>248.2</ele>
        <time>2022-04-14T12:06:51Z</time>
      </trkpt>
      <trkpt lat="46.66578" lon="5.49912">
        <ele>249.2</ele>
        <time>2022-04-14T12:06:55Z</time>
      </trkpt>
      <trkpt lat="46.66601" lon="5.49914">
        <ele>249.8</ele>
        <time>2022-04-14T12:06:59Z</time>
      </trkpt>
      <trkpt lat="46.66625" lon="5.49914">
        <ele>250.2</ele>
        <time>2022-04-14T12:07:03Z</time>
      </trkpt>
      <trkpt lat="46.66644" lon="5.49912">
        <ele>250.6</ele>
        <time>2022-04-14T12:07:06Z</time>
      </trkpt>
      <trkpt lat="46.66671" lon="5.49911">
        <ele>250.6</ele>
        <time>2022-04-14T12:07:10Z</time>
      </trkpt>
      <trkpt lat="46.66685" lon="5.49906">
        <ele>250.6</ele>
        <time>2022-04-14T12:07:12Z</time>
      </trkpt>
      <trkpt lat="46.66714" lon="5.49888">
        <ele>249.6</ele>
        <time>2022-04-14T12:07:16Z</time>
      </trkpt>
      <trkpt lat="46.66722" lon="5.49883">
        <ele>249</ele>
        <time>2022-04-14T12:07:17Z</time>
      </trkpt>
      <trkpt lat="46.66749" lon="5.49871">
        <ele>247.8</ele>
        <time>2022-04-14T12:07:20Z</time>
      </trkpt>
      <trkpt lat="46.66758" lon="5.49869">
        <ele>247.4</ele>
        <time>2022-04-14T12:07:21Z</time>
      </trkpt>
      <trkpt lat="46.66767" lon="5.49869">
        <ele>246.4</ele>
        <time>2022-04-14T12:07:22Z</time>
      </trkpt>
      <trkpt lat="46.66786" lon="5.49871">
        <ele>244.8</ele>
        <time>2022-04-14T12:07:24Z</time>
      </trkpt>
      <trkpt lat="46.66794" lon="5.49871">
        <ele>244</ele>
        <time>2022-04-14T12:07:25Z</time>
      </trkpt>
      <trkpt lat="46.66803" lon="5.4987">
        <ele>242.6</ele>
        <time>2022-04-14T12:07:26Z</time>
      </trkpt>
      <trkpt lat="46.66812" lon="5.49869">
        <ele>241.4</ele>
        <time>2022-04-14T12:07:27Z</time>
      </trkpt>
      <trkpt lat="46.66844" lon="5.49863">
        <ele>240</ele>
        <time>2022-04-14T12:07:30Z</time>
      </trkpt>
      <trkpt lat="46.66865" lon="5.49857">
        <ele>239</ele>
        <time>2022-04-14T12:07:32Z</time>
      </trkpt>
      <trkpt lat="46.66877" lon="5.49854">
        <ele>237.6</ele>
        <time>2022-04-14T12:07:33Z</time>
      </trkpt>
      <trkpt lat="46.66899" lon="5.49846">
        <ele>236.6</ele>
        <time>2022-04-14T12:07:35Z</time>
      </trkpt>
      <trkpt lat="46.66923" lon="5.49837">
        <ele>235.4</ele>
        <time>2022-04-14T12:07:37Z</time>
      </trkpt>
      <trkpt lat="46.66934" lon="5.49832">
        <ele>234</ele>
        <time>2022-04-14T12:07:38Z</time>
      </trkpt>
      <trkpt lat="46.66945" lon="5.49824">
        <ele>233.4</ele>
        <time>2022-04-14T12:07:39Z</time>
      </trkpt>
      <trkpt lat="46.66955" lon="5.49816">
        <ele>232.6</ele>
        <time>2022-04-14T12:07:40Z</time>
      </trkpt>
      <trkpt lat="46.66969" lon="5.49793">
        <ele>231.2</ele>
        <time>2022-04-14T12:07:42Z</time>
      </trkpt>
      <trkpt lat="46.66973" lon="5.4978">
        <ele>229.8</ele>
        <time>2022-04-14T12:07:43Z</time>
      </trkpt>
      <trkpt lat="46.66979" lon="5.49752">
        <ele>228.6</ele>
        <time>2022-04-14T12:07:45Z</time>
      </trkpt>
      <trkpt lat="46.66982" lon="5.49739">
        <ele>228.4</ele>
        <time>2022-04-14T12:07:46Z</time>
      </trkpt>
      <trkpt lat="46.66991" lon="5.49716">
        <ele>227.8</ele>
        <time>2022-04-14T12:07:48Z</time>
      </trkpt>
      <trkpt lat="46.66998" lon="5.49707">
        <ele>227.6</ele>
        <time>2022-04-14T12:07:49Z</time>
      </trkpt>
      <trkpt lat="46.67006" lon="5.49699">
        <ele>227.4</ele>
        <time>2022-04-14T12:07:50Z</time>
      </trkpt>
      <trkpt lat="46.67014" lon="5.49693">
        <ele>227.4</ele>
        <time>2022-04-14T12:07:51Z</time>
      </trkpt>
      <trkpt lat="46.6706" lon="5.49665">
        <ele>227.6</ele>
        <time>2022-04-14T12:07:57Z</time>
      </trkpt>
      <trkpt lat="46.67068" lon="5.49663">
        <ele>227.6</ele>
        <time>2022-04-14T12:07:58Z</time>
      </trkpt>
      <trkpt lat="46.67082" lon="5.49667">
        <ele>227.6</ele>
        <time>2022-04-14T12:08:00Z</time>
      </trkpt>
      <trkpt lat="46.6711" lon="5.49684">
        <ele>229</ele>
        <time>2022-04-14T12:08:05Z</time>
      </trkpt>
      <trkpt lat="46.6712" lon="5.49691">
        <ele>230</ele>
        <time>2022-04-14T12:08:07Z</time>
      </trkpt>
      <trkpt lat="46.67134" lon="5.49697">
        <ele>231.2</ele>
        <time>2022-04-14T12:08:10Z</time>
      </trkpt>
      <trkpt lat="46.67153" lon="5.49702">
        <ele>232.4</ele>
        <time>2022-04-14T12:08:14Z</time>
      </trkpt>
      <trkpt lat="46.67162" lon="5.49704">
        <ele>232.8</ele>
        <time>2022-04-14T12:08:16Z</time>
      </trkpt>
      <trkpt lat="46.67171" lon="5.49706">
        <ele>233.4</ele>
        <time>2022-04-14T12:08:18Z</time>
      </trkpt>
      <trkpt lat="46.67186" lon="5.4971">
        <ele>234.4</ele>
        <time>2022-04-14T12:08:22Z</time>
      </trkpt>
      <trkpt lat="46.6719" lon="5.49712">
        <ele>234.8</ele>
        <time>2022-04-14T12:08:23Z</time>
      </trkpt>
      <trkpt lat="46.67205" lon="5.49718">
        <ele>236</ele>
        <time>2022-04-14T12:08:27Z</time>
      </trkpt>
      <trkpt lat="46.67212" lon="5.49719">
        <ele>236.6</ele>
        <time>2022-04-14T12:08:29Z</time>
      </trkpt>
      <trkpt lat="46.6722" lon="5.49716">
        <ele>237.2</ele>
        <time>2022-04-14T12:08:31Z</time>
      </trkpt>
      <trkpt lat="46.67226" lon="5.4971">
        <ele>237.6</ele>
        <time>2022-04-14T12:08:33Z</time>
      </trkpt>
      <trkpt lat="46.67237" lon="5.49701">
        <ele>238.4</ele>
        <time>2022-04-14T12:08:36Z</time>
      </trkpt>
      <trkpt lat="46.67249" lon="5.49692">
        <ele>239.2</ele>
        <time>2022-04-14T12:08:39Z</time>
      </trkpt>
      <trkpt lat="46.67265" lon="5.4968">
        <ele>239.4</ele>
        <time>2022-04-14T12:08:43Z</time>
      </trkpt>
      <trkpt lat="46.67278" lon="5.49672">
        <ele>239.6</ele>
        <time>2022-04-14T12:08:46Z</time>
      </trkpt>
      <trkpt lat="46.67313" lon="5.49657">
        <ele>240.4</ele>
        <time>2022-04-14T12:08:53Z</time>
      </trkpt>
      <trkpt lat="46.67323" lon="5.49654">
        <ele>240.6</ele>
        <time>2022-04-14T12:08:55Z</time>
      </trkpt>
      <trkpt lat="46.67351" lon="5.49648">
        <ele>240.8</ele>
        <time>2022-04-14T12:09:00Z</time>
      </trkpt>
      <trkpt lat="46.67357" lon="5.49648">
        <ele>240.8</ele>
        <time>2022-04-14T12:09:01Z</time>
      </trkpt>
      <trkpt lat="46.67401" lon="5.49638">
        <ele>240.8</ele>
        <time>2022-04-14T12:09:09Z</time>
      </trkpt>
      <trkpt lat="46.67414" lon="5.49636">
        <ele>241</ele>
        <time>2022-04-14T12:09:11Z</time>
      </trkpt>
      <trkpt lat="46.67424" lon="5.4963">
        <ele>241.2</ele>
        <time>2022-04-14T12:09:13Z</time>
      </trkpt>
      <trkpt lat="46.67429" lon="5.49625">
        <ele>241.2</ele>
        <time>2022-04-14T12:09:14Z</time>
      </trkpt>
      <trkpt lat="46.67433" lon="5.49619">
        <ele>241.2</ele>
        <time>2022-04-14T12:09:15Z</time>
      </trkpt>
      <trkpt lat="46.67437" lon="5.49605">
        <ele>241.4</ele>
        <time>2022-04-14T12:09:17Z</time>
      </trkpt>
      <trkpt lat="46.67438" lon="5.49597">
        <ele>241.4</ele>
        <time>2022-04-14T12:09:18Z</time>
      </trkpt>
      <trkpt lat="46.67437" lon="5.49542">
        <ele>241.6</ele>
        <time>2022-04-14T12:09:25Z</time>
      </trkpt>
      <trkpt lat="46.67438" lon="5.49536">
        <ele>242</ele>
        <time>2022-04-14T12:09:26Z</time>
      </trkpt>
      <trkpt lat="46.6744" lon="5.49527">
        <ele>242.2</ele>
        <time>2022-04-14T12:09:27Z</time>
      </trkpt>
      <trkpt lat="46.67443" lon="5.49521">
        <ele>242.2</ele>
        <time>2022-04-14T12:09:28Z</time>
      </trkpt>
      <trkpt lat="46.67448" lon="5.49517">
        <ele>242.2</ele>
        <time>2022-04-14T12:09:29Z</time>
      </trkpt>
      <trkpt lat="46.67458" lon="5.49515">
        <ele>242.4</ele>
        <time>2022-04-14T12:09:31Z</time>
      </trkpt>
      <trkpt lat="46.67474" lon="5.49519">
        <ele>243</ele>
        <time>2022-04-14T12:09:34Z</time>
      </trkpt>
      <trkpt lat="46.67486" lon="5.49523">
        <ele>243.2</ele>
        <time>2022-04-14T12:09:36Z</time>
      </trkpt>
      <trkpt lat="46.67505" lon="5.49527">
        <ele>243.4</ele>
        <time>2022-04-14T12:09:39Z</time>
      </trkpt>
      <trkpt lat="46.67518" lon="5.49526">
        <ele>243.4</ele>
        <time>2022-04-14T12:09:41Z</time>
      </trkpt>
      <trkpt lat="46.67524" lon="5.49523">
        <ele>243.2</ele>
        <time>2022-04-14T12:09:42Z</time>
      </trkpt>
      <trkpt lat="46.67543" lon="5.49513">
        <ele>243.4</ele>
        <time>2022-04-14T12:09:46Z</time>
      </trkpt>
      <trkpt lat="46.67558" lon="5.49505">
        <ele>244</ele>
        <time>2022-04-14T12:09:51Z</time>
      </trkpt>
      <trkpt lat="46.6756" lon="5.49504">
        <ele>244.8</ele>
        <time>2022-04-14T12:09:55Z</time>
      </trkpt>
      <trkpt lat="46.67565" lon="5.49502">
        <ele>245.6</ele>
        <time>2022-04-14T12:10:06Z</time>
      </trkpt>
      <trkpt lat="46.67568" lon="5.49497">
        <ele>245.6</ele>
        <time>2022-04-14T12:10:08Z</time>
      </trkpt>
      <trkpt lat="46.67571" lon="5.49495">
        <ele>245.4</ele>
        <time>2022-04-14T12:10:09Z</time>
      </trkpt>
      <trkpt lat="46.67579" lon="5.49492">
        <ele>245.4</ele>
        <time>2022-04-14T12:10:12Z</time>
      </trkpt>
      <trkpt lat="46.67597" lon="5.49484">
        <ele>246.4</ele>
        <time>2022-04-14T12:10:19Z</time>
      </trkpt>
      <trkpt lat="46.67603" lon="5.49482">
        <ele>246.6</ele>
        <time>2022-04-14T12:10:21Z</time>
      </trkpt>
      <trkpt lat="46.67616" lon="5.49477">
        <ele>247.6</ele>
        <time>2022-04-14T12:10:25Z</time>
      </trkpt>
      <trkpt lat="46.67623" lon="5.49475">
        <ele>248.2</ele>
        <time>2022-04-14T12:10:27Z</time>
      </trkpt>
      <trkpt lat="46.6763" lon="5.49472">
        <ele>248.8</ele>
        <time>2022-04-14T12:10:29Z</time>
      </trkpt>
      <trkpt lat="46.67639" lon="5.4947">
        <ele>250</ele>
        <time>2022-04-14T12:10:32Z</time>
      </trkpt>
      <trkpt lat="46.67651" lon="5.49468">
        <ele>251</ele>
        <time>2022-04-14T12:10:36Z</time>
      </trkpt>
      <trkpt lat="46.67657" lon="5.49466">
        <ele>251.8</ele>
        <time>2022-04-14T12:10:38Z</time>
      </trkpt>
      <trkpt lat="46.6766" lon="5.49466">
        <ele>252</ele>
        <time>2022-04-14T12:10:39Z</time>
      </trkpt>
      <trkpt lat="46.67672" lon="5.49463">
        <ele>253.2</ele>
        <time>2022-04-14T12:10:44Z</time>
      </trkpt>
      <trkpt lat="46.67675" lon="5.49463">
        <ele>253.4</ele>
        <time>2022-04-14T12:10:45Z</time>
      </trkpt>
      <trkpt lat="46.67687" lon="5.49461">
        <ele>254.4</ele>
        <time>2022-04-14T12:10:49Z</time>
      </trkpt>
      <trkpt lat="46.67701" lon="5.49458">
        <ele>255.4</ele>
        <time>2022-04-14T12:10:54Z</time>
      </trkpt>
      <trkpt lat="46.67704" lon="5.49457">
        <ele>255.8</ele>
        <time>2022-04-14T12:10:55Z</time>
      </trkpt>
      <trkpt lat="46.67714" lon="5.49453">
        <ele>256.6</ele>
        <time>2022-04-14T12:10:58Z</time>
      </trkpt>
      <trkpt lat="46.67727" lon="5.4945">
        <ele>257.4</ele>
        <time>2022-04-14T12:11:02Z</time>
      </trkpt>
      <trkpt lat="46.67733" lon="5.49448">
        <ele>257.6</ele>
        <time>2022-04-14T12:11:04Z</time>
      </trkpt>
      <trkpt lat="46.67746" lon="5.4944">
        <ele>258.6</ele>
        <time>2022-04-14T12:11:08Z</time>
      </trkpt>
      <trkpt lat="46.67748" lon="5.49438">
        <ele>259</ele>
        <time>2022-04-14T12:11:09Z</time>
      </trkpt>
      <trkpt lat="46.67773" lon="5.4942">
        <ele>260.2</ele>
        <time>2022-04-14T12:11:16Z</time>
      </trkpt>
      <trkpt lat="46.67777" lon="5.49418">
        <ele>260.4</ele>
        <time>2022-04-14T12:11:17Z</time>
      </trkpt>
      <trkpt lat="46.67793" lon="5.49414">
        <ele>261.2</ele>
        <time>2022-04-14T12:11:21Z</time>
      </trkpt>
      <trkpt lat="46.6782" lon="5.49403">
        <ele>262</ele>
        <time>2022-04-14T12:11:28Z</time>
      </trkpt>
      <trkpt lat="46.67825" lon="5.49402">
        <ele>262.2</ele>
        <time>2022-04-14T12:11:29Z</time>
      </trkpt>
      <trkpt lat="46.67829" lon="5.49401">
        <ele>262.2</ele>
        <time>2022-04-14T12:11:30Z</time>
      </trkpt>
      <trkpt lat="46.67853" lon="5.49398">
        <ele>263</ele>
        <time>2022-04-14T12:11:36Z</time>
      </trkpt>
      <trkpt lat="46.67862" lon="5.49397">
        <ele>263.4</ele>
        <time>2022-04-14T12:11:38Z</time>
      </trkpt>
      <trkpt lat="46.67869" lon="5.49395">
        <ele>263.6</ele>
        <time>2022-04-14T12:11:40Z</time>
      </trkpt>
      <trkpt lat="46.67878" lon="5.49394">
        <ele>264</ele>
        <time>2022-04-14T12:11:42Z</time>
      </trkpt>
      <trkpt lat="46.67895" lon="5.49395">
        <ele>264.4</ele>
        <time>2022-04-14T12:11:46Z</time>
      </trkpt>
      <trkpt lat="46.67904" lon="5.49396">
        <ele>264.8</ele>
        <time>2022-04-14T12:11:48Z</time>
      </trkpt>
      <trkpt lat="46.67909" lon="5.49397">
        <ele>265.2</ele>
        <time>2022-04-14T12:11:49Z</time>
      </trkpt>
      <trkpt lat="46.67929" lon="5.49398">
        <ele>265.8</ele>
        <time>2022-04-14T12:11:53Z</time>
      </trkpt>
      <trkpt lat="46.67939" lon="5.49398">
        <ele>266.4</ele>
        <time>2022-04-14T12:11:55Z</time>
      </trkpt>
      <trkpt lat="46.67977" lon="5.49397">
        <ele>266.8</ele>
        <time>2022-04-14T12:12:02Z</time>
      </trkpt>
      <trkpt lat="46.68015" lon="5.49402">
        <ele>266.8</ele>
        <time>2022-04-14T12:12:09Z</time>
      </trkpt>
      <trkpt lat="46.6807" lon="5.49403">
        <ele>266.6</ele>
        <time>2022-04-14T12:12:18Z</time>
      </trkpt>
      <trkpt lat="46.68076" lon="5.49404">
        <ele>266.6</ele>
        <time>2022-04-14T12:12:19Z</time>
      </trkpt>
      <trkpt lat="46.68128" lon="5.4941">
        <ele>266.4</ele>
        <time>2022-04-14T12:12:27Z</time>
      </trkpt>
      <trkpt lat="46.68135" lon="5.49413">
        <ele>266.2</ele>
        <time>2022-04-14T12:12:28Z</time>
      </trkpt>
      <trkpt lat="46.68153" lon="5.49427">
        <ele>266.2</ele>
        <time>2022-04-14T12:12:31Z</time>
      </trkpt>
      <trkpt lat="46.68197" lon="5.49472">
        <ele>266</ele>
        <time>2022-04-14T12:12:39Z</time>
      </trkpt>
      <trkpt lat="46.68248" lon="5.49505">
        <ele>266</ele>
        <time>2022-04-14T12:12:47Z</time>
      </trkpt>
      <trkpt lat="46.68301" lon="5.49535">
        <ele>266.4</ele>
        <time>2022-04-14T12:12:56Z</time>
      </trkpt>
      <trkpt lat="46.68341" lon="5.49559">
        <ele>267</ele>
        <time>2022-04-14T12:13:03Z</time>
      </trkpt>
      <trkpt lat="46.68363" lon="5.49576">
        <ele>267.6</ele>
        <time>2022-04-14T12:13:07Z</time>
      </trkpt>
      <trkpt lat="46.68384" lon="5.49608">
        <ele>268.2</ele>
        <time>2022-04-14T12:13:12Z</time>
      </trkpt>
      <trkpt lat="46.68387" lon="5.49615">
        <ele>268.2</ele>
        <time>2022-04-14T12:13:13Z</time>
      </trkpt>
      <trkpt lat="46.68395" lon="5.4964">
        <ele>268.2</ele>
        <time>2022-04-14T12:13:16Z</time>
      </trkpt>
      <trkpt lat="46.68401" lon="5.49666">
        <ele>268.2</ele>
        <time>2022-04-14T12:13:19Z</time>
      </trkpt>
      <trkpt lat="46.68402" lon="5.49684">
        <ele>268.2</ele>
        <time>2022-04-14T12:13:21Z</time>
      </trkpt>
      <trkpt lat="46.68403" lon="5.49751">
        <ele>268.6</ele>
        <time>2022-04-14T12:13:28Z</time>
      </trkpt>
      <trkpt lat="46.68404" lon="5.49771">
        <ele>268.6</ele>
        <time>2022-04-14T12:13:30Z</time>
      </trkpt>
      <trkpt lat="46.68409" lon="5.49801">
        <ele>268.6</ele>
        <time>2022-04-14T12:13:33Z</time>
      </trkpt>
      <trkpt lat="46.68424" lon="5.49837">
        <ele>268.4</ele>
        <time>2022-04-14T12:13:37Z</time>
      </trkpt>
      <trkpt lat="46.68429" lon="5.49844">
        <ele>268.2</ele>
        <time>2022-04-14T12:13:38Z</time>
      </trkpt>
      <trkpt lat="46.68458" lon="5.49873">
        <ele>267.4</ele>
        <time>2022-04-14T12:13:43Z</time>
      </trkpt>
      <trkpt lat="46.68476" lon="5.49884">
        <ele>267.4</ele>
        <time>2022-04-14T12:13:46Z</time>
      </trkpt>
      <trkpt lat="46.68487" lon="5.49891">
        <ele>267.4</ele>
        <time>2022-04-14T12:13:48Z</time>
      </trkpt>
      <trkpt lat="46.68531" lon="5.49918">
        <ele>268.4</ele>
        <time>2022-04-14T12:13:56Z</time>
      </trkpt>
      <trkpt lat="46.68575" lon="5.49951">
        <ele>269</ele>
        <time>2022-04-14T12:14:04Z</time>
      </trkpt>
      <trkpt lat="46.68618" lon="5.49977">
        <ele>269.2</ele>
        <time>2022-04-14T12:14:11Z</time>
      </trkpt>
      <trkpt lat="46.68655" lon="5.49983">
        <ele>267.8</ele>
        <time>2022-04-14T12:14:16Z</time>
      </trkpt>
      <trkpt lat="46.68679" lon="5.49984">
        <ele>267.2</ele>
        <time>2022-04-14T12:14:19Z</time>
      </trkpt>
      <trkpt lat="46.68704" lon="5.49985">
        <ele>266.4</ele>
        <time>2022-04-14T12:14:22Z</time>
      </trkpt>
      <trkpt lat="46.68721" lon="5.49986">
        <ele>265.6</ele>
        <time>2022-04-14T12:14:24Z</time>
      </trkpt>
      <trkpt lat="46.68747" lon="5.49987">
        <ele>264.8</ele>
        <time>2022-04-14T12:14:27Z</time>
      </trkpt>
      <trkpt lat="46.68763" lon="5.49988">
        <ele>264.2</ele>
        <time>2022-04-14T12:14:29Z</time>
      </trkpt>
      <trkpt lat="46.68809" lon="5.49991">
        <ele>263.4</ele>
        <time>2022-04-14T12:14:35Z</time>
      </trkpt>
      <trkpt lat="46.68828" lon="5.49996">
        <ele>263.4</ele>
        <time>2022-04-14T12:14:38Z</time>
      </trkpt>
      <trkpt lat="46.68832" lon="5.50001">
        <ele>263.6</ele>
        <time>2022-04-14T12:14:39Z</time>
      </trkpt>
      <trkpt lat="46.68834" lon="5.50008">
        <ele>263.8</ele>
        <time>2022-04-14T12:14:40Z</time>
      </trkpt>
      <trkpt lat="46.68834" lon="5.50015">
        <ele>264.6</ele>
        <time>2022-04-14T12:14:41Z</time>
      </trkpt>
      <trkpt lat="46.68832" lon="5.50024">
        <ele>264.8</ele>
        <time>2022-04-14T12:14:42Z</time>
      </trkpt>
      <trkpt lat="46.6883" lon="5.50032">
        <ele>265.8</ele>
        <time>2022-04-14T12:14:43Z</time>
      </trkpt>
      <trkpt lat="46.68824" lon="5.50058">
        <ele>266.4</ele>
        <time>2022-04-14T12:14:46Z</time>
      </trkpt>
      <trkpt lat="46.6882" lon="5.50077">
        <ele>266.8</ele>
        <time>2022-04-14T12:14:48Z</time>
      </trkpt>
      <trkpt lat="46.68806" lon="5.50122">
        <ele>267.4</ele>
        <time>2022-04-14T12:14:53Z</time>
      </trkpt>
      <trkpt lat="46.68777" lon="5.5018">
        <ele>267.8</ele>
        <time>2022-04-14T12:15:00Z</time>
      </trkpt>
      <trkpt lat="46.68741" lon="5.50236">
        <ele>269</ele>
        <time>2022-04-14T12:15:08Z</time>
      </trkpt>
      <trkpt lat="46.68722" lon="5.50266">
        <ele>269.6</ele>
        <time>2022-04-14T12:15:13Z</time>
      </trkpt>
      <trkpt lat="46.68702" lon="5.50302">
        <ele>269.8</ele>
        <time>2022-04-14T12:15:19Z</time>
      </trkpt>
      <trkpt lat="46.68699" lon="5.50309">
        <ele>270</ele>
        <time>2022-04-14T12:15:20Z</time>
      </trkpt>
      <trkpt lat="46.68691" lon="5.50335">
        <ele>271.4</ele>
        <time>2022-04-14T12:15:24Z</time>
      </trkpt>
      <trkpt lat="46.68688" lon="5.5035">
        <ele>271.6</ele>
        <time>2022-04-14T12:15:26Z</time>
      </trkpt>
      <trkpt lat="46.68687" lon="5.50356">
        <ele>271.8</ele>
        <time>2022-04-14T12:15:27Z</time>
      </trkpt>
      <trkpt lat="46.68684" lon="5.50377">
        <ele>272.4</ele>
        <time>2022-04-14T12:15:30Z</time>
      </trkpt>
      <trkpt lat="46.68681" lon="5.50406">
        <ele>273.6</ele>
        <time>2022-04-14T12:15:34Z</time>
      </trkpt>
      <trkpt lat="46.6868" lon="5.50413">
        <ele>273.8</ele>
        <time>2022-04-14T12:15:35Z</time>
      </trkpt>
      <trkpt lat="46.68681" lon="5.50426">
        <ele>274.2</ele>
        <time>2022-04-14T12:15:37Z</time>
      </trkpt>
      <trkpt lat="46.68681" lon="5.50433">
        <ele>274.6</ele>
        <time>2022-04-14T12:15:38Z</time>
      </trkpt>
      <trkpt lat="46.68684" lon="5.50453">
        <ele>275.4</ele>
        <time>2022-04-14T12:15:41Z</time>
      </trkpt>
      <trkpt lat="46.68688" lon="5.50467">
        <ele>275.6</ele>
        <time>2022-04-14T12:15:43Z</time>
      </trkpt>
      <trkpt lat="46.6869" lon="5.50474">
        <ele>275.6</ele>
        <time>2022-04-14T12:15:44Z</time>
      </trkpt>
      <trkpt lat="46.68699" lon="5.50498">
        <ele>277</ele>
        <time>2022-04-14T12:15:48Z</time>
      </trkpt>
      <trkpt lat="46.68705" lon="5.50514">
        <ele>277.6</ele>
        <time>2022-04-14T12:15:52Z</time>
      </trkpt>
      <trkpt lat="46.68705" lon="5.50522">
        <ele>277.8</ele>
        <time>2022-04-14T12:15:54Z</time>
      </trkpt>
      <trkpt lat="46.68699" lon="5.5053">
        <ele>277.8</ele>
        <time>2022-04-14T12:15:56Z</time>
      </trkpt>
      <trkpt lat="46.68682" lon="5.50553">
        <ele>278</ele>
        <time>2022-04-14T12:16:00Z</time>
      </trkpt>
      <trkpt lat="46.68642" lon="5.50609">
        <ele>278</ele>
        <time>2022-04-14T12:16:08Z</time>
      </trkpt>
      <trkpt lat="46.686" lon="5.50666">
        <ele>278</ele>
        <time>2022-04-14T12:16:16Z</time>
      </trkpt>
      <trkpt lat="46.68595" lon="5.50674">
        <ele>278</ele>
        <time>2022-04-14T12:16:17Z</time>
      </trkpt>
      <trkpt lat="46.68558" lon="5.50725">
        <ele>277</ele>
        <time>2022-04-14T12:16:24Z</time>
      </trkpt>
      <trkpt lat="46.68553" lon="5.50732">
        <ele>276.6</ele>
        <time>2022-04-14T12:16:25Z</time>
      </trkpt>
      <trkpt lat="46.68548" lon="5.5074">
        <ele>276.6</ele>
        <time>2022-04-14T12:16:26Z</time>
      </trkpt>
      <trkpt lat="46.68544" lon="5.5076">
        <ele>276.2</ele>
        <time>2022-04-14T12:16:28Z</time>
      </trkpt>
      <trkpt lat="46.68552" lon="5.50776">
        <ele>276</ele>
        <time>2022-04-14T12:16:30Z</time>
      </trkpt>
      <trkpt lat="46.68559" lon="5.5078">
        <ele>276</ele>
        <time>2022-04-14T12:16:31Z</time>
      </trkpt>
      <trkpt lat="46.68571" lon="5.50787">
        <ele>276</ele>
        <time>2022-04-14T12:16:33Z</time>
      </trkpt>
      <trkpt lat="46.68592" lon="5.50793">
        <ele>276</ele>
        <time>2022-04-14T12:16:36Z</time>
      </trkpt>
      <trkpt lat="46.68629" lon="5.50811">
        <ele>276.8</ele>
        <time>2022-04-14T12:16:42Z</time>
      </trkpt>
      <trkpt lat="46.68669" lon="5.50834">
        <ele>277.4</ele>
        <time>2022-04-14T12:16:49Z</time>
      </trkpt>
      <trkpt lat="46.68725" lon="5.50866">
        <ele>277.6</ele>
        <time>2022-04-14T12:16:59Z</time>
      </trkpt>
      <trkpt lat="46.6873" lon="5.50869">
        <ele>277.6</ele>
        <time>2022-04-14T12:17:00Z</time>
      </trkpt>
      <trkpt lat="46.68751" lon="5.50881">
        <ele>278</ele>
        <time>2022-04-14T12:17:04Z</time>
      </trkpt>
      <trkpt lat="46.68772" lon="5.50892">
        <ele>278.4</ele>
        <time>2022-04-14T12:17:08Z</time>
      </trkpt>
      <trkpt lat="46.68788" lon="5.50901">
        <ele>279</ele>
        <time>2022-04-14T12:17:11Z</time>
      </trkpt>
      <trkpt lat="46.68822" lon="5.50923">
        <ele>279.8</ele>
        <time>2022-04-14T12:17:18Z</time>
      </trkpt>
      <trkpt lat="46.68832" lon="5.50928">
        <ele>280.2</ele>
        <time>2022-04-14T12:17:20Z</time>
      </trkpt>
      <trkpt lat="46.68863" lon="5.50945">
        <ele>281.2</ele>
        <time>2022-04-14T12:17:26Z</time>
      </trkpt>
      <trkpt lat="46.68868" lon="5.50948">
        <ele>281.4</ele>
        <time>2022-04-14T12:17:27Z</time>
      </trkpt>
      <trkpt lat="46.68912" lon="5.50972">
        <ele>282.6</ele>
        <time>2022-04-14T12:17:36Z</time>
      </trkpt>
      <trkpt lat="46.68917" lon="5.50975">
        <ele>282.8</ele>
        <time>2022-04-14T12:17:37Z</time>
      </trkpt>
      <trkpt lat="46.68946" lon="5.50992">
        <ele>284</ele>
        <time>2022-04-14T12:17:43Z</time>
      </trkpt>
      <trkpt lat="46.68951" lon="5.50996">
        <ele>284.4</ele>
        <time>2022-04-14T12:17:44Z</time>
      </trkpt>
      <trkpt lat="46.68956" lon="5.50999">
        <ele>284.4</ele>
        <time>2022-04-14T12:17:45Z</time>
      </trkpt>
      <trkpt lat="46.68982" lon="5.51014">
        <ele>285</ele>
        <time>2022-04-14T12:17:50Z</time>
      </trkpt>
      <trkpt lat="46.69013" lon="5.51034">
        <ele>285.4</ele>
        <time>2022-04-14T12:17:56Z</time>
      </trkpt>
      <trkpt lat="46.6904" lon="5.51049">
        <ele>286</ele>
        <time>2022-04-14T12:18:01Z</time>
      </trkpt>
      <trkpt lat="46.69071" lon="5.51065">
        <ele>286.8</ele>
        <time>2022-04-14T12:18:07Z</time>
      </trkpt>
      <trkpt lat="46.69101" lon="5.51083">
        <ele>287.2</ele>
        <time>2022-04-14T12:18:13Z</time>
      </trkpt>
      <trkpt lat="46.6911" lon="5.51089">
        <ele>287.4</ele>
        <time>2022-04-14T12:18:15Z</time>
      </trkpt>
      <trkpt lat="46.69128" lon="5.51098">
        <ele>288.2</ele>
        <time>2022-04-14T12:18:19Z</time>
      </trkpt>
      <trkpt lat="46.69134" lon="5.511">
        <ele>288.4</ele>
        <time>2022-04-14T12:18:20Z</time>
      </trkpt>
      <trkpt lat="46.69161" lon="5.51105">
        <ele>288.6</ele>
        <time>2022-04-14T12:18:25Z</time>
      </trkpt>
      <trkpt lat="46.69177" lon="5.51109">
        <ele>288.6</ele>
        <time>2022-04-14T12:18:28Z</time>
      </trkpt>
      <trkpt lat="46.69232" lon="5.51121">
        <ele>288.6</ele>
        <time>2022-04-14T12:18:37Z</time>
      </trkpt>
      <trkpt lat="46.69283" lon="5.51131">
        <ele>287.8</ele>
        <time>2022-04-14T12:18:44Z</time>
      </trkpt>
      <trkpt lat="46.69298" lon="5.51136">
        <ele>286.8</ele>
        <time>2022-04-14T12:18:46Z</time>
      </trkpt>
      <trkpt lat="46.69321" lon="5.51145">
        <ele>285.6</ele>
        <time>2022-04-14T12:18:49Z</time>
      </trkpt>
      <trkpt lat="46.69329" lon="5.51148">
        <ele>285</ele>
        <time>2022-04-14T12:18:50Z</time>
      </trkpt>
      <trkpt lat="46.69337" lon="5.51151">
        <ele>284.4</ele>
        <time>2022-04-14T12:18:51Z</time>
      </trkpt>
      <trkpt lat="46.69361" lon="5.51157">
        <ele>283.2</ele>
        <time>2022-04-14T12:18:54Z</time>
      </trkpt>
      <trkpt lat="46.69377" lon="5.51164">
        <ele>282.8</ele>
        <time>2022-04-14T12:18:56Z</time>
      </trkpt>
      <trkpt lat="46.69392" lon="5.51173">
        <ele>282.2</ele>
        <time>2022-04-14T12:18:58Z</time>
      </trkpt>
      <trkpt lat="46.69414" lon="5.51189">
        <ele>281.6</ele>
        <time>2022-04-14T12:19:01Z</time>
      </trkpt>
      <trkpt lat="46.69422" lon="5.51195">
        <ele>280.6</ele>
        <time>2022-04-14T12:19:02Z</time>
      </trkpt>
      <trkpt lat="46.69445" lon="5.51211">
        <ele>279.4</ele>
        <time>2022-04-14T12:19:05Z</time>
      </trkpt>
      <trkpt lat="46.69454" lon="5.51215">
        <ele>279.2</ele>
        <time>2022-04-14T12:19:06Z</time>
      </trkpt>
      <trkpt lat="46.69463" lon="5.51218">
        <ele>278.4</ele>
        <time>2022-04-14T12:19:07Z</time>
      </trkpt>
      <trkpt lat="46.69491" lon="5.51219">
        <ele>277.2</ele>
        <time>2022-04-14T12:19:10Z</time>
      </trkpt>
      <trkpt lat="46.69509" lon="5.5122">
        <ele>276.2</ele>
        <time>2022-04-14T12:19:12Z</time>
      </trkpt>
      <trkpt lat="46.69519" lon="5.51221">
        <ele>276</ele>
        <time>2022-04-14T12:19:13Z</time>
      </trkpt>
      <trkpt lat="46.69547" lon="5.51223">
        <ele>274.2</ele>
        <time>2022-04-14T12:19:16Z</time>
      </trkpt>
      <trkpt lat="46.69574" lon="5.51224">
        <ele>272.8</ele>
        <time>2022-04-14T12:19:19Z</time>
      </trkpt>
      <trkpt lat="46.69592" lon="5.51223">
        <ele>272.4</ele>
        <time>2022-04-14T12:19:21Z</time>
      </trkpt>
      <trkpt lat="46.69618" lon="5.51224">
        <ele>271.8</ele>
        <time>2022-04-14T12:19:24Z</time>
      </trkpt>
      <trkpt lat="46.69634" lon="5.51228">
        <ele>271.6</ele>
        <time>2022-04-14T12:19:26Z</time>
      </trkpt>
      <trkpt lat="46.69642" lon="5.51232">
        <ele>271.6</ele>
        <time>2022-04-14T12:19:27Z</time>
      </trkpt>
      <trkpt lat="46.69648" lon="5.51238">
        <ele>271.6</ele>
        <time>2022-04-14T12:19:28Z</time>
      </trkpt>
      <trkpt lat="46.69659" lon="5.51253">
        <ele>271.8</ele>
        <time>2022-04-14T12:19:30Z</time>
      </trkpt>
      <trkpt lat="46.69666" lon="5.5127">
        <ele>272.4</ele>
        <time>2022-04-14T12:19:32Z</time>
      </trkpt>
      <trkpt lat="46.69671" lon="5.51289">
        <ele>273</ele>
        <time>2022-04-14T12:19:34Z</time>
      </trkpt>
      <trkpt lat="46.6969" lon="5.5137">
        <ele>273.4</ele>
        <time>2022-04-14T12:19:42Z</time>
      </trkpt>
      <trkpt lat="46.697" lon="5.51434">
        <ele>272.6</ele>
        <time>2022-04-14T12:19:48Z</time>
      </trkpt>
      <trkpt lat="46.69706" lon="5.51489">
        <ele>271.8</ele>
        <time>2022-04-14T12:19:53Z</time>
      </trkpt>
      <trkpt lat="46.69706" lon="5.51501">
        <ele>271.8</ele>
        <time>2022-04-14T12:19:54Z</time>
      </trkpt>
      <trkpt lat="46.69706" lon="5.51513">
        <ele>271.6</ele>
        <time>2022-04-14T12:19:55Z</time>
      </trkpt>
      <trkpt lat="46.69705" lon="5.51526">
        <ele>271.4</ele>
        <time>2022-04-14T12:19:56Z</time>
      </trkpt>
      <trkpt lat="46.69702" lon="5.51561">
        <ele>271</ele>
        <time>2022-04-14T12:19:59Z</time>
      </trkpt>
      <trkpt lat="46.69701" lon="5.51572">
        <ele>270.8</ele>
        <time>2022-04-14T12:20:00Z</time>
      </trkpt>
      <trkpt lat="46.69699" lon="5.51622">
        <ele>271.4</ele>
        <time>2022-04-14T12:20:05Z</time>
      </trkpt>
      <trkpt lat="46.69697" lon="5.51661">
        <ele>272.6</ele>
        <time>2022-04-14T12:20:09Z</time>
      </trkpt>
      <trkpt lat="46.69695" lon="5.51688">
        <ele>273.6</ele>
        <time>2022-04-14T12:20:12Z</time>
      </trkpt>
      <trkpt lat="46.69691" lon="5.51728">
        <ele>274.2</ele>
        <time>2022-04-14T12:20:17Z</time>
      </trkpt>
      <trkpt lat="46.69688" lon="5.51735">
        <ele>274.6</ele>
        <time>2022-04-14T12:20:18Z</time>
      </trkpt>
      <trkpt lat="46.69684" lon="5.5174">
        <ele>274.6</ele>
        <time>2022-04-14T12:20:19Z</time>
      </trkpt>
      <trkpt lat="46.69673" lon="5.51748">
        <ele>274.8</ele>
        <time>2022-04-14T12:20:21Z</time>
      </trkpt>
      <trkpt lat="46.69654" lon="5.5176">
        <ele>274.8</ele>
        <time>2022-04-14T12:20:24Z</time>
      </trkpt>
      <trkpt lat="46.6965" lon="5.51768">
        <ele>274.8</ele>
        <time>2022-04-14T12:20:25Z</time>
      </trkpt>
      <trkpt lat="46.69647" lon="5.51778">
        <ele>274.2</ele>
        <time>2022-04-14T12:20:26Z</time>
      </trkpt>
      <trkpt lat="46.69644" lon="5.51804">
        <ele>274</ele>
        <time>2022-04-14T12:20:28Z</time>
      </trkpt>
      <trkpt lat="46.69642" lon="5.51832">
        <ele>273.4</ele>
        <time>2022-04-14T12:20:30Z</time>
      </trkpt>
      <trkpt lat="46.69639" lon="5.51861">
        <ele>271.6</ele>
        <time>2022-04-14T12:20:32Z</time>
      </trkpt>
      <trkpt lat="46.69636" lon="5.51888">
        <ele>270.2</ele>
        <time>2022-04-14T12:20:34Z</time>
      </trkpt>
      <trkpt lat="46.69619" lon="5.51951">
        <ele>269.2</ele>
        <time>2022-04-14T12:20:39Z</time>
      </trkpt>
      <trkpt lat="46.69616" lon="5.51962">
        <ele>269.2</ele>
        <time>2022-04-14T12:20:40Z</time>
      </trkpt>
      <trkpt lat="46.69609" lon="5.51985">
        <ele>269.2</ele>
        <time>2022-04-14T12:20:42Z</time>
      </trkpt>
      <trkpt lat="46.69604" lon="5.52007">
        <ele>269.4</ele>
        <time>2022-04-14T12:20:44Z</time>
      </trkpt>
      <trkpt lat="46.69595" lon="5.52058">
        <ele>270.8</ele>
        <time>2022-04-14T12:20:49Z</time>
      </trkpt>
      <trkpt lat="46.69593" lon="5.52096">
        <ele>272.4</ele>
        <time>2022-04-14T12:20:53Z</time>
      </trkpt>
      <trkpt lat="46.69592" lon="5.52124">
        <ele>273.6</ele>
        <time>2022-04-14T12:20:56Z</time>
      </trkpt>
      <trkpt lat="46.6959" lon="5.52151">
        <ele>274.6</ele>
        <time>2022-04-14T12:20:59Z</time>
      </trkpt>
      <trkpt lat="46.69589" lon="5.52186">
        <ele>275.8</ele>
        <time>2022-04-14T12:21:03Z</time>
      </trkpt>
      <trkpt lat="46.69585" lon="5.52233">
        <ele>277.4</ele>
        <time>2022-04-14T12:21:09Z</time>
      </trkpt>
      <trkpt lat="46.69582" lon="5.52256">
        <ele>278.6</ele>
        <time>2022-04-14T12:21:12Z</time>
      </trkpt>
      <trkpt lat="46.69575" lon="5.52292">
        <ele>279.6</ele>
        <time>2022-04-14T12:21:17Z</time>
      </trkpt>
      <trkpt lat="46.69573" lon="5.52299">
        <ele>280</ele>
        <time>2022-04-14T12:21:18Z</time>
      </trkpt>
      <trkpt lat="46.69568" lon="5.52318">
        <ele>281</ele>
        <time>2022-04-14T12:21:21Z</time>
      </trkpt>
      <trkpt lat="46.69561" lon="5.52336">
        <ele>282.2</ele>
        <time>2022-04-14T12:21:24Z</time>
      </trkpt>
      <trkpt lat="46.69551" lon="5.52359">
        <ele>283.4</ele>
        <time>2022-04-14T12:21:28Z</time>
      </trkpt>
      <trkpt lat="46.69543" lon="5.52377">
        <ele>284.8</ele>
        <time>2022-04-14T12:21:31Z</time>
      </trkpt>
      <trkpt lat="46.6954" lon="5.52383">
        <ele>285</ele>
        <time>2022-04-14T12:21:32Z</time>
      </trkpt>
      <trkpt lat="46.69533" lon="5.52403">
        <ele>285.8</ele>
        <time>2022-04-14T12:21:35Z</time>
      </trkpt>
      <trkpt lat="46.69527" lon="5.52428">
        <ele>285.8</ele>
        <time>2022-04-14T12:21:38Z</time>
      </trkpt>
      <trkpt lat="46.69514" lon="5.52479">
        <ele>285.2</ele>
        <time>2022-04-14T12:21:43Z</time>
      </trkpt>
      <trkpt lat="46.69508" lon="5.52502">
        <ele>284.6</ele>
        <time>2022-04-14T12:21:45Z</time>
      </trkpt>
      <trkpt lat="46.69496" lon="5.52537">
        <ele>283.4</ele>
        <time>2022-04-14T12:21:48Z</time>
      </trkpt>
      <trkpt lat="46.69491" lon="5.52548">
        <ele>282.8</ele>
        <time>2022-04-14T12:21:49Z</time>
      </trkpt>
      <trkpt lat="46.69486" lon="5.52559">
        <ele>282.6</ele>
        <time>2022-04-14T12:21:50Z</time>
      </trkpt>
      <trkpt lat="46.69479" lon="5.52569">
        <ele>282.2</ele>
        <time>2022-04-14T12:21:51Z</time>
      </trkpt>
      <trkpt lat="46.69466" lon="5.52591">
        <ele>281.6</ele>
        <time>2022-04-14T12:21:53Z</time>
      </trkpt>
      <trkpt lat="46.69461" lon="5.52603">
        <ele>281</ele>
        <time>2022-04-14T12:21:54Z</time>
      </trkpt>
      <trkpt lat="46.69452" lon="5.52629">
        <ele>280.4</ele>
        <time>2022-04-14T12:21:56Z</time>
      </trkpt>
      <trkpt lat="46.69446" lon="5.52655">
        <ele>280</ele>
        <time>2022-04-14T12:21:58Z</time>
      </trkpt>
      <trkpt lat="46.69442" lon="5.52668">
        <ele>279.8</ele>
        <time>2022-04-14T12:21:59Z</time>
      </trkpt>
      <trkpt lat="46.69432" lon="5.52693">
        <ele>279.2</ele>
        <time>2022-04-14T12:22:01Z</time>
      </trkpt>
      <trkpt lat="46.69405" lon="5.52736">
        <ele>278.8</ele>
        <time>2022-04-14T12:22:05Z</time>
      </trkpt>
      <trkpt lat="46.69361" lon="5.52794">
        <ele>278</ele>
        <time>2022-04-14T12:22:11Z</time>
      </trkpt>
      <trkpt lat="46.69346" lon="5.52812">
        <ele>277.8</ele>
        <time>2022-04-14T12:22:13Z</time>
      </trkpt>
      <trkpt lat="46.69324" lon="5.52837">
        <ele>277.8</ele>
        <time>2022-04-14T12:22:16Z</time>
      </trkpt>
      <trkpt lat="46.6931" lon="5.52851">
        <ele>278</ele>
        <time>2022-04-14T12:22:18Z</time>
      </trkpt>
      <trkpt lat="46.69284" lon="5.5287">
        <ele>279</ele>
        <time>2022-04-14T12:22:22Z</time>
      </trkpt>
      <trkpt lat="46.6927" lon="5.52874">
        <ele>279.8</ele>
        <time>2022-04-14T12:22:24Z</time>
      </trkpt>
      <trkpt lat="46.69264" lon="5.52875">
        <ele>280.2</ele>
        <time>2022-04-14T12:22:25Z</time>
      </trkpt>
      <trkpt lat="46.69257" lon="5.52875">
        <ele>281.2</ele>
        <time>2022-04-14T12:22:26Z</time>
      </trkpt>
      <trkpt lat="46.69251" lon="5.52876">
        <ele>281.8</ele>
        <time>2022-04-14T12:22:27Z</time>
      </trkpt>
      <trkpt lat="46.69244" lon="5.52876">
        <ele>282.6</ele>
        <time>2022-04-14T12:22:28Z</time>
      </trkpt>
      <trkpt lat="46.69232" lon="5.52875">
        <ele>283.8</ele>
        <time>2022-04-14T12:22:30Z</time>
      </trkpt>
      <trkpt lat="46.69226" lon="5.52874">
        <ele>285.2</ele>
        <time>2022-04-14T12:22:31Z</time>
      </trkpt>
      <trkpt lat="46.6922" lon="5.52874">
        <ele>285.6</ele>
        <time>2022-04-14T12:22:32Z</time>
      </trkpt>
      <trkpt lat="46.69214" lon="5.52873">
        <ele>286.4</ele>
        <time>2022-04-14T12:22:33Z</time>
      </trkpt>
      <trkpt lat="46.69202" lon="5.52873">
        <ele>287.4</ele>
        <time>2022-04-14T12:22:35Z</time>
      </trkpt>
      <trkpt lat="46.69197" lon="5.52874">
        <ele>288.4</ele>
        <time>2022-04-14T12:22:36Z</time>
      </trkpt>
      <trkpt lat="46.69192" lon="5.52875">
        <ele>288.8</ele>
        <time>2022-04-14T12:22:37Z</time>
      </trkpt>
      <trkpt lat="46.69187" lon="5.52877">
        <ele>289.4</ele>
        <time>2022-04-14T12:22:38Z</time>
      </trkpt>
      <trkpt lat="46.69182" lon="5.5288">
        <ele>289.6</ele>
        <time>2022-04-14T12:22:39Z</time>
      </trkpt>
      <trkpt lat="46.69168" lon="5.52893">
        <ele>290.2</ele>
        <time>2022-04-14T12:22:42Z</time>
      </trkpt>
      <trkpt lat="46.69165" lon="5.52899">
        <ele>290.6</ele>
        <time>2022-04-14T12:22:43Z</time>
      </trkpt>
      <trkpt lat="46.69162" lon="5.52906">
        <ele>290.8</ele>
        <time>2022-04-14T12:22:44Z</time>
      </trkpt>
      <trkpt lat="46.69161" lon="5.52921">
        <ele>291.2</ele>
        <time>2022-04-14T12:22:46Z</time>
      </trkpt>
      <trkpt lat="46.69163" lon="5.52936">
        <ele>291.6</ele>
        <time>2022-04-14T12:22:48Z</time>
      </trkpt>
      <trkpt lat="46.69165" lon="5.52943">
        <ele>291.8</ele>
        <time>2022-04-14T12:22:49Z</time>
      </trkpt>
      <trkpt lat="46.69167" lon="5.52949">
        <ele>292</ele>
        <time>2022-04-14T12:22:50Z</time>
      </trkpt>
      <trkpt lat="46.69179" lon="5.52973">
        <ele>292.2</ele>
        <time>2022-04-14T12:22:54Z</time>
      </trkpt>
      <trkpt lat="46.69181" lon="5.5298">
        <ele>292.2</ele>
        <time>2022-04-14T12:22:55Z</time>
      </trkpt>
      <trkpt lat="46.69188" lon="5.53002">
        <ele>292.4</ele>
        <time>2022-04-14T12:22:57Z</time>
      </trkpt>
      <trkpt lat="46.69189" lon="5.53011">
        <ele>292.4</ele>
        <time>2022-04-14T12:22:59Z</time>
      </trkpt>
      <trkpt lat="46.69189" lon="5.5302">
        <ele>292.4</ele>
        <time>2022-04-14T12:23:00Z</time>
      </trkpt>
      <trkpt lat="46.69185" lon="5.53062">
        <ele>292</ele>
        <time>2022-04-14T12:23:03Z</time>
      </trkpt>
      <trkpt lat="46.69181" lon="5.53098">
        <ele>290.6</ele>
        <time>2022-04-14T12:23:06Z</time>
      </trkpt>
      <trkpt lat="46.6918" lon="5.5311">
        <ele>289.4</ele>
        <time>2022-04-14T12:23:08Z</time>
      </trkpt>
      <trkpt lat="46.69177" lon="5.53135">
        <ele>289.2</ele>
        <time>2022-04-14T12:23:09Z</time>
      </trkpt>
      <trkpt lat="46.69174" lon="5.53161">
        <ele>288.2</ele>
        <time>2022-04-14T12:23:12Z</time>
      </trkpt>
      <trkpt lat="46.69175" lon="5.53187">
        <ele>288</ele>
        <time>2022-04-14T12:23:13Z</time>
      </trkpt>
      <trkpt lat="46.69177" lon="5.53199">
        <ele>287.8</ele>
        <time>2022-04-14T12:23:14Z</time>
      </trkpt>
      <trkpt lat="46.6918" lon="5.53211">
        <ele>287.4</ele>
        <time>2022-04-14T12:23:15Z</time>
      </trkpt>
      <trkpt lat="46.69177" lon="5.53233">
        <ele>287</ele>
        <time>2022-04-14T12:23:17Z</time>
      </trkpt>
      <trkpt lat="46.69166" lon="5.53252">
        <ele>285.6</ele>
        <time>2022-04-14T12:23:19Z</time>
      </trkpt>
      <trkpt lat="46.6916" lon="5.53261">
        <ele>284.8</ele>
        <time>2022-04-14T12:23:20Z</time>
      </trkpt>
      <trkpt lat="46.69154" lon="5.53271">
        <ele>284.4</ele>
        <time>2022-04-14T12:23:21Z</time>
      </trkpt>
      <trkpt lat="46.69134" lon="5.53301">
        <ele>283.2</ele>
        <time>2022-04-14T12:23:24Z</time>
      </trkpt>
      <trkpt lat="46.69121" lon="5.53322">
        <ele>282.8</ele>
        <time>2022-04-14T12:23:26Z</time>
      </trkpt>
      <trkpt lat="46.69106" lon="5.53346">
        <ele>281.8</ele>
        <time>2022-04-14T12:23:28Z</time>
      </trkpt>
      <trkpt lat="46.69091" lon="5.5337">
        <ele>280.4</ele>
        <time>2022-04-14T12:23:30Z</time>
      </trkpt>
      <trkpt lat="46.69077" lon="5.53395">
        <ele>279.6</ele>
        <time>2022-04-14T12:23:32Z</time>
      </trkpt>
      <trkpt lat="46.69071" lon="5.53408">
        <ele>278.4</ele>
        <time>2022-04-14T12:23:33Z</time>
      </trkpt>
      <trkpt lat="46.69053" lon="5.53445">
        <ele>277.4</ele>
        <time>2022-04-14T12:23:36Z</time>
      </trkpt>
      <trkpt lat="46.69035" lon="5.53479">
        <ele>276.8</ele>
        <time>2022-04-14T12:23:39Z</time>
      </trkpt>
      <trkpt lat="46.69012" lon="5.53514">
        <ele>276.6</ele>
        <time>2022-04-14T12:23:43Z</time>
      </trkpt>
      <trkpt lat="46.6899" lon="5.53524">
        <ele>276.6</ele>
        <time>2022-04-14T12:23:46Z</time>
      </trkpt>
      <trkpt lat="46.68969" lon="5.5353">
        <ele>278</ele>
        <time>2022-04-14T12:23:49Z</time>
      </trkpt>
      <trkpt lat="46.68969" lon="5.5353">
        <ele>278.6</ele>
        <time>2022-04-14T12:23:50Z</time>
      </trkpt>
      <trkpt lat="46.68956" lon="5.53535">
        <ele>279</ele>
        <time>2022-04-14T12:23:51Z</time>
      </trkpt>
      <trkpt lat="46.68944" lon="5.53542">
        <ele>279.8</ele>
        <time>2022-04-14T12:23:53Z</time>
      </trkpt>
      <trkpt lat="46.68933" lon="5.53549">
        <ele>280</ele>
        <time>2022-04-14T12:23:55Z</time>
      </trkpt>
      <trkpt lat="46.68927" lon="5.53554">
        <ele>280.2</ele>
        <time>2022-04-14T12:23:56Z</time>
      </trkpt>
      <trkpt lat="46.68906" lon="5.53574">
        <ele>280.8</ele>
        <time>2022-04-14T12:24:00Z</time>
      </trkpt>
      <trkpt lat="46.68896" lon="5.53585">
        <ele>281.6</ele>
        <time>2022-04-14T12:24:03Z</time>
      </trkpt>
      <trkpt lat="46.68887" lon="5.53595">
        <ele>282</ele>
        <time>2022-04-14T12:24:04Z</time>
      </trkpt>
      <trkpt lat="46.68861" lon="5.53625">
        <ele>283.2</ele>
        <time>2022-04-14T12:24:10Z</time>
      </trkpt>
      <trkpt lat="46.68842" lon="5.53649">
        <ele>284.4</ele>
        <time>2022-04-14T12:24:15Z</time>
      </trkpt>
      <trkpt lat="46.68834" lon="5.53658">
        <ele>285</ele>
        <time>2022-04-14T12:24:17Z</time>
      </trkpt>
      <trkpt lat="46.68826" lon="5.53667">
        <ele>285.4</ele>
        <time>2022-04-14T12:24:19Z</time>
      </trkpt>
      <trkpt lat="46.68822" lon="5.53671">
        <ele>285.8</ele>
        <time>2022-04-14T12:24:20Z</time>
      </trkpt>
      <trkpt lat="46.68811" lon="5.53687">
        <ele>286.4</ele>
        <time>2022-04-14T12:24:23Z</time>
      </trkpt>
      <trkpt lat="46.68807" lon="5.53692">
        <ele>286.8</ele>
        <time>2022-04-14T12:24:24Z</time>
      </trkpt>
      <trkpt lat="46.68791" lon="5.53717">
        <ele>287.6</ele>
        <time>2022-04-14T12:24:29Z</time>
      </trkpt>
      <trkpt lat="46.68785" lon="5.53727">
        <ele>288</ele>
        <time>2022-04-14T12:24:31Z</time>
      </trkpt>
      <trkpt lat="46.68783" lon="5.53732">
        <ele>288.2</ele>
        <time>2022-04-14T12:24:32Z</time>
      </trkpt>
      <trkpt lat="46.6878" lon="5.53736">
        <ele>288.6</ele>
        <time>2022-04-14T12:24:33Z</time>
      </trkpt>
      <trkpt lat="46.68772" lon="5.53749">
        <ele>289.2</ele>
        <time>2022-04-14T12:24:36Z</time>
      </trkpt>
      <trkpt lat="46.68763" lon="5.5376">
        <ele>290</ele>
        <time>2022-04-14T12:24:39Z</time>
      </trkpt>
      <trkpt lat="46.6876" lon="5.53764">
        <ele>290.4</ele>
        <time>2022-04-14T12:24:40Z</time>
      </trkpt>
      <trkpt lat="46.68758" lon="5.53768">
        <ele>290.6</ele>
        <time>2022-04-14T12:24:41Z</time>
      </trkpt>
      <trkpt lat="46.68758" lon="5.53772">
        <ele>290.6</ele>
        <time>2022-04-14T12:24:42Z</time>
      </trkpt>
      <trkpt lat="46.68758" lon="5.53777">
        <ele>291</ele>
        <time>2022-04-14T12:24:43Z</time>
      </trkpt>
      <trkpt lat="46.6876" lon="5.53782">
        <ele>291.2</ele>
        <time>2022-04-14T12:24:44Z</time>
      </trkpt>
      <trkpt lat="46.68762" lon="5.53787">
        <ele>291.4</ele>
        <time>2022-04-14T12:24:45Z</time>
      </trkpt>
      <trkpt lat="46.68774" lon="5.53812">
        <ele>292.6</ele>
        <time>2022-04-14T12:24:50Z</time>
      </trkpt>
      <trkpt lat="46.68784" lon="5.53834">
        <ele>293.8</ele>
        <time>2022-04-14T12:24:54Z</time>
      </trkpt>
      <trkpt lat="46.6879" lon="5.53843">
        <ele>294.4</ele>
        <time>2022-04-14T12:24:56Z</time>
      </trkpt>
      <trkpt lat="46.68794" lon="5.53846">
        <ele>294.8</ele>
        <time>2022-04-14T12:24:57Z</time>
      </trkpt>
      <trkpt lat="46.68798" lon="5.53849">
        <ele>295</ele>
        <time>2022-04-14T12:24:58Z</time>
      </trkpt>
      <trkpt lat="46.68812" lon="5.53852">
        <ele>295.4</ele>
        <time>2022-04-14T12:25:01Z</time>
      </trkpt>
      <trkpt lat="46.68831" lon="5.53853">
        <ele>296</ele>
        <time>2022-04-14T12:25:05Z</time>
      </trkpt>
      <trkpt lat="46.6886" lon="5.53852">
        <ele>296.8</ele>
        <time>2022-04-14T12:25:11Z</time>
      </trkpt>
      <trkpt lat="46.68869" lon="5.53852">
        <ele>297.2</ele>
        <time>2022-04-14T12:25:13Z</time>
      </trkpt>
      <trkpt lat="46.68894" lon="5.53853">
        <ele>298.2</ele>
        <time>2022-04-14T12:25:18Z</time>
      </trkpt>
      <trkpt lat="46.689" lon="5.53854">
        <ele>298.4</ele>
        <time>2022-04-14T12:25:19Z</time>
      </trkpt>
      <trkpt lat="46.68911" lon="5.53857">
        <ele>298.6</ele>
        <time>2022-04-14T12:25:21Z</time>
      </trkpt>
      <trkpt lat="46.68932" lon="5.53867">
        <ele>298.6</ele>
        <time>2022-04-14T12:25:25Z</time>
      </trkpt>
      <trkpt lat="46.6896" lon="5.53885">
        <ele>298.8</ele>
        <time>2022-04-14T12:25:31Z</time>
      </trkpt>
      <trkpt lat="46.68968" lon="5.53893">
        <ele>299.2</ele>
        <time>2022-04-14T12:25:33Z</time>
      </trkpt>
      <trkpt lat="46.68972" lon="5.53898">
        <ele>299.4</ele>
        <time>2022-04-14T12:25:34Z</time>
      </trkpt>
      <trkpt lat="46.68984" lon="5.53921">
        <ele>300.2</ele>
        <time>2022-04-14T12:25:38Z</time>
      </trkpt>
      <trkpt lat="46.68987" lon="5.53927">
        <ele>300.6</ele>
        <time>2022-04-14T12:25:39Z</time>
      </trkpt>
      <trkpt lat="46.69001" lon="5.53957">
        <ele>301.8</ele>
        <time>2022-04-14T12:25:44Z</time>
      </trkpt>
      <trkpt lat="46.69008" lon="5.5397">
        <ele>302.2</ele>
        <time>2022-04-14T12:25:46Z</time>
      </trkpt>
      <trkpt lat="46.6903" lon="5.54014">
        <ele>302.6</ele>
        <time>2022-04-14T12:25:53Z</time>
      </trkpt>
      <trkpt lat="46.69036" lon="5.54026">
        <ele>302.8</ele>
        <time>2022-04-14T12:25:55Z</time>
      </trkpt>
      <trkpt lat="46.69048" lon="5.54059">
        <ele>303.4</ele>
        <time>2022-04-14T12:26:00Z</time>
      </trkpt>
      <trkpt lat="46.6905" lon="5.54066">
        <ele>303.8</ele>
        <time>2022-04-14T12:26:02Z</time>
      </trkpt>
      <trkpt lat="46.69061" lon="5.54111">
        <ele>304</ele>
        <time>2022-04-14T12:26:06Z</time>
      </trkpt>
      <trkpt lat="46.69076" lon="5.54178">
        <ele>303.4</ele>
        <time>2022-04-14T12:26:13Z</time>
      </trkpt>
      <trkpt lat="46.69096" lon="5.54261">
        <ele>303.8</ele>
        <time>2022-04-14T12:26:22Z</time>
      </trkpt>
      <trkpt lat="46.691" lon="5.54279">
        <ele>304</ele>
        <time>2022-04-14T12:26:24Z</time>
      </trkpt>
      <trkpt lat="46.69108" lon="5.54303">
        <ele>304.4</ele>
        <time>2022-04-14T12:26:27Z</time>
      </trkpt>
      <trkpt lat="46.69116" lon="5.54341">
        <ele>305</ele>
        <time>2022-04-14T12:26:32Z</time>
      </trkpt>
      <trkpt lat="46.69122" lon="5.54381">
        <ele>306.6</ele>
        <time>2022-04-14T12:26:37Z</time>
      </trkpt>
      <trkpt lat="46.69123" lon="5.54389">
        <ele>306.8</ele>
        <time>2022-04-14T12:26:38Z</time>
      </trkpt>
      <trkpt lat="46.69125" lon="5.54415">
        <ele>307.6</ele>
        <time>2022-04-14T12:26:41Z</time>
      </trkpt>
      <trkpt lat="46.69125" lon="5.54431">
        <ele>308</ele>
        <time>2022-04-14T12:26:43Z</time>
      </trkpt>
      <trkpt lat="46.69126" lon="5.54455">
        <ele>308.4</ele>
        <time>2022-04-14T12:26:46Z</time>
      </trkpt>
      <trkpt lat="46.69126" lon="5.54473">
        <ele>308.4</ele>
        <time>2022-04-14T12:26:48Z</time>
      </trkpt>
      <trkpt lat="46.69121" lon="5.54489">
        <ele>308.4</ele>
        <time>2022-04-14T12:26:50Z</time>
      </trkpt>
      <trkpt lat="46.69107" lon="5.54521">
        <ele>308.2</ele>
        <time>2022-04-14T12:26:53Z</time>
      </trkpt>
      <trkpt lat="46.69096" lon="5.54549">
        <ele>307.6</ele>
        <time>2022-04-14T12:26:55Z</time>
      </trkpt>
      <trkpt lat="46.69091" lon="5.54577">
        <ele>307.2</ele>
        <time>2022-04-14T12:26:57Z</time>
      </trkpt>
      <trkpt lat="46.6909" lon="5.54606">
        <ele>306.4</ele>
        <time>2022-04-14T12:26:59Z</time>
      </trkpt>
      <trkpt lat="46.69089" lon="5.54636">
        <ele>306</ele>
        <time>2022-04-14T12:27:01Z</time>
      </trkpt>
      <trkpt lat="46.69084" lon="5.54669">
        <ele>305.2</ele>
        <time>2022-04-14T12:27:03Z</time>
      </trkpt>
      <trkpt lat="46.69078" lon="5.54703">
        <ele>303.4</ele>
        <time>2022-04-14T12:27:05Z</time>
      </trkpt>
      <trkpt lat="46.69075" lon="5.5474">
        <ele>300.6</ele>
        <time>2022-04-14T12:27:07Z</time>
      </trkpt>
      <trkpt lat="46.69075" lon="5.54773">
        <ele>298.6</ele>
        <time>2022-04-14T12:27:09Z</time>
      </trkpt>
      <trkpt lat="46.69074" lon="5.54803">
        <ele>296.8</ele>
        <time>2022-04-14T12:27:11Z</time>
      </trkpt>
      <trkpt lat="46.69073" lon="5.54818">
        <ele>295</ele>
        <time>2022-04-14T12:27:12Z</time>
      </trkpt>
      <trkpt lat="46.69072" lon="5.54845">
        <ele>293.6</ele>
        <time>2022-04-14T12:27:14Z</time>
      </trkpt>
      <trkpt lat="46.6907" lon="5.54857">
        <ele>293.2</ele>
        <time>2022-04-14T12:27:15Z</time>
      </trkpt>
      <trkpt lat="46.69068" lon="5.54868">
        <ele>291.8</ele>
        <time>2022-04-14T12:27:16Z</time>
      </trkpt>
      <trkpt lat="46.69065" lon="5.54878">
        <ele>291.2</ele>
        <time>2022-04-14T12:27:17Z</time>
      </trkpt>
      <trkpt lat="46.6906" lon="5.54887">
        <ele>290.4</ele>
        <time>2022-04-14T12:27:18Z</time>
      </trkpt>
      <trkpt lat="46.69053" lon="5.54901">
        <ele>290</ele>
        <time>2022-04-14T12:27:20Z</time>
      </trkpt>
      <trkpt lat="46.69053" lon="5.54909">
        <ele>289.8</ele>
        <time>2022-04-14T12:27:21Z</time>
      </trkpt>
      <trkpt lat="46.69057" lon="5.54917">
        <ele>289.8</ele>
        <time>2022-04-14T12:27:22Z</time>
      </trkpt>
      <trkpt lat="46.69067" lon="5.54931">
        <ele>289.6</ele>
        <time>2022-04-14T12:27:24Z</time>
      </trkpt>
      <trkpt lat="46.69073" lon="5.54939">
        <ele>289.4</ele>
        <time>2022-04-14T12:27:25Z</time>
      </trkpt>
      <trkpt lat="46.69078" lon="5.54949">
        <ele>289.4</ele>
        <time>2022-04-14T12:27:26Z</time>
      </trkpt>
      <trkpt lat="46.69087" lon="5.54969">
        <ele>288.8</ele>
        <time>2022-04-14T12:27:28Z</time>
      </trkpt>
      <trkpt lat="46.69094" lon="5.54987">
        <ele>288</ele>
        <time>2022-04-14T12:27:30Z</time>
      </trkpt>
      <trkpt lat="46.69096" lon="5.54995">
        <ele>287.8</ele>
        <time>2022-04-14T12:27:31Z</time>
      </trkpt>
      <trkpt lat="46.69096" lon="5.55001">
        <ele>287.4</ele>
        <time>2022-04-14T12:27:32Z</time>
      </trkpt>
      <trkpt lat="46.69097" lon="5.55007">
        <ele>287.4</ele>
        <time>2022-04-14T12:27:33Z</time>
      </trkpt>
      <trkpt lat="46.691" lon="5.5501">
        <ele>287.2</ele>
        <time>2022-04-14T12:27:34Z</time>
      </trkpt>
      <trkpt lat="46.69104" lon="5.55012">
        <ele>287.2</ele>
        <time>2022-04-14T12:27:35Z</time>
      </trkpt>
      <trkpt lat="46.69122" lon="5.55017">
        <ele>287</ele>
        <time>2022-04-14T12:27:38Z</time>
      </trkpt>
      <trkpt lat="46.69155" lon="5.55039">
        <ele>287.2</ele>
        <time>2022-04-14T12:27:43Z</time>
      </trkpt>
      <trkpt lat="46.69184" lon="5.55066">
        <ele>287.4</ele>
        <time>2022-04-14T12:27:48Z</time>
      </trkpt>
      <trkpt lat="46.6919" lon="5.55069">
        <ele>287.2</ele>
        <time>2022-04-14T12:27:49Z</time>
      </trkpt>
      <trkpt lat="46.69231" lon="5.55077">
        <ele>287</ele>
        <time>2022-04-14T12:27:55Z</time>
      </trkpt>
      <trkpt lat="46.69234" lon="5.55078">
        <ele>286.8</ele>
        <time>2022-04-14T12:27:56Z</time>
      </trkpt>
      <trkpt lat="46.69235" lon="5.55078">
        <ele>286.8</ele>
        <time>2022-04-14T12:27:57Z</time>
      </trkpt>
      <trkpt lat="46.69235" lon="5.55078">
        <ele>286.8</ele>
        <time>2022-04-14T12:27:59Z</time>
      </trkpt>
      <trkpt lat="46.6924" lon="5.55078">
        <ele>287.2</ele>
        <time>2022-04-14T12:28:42Z</time>
      </trkpt>
      <trkpt lat="46.69258" lon="5.5508">
        <ele>287.2</ele>
        <time>2022-04-14T12:28:48Z</time>
      </trkpt>
      <trkpt lat="46.69263" lon="5.55081">
        <ele>287.2</ele>
        <time>2022-04-14T12:28:49Z</time>
      </trkpt>
      <trkpt lat="46.69276" lon="5.55085">
        <ele>287.2</ele>
        <time>2022-04-14T12:28:52Z</time>
      </trkpt>
      <trkpt lat="46.69284" lon="5.5509">
        <ele>287.4</ele>
        <time>2022-04-14T12:28:54Z</time>
      </trkpt>
      <trkpt lat="46.69295" lon="5.55098">
        <ele>287.6</ele>
        <time>2022-04-14T12:28:57Z</time>
      </trkpt>
      <trkpt lat="46.69299" lon="5.551">
        <ele>288.2</ele>
        <time>2022-04-14T12:28:58Z</time>
      </trkpt>
      <trkpt lat="46.69303" lon="5.55101">
        <ele>288.2</ele>
        <time>2022-04-14T12:28:59Z</time>
      </trkpt>
      <trkpt lat="46.69307" lon="5.55101">
        <ele>288.8</ele>
        <time>2022-04-14T12:29:00Z</time>
      </trkpt>
      <trkpt lat="46.69312" lon="5.55101">
        <ele>289.2</ele>
        <time>2022-04-14T12:29:01Z</time>
      </trkpt>
      <trkpt lat="46.69327" lon="5.55101">
        <ele>290.6</ele>
        <time>2022-04-14T12:29:05Z</time>
      </trkpt>
      <trkpt lat="46.69336" lon="5.551">
        <ele>292</ele>
        <time>2022-04-14T12:29:08Z</time>
      </trkpt>
      <trkpt lat="46.69346" lon="5.55102">
        <ele>293.2</ele>
        <time>2022-04-14T12:29:12Z</time>
      </trkpt>
      <trkpt lat="46.69356" lon="5.55103">
        <ele>294.4</ele>
        <time>2022-04-14T12:29:15Z</time>
      </trkpt>
      <trkpt lat="46.69365" lon="5.55105">
        <ele>295.6</ele>
        <time>2022-04-14T12:29:18Z</time>
      </trkpt>
      <trkpt lat="46.69375" lon="5.55107">
        <ele>296.6</ele>
        <time>2022-04-14T12:29:21Z</time>
      </trkpt>
      <trkpt lat="46.69379" lon="5.55109">
        <ele>296.8</ele>
        <time>2022-04-14T12:29:22Z</time>
      </trkpt>
      <trkpt lat="46.69387" lon="5.55111">
        <ele>298.2</ele>
        <time>2022-04-14T12:29:24Z</time>
      </trkpt>
      <trkpt lat="46.69399" lon="5.55116">
        <ele>299.4</ele>
        <time>2022-04-14T12:29:28Z</time>
      </trkpt>
      <trkpt lat="46.69403" lon="5.55117">
        <ele>300</ele>
        <time>2022-04-14T12:29:29Z</time>
      </trkpt>
      <trkpt lat="46.69406" lon="5.55117">
        <ele>300.6</ele>
        <time>2022-04-14T12:29:30Z</time>
      </trkpt>
      <trkpt lat="46.69416" lon="5.55119">
        <ele>302</ele>
        <time>2022-04-14T12:29:33Z</time>
      </trkpt>
      <trkpt lat="46.69427" lon="5.55121">
        <ele>303.2</ele>
        <time>2022-04-14T12:29:36Z</time>
      </trkpt>
      <trkpt lat="46.6943" lon="5.55121">
        <ele>303.6</ele>
        <time>2022-04-14T12:29:37Z</time>
      </trkpt>
      <trkpt lat="46.69437" lon="5.55123">
        <ele>304.2</ele>
        <time>2022-04-14T12:29:39Z</time>
      </trkpt>
      <trkpt lat="46.69446" lon="5.55123">
        <ele>305.4</ele>
        <time>2022-04-14T12:29:42Z</time>
      </trkpt>
      <trkpt lat="46.69456" lon="5.55123">
        <ele>306.4</ele>
        <time>2022-04-14T12:29:45Z</time>
      </trkpt>
      <trkpt lat="46.6946" lon="5.55124">
        <ele>306.6</ele>
        <time>2022-04-14T12:29:46Z</time>
      </trkpt>
      <trkpt lat="46.69469" lon="5.55125">
        <ele>307.6</ele>
        <time>2022-04-14T12:29:49Z</time>
      </trkpt>
      <trkpt lat="46.6948" lon="5.55129">
        <ele>308.4</ele>
        <time>2022-04-14T12:29:53Z</time>
      </trkpt>
      <trkpt lat="46.69483" lon="5.55131">
        <ele>308.6</ele>
        <time>2022-04-14T12:29:54Z</time>
      </trkpt>
      <trkpt lat="46.69497" lon="5.55144">
        <ele>309.8</ele>
        <time>2022-04-14T12:29:59Z</time>
      </trkpt>
      <trkpt lat="46.695" lon="5.55148">
        <ele>310</ele>
        <time>2022-04-14T12:30:00Z</time>
      </trkpt>
      <trkpt lat="46.69512" lon="5.55169">
        <ele>310.4</ele>
        <time>2022-04-14T12:30:04Z</time>
      </trkpt>
      <trkpt lat="46.69515" lon="5.55176">
        <ele>310.4</ele>
        <time>2022-04-14T12:30:05Z</time>
      </trkpt>
      <trkpt lat="46.69532" lon="5.55222">
        <ele>310</ele>
        <time>2022-04-14T12:30:10Z</time>
      </trkpt>
      <trkpt lat="46.69544" lon="5.55273">
        <ele>308</ele>
        <time>2022-04-14T12:30:14Z</time>
      </trkpt>
      <trkpt lat="46.69545" lon="5.55288">
        <ele>307</ele>
        <time>2022-04-14T12:30:15Z</time>
      </trkpt>
      <trkpt lat="46.69545" lon="5.55305">
        <ele>306.4</ele>
        <time>2022-04-14T12:30:16Z</time>
      </trkpt>
      <trkpt lat="46.69543" lon="5.55322">
        <ele>305.4</ele>
        <time>2022-04-14T12:30:17Z</time>
      </trkpt>
      <trkpt lat="46.6954" lon="5.55357">
        <ele>304</ele>
        <time>2022-04-14T12:30:19Z</time>
      </trkpt>
      <trkpt lat="46.69538" lon="5.55392">
        <ele>302.4</ele>
        <time>2022-04-14T12:30:21Z</time>
      </trkpt>
      <trkpt lat="46.69538" lon="5.5541">
        <ele>300.8</ele>
        <time>2022-04-14T12:30:22Z</time>
      </trkpt>
      <trkpt lat="46.69542" lon="5.55445">
        <ele>299</ele>
        <time>2022-04-14T12:30:24Z</time>
      </trkpt>
      <trkpt lat="46.69545" lon="5.55479">
        <ele>297.2</ele>
        <time>2022-04-14T12:30:26Z</time>
      </trkpt>
      <trkpt lat="46.69542" lon="5.55512">
        <ele>295.4</ele>
        <time>2022-04-14T12:30:28Z</time>
      </trkpt>
      <trkpt lat="46.69538" lon="5.55527">
        <ele>294.2</ele>
        <time>2022-04-14T12:30:29Z</time>
      </trkpt>
      <trkpt lat="46.69531" lon="5.5554">
        <ele>293.6</ele>
        <time>2022-04-14T12:30:30Z</time>
      </trkpt>
      <trkpt lat="46.69524" lon="5.55552">
        <ele>292.4</ele>
        <time>2022-04-14T12:30:31Z</time>
      </trkpt>
      <trkpt lat="46.69516" lon="5.55564">
        <ele>291.8</ele>
        <time>2022-04-14T12:30:32Z</time>
      </trkpt>
      <trkpt lat="46.6951" lon="5.55576">
        <ele>291</ele>
        <time>2022-04-14T12:30:33Z</time>
      </trkpt>
      <trkpt lat="46.69506" lon="5.5559">
        <ele>290.8</ele>
        <time>2022-04-14T12:30:34Z</time>
      </trkpt>
      <trkpt lat="46.69503" lon="5.55619">
        <ele>290.2</ele>
        <time>2022-04-14T12:30:36Z</time>
      </trkpt>
      <trkpt lat="46.69503" lon="5.55633">
        <ele>290.2</ele>
        <time>2022-04-14T12:30:37Z</time>
      </trkpt>
      <trkpt lat="46.69505" lon="5.55646">
        <ele>290</ele>
        <time>2022-04-14T12:30:38Z</time>
      </trkpt>
      <trkpt lat="46.69512" lon="5.55694">
        <ele>289.8</ele>
        <time>2022-04-14T12:30:42Z</time>
      </trkpt>
      <trkpt lat="46.69514" lon="5.55716">
        <ele>290.2</ele>
        <time>2022-04-14T12:30:44Z</time>
      </trkpt>
      <trkpt lat="46.69513" lon="5.55737">
        <ele>290.4</ele>
        <time>2022-04-14T12:30:46Z</time>
      </trkpt>
      <trkpt lat="46.69508" lon="5.55766">
        <ele>291</ele>
        <time>2022-04-14T12:30:50Z</time>
      </trkpt>
      <trkpt lat="46.69507" lon="5.55772">
        <ele>291.2</ele>
        <time>2022-04-14T12:30:53Z</time>
      </trkpt>
      <trkpt lat="46.69506" lon="5.55775">
        <ele>291.8</ele>
        <time>2022-04-14T12:30:55Z</time>
      </trkpt>
      <trkpt lat="46.69503" lon="5.5578">
        <ele>292.4</ele>
        <time>2022-04-14T12:30:57Z</time>
      </trkpt>
      <trkpt lat="46.695" lon="5.55782">
        <ele>292.6</ele>
        <time>2022-04-14T12:30:58Z</time>
      </trkpt>
      <trkpt lat="46.69485" lon="5.55794">
        <ele>292.8</ele>
        <time>2022-04-14T12:31:01Z</time>
      </trkpt>
      <trkpt lat="46.69454" lon="5.55819">
        <ele>292.8</ele>
        <time>2022-04-14T12:31:06Z</time>
      </trkpt>
      <trkpt lat="46.69434" lon="5.55829">
        <ele>292.8</ele>
        <time>2022-04-14T12:31:09Z</time>
      </trkpt>
      <trkpt lat="46.69428" lon="5.55833">
        <ele>292.8</ele>
        <time>2022-04-14T12:31:10Z</time>
      </trkpt>
      <trkpt lat="46.69423" lon="5.55839">
        <ele>292.8</ele>
        <time>2022-04-14T12:31:11Z</time>
      </trkpt>
      <trkpt lat="46.69418" lon="5.55856">
        <ele>292.8</ele>
        <time>2022-04-14T12:31:13Z</time>
      </trkpt>
      <trkpt lat="46.69422" lon="5.55874">
        <ele>292.8</ele>
        <time>2022-04-14T12:31:15Z</time>
      </trkpt>
      <trkpt lat="46.69426" lon="5.5588">
        <ele>292.8</ele>
        <time>2022-04-14T12:31:16Z</time>
      </trkpt>
      <trkpt lat="46.69431" lon="5.55885">
        <ele>292.8</ele>
        <time>2022-04-14T12:31:17Z</time>
      </trkpt>
      <trkpt lat="46.69451" lon="5.55898">
        <ele>292.6</ele>
        <time>2022-04-14T12:31:20Z</time>
      </trkpt>
      <trkpt lat="46.69457" lon="5.55901">
        <ele>292.6</ele>
        <time>2022-04-14T12:31:21Z</time>
      </trkpt>
      <trkpt lat="46.6947" lon="5.559">
        <ele>292.4</ele>
        <time>2022-04-14T12:31:23Z</time>
      </trkpt>
      <trkpt lat="46.6948" lon="5.55887">
        <ele>292</ele>
        <time>2022-04-14T12:31:25Z</time>
      </trkpt>
      <trkpt lat="46.69483" lon="5.55878">
        <ele>291.8</ele>
        <time>2022-04-14T12:31:26Z</time>
      </trkpt>
      <trkpt lat="46.69494" lon="5.55824">
        <ele>291.6</ele>
        <time>2022-04-14T12:31:32Z</time>
      </trkpt>
      <trkpt lat="46.69498" lon="5.55818">
        <ele>291.6</ele>
        <time>2022-04-14T12:31:33Z</time>
      </trkpt>
      <trkpt lat="46.69522" lon="5.55793">
        <ele>292.4</ele>
        <time>2022-04-14T12:31:38Z</time>
      </trkpt>
      <trkpt lat="46.69549" lon="5.55779">
        <ele>293.6</ele>
        <time>2022-04-14T12:31:43Z</time>
      </trkpt>
      <trkpt lat="46.69555" lon="5.55777">
        <ele>293.6</ele>
        <time>2022-04-14T12:31:44Z</time>
      </trkpt>
      <trkpt lat="46.69593" lon="5.55766">
        <ele>293.8</ele>
        <time>2022-04-14T12:31:50Z</time>
      </trkpt>
      <trkpt lat="46.69642" lon="5.55756">
        <ele>292.8</ele>
        <time>2022-04-14T12:31:57Z</time>
      </trkpt>
      <trkpt lat="46.69674" lon="5.55745">
        <ele>292.4</ele>
        <time>2022-04-14T12:32:02Z</time>
      </trkpt>
      <trkpt lat="46.6968" lon="5.55743">
        <ele>292.2</ele>
        <time>2022-04-14T12:32:03Z</time>
      </trkpt>
      <trkpt lat="46.69714" lon="5.5573">
        <ele>292.2</ele>
        <time>2022-04-14T12:32:09Z</time>
      </trkpt>
      <trkpt lat="46.69719" lon="5.55731">
        <ele>292.2</ele>
        <time>2022-04-14T12:32:10Z</time>
      </trkpt>
      <trkpt lat="46.69724" lon="5.55734">
        <ele>292.2</ele>
        <time>2022-04-14T12:32:11Z</time>
      </trkpt>
      <trkpt lat="46.69725" lon="5.5574">
        <ele>292.2</ele>
        <time>2022-04-14T12:32:12Z</time>
      </trkpt>
      <trkpt lat="46.69719" lon="5.55761">
        <ele>292.4</ele>
        <time>2022-04-14T12:32:15Z</time>
      </trkpt>
      <trkpt lat="46.69711" lon="5.5581">
        <ele>293</ele>
        <time>2022-04-14T12:32:21Z</time>
      </trkpt>
      <trkpt lat="46.69709" lon="5.55839">
        <ele>293.6</ele>
        <time>2022-04-14T12:32:24Z</time>
      </trkpt>
      <trkpt lat="46.69706" lon="5.55858">
        <ele>293.6</ele>
        <time>2022-04-14T12:32:26Z</time>
      </trkpt>
      <trkpt lat="46.69705" lon="5.55868">
        <ele>293.8</ele>
        <time>2022-04-14T12:32:27Z</time>
      </trkpt>
      <trkpt lat="46.69694" lon="5.55919">
        <ele>294.6</ele>
        <time>2022-04-14T12:32:33Z</time>
      </trkpt>
      <trkpt lat="46.6969" lon="5.55934">
        <ele>295</ele>
        <time>2022-04-14T12:32:35Z</time>
      </trkpt>
      <trkpt lat="46.69686" lon="5.55955">
        <ele>295.6</ele>
        <time>2022-04-14T12:32:38Z</time>
      </trkpt>
      <trkpt lat="46.69682" lon="5.55968">
        <ele>296.2</ele>
        <time>2022-04-14T12:32:40Z</time>
      </trkpt>
      <trkpt lat="46.69677" lon="5.55989">
        <ele>296.8</ele>
        <time>2022-04-14T12:32:43Z</time>
      </trkpt>
      <trkpt lat="46.6967" lon="5.56022">
        <ele>298</ele>
        <time>2022-04-14T12:32:48Z</time>
      </trkpt>
      <trkpt lat="46.69659" lon="5.56073">
        <ele>298.4</ele>
        <time>2022-04-14T12:32:55Z</time>
      </trkpt>
      <trkpt lat="46.69649" lon="5.56119">
        <ele>299</ele>
        <time>2022-04-14T12:33:01Z</time>
      </trkpt>
      <trkpt lat="46.69648" lon="5.56127">
        <ele>299</ele>
        <time>2022-04-14T12:33:02Z</time>
      </trkpt>
      <trkpt lat="46.69637" lon="5.56193">
        <ele>299.8</ele>
        <time>2022-04-14T12:33:10Z</time>
      </trkpt>
      <trkpt lat="46.69631" lon="5.56218">
        <ele>300</ele>
        <time>2022-04-14T12:33:13Z</time>
      </trkpt>
      <trkpt lat="46.69625" lon="5.56251">
        <ele>300.6</ele>
        <time>2022-04-14T12:33:17Z</time>
      </trkpt>
      <trkpt lat="46.69614" lon="5.56309">
        <ele>301</ele>
        <time>2022-04-14T12:33:24Z</time>
      </trkpt>
      <trkpt lat="46.69614" lon="5.56317">
        <ele>301</ele>
        <time>2022-04-14T12:33:25Z</time>
      </trkpt>
      <trkpt lat="46.69616" lon="5.56323">
        <ele>301.2</ele>
        <time>2022-04-14T12:33:26Z</time>
      </trkpt>
      <trkpt lat="46.69624" lon="5.5633">
        <ele>301.2</ele>
        <time>2022-04-14T12:33:28Z</time>
      </trkpt>
      <trkpt lat="46.69632" lon="5.5633">
        <ele>301.8</ele>
        <time>2022-04-14T12:33:30Z</time>
      </trkpt>
      <trkpt lat="46.69637" lon="5.56328">
        <ele>301.8</ele>
        <time>2022-04-14T12:33:31Z</time>
      </trkpt>
      <trkpt lat="46.69646" lon="5.56324">
        <ele>302</ele>
        <time>2022-04-14T12:33:33Z</time>
      </trkpt>
      <trkpt lat="46.69651" lon="5.56322">
        <ele>302.2</ele>
        <time>2022-04-14T12:33:34Z</time>
      </trkpt>
      <trkpt lat="46.69669" lon="5.56314">
        <ele>302.6</ele>
        <time>2022-04-14T12:33:38Z</time>
      </trkpt>
      <trkpt lat="46.69681" lon="5.56309">
        <ele>303.4</ele>
        <time>2022-04-14T12:33:41Z</time>
      </trkpt>
      <trkpt lat="46.69694" lon="5.56304">
        <ele>304.6</ele>
        <time>2022-04-14T12:33:44Z</time>
      </trkpt>
      <trkpt lat="46.6971" lon="5.56297">
        <ele>306</ele>
        <time>2022-04-14T12:33:48Z</time>
      </trkpt>
      <trkpt lat="46.6973" lon="5.56288">
        <ele>307.4</ele>
        <time>2022-04-14T12:33:53Z</time>
      </trkpt>
      <trkpt lat="46.6975" lon="5.5628">
        <ele>308.4</ele>
        <time>2022-04-14T12:33:58Z</time>
      </trkpt>
      <trkpt lat="46.69766" lon="5.56275">
        <ele>309.6</ele>
        <time>2022-04-14T12:34:02Z</time>
      </trkpt>
      <trkpt lat="46.6978" lon="5.56269">
        <ele>310.6</ele>
        <time>2022-04-14T12:34:06Z</time>
      </trkpt>
      <trkpt lat="46.69796" lon="5.56263">
        <ele>311.8</ele>
        <time>2022-04-14T12:34:10Z</time>
      </trkpt>
      <trkpt lat="46.69824" lon="5.56257">
        <ele>312.8</ele>
        <time>2022-04-14T12:34:17Z</time>
      </trkpt>
      <trkpt lat="46.69828" lon="5.56256">
        <ele>313.2</ele>
        <time>2022-04-14T12:34:18Z</time>
      </trkpt>
      <trkpt lat="46.6984" lon="5.56254">
        <ele>314.2</ele>
        <time>2022-04-14T12:34:21Z</time>
      </trkpt>
      <trkpt lat="46.69864" lon="5.5625">
        <ele>315.4</ele>
        <time>2022-04-14T12:34:27Z</time>
      </trkpt>
      <trkpt lat="46.69868" lon="5.5625">
        <ele>315.6</ele>
        <time>2022-04-14T12:34:28Z</time>
      </trkpt>
      <trkpt lat="46.69883" lon="5.56249">
        <ele>316.6</ele>
        <time>2022-04-14T12:34:32Z</time>
      </trkpt>
      <trkpt lat="46.69899" lon="5.56247">
        <ele>317.4</ele>
        <time>2022-04-14T12:34:36Z</time>
      </trkpt>
      <trkpt lat="46.69902" lon="5.56247">
        <ele>318</ele>
        <time>2022-04-14T12:34:37Z</time>
      </trkpt>
      <trkpt lat="46.69922" lon="5.56246">
        <ele>319</ele>
        <time>2022-04-14T12:34:42Z</time>
      </trkpt>
      <trkpt lat="46.6993" lon="5.56246">
        <ele>319.4</ele>
        <time>2022-04-14T12:34:44Z</time>
      </trkpt>
      <trkpt lat="46.69937" lon="5.56245">
        <ele>320</ele>
        <time>2022-04-14T12:34:46Z</time>
      </trkpt>
      <trkpt lat="46.69956" lon="5.56243">
        <ele>321</ele>
        <time>2022-04-14T12:34:51Z</time>
      </trkpt>
      <trkpt lat="46.69968" lon="5.56242">
        <ele>321.8</ele>
        <time>2022-04-14T12:34:54Z</time>
      </trkpt>
      <trkpt lat="46.69975" lon="5.56241">
        <ele>322.6</ele>
        <time>2022-04-14T12:34:56Z</time>
      </trkpt>
      <trkpt lat="46.70002" lon="5.5624">
        <ele>323.8</ele>
        <time>2022-04-14T12:35:03Z</time>
      </trkpt>
      <trkpt lat="46.70014" lon="5.56244">
        <ele>324.4</ele>
        <time>2022-04-14T12:35:06Z</time>
      </trkpt>
      <trkpt lat="46.70022" lon="5.5625">
        <ele>325</ele>
        <time>2022-04-14T12:35:08Z</time>
      </trkpt>
      <trkpt lat="46.70026" lon="5.56254">
        <ele>325.4</ele>
        <time>2022-04-14T12:35:09Z</time>
      </trkpt>
      <trkpt lat="46.70031" lon="5.56263">
        <ele>326</ele>
        <time>2022-04-14T12:35:11Z</time>
      </trkpt>
      <trkpt lat="46.70035" lon="5.56274">
        <ele>326.8</ele>
        <time>2022-04-14T12:35:13Z</time>
      </trkpt>
      <trkpt lat="46.70037" lon="5.5628">
        <ele>327.2</ele>
        <time>2022-04-14T12:35:14Z</time>
      </trkpt>
      <trkpt lat="46.70038" lon="5.56286">
        <ele>327.4</ele>
        <time>2022-04-14T12:35:15Z</time>
      </trkpt>
      <trkpt lat="46.70038" lon="5.56292">
        <ele>327.8</ele>
        <time>2022-04-14T12:35:16Z</time>
      </trkpt>
      <trkpt lat="46.70038" lon="5.56304">
        <ele>328.2</ele>
        <time>2022-04-14T12:35:18Z</time>
      </trkpt>
      <trkpt lat="46.70035" lon="5.56334">
        <ele>329.6</ele>
        <time>2022-04-14T12:35:23Z</time>
      </trkpt>
      <trkpt lat="46.70034" lon="5.56346">
        <ele>330.2</ele>
        <time>2022-04-14T12:35:25Z</time>
      </trkpt>
      <trkpt lat="46.70032" lon="5.56358">
        <ele>330.6</ele>
        <time>2022-04-14T12:35:27Z</time>
      </trkpt>
      <trkpt lat="46.70031" lon="5.56364">
        <ele>330.8</ele>
        <time>2022-04-14T12:35:28Z</time>
      </trkpt>
      <trkpt lat="46.70027" lon="5.56389">
        <ele>331.8</ele>
        <time>2022-04-14T12:35:32Z</time>
      </trkpt>
      <trkpt lat="46.70022" lon="5.56421">
        <ele>332.8</ele>
        <time>2022-04-14T12:35:37Z</time>
      </trkpt>
      <trkpt lat="46.70021" lon="5.56428">
        <ele>332.8</ele>
        <time>2022-04-14T12:35:38Z</time>
      </trkpt>
      <trkpt lat="46.70011" lon="5.56493">
        <ele>333.6</ele>
        <time>2022-04-14T12:35:47Z</time>
      </trkpt>
      <trkpt lat="46.70006" lon="5.56532">
        <ele>333.8</ele>
        <time>2022-04-14T12:35:52Z</time>
      </trkpt>
      <trkpt lat="46.70002" lon="5.56581">
        <ele>334.6</ele>
        <time>2022-04-14T12:35:58Z</time>
      </trkpt>
      <trkpt lat="46.69995" lon="5.56636">
        <ele>334.6</ele>
        <time>2022-04-14T12:36:04Z</time>
      </trkpt>
      <trkpt lat="46.69993" lon="5.56687">
        <ele>333.8</ele>
        <time>2022-04-14T12:36:09Z</time>
      </trkpt>
      <trkpt lat="46.69993" lon="5.56698">
        <ele>333.6</ele>
        <time>2022-04-14T12:36:10Z</time>
      </trkpt>
      <trkpt lat="46.69997" lon="5.5672">
        <ele>333.2</ele>
        <time>2022-04-14T12:36:12Z</time>
      </trkpt>
      <trkpt lat="46.69997" lon="5.56741">
        <ele>333</ele>
        <time>2022-04-14T12:36:14Z</time>
      </trkpt>
      <trkpt lat="46.69996" lon="5.56749">
        <ele>332.8</ele>
        <time>2022-04-14T12:36:15Z</time>
      </trkpt>
      <trkpt lat="46.69994" lon="5.56761">
        <ele>332.6</ele>
        <time>2022-04-14T12:36:17Z</time>
      </trkpt>
      <trkpt lat="46.6999" lon="5.56768">
        <ele>332.6</ele>
        <time>2022-04-14T12:36:20Z</time>
      </trkpt>
      <trkpt lat="46.6999" lon="5.56768">
        <ele>333</ele>
        <time>2022-04-14T12:36:21Z</time>
      </trkpt>
      <trkpt lat="46.69989" lon="5.56771">
        <ele>335</ele>
        <time>2022-04-14T12:36:45Z</time>
      </trkpt>
      <trkpt lat="46.69989" lon="5.56777">
        <ele>335</ele>
        <time>2022-04-14T12:36:47Z</time>
      </trkpt>
      <trkpt lat="46.69987" lon="5.56787">
        <ele>335</ele>
        <time>2022-04-14T12:36:50Z</time>
      </trkpt>
      <trkpt lat="46.69985" lon="5.56789">
        <ele>335</ele>
        <time>2022-04-14T12:36:51Z</time>
      </trkpt>
      <trkpt lat="46.6997" lon="5.56794">
        <ele>335.6</ele>
        <time>2022-04-14T12:36:56Z</time>
      </trkpt>
      <trkpt lat="46.69963" lon="5.56796">
        <ele>336.4</ele>
        <time>2022-04-14T12:36:59Z</time>
      </trkpt>
      <trkpt lat="46.69951" lon="5.56794">
        <ele>337.8</ele>
        <time>2022-04-14T12:37:03Z</time>
      </trkpt>
      <trkpt lat="46.69943" lon="5.5679">
        <ele>339</ele>
        <time>2022-04-14T12:37:06Z</time>
      </trkpt>
      <trkpt lat="46.6993" lon="5.56784">
        <ele>340.2</ele>
        <time>2022-04-14T12:37:10Z</time>
      </trkpt>
      <trkpt lat="46.69927" lon="5.56782">
        <ele>340.2</ele>
        <time>2022-04-14T12:37:11Z</time>
      </trkpt>
      <trkpt lat="46.69914" lon="5.56781">
        <ele>341.2</ele>
        <time>2022-04-14T12:37:15Z</time>
      </trkpt>
      <trkpt lat="46.69911" lon="5.56783">
        <ele>341.2</ele>
        <time>2022-04-14T12:37:16Z</time>
      </trkpt>
      <trkpt lat="46.69894" lon="5.568">
        <ele>341.8</ele>
        <time>2022-04-14T12:37:22Z</time>
      </trkpt>
      <trkpt lat="46.69888" lon="5.56811">
        <ele>342.2</ele>
        <time>2022-04-14T12:37:25Z</time>
      </trkpt>
      <trkpt lat="46.69877" lon="5.5683">
        <ele>343.4</ele>
        <time>2022-04-14T12:37:30Z</time>
      </trkpt>
      <trkpt lat="46.69864" lon="5.56852">
        <ele>344.6</ele>
        <time>2022-04-14T12:37:36Z</time>
      </trkpt>
      <trkpt lat="46.69856" lon="5.56868">
        <ele>345.2</ele>
        <time>2022-04-14T12:37:40Z</time>
      </trkpt>
      <trkpt lat="46.69853" lon="5.56876">
        <ele>345.6</ele>
        <time>2022-04-14T12:37:42Z</time>
      </trkpt>
      <trkpt lat="46.69846" lon="5.56898">
        <ele>347</ele>
        <time>2022-04-14T12:37:47Z</time>
      </trkpt>
      <trkpt lat="46.69845" lon="5.56902">
        <ele>347.2</ele>
        <time>2022-04-14T12:37:48Z</time>
      </trkpt>
      <trkpt lat="46.69841" lon="5.56917">
        <ele>348</ele>
        <time>2022-04-14T12:37:51Z</time>
      </trkpt>
      <trkpt lat="46.6984" lon="5.56921">
        <ele>348</ele>
        <time>2022-04-14T12:37:52Z</time>
      </trkpt>
      <trkpt lat="46.69838" lon="5.56936">
        <ele>348.6</ele>
        <time>2022-04-14T12:37:55Z</time>
      </trkpt>
      <trkpt lat="46.69836" lon="5.56945">
        <ele>349.2</ele>
        <time>2022-04-14T12:37:57Z</time>
      </trkpt>
      <trkpt lat="46.69832" lon="5.5697">
        <ele>350.4</ele>
        <time>2022-04-14T12:38:02Z</time>
      </trkpt>
      <trkpt lat="46.69829" lon="5.5698">
        <ele>351</ele>
        <time>2022-04-14T12:38:04Z</time>
      </trkpt>
      <trkpt lat="46.69826" lon="5.5699">
        <ele>351.6</ele>
        <time>2022-04-14T12:38:06Z</time>
      </trkpt>
      <trkpt lat="46.69823" lon="5.57012">
        <ele>352.4</ele>
        <time>2022-04-14T12:38:10Z</time>
      </trkpt>
      <trkpt lat="46.69823" lon="5.57018">
        <ele>352.6</ele>
        <time>2022-04-14T12:38:11Z</time>
      </trkpt>
      <trkpt lat="46.6982" lon="5.57055">
        <ele>353</ele>
        <time>2022-04-14T12:38:16Z</time>
      </trkpt>
      <trkpt lat="46.69818" lon="5.57116">
        <ele>353.2</ele>
        <time>2022-04-14T12:38:23Z</time>
      </trkpt>
      <trkpt lat="46.69817" lon="5.57126">
        <ele>353.2</ele>
        <time>2022-04-14T12:38:24Z</time>
      </trkpt>
      <trkpt lat="46.69811" lon="5.57143">
        <ele>353</ele>
        <time>2022-04-14T12:38:26Z</time>
      </trkpt>
      <trkpt lat="46.69802" lon="5.57157">
        <ele>353</ele>
        <time>2022-04-14T12:38:28Z</time>
      </trkpt>
      <trkpt lat="46.6979" lon="5.57168">
        <ele>353</ele>
        <time>2022-04-14T12:38:30Z</time>
      </trkpt>
      <trkpt lat="46.69777" lon="5.57177">
        <ele>353</ele>
        <time>2022-04-14T12:38:32Z</time>
      </trkpt>
      <trkpt lat="46.69739" lon="5.57212">
        <ele>352.8</ele>
        <time>2022-04-14T12:38:38Z</time>
      </trkpt>
      <trkpt lat="46.69708" lon="5.57247">
        <ele>352</ele>
        <time>2022-04-14T12:38:43Z</time>
      </trkpt>
      <trkpt lat="46.69701" lon="5.57251">
        <ele>351.8</ele>
        <time>2022-04-14T12:38:44Z</time>
      </trkpt>
      <trkpt lat="46.69687" lon="5.57258">
        <ele>351.6</ele>
        <time>2022-04-14T12:38:46Z</time>
      </trkpt>
      <trkpt lat="46.6965" lon="5.57271">
        <ele>351.2</ele>
        <time>2022-04-14T12:38:51Z</time>
      </trkpt>
      <trkpt lat="46.6963" lon="5.57284">
        <ele>351</ele>
        <time>2022-04-14T12:38:54Z</time>
      </trkpt>
      <trkpt lat="46.69624" lon="5.5729">
        <ele>351</ele>
        <time>2022-04-14T12:38:55Z</time>
      </trkpt>
      <trkpt lat="46.69604" lon="5.57316">
        <ele>351</ele>
        <time>2022-04-14T12:38:59Z</time>
      </trkpt>
      <trkpt lat="46.69599" lon="5.57321">
        <ele>351.4</ele>
        <time>2022-04-14T12:39:00Z</time>
      </trkpt>
      <trkpt lat="46.69593" lon="5.57324">
        <ele>351.2</ele>
        <time>2022-04-14T12:39:01Z</time>
      </trkpt>
      <trkpt lat="46.6958" lon="5.57321">
        <ele>351.2</ele>
        <time>2022-04-14T12:39:03Z</time>
      </trkpt>
      <trkpt lat="46.69551" lon="5.57301">
        <ele>351.2</ele>
        <time>2022-04-14T12:39:07Z</time>
      </trkpt>
      <trkpt lat="46.69537" lon="5.57306">
        <ele>349.8</ele>
        <time>2022-04-14T12:39:09Z</time>
      </trkpt>
      <trkpt lat="46.69529" lon="5.57324">
        <ele>348.2</ele>
        <time>2022-04-14T12:39:11Z</time>
      </trkpt>
      <trkpt lat="46.69525" lon="5.57334">
        <ele>347.6</ele>
        <time>2022-04-14T12:39:12Z</time>
      </trkpt>
      <trkpt lat="46.69522" lon="5.57344">
        <ele>346.8</ele>
        <time>2022-04-14T12:39:13Z</time>
      </trkpt>
      <trkpt lat="46.69513" lon="5.57363">
        <ele>345.8</ele>
        <time>2022-04-14T12:39:15Z</time>
      </trkpt>
      <trkpt lat="46.69508" lon="5.57371">
        <ele>345.6</ele>
        <time>2022-04-14T12:39:16Z</time>
      </trkpt>
      <trkpt lat="46.69503" lon="5.57379">
        <ele>345.4</ele>
        <time>2022-04-14T12:39:17Z</time>
      </trkpt>
      <trkpt lat="46.69486" lon="5.57402">
        <ele>344.4</ele>
        <time>2022-04-14T12:39:20Z</time>
      </trkpt>
      <trkpt lat="46.69474" lon="5.5742">
        <ele>343.6</ele>
        <time>2022-04-14T12:39:23Z</time>
      </trkpt>
      <trkpt lat="46.69467" lon="5.57422">
        <ele>343.4</ele>
        <time>2022-04-14T12:39:25Z</time>
      </trkpt>
      <trkpt lat="46.69463" lon="5.57421">
        <ele>343.2</ele>
        <time>2022-04-14T12:39:26Z</time>
      </trkpt>
      <trkpt lat="46.69458" lon="5.57422">
        <ele>342.6</ele>
        <time>2022-04-14T12:39:27Z</time>
      </trkpt>
      <trkpt lat="46.69449" lon="5.57432">
        <ele>342.4</ele>
        <time>2022-04-14T12:39:30Z</time>
      </trkpt>
      <trkpt lat="46.69446" lon="5.57447">
        <ele>342.4</ele>
        <time>2022-04-14T12:39:33Z</time>
      </trkpt>
      <trkpt lat="46.69446" lon="5.57453">
        <ele>342.4</ele>
        <time>2022-04-14T12:39:34Z</time>
      </trkpt>
      <trkpt lat="46.69445" lon="5.57466">
        <ele>342.6</ele>
        <time>2022-04-14T12:39:36Z</time>
      </trkpt>
      <trkpt lat="46.69443" lon="5.57471">
        <ele>342.8</ele>
        <time>2022-04-14T12:39:37Z</time>
      </trkpt>
      <trkpt lat="46.6944" lon="5.57487">
        <ele>343.4</ele>
        <time>2022-04-14T12:39:40Z</time>
      </trkpt>
      <trkpt lat="46.69437" lon="5.57499">
        <ele>343.8</ele>
        <time>2022-04-14T12:39:42Z</time>
      </trkpt>
      <trkpt lat="46.69432" lon="5.57524">
        <ele>344.4</ele>
        <time>2022-04-14T12:39:46Z</time>
      </trkpt>
      <trkpt lat="46.69427" lon="5.57542">
        <ele>344.8</ele>
        <time>2022-04-14T12:39:49Z</time>
      </trkpt>
      <trkpt lat="46.69422" lon="5.57567">
        <ele>345.4</ele>
        <time>2022-04-14T12:39:53Z</time>
      </trkpt>
      <trkpt lat="46.69418" lon="5.57587">
        <ele>346</ele>
        <time>2022-04-14T12:39:56Z</time>
      </trkpt>
      <trkpt lat="46.69412" lon="5.57613">
        <ele>346.6</ele>
        <time>2022-04-14T12:40:00Z</time>
      </trkpt>
      <trkpt lat="46.69407" lon="5.57633">
        <ele>346.8</ele>
        <time>2022-04-14T12:40:03Z</time>
      </trkpt>
      <trkpt lat="46.69405" lon="5.5765">
        <ele>346.8</ele>
        <time>2022-04-14T12:40:05Z</time>
      </trkpt>
      <trkpt lat="46.69405" lon="5.5767">
        <ele>346.8</ele>
        <time>2022-04-14T12:40:07Z</time>
      </trkpt>
      <trkpt lat="46.69406" lon="5.57681">
        <ele>346.8</ele>
        <time>2022-04-14T12:40:08Z</time>
      </trkpt>
      <trkpt lat="46.69411" lon="5.57703">
        <ele>346.4</ele>
        <time>2022-04-14T12:40:10Z</time>
      </trkpt>
      <trkpt lat="46.69426" lon="5.57736">
        <ele>345.6</ele>
        <time>2022-04-14T12:40:13Z</time>
      </trkpt>
      <trkpt lat="46.69431" lon="5.57748">
        <ele>344.6</ele>
        <time>2022-04-14T12:40:14Z</time>
      </trkpt>
      <trkpt lat="46.69436" lon="5.57761">
        <ele>344</ele>
        <time>2022-04-14T12:40:15Z</time>
      </trkpt>
      <trkpt lat="46.69446" lon="5.57789">
        <ele>342.6</ele>
        <time>2022-04-14T12:40:17Z</time>
      </trkpt>
      <trkpt lat="46.69455" lon="5.57818">
        <ele>341.6</ele>
        <time>2022-04-14T12:40:19Z</time>
      </trkpt>
      <trkpt lat="46.6946" lon="5.57832">
        <ele>340.4</ele>
        <time>2022-04-14T12:40:20Z</time>
      </trkpt>
      <trkpt lat="46.69472" lon="5.57855">
        <ele>339</ele>
        <time>2022-04-14T12:40:22Z</time>
      </trkpt>
      <trkpt lat="46.69478" lon="5.57865">
        <ele>337.6</ele>
        <time>2022-04-14T12:40:23Z</time>
      </trkpt>
      <trkpt lat="46.6949" lon="5.57885">
        <ele>336.2</ele>
        <time>2022-04-14T12:40:25Z</time>
      </trkpt>
      <trkpt lat="46.69501" lon="5.57904">
        <ele>335.8</ele>
        <time>2022-04-14T12:40:27Z</time>
      </trkpt>
      <trkpt lat="46.69529" lon="5.57956">
        <ele>336</ele>
        <time>2022-04-14T12:40:33Z</time>
      </trkpt>
      <trkpt lat="46.69561" lon="5.58016">
        <ele>337</ele>
        <time>2022-04-14T12:40:40Z</time>
      </trkpt>
      <trkpt lat="46.69593" lon="5.58058">
        <ele>336.6</ele>
        <time>2022-04-14T12:40:45Z</time>
      </trkpt>
      <trkpt lat="46.69637" lon="5.58108">
        <ele>335.4</ele>
        <time>2022-04-14T12:40:52Z</time>
      </trkpt>
      <trkpt lat="46.69643" lon="5.58115">
        <ele>335.2</ele>
        <time>2022-04-14T12:40:53Z</time>
      </trkpt>
      <trkpt lat="46.69661" lon="5.58137">
        <ele>335.2</ele>
        <time>2022-04-14T12:40:56Z</time>
      </trkpt>
      <trkpt lat="46.69686" lon="5.58168">
        <ele>335</ele>
        <time>2022-04-14T12:41:00Z</time>
      </trkpt>
      <trkpt lat="46.69711" lon="5.58194">
        <ele>335</ele>
        <time>2022-04-14T12:41:04Z</time>
      </trkpt>
      <trkpt lat="46.69718" lon="5.58199">
        <ele>335</ele>
        <time>2022-04-14T12:41:05Z</time>
      </trkpt>
      <trkpt lat="46.69766" lon="5.58224">
        <ele>335</ele>
        <time>2022-04-14T12:41:12Z</time>
      </trkpt>
      <trkpt lat="46.69809" lon="5.58248">
        <ele>335</ele>
        <time>2022-04-14T12:41:19Z</time>
      </trkpt>
      <trkpt lat="46.6982" lon="5.58256">
        <ele>335</ele>
        <time>2022-04-14T12:41:21Z</time>
      </trkpt>
      <trkpt lat="46.69826" lon="5.5826">
        <ele>335</ele>
        <time>2022-04-14T12:41:22Z</time>
      </trkpt>
      <trkpt lat="46.69837" lon="5.58265">
        <ele>335.2</ele>
        <time>2022-04-14T12:41:24Z</time>
      </trkpt>
      <trkpt lat="46.69842" lon="5.58266">
        <ele>335.2</ele>
        <time>2022-04-14T12:41:25Z</time>
      </trkpt>
      <trkpt lat="46.6988" lon="5.58263">
        <ele>335.8</ele>
        <time>2022-04-14T12:41:32Z</time>
      </trkpt>
      <trkpt lat="46.69901" lon="5.58262">
        <ele>336.6</ele>
        <time>2022-04-14T12:41:36Z</time>
      </trkpt>
      <trkpt lat="46.69912" lon="5.58263">
        <ele>337</ele>
        <time>2022-04-14T12:41:38Z</time>
      </trkpt>
      <trkpt lat="46.69922" lon="5.58268">
        <ele>337.2</ele>
        <time>2022-04-14T12:41:40Z</time>
      </trkpt>
      <trkpt lat="46.69931" lon="5.58276">
        <ele>337.6</ele>
        <time>2022-04-14T12:41:42Z</time>
      </trkpt>
      <trkpt lat="46.69934" lon="5.58281">
        <ele>337.6</ele>
        <time>2022-04-14T12:41:43Z</time>
      </trkpt>
      <trkpt lat="46.69938" lon="5.58287">
        <ele>338</ele>
        <time>2022-04-14T12:41:44Z</time>
      </trkpt>
      <trkpt lat="46.69949" lon="5.58306">
        <ele>338.8</ele>
        <time>2022-04-14T12:41:47Z</time>
      </trkpt>
      <trkpt lat="46.69967" lon="5.58343">
        <ele>339.2</ele>
        <time>2022-04-14T12:41:52Z</time>
      </trkpt>
      <trkpt lat="46.69969" lon="5.58362">
        <ele>339.2</ele>
        <time>2022-04-14T12:41:54Z</time>
      </trkpt>
      <trkpt lat="46.69969" lon="5.58371">
        <ele>339.2</ele>
        <time>2022-04-14T12:41:55Z</time>
      </trkpt>
      <trkpt lat="46.69965" lon="5.58418">
        <ele>338.8</ele>
        <time>2022-04-14T12:42:00Z</time>
      </trkpt>
      <trkpt lat="46.69966" lon="5.58427">
        <ele>338.8</ele>
        <time>2022-04-14T12:42:01Z</time>
      </trkpt>
      <trkpt lat="46.69966" lon="5.58437">
        <ele>338.6</ele>
        <time>2022-04-14T12:42:02Z</time>
      </trkpt>
      <trkpt lat="46.69971" lon="5.58453">
        <ele>338.6</ele>
        <time>2022-04-14T12:42:04Z</time>
      </trkpt>
      <trkpt lat="46.69981" lon="5.58464">
        <ele>338.6</ele>
        <time>2022-04-14T12:42:06Z</time>
      </trkpt>
      <trkpt lat="46.69987" lon="5.58466">
        <ele>338.6</ele>
        <time>2022-04-14T12:42:07Z</time>
      </trkpt>
      <trkpt lat="46.69992" lon="5.58466">
        <ele>338.6</ele>
        <time>2022-04-14T12:42:08Z</time>
      </trkpt>
      <trkpt lat="46.70003" lon="5.58461">
        <ele>338.6</ele>
        <time>2022-04-14T12:42:10Z</time>
      </trkpt>
      <trkpt lat="46.70029" lon="5.58434">
        <ele>339.2</ele>
        <time>2022-04-14T12:42:16Z</time>
      </trkpt>
      <trkpt lat="46.70042" lon="5.58423">
        <ele>340.2</ele>
        <time>2022-04-14T12:42:19Z</time>
      </trkpt>
      <trkpt lat="46.70055" lon="5.58412">
        <ele>341.2</ele>
        <time>2022-04-14T12:42:22Z</time>
      </trkpt>
      <trkpt lat="46.7006" lon="5.58408">
        <ele>341.4</ele>
        <time>2022-04-14T12:42:23Z</time>
      </trkpt>
      <trkpt lat="46.70095" lon="5.58385">
        <ele>342</ele>
        <time>2022-04-14T12:42:30Z</time>
      </trkpt>
      <trkpt lat="46.70105" lon="5.5838">
        <ele>342.4</ele>
        <time>2022-04-14T12:42:32Z</time>
      </trkpt>
      <trkpt lat="46.70143" lon="5.58359">
        <ele>342.2</ele>
        <time>2022-04-14T12:42:40Z</time>
      </trkpt>
      <trkpt lat="46.70165" lon="5.58343">
        <ele>342</ele>
        <time>2022-04-14T12:42:45Z</time>
      </trkpt>
      <trkpt lat="46.7017" lon="5.58341">
        <ele>342</ele>
        <time>2022-04-14T12:42:46Z</time>
      </trkpt>
      <trkpt lat="46.70179" lon="5.58342">
        <ele>342</ele>
        <time>2022-04-14T12:42:48Z</time>
      </trkpt>
      <trkpt lat="46.70191" lon="5.58354">
        <ele>342</ele>
        <time>2022-04-14T12:42:51Z</time>
      </trkpt>
      <trkpt lat="46.70196" lon="5.5836">
        <ele>342</ele>
        <time>2022-04-14T12:42:53Z</time>
      </trkpt>
      <trkpt lat="46.70197" lon="5.58362">
        <ele>342</ele>
        <time>2022-04-14T12:42:54Z</time>
      </trkpt>
      <trkpt lat="46.70198" lon="5.58362">
        <ele>342.2</ele>
        <time>2022-04-14T12:42:56Z</time>
      </trkpt>
      <trkpt lat="46.70198" lon="5.58362">
        <ele>342.2</ele>
        <time>2022-04-14T12:42:57Z</time>
      </trkpt>
      <trkpt lat="46.70201" lon="5.58365">
        <ele>342.4</ele>
        <time>2022-04-14T12:43:06Z</time>
      </trkpt>
      <trkpt lat="46.70205" lon="5.58368">
        <ele>342.4</ele>
        <time>2022-04-14T12:43:08Z</time>
      </trkpt>
      <trkpt lat="46.70218" lon="5.58381">
        <ele>342.4</ele>
        <time>2022-04-14T12:43:12Z</time>
      </trkpt>
      <trkpt lat="46.70227" lon="5.58389">
        <ele>342.2</ele>
        <time>2022-04-14T12:43:14Z</time>
      </trkpt>
      <trkpt lat="46.70238" lon="5.58397">
        <ele>342.2</ele>
        <time>2022-04-14T12:43:16Z</time>
      </trkpt>
      <trkpt lat="46.70243" lon="5.584">
        <ele>342.2</ele>
        <time>2022-04-14T12:43:17Z</time>
      </trkpt>
      <trkpt lat="46.70266" lon="5.58412">
        <ele>341.8</ele>
        <time>2022-04-14T12:43:21Z</time>
      </trkpt>
      <trkpt lat="46.70277" lon="5.58416">
        <ele>341.8</ele>
        <time>2022-04-14T12:43:23Z</time>
      </trkpt>
      <trkpt lat="46.70299" lon="5.58424">
        <ele>341.6</ele>
        <time>2022-04-14T12:43:27Z</time>
      </trkpt>
      <trkpt lat="46.7031" lon="5.58429">
        <ele>341.6</ele>
        <time>2022-04-14T12:43:29Z</time>
      </trkpt>
      <trkpt lat="46.70317" lon="5.5844">
        <ele>341.8</ele>
        <time>2022-04-14T12:43:31Z</time>
      </trkpt>
      <trkpt lat="46.70317" lon="5.58457">
        <ele>342</ele>
        <time>2022-04-14T12:43:33Z</time>
      </trkpt>
      <trkpt lat="46.70316" lon="5.58466">
        <ele>342</ele>
        <time>2022-04-14T12:43:34Z</time>
      </trkpt>
      <trkpt lat="46.70307" lon="5.58504">
        <ele>342.2</ele>
        <time>2022-04-14T12:43:38Z</time>
      </trkpt>
      <trkpt lat="46.70303" lon="5.58513">
        <ele>342.2</ele>
        <time>2022-04-14T12:43:39Z</time>
      </trkpt>
      <trkpt lat="46.70299" lon="5.58522">
        <ele>342</ele>
        <time>2022-04-14T12:43:40Z</time>
      </trkpt>
      <trkpt lat="46.7029" lon="5.58538">
        <ele>341.6</ele>
        <time>2022-04-14T12:43:42Z</time>
      </trkpt>
      <trkpt lat="46.70286" lon="5.58547">
        <ele>341.4</ele>
        <time>2022-04-14T12:43:43Z</time>
      </trkpt>
      <trkpt lat="46.70283" lon="5.58556">
        <ele>341.2</ele>
        <time>2022-04-14T12:43:44Z</time>
      </trkpt>
      <trkpt lat="46.70281" lon="5.58577">
        <ele>340.8</ele>
        <time>2022-04-14T12:43:46Z</time>
      </trkpt>
      <trkpt lat="46.70276" lon="5.58628">
        <ele>340.6</ele>
        <time>2022-04-14T12:43:51Z</time>
      </trkpt>
      <trkpt lat="46.70274" lon="5.58637">
        <ele>340.6</ele>
        <time>2022-04-14T12:43:52Z</time>
      </trkpt>
      <trkpt lat="46.70255" lon="5.58691">
        <ele>340.8</ele>
        <time>2022-04-14T12:43:58Z</time>
      </trkpt>
      <trkpt lat="46.70229" lon="5.58755">
        <ele>341.4</ele>
        <time>2022-04-14T12:44:06Z</time>
      </trkpt>
      <trkpt lat="46.70218" lon="5.58785">
        <ele>342.4</ele>
        <time>2022-04-14T12:44:10Z</time>
      </trkpt>
      <trkpt lat="46.70217" lon="5.58792">
        <ele>342.6</ele>
        <time>2022-04-14T12:44:11Z</time>
      </trkpt>
      <trkpt lat="46.70217" lon="5.58799">
        <ele>342.8</ele>
        <time>2022-04-14T12:44:12Z</time>
      </trkpt>
      <trkpt lat="46.7022" lon="5.58811">
        <ele>343.2</ele>
        <time>2022-04-14T12:44:14Z</time>
      </trkpt>
      <trkpt lat="46.70223" lon="5.58816">
        <ele>343.6</ele>
        <time>2022-04-14T12:44:15Z</time>
      </trkpt>
      <trkpt lat="46.70226" lon="5.5882">
        <ele>344</ele>
        <time>2022-04-14T12:44:16Z</time>
      </trkpt>
      <trkpt lat="46.7023" lon="5.58823">
        <ele>344.6</ele>
        <time>2022-04-14T12:44:17Z</time>
      </trkpt>
      <trkpt lat="46.70234" lon="5.58824">
        <ele>345</ele>
        <time>2022-04-14T12:44:18Z</time>
      </trkpt>
      <trkpt lat="46.70246" lon="5.58827">
        <ele>346.2</ele>
        <time>2022-04-14T12:44:21Z</time>
      </trkpt>
      <trkpt lat="46.7025" lon="5.58827">
        <ele>346.6</ele>
        <time>2022-04-14T12:44:22Z</time>
      </trkpt>
      <trkpt lat="46.70266" lon="5.58829">
        <ele>347.4</ele>
        <time>2022-04-14T12:44:26Z</time>
      </trkpt>
      <trkpt lat="46.7028" lon="5.58831">
        <ele>348</ele>
        <time>2022-04-14T12:44:30Z</time>
      </trkpt>
      <trkpt lat="46.70288" lon="5.58833">
        <ele>348.6</ele>
        <time>2022-04-14T12:44:32Z</time>
      </trkpt>
      <trkpt lat="46.70306" lon="5.58841">
        <ele>349.6</ele>
        <time>2022-04-14T12:44:37Z</time>
      </trkpt>
      <trkpt lat="46.70317" lon="5.58847">
        <ele>350.2</ele>
        <time>2022-04-14T12:44:40Z</time>
      </trkpt>
      <trkpt lat="46.70325" lon="5.58852">
        <ele>350.6</ele>
        <time>2022-04-14T12:44:42Z</time>
      </trkpt>
      <trkpt lat="46.70343" lon="5.58864">
        <ele>351.8</ele>
        <time>2022-04-14T12:44:47Z</time>
      </trkpt>
      <trkpt lat="46.70359" lon="5.58876">
        <ele>353</ele>
        <time>2022-04-14T12:44:52Z</time>
      </trkpt>
      <trkpt lat="46.70372" lon="5.58885">
        <ele>354</ele>
        <time>2022-04-14T12:44:56Z</time>
      </trkpt>
      <trkpt lat="46.70392" lon="5.58902">
        <ele>355.4</ele>
        <time>2022-04-14T12:45:02Z</time>
      </trkpt>
      <trkpt lat="46.70405" lon="5.58912">
        <ele>356.2</ele>
        <time>2022-04-14T12:45:06Z</time>
      </trkpt>
      <trkpt lat="46.70412" lon="5.58918">
        <ele>356.4</ele>
        <time>2022-04-14T12:45:08Z</time>
      </trkpt>
      <trkpt lat="46.70425" lon="5.58928">
        <ele>357.4</ele>
        <time>2022-04-14T12:45:12Z</time>
      </trkpt>
      <trkpt lat="46.70438" lon="5.58939">
        <ele>358.2</ele>
        <time>2022-04-14T12:45:16Z</time>
      </trkpt>
      <trkpt lat="46.70442" lon="5.58942">
        <ele>358.6</ele>
        <time>2022-04-14T12:45:17Z</time>
      </trkpt>
      <trkpt lat="46.70458" lon="5.5896">
        <ele>359.8</ele>
        <time>2022-04-14T12:45:22Z</time>
      </trkpt>
      <trkpt lat="46.70461" lon="5.58964">
        <ele>360</ele>
        <time>2022-04-14T12:45:23Z</time>
      </trkpt>
      <trkpt lat="46.70465" lon="5.58974">
        <ele>360.2</ele>
        <time>2022-04-14T12:45:25Z</time>
      </trkpt>
      <trkpt lat="46.70468" lon="5.58985">
        <ele>360.6</ele>
        <time>2022-04-14T12:45:27Z</time>
      </trkpt>
      <trkpt lat="46.70469" lon="5.5899">
        <ele>360.8</ele>
        <time>2022-04-14T12:45:28Z</time>
      </trkpt>
      <trkpt lat="46.70469" lon="5.58996">
        <ele>361</ele>
        <time>2022-04-14T12:45:29Z</time>
      </trkpt>
      <trkpt lat="46.70464" lon="5.59012">
        <ele>361.4</ele>
        <time>2022-04-14T12:45:32Z</time>
      </trkpt>
      <trkpt lat="46.70458" lon="5.5902">
        <ele>361.8</ele>
        <time>2022-04-14T12:45:34Z</time>
      </trkpt>
      <trkpt lat="46.70451" lon="5.59024">
        <ele>362</ele>
        <time>2022-04-14T12:45:36Z</time>
      </trkpt>
      <trkpt lat="46.70418" lon="5.59038">
        <ele>363.2</ele>
        <time>2022-04-14T12:45:43Z</time>
      </trkpt>
      <trkpt lat="46.70413" lon="5.5904">
        <ele>363.4</ele>
        <time>2022-04-14T12:45:44Z</time>
      </trkpt>
      <trkpt lat="46.70374" lon="5.59056">
        <ele>364.2</ele>
        <time>2022-04-14T12:45:52Z</time>
      </trkpt>
      <trkpt lat="46.70334" lon="5.59071">
        <ele>365</ele>
        <time>2022-04-14T12:46:00Z</time>
      </trkpt>
      <trkpt lat="46.70329" lon="5.59073">
        <ele>365.2</ele>
        <time>2022-04-14T12:46:01Z</time>
      </trkpt>
      <trkpt lat="46.70301" lon="5.59085">
        <ele>366.6</ele>
        <time>2022-04-14T12:46:07Z</time>
      </trkpt>
      <trkpt lat="46.70288" lon="5.59089">
        <ele>367</ele>
        <time>2022-04-14T12:46:10Z</time>
      </trkpt>
      <trkpt lat="46.70275" lon="5.59094">
        <ele>367.6</ele>
        <time>2022-04-14T12:46:13Z</time>
      </trkpt>
      <trkpt lat="46.70262" lon="5.59099">
        <ele>368.6</ele>
        <time>2022-04-14T12:46:16Z</time>
      </trkpt>
      <trkpt lat="46.70248" lon="5.59104">
        <ele>369.2</ele>
        <time>2022-04-14T12:46:19Z</time>
      </trkpt>
      <trkpt lat="46.70233" lon="5.5911">
        <ele>369.8</ele>
        <time>2022-04-14T12:46:22Z</time>
      </trkpt>
      <trkpt lat="46.70217" lon="5.59115">
        <ele>370</ele>
        <time>2022-04-14T12:46:25Z</time>
      </trkpt>
      <trkpt lat="46.70183" lon="5.59128">
        <ele>370.6</ele>
        <time>2022-04-14T12:46:31Z</time>
      </trkpt>
      <trkpt lat="46.70131" lon="5.59151">
        <ele>370.6</ele>
        <time>2022-04-14T12:46:39Z</time>
      </trkpt>
      <trkpt lat="46.70112" lon="5.5916">
        <ele>371</ele>
        <time>2022-04-14T12:46:42Z</time>
      </trkpt>
      <trkpt lat="46.70093" lon="5.59169">
        <ele>371.2</ele>
        <time>2022-04-14T12:46:45Z</time>
      </trkpt>
      <trkpt lat="46.70041" lon="5.59193">
        <ele>371.6</ele>
        <time>2022-04-14T12:46:53Z</time>
      </trkpt>
      <trkpt lat="46.70035" lon="5.59196">
        <ele>371.8</ele>
        <time>2022-04-14T12:46:54Z</time>
      </trkpt>
      <trkpt lat="46.70003" lon="5.59205">
        <ele>372</ele>
        <time>2022-04-14T12:46:59Z</time>
      </trkpt>
      <trkpt lat="46.69976" lon="5.59206">
        <ele>372</ele>
        <time>2022-04-14T12:47:03Z</time>
      </trkpt>
      <trkpt lat="46.69964" lon="5.59203">
        <ele>372</ele>
        <time>2022-04-14T12:47:05Z</time>
      </trkpt>
      <trkpt lat="46.69939" lon="5.592">
        <ele>372.2</ele>
        <time>2022-04-14T12:47:09Z</time>
      </trkpt>
      <trkpt lat="46.69928" lon="5.59204">
        <ele>372.4</ele>
        <time>2022-04-14T12:47:11Z</time>
      </trkpt>
      <trkpt lat="46.6992" lon="5.59215">
        <ele>372.6</ele>
        <time>2022-04-14T12:47:13Z</time>
      </trkpt>
      <trkpt lat="46.69917" lon="5.59221">
        <ele>372.6</ele>
        <time>2022-04-14T12:47:14Z</time>
      </trkpt>
      <trkpt lat="46.69911" lon="5.59234">
        <ele>372.8</ele>
        <time>2022-04-14T12:47:16Z</time>
      </trkpt>
      <trkpt lat="46.69909" lon="5.5924">
        <ele>373</ele>
        <time>2022-04-14T12:47:17Z</time>
      </trkpt>
      <trkpt lat="46.69907" lon="5.59252">
        <ele>373.8</ele>
        <time>2022-04-14T12:47:19Z</time>
      </trkpt>
      <trkpt lat="46.69905" lon="5.59263">
        <ele>374.4</ele>
        <time>2022-04-14T12:47:21Z</time>
      </trkpt>
      <trkpt lat="46.69904" lon="5.59276">
        <ele>375.2</ele>
        <time>2022-04-14T12:47:23Z</time>
      </trkpt>
      <trkpt lat="46.69905" lon="5.59282">
        <ele>375.8</ele>
        <time>2022-04-14T12:47:24Z</time>
      </trkpt>
      <trkpt lat="46.69906" lon="5.59288">
        <ele>376</ele>
        <time>2022-04-14T12:47:25Z</time>
      </trkpt>
      <trkpt lat="46.69908" lon="5.59304">
        <ele>377</ele>
        <time>2022-04-14T12:47:28Z</time>
      </trkpt>
      <trkpt lat="46.6991" lon="5.5932">
        <ele>378</ele>
        <time>2022-04-14T12:47:31Z</time>
      </trkpt>
      <trkpt lat="46.69914" lon="5.59336">
        <ele>379</ele>
        <time>2022-04-14T12:47:34Z</time>
      </trkpt>
      <trkpt lat="46.69915" lon="5.59341">
        <ele>379.4</ele>
        <time>2022-04-14T12:47:35Z</time>
      </trkpt>
      <trkpt lat="46.69918" lon="5.59357">
        <ele>380.6</ele>
        <time>2022-04-14T12:47:38Z</time>
      </trkpt>
      <trkpt lat="46.69923" lon="5.59372">
        <ele>381.8</ele>
        <time>2022-04-14T12:47:41Z</time>
      </trkpt>
      <trkpt lat="46.69926" lon="5.59388">
        <ele>382.8</ele>
        <time>2022-04-14T12:47:44Z</time>
      </trkpt>
      <trkpt lat="46.69927" lon="5.59394">
        <ele>383.2</ele>
        <time>2022-04-14T12:47:45Z</time>
      </trkpt>
      <trkpt lat="46.69932" lon="5.59417">
        <ele>384.2</ele>
        <time>2022-04-14T12:47:49Z</time>
      </trkpt>
      <trkpt lat="46.69934" lon="5.59429">
        <ele>384.6</ele>
        <time>2022-04-14T12:47:51Z</time>
      </trkpt>
      <trkpt lat="46.69936" lon="5.59435">
        <ele>384.6</ele>
        <time>2022-04-14T12:47:52Z</time>
      </trkpt>
      <trkpt lat="46.69938" lon="5.59446">
        <ele>385.6</ele>
        <time>2022-04-14T12:47:54Z</time>
      </trkpt>
      <trkpt lat="46.6994" lon="5.59464">
        <ele>386</ele>
        <time>2022-04-14T12:47:57Z</time>
      </trkpt>
      <trkpt lat="46.69942" lon="5.59475">
        <ele>386.6</ele>
        <time>2022-04-14T12:47:59Z</time>
      </trkpt>
      <trkpt lat="46.69945" lon="5.59497">
        <ele>388</ele>
        <time>2022-04-14T12:48:03Z</time>
      </trkpt>
      <trkpt lat="46.69951" lon="5.59531">
        <ele>389.2</ele>
        <time>2022-04-14T12:48:10Z</time>
      </trkpt>
      <trkpt lat="46.69952" lon="5.59536">
        <ele>389.4</ele>
        <time>2022-04-14T12:48:11Z</time>
      </trkpt>
      <trkpt lat="46.69954" lon="5.59555">
        <ele>390.4</ele>
        <time>2022-04-14T12:48:15Z</time>
      </trkpt>
      <trkpt lat="46.69955" lon="5.5957">
        <ele>391</ele>
        <time>2022-04-14T12:48:18Z</time>
      </trkpt>
      <trkpt lat="46.69954" lon="5.5958">
        <ele>391.6</ele>
        <time>2022-04-14T12:48:20Z</time>
      </trkpt>
      <trkpt lat="46.69953" lon="5.59585">
        <ele>391.8</ele>
        <time>2022-04-14T12:48:21Z</time>
      </trkpt>
      <trkpt lat="46.6995" lon="5.59599">
        <ele>392.8</ele>
        <time>2022-04-14T12:48:24Z</time>
      </trkpt>
      <trkpt lat="46.69949" lon="5.59605">
        <ele>392.8</ele>
        <time>2022-04-14T12:48:25Z</time>
      </trkpt>
      <trkpt lat="46.69944" lon="5.59627">
        <ele>393.8</ele>
        <time>2022-04-14T12:48:29Z</time>
      </trkpt>
      <trkpt lat="46.69942" lon="5.59644">
        <ele>394.2</ele>
        <time>2022-04-14T12:48:32Z</time>
      </trkpt>
      <trkpt lat="46.69943" lon="5.59668">
        <ele>395</ele>
        <time>2022-04-14T12:48:36Z</time>
      </trkpt>
      <trkpt lat="46.69944" lon="5.59681">
        <ele>395.2</ele>
        <time>2022-04-14T12:48:38Z</time>
      </trkpt>
      <trkpt lat="46.69945" lon="5.59699">
        <ele>395.6</ele>
        <time>2022-04-14T12:48:41Z</time>
      </trkpt>
      <trkpt lat="46.69941" lon="5.59721">
        <ele>396.2</ele>
        <time>2022-04-14T12:48:45Z</time>
      </trkpt>
      <trkpt lat="46.69928" lon="5.59758">
        <ele>396.6</ele>
        <time>2022-04-14T12:48:51Z</time>
      </trkpt>
      <trkpt lat="46.69919" lon="5.59783">
        <ele>396.6</ele>
        <time>2022-04-14T12:48:55Z</time>
      </trkpt>
      <trkpt lat="46.69914" lon="5.598">
        <ele>396.4</ele>
        <time>2022-04-14T12:48:58Z</time>
      </trkpt>
      <trkpt lat="46.6991" lon="5.5981">
        <ele>396.4</ele>
        <time>2022-04-14T12:49:00Z</time>
      </trkpt>
      <trkpt lat="46.69908" lon="5.59812">
        <ele>396.4</ele>
        <time>2022-04-14T12:49:01Z</time>
      </trkpt>
      <trkpt lat="46.69904" lon="5.59817">
        <ele>396.4</ele>
        <time>2022-04-14T12:49:04Z</time>
      </trkpt>
      <trkpt lat="46.69901" lon="5.59818">
        <ele>396.4</ele>
        <time>2022-04-14T12:49:05Z</time>
      </trkpt>
      <trkpt lat="46.69898" lon="5.59815">
        <ele>396.4</ele>
        <time>2022-04-14T12:49:06Z</time>
      </trkpt>
      <trkpt lat="46.69893" lon="5.59808">
        <ele>396.4</ele>
        <time>2022-04-14T12:49:08Z</time>
      </trkpt>
      <trkpt lat="46.69889" lon="5.59805">
        <ele>396.4</ele>
        <time>2022-04-14T12:49:09Z</time>
      </trkpt>
      <trkpt lat="46.69873" lon="5.59798">
        <ele>395.8</ele>
        <time>2022-04-14T12:49:12Z</time>
      </trkpt>
      <trkpt lat="46.69842" lon="5.59788">
        <ele>394.8</ele>
        <time>2022-04-14T12:49:17Z</time>
      </trkpt>
      <trkpt lat="46.69834" lon="5.59785">
        <ele>394.6</ele>
        <time>2022-04-14T12:49:18Z</time>
      </trkpt>
      <trkpt lat="46.6982" lon="5.59779">
        <ele>394</ele>
        <time>2022-04-14T12:49:20Z</time>
      </trkpt>
      <trkpt lat="46.69813" lon="5.59778">
        <ele>393.8</ele>
        <time>2022-04-14T12:49:21Z</time>
      </trkpt>
      <trkpt lat="46.69806" lon="5.59778">
        <ele>393.4</ele>
        <time>2022-04-14T12:49:22Z</time>
      </trkpt>
      <trkpt lat="46.69796" lon="5.59783">
        <ele>392.6</ele>
        <time>2022-04-14T12:49:24Z</time>
      </trkpt>
      <trkpt lat="46.69793" lon="5.59788">
        <ele>392.2</ele>
        <time>2022-04-14T12:49:25Z</time>
      </trkpt>
      <trkpt lat="46.69791" lon="5.59794">
        <ele>391.8</ele>
        <time>2022-04-14T12:49:26Z</time>
      </trkpt>
      <trkpt lat="46.69789" lon="5.59801">
        <ele>391.4</ele>
        <time>2022-04-14T12:49:27Z</time>
      </trkpt>
      <trkpt lat="46.69786" lon="5.59811">
        <ele>391.2</ele>
        <time>2022-04-14T12:49:29Z</time>
      </trkpt>
      <trkpt lat="46.69785" lon="5.59814">
        <ele>391.2</ele>
        <time>2022-04-14T12:49:30Z</time>
      </trkpt>
      <trkpt lat="46.69784" lon="5.59814">
        <ele>391</ele>
        <time>2022-04-14T12:49:31Z</time>
      </trkpt>
      <trkpt lat="46.69785" lon="5.59814">
        <ele>391</ele>
        <time>2022-04-14T12:49:32Z</time>
      </trkpt>
      <trkpt lat="46.69786" lon="5.59812">
        <ele>390.8</ele>
        <time>2022-04-14T12:49:33Z</time>
      </trkpt>
      <trkpt lat="46.6979" lon="5.59808">
        <ele>390.8</ele>
        <time>2022-04-14T12:49:35Z</time>
      </trkpt>
      <trkpt lat="46.69793" lon="5.59808">
        <ele>390.8</ele>
        <time>2022-04-14T12:49:36Z</time>
      </trkpt>
      <trkpt lat="46.69807" lon="5.59821">
        <ele>390.4</ele>
        <time>2022-04-14T12:49:40Z</time>
      </trkpt>
      <trkpt lat="46.69812" lon="5.59828">
        <ele>390.2</ele>
        <time>2022-04-14T12:49:41Z</time>
      </trkpt>
      <trkpt lat="46.69828" lon="5.59849">
        <ele>390.2</ele>
        <time>2022-04-14T12:49:44Z</time>
      </trkpt>
      <trkpt lat="46.69839" lon="5.59863">
        <ele>390</ele>
        <time>2022-04-14T12:49:46Z</time>
      </trkpt>
      <trkpt lat="46.69876" lon="5.59895">
        <ele>389.2</ele>
        <time>2022-04-14T12:49:51Z</time>
      </trkpt>
      <trkpt lat="46.69909" lon="5.59919">
        <ele>387.6</ele>
        <time>2022-04-14T12:49:55Z</time>
      </trkpt>
      <trkpt lat="46.69928" lon="5.59932">
        <ele>386.6</ele>
        <time>2022-04-14T12:49:57Z</time>
      </trkpt>
      <trkpt lat="46.69937" lon="5.59937">
        <ele>386.2</ele>
        <time>2022-04-14T12:49:58Z</time>
      </trkpt>
      <trkpt lat="46.69966" lon="5.59953">
        <ele>384.8</ele>
        <time>2022-04-14T12:50:01Z</time>
      </trkpt>
      <trkpt lat="46.69995" lon="5.59968">
        <ele>383.2</ele>
        <time>2022-04-14T12:50:04Z</time>
      </trkpt>
      <trkpt lat="46.70015" lon="5.59973">
        <ele>382</ele>
        <time>2022-04-14T12:50:06Z</time>
      </trkpt>
      <trkpt lat="46.70025" lon="5.59974">
        <ele>381.6</ele>
        <time>2022-04-14T12:50:07Z</time>
      </trkpt>
      <trkpt lat="46.70035" lon="5.59972">
        <ele>380.8</ele>
        <time>2022-04-14T12:50:08Z</time>
      </trkpt>
      <trkpt lat="46.70052" lon="5.59963">
        <ele>379.8</ele>
        <time>2022-04-14T12:50:10Z</time>
      </trkpt>
      <trkpt lat="46.7006" lon="5.59953">
        <ele>378.6</ele>
        <time>2022-04-14T12:50:11Z</time>
      </trkpt>
      <trkpt lat="46.70067" lon="5.59942">
        <ele>378.2</ele>
        <time>2022-04-14T12:50:12Z</time>
      </trkpt>
      <trkpt lat="46.70073" lon="5.59928">
        <ele>377.4</ele>
        <time>2022-04-14T12:50:13Z</time>
      </trkpt>
      <trkpt lat="46.70089" lon="5.59887">
        <ele>376</ele>
        <time>2022-04-14T12:50:16Z</time>
      </trkpt>
      <trkpt lat="46.7011" lon="5.59838">
        <ele>375.2</ele>
        <time>2022-04-14T12:50:20Z</time>
      </trkpt>
      <trkpt lat="46.70116" lon="5.59827">
        <ele>375.2</ele>
        <time>2022-04-14T12:50:21Z</time>
      </trkpt>
      <trkpt lat="46.70121" lon="5.59815">
        <ele>375</ele>
        <time>2022-04-14T12:50:22Z</time>
      </trkpt>
      <trkpt lat="46.70142" lon="5.59784">
        <ele>373.2</ele>
        <time>2022-04-14T12:50:25Z</time>
      </trkpt>
      <trkpt lat="46.70156" lon="5.59764">
        <ele>371.8</ele>
        <time>2022-04-14T12:50:27Z</time>
      </trkpt>
      <trkpt lat="46.70183" lon="5.59724">
        <ele>370.6</ele>
        <time>2022-04-14T12:50:31Z</time>
      </trkpt>
      <trkpt lat="46.70196" lon="5.59702">
        <ele>370</ele>
        <time>2022-04-14T12:50:33Z</time>
      </trkpt>
      <trkpt lat="46.70213" lon="5.59667">
        <ele>369.4</ele>
        <time>2022-04-14T12:50:36Z</time>
      </trkpt>
      <trkpt lat="46.70222" lon="5.59642">
        <ele>369.2</ele>
        <time>2022-04-14T12:50:38Z</time>
      </trkpt>
      <trkpt lat="46.70231" lon="5.59615">
        <ele>368.2</ele>
        <time>2022-04-14T12:50:40Z</time>
      </trkpt>
      <trkpt lat="46.70251" lon="5.59563">
        <ele>367.2</ele>
        <time>2022-04-14T12:50:44Z</time>
      </trkpt>
      <trkpt lat="46.70255" lon="5.59549">
        <ele>366.8</ele>
        <time>2022-04-14T12:50:45Z</time>
      </trkpt>
      <trkpt lat="46.70265" lon="5.59523">
        <ele>365.6</ele>
        <time>2022-04-14T12:50:47Z</time>
      </trkpt>
      <trkpt lat="46.70277" lon="5.59498">
        <ele>364.2</ele>
        <time>2022-04-14T12:50:49Z</time>
      </trkpt>
      <trkpt lat="46.70283" lon="5.59486">
        <ele>363.6</ele>
        <time>2022-04-14T12:50:50Z</time>
      </trkpt>
      <trkpt lat="46.70291" lon="5.59476">
        <ele>363</ele>
        <time>2022-04-14T12:50:51Z</time>
      </trkpt>
      <trkpt lat="46.70306" lon="5.59455">
        <ele>361.6</ele>
        <time>2022-04-14T12:50:53Z</time>
      </trkpt>
      <trkpt lat="46.70329" lon="5.59425">
        <ele>360.4</ele>
        <time>2022-04-14T12:50:56Z</time>
      </trkpt>
      <trkpt lat="46.70337" lon="5.59415">
        <ele>359.6</ele>
        <time>2022-04-14T12:50:57Z</time>
      </trkpt>
      <trkpt lat="46.70345" lon="5.59405">
        <ele>359.2</ele>
        <time>2022-04-14T12:50:58Z</time>
      </trkpt>
      <trkpt lat="46.70369" lon="5.59377">
        <ele>358.2</ele>
        <time>2022-04-14T12:51:01Z</time>
      </trkpt>
      <trkpt lat="46.70378" lon="5.59368">
        <ele>357.2</ele>
        <time>2022-04-14T12:51:02Z</time>
      </trkpt>
      <trkpt lat="46.70387" lon="5.59361">
        <ele>356.8</ele>
        <time>2022-04-14T12:51:03Z</time>
      </trkpt>
      <trkpt lat="46.70404" lon="5.59349">
        <ele>355.6</ele>
        <time>2022-04-14T12:51:05Z</time>
      </trkpt>
      <trkpt lat="46.70424" lon="5.59334">
        <ele>354</ele>
        <time>2022-04-14T12:51:07Z</time>
      </trkpt>
      <trkpt lat="46.70452" lon="5.59314">
        <ele>353</ele>
        <time>2022-04-14T12:51:10Z</time>
      </trkpt>
      <trkpt lat="46.70461" lon="5.59309">
        <ele>351.8</ele>
        <time>2022-04-14T12:51:11Z</time>
      </trkpt>
      <trkpt lat="46.70481" lon="5.59302">
        <ele>350.4</ele>
        <time>2022-04-14T12:51:13Z</time>
      </trkpt>
      <trkpt lat="46.70491" lon="5.59301">
        <ele>349.8</ele>
        <time>2022-04-14T12:51:14Z</time>
      </trkpt>
      <trkpt lat="46.70499" lon="5.593">
        <ele>349.6</ele>
        <time>2022-04-14T12:51:15Z</time>
      </trkpt>
      <trkpt lat="46.70509" lon="5.593">
        <ele>349.2</ele>
        <time>2022-04-14T12:51:16Z</time>
      </trkpt>
      <trkpt lat="46.70551" lon="5.59301">
        <ele>348.2</ele>
        <time>2022-04-14T12:51:20Z</time>
      </trkpt>
      <trkpt lat="46.70582" lon="5.59302">
        <ele>346.6</ele>
        <time>2022-04-14T12:51:23Z</time>
      </trkpt>
      <trkpt lat="46.70613" lon="5.59303">
        <ele>345.2</ele>
        <time>2022-04-14T12:51:26Z</time>
      </trkpt>
      <trkpt lat="46.70634" lon="5.59303">
        <ele>344.2</ele>
        <time>2022-04-14T12:51:28Z</time>
      </trkpt>
      <trkpt lat="46.70664" lon="5.59304">
        <ele>343.2</ele>
        <time>2022-04-14T12:51:31Z</time>
      </trkpt>
      <trkpt lat="46.70687" lon="5.59304">
        <ele>342.4</ele>
        <time>2022-04-14T12:51:33Z</time>
      </trkpt>
      <trkpt lat="46.70698" lon="5.59304">
        <ele>341.4</ele>
        <time>2022-04-14T12:51:34Z</time>
      </trkpt>
      <trkpt lat="46.70719" lon="5.59304">
        <ele>339.6</ele>
        <time>2022-04-14T12:51:36Z</time>
      </trkpt>
      <trkpt lat="46.70748" lon="5.59305">
        <ele>338.4</ele>
        <time>2022-04-14T12:51:39Z</time>
      </trkpt>
      <trkpt lat="46.7078" lon="5.59305">
        <ele>337.2</ele>
        <time>2022-04-14T12:51:42Z</time>
      </trkpt>
      <trkpt lat="46.7079" lon="5.59305">
        <ele>336.8</ele>
        <time>2022-04-14T12:51:43Z</time>
      </trkpt>
      <trkpt lat="46.708" lon="5.59305">
        <ele>336.2</ele>
        <time>2022-04-14T12:51:44Z</time>
      </trkpt>
      <trkpt lat="46.70829" lon="5.59305">
        <ele>335</ele>
        <time>2022-04-14T12:51:47Z</time>
      </trkpt>
      <trkpt lat="46.70848" lon="5.59305">
        <ele>333.8</ele>
        <time>2022-04-14T12:51:49Z</time>
      </trkpt>
      <trkpt lat="46.70858" lon="5.59306">
        <ele>333.2</ele>
        <time>2022-04-14T12:51:50Z</time>
      </trkpt>
      <trkpt lat="46.70867" lon="5.59306">
        <ele>332.6</ele>
        <time>2022-04-14T12:51:51Z</time>
      </trkpt>
      <trkpt lat="46.70894" lon="5.59306">
        <ele>331.2</ele>
        <time>2022-04-14T12:51:54Z</time>
      </trkpt>
      <trkpt lat="46.70922" lon="5.59307">
        <ele>329.8</ele>
        <time>2022-04-14T12:51:57Z</time>
      </trkpt>
      <trkpt lat="46.7093" lon="5.59307">
        <ele>328.8</ele>
        <time>2022-04-14T12:51:58Z</time>
      </trkpt>
      <trkpt lat="46.70941" lon="5.59309">
        <ele>328.6</ele>
        <time>2022-04-14T12:51:59Z</time>
      </trkpt>
      <trkpt lat="46.70971" lon="5.59314">
        <ele>327.6</ele>
        <time>2022-04-14T12:52:02Z</time>
      </trkpt>
      <trkpt lat="46.71001" lon="5.59318">
        <ele>326.4</ele>
        <time>2022-04-14T12:52:05Z</time>
      </trkpt>
      <trkpt lat="46.71012" lon="5.59318">
        <ele>326.4</ele>
        <time>2022-04-14T12:52:06Z</time>
      </trkpt>
      <trkpt lat="46.71032" lon="5.59312">
        <ele>325.8</ele>
        <time>2022-04-14T12:52:08Z</time>
      </trkpt>
      <trkpt lat="46.71042" lon="5.59307">
        <ele>324.8</ele>
        <time>2022-04-14T12:52:09Z</time>
      </trkpt>
      <trkpt lat="46.71072" lon="5.59291">
        <ele>323.2</ele>
        <time>2022-04-14T12:52:12Z</time>
      </trkpt>
      <trkpt lat="46.71093" lon="5.59281">
        <ele>322.8</ele>
        <time>2022-04-14T12:52:14Z</time>
      </trkpt>
      <trkpt lat="46.71112" lon="5.59272">
        <ele>321.4</ele>
        <time>2022-04-14T12:52:16Z</time>
      </trkpt>
      <trkpt lat="46.71134" lon="5.59263">
        <ele>319.4</ele>
        <time>2022-04-14T12:52:18Z</time>
      </trkpt>
      <trkpt lat="46.71144" lon="5.59261">
        <ele>318.6</ele>
        <time>2022-04-14T12:52:19Z</time>
      </trkpt>
      <trkpt lat="46.71162" lon="5.59259">
        <ele>318.2</ele>
        <time>2022-04-14T12:52:21Z</time>
      </trkpt>
      <trkpt lat="46.71179" lon="5.59258">
        <ele>317.8</ele>
        <time>2022-04-14T12:52:23Z</time>
      </trkpt>
      <trkpt lat="46.71202" lon="5.59261">
        <ele>317.4</ele>
        <time>2022-04-14T12:52:26Z</time>
      </trkpt>
      <trkpt lat="46.71209" lon="5.59264">
        <ele>317.4</ele>
        <time>2022-04-14T12:52:27Z</time>
      </trkpt>
      <trkpt lat="46.71216" lon="5.59267">
        <ele>317.6</ele>
        <time>2022-04-14T12:52:28Z</time>
      </trkpt>
      <trkpt lat="46.71235" lon="5.59278">
        <ele>318</ele>
        <time>2022-04-14T12:52:31Z</time>
      </trkpt>
      <trkpt lat="46.71276" lon="5.59291">
        <ele>318.2</ele>
        <time>2022-04-14T12:52:37Z</time>
      </trkpt>
      <trkpt lat="46.71306" lon="5.59295">
        <ele>318.2</ele>
        <time>2022-04-14T12:52:41Z</time>
      </trkpt>
      <trkpt lat="46.7132" lon="5.59302">
        <ele>317.6</ele>
        <time>2022-04-14T12:52:43Z</time>
      </trkpt>
      <trkpt lat="46.71333" lon="5.59313">
        <ele>317.2</ele>
        <time>2022-04-14T12:52:45Z</time>
      </trkpt>
      <trkpt lat="46.7134" lon="5.5932">
        <ele>317.2</ele>
        <time>2022-04-14T12:52:46Z</time>
      </trkpt>
      <trkpt lat="46.71346" lon="5.59328">
        <ele>317</ele>
        <time>2022-04-14T12:52:47Z</time>
      </trkpt>
      <trkpt lat="46.71351" lon="5.59336">
        <ele>316.4</ele>
        <time>2022-04-14T12:52:48Z</time>
      </trkpt>
      <trkpt lat="46.71357" lon="5.59344">
        <ele>316</ele>
        <time>2022-04-14T12:52:49Z</time>
      </trkpt>
      <trkpt lat="46.71373" lon="5.59369">
        <ele>314.8</ele>
        <time>2022-04-14T12:52:52Z</time>
      </trkpt>
      <trkpt lat="46.71379" lon="5.59376">
        <ele>314.4</ele>
        <time>2022-04-14T12:52:53Z</time>
      </trkpt>
      <trkpt lat="46.71392" lon="5.59386">
        <ele>314.2</ele>
        <time>2022-04-14T12:52:55Z</time>
      </trkpt>
      <trkpt lat="46.71399" lon="5.59389">
        <ele>314.4</ele>
        <time>2022-04-14T12:52:56Z</time>
      </trkpt>
      <trkpt lat="46.71412" lon="5.59392">
        <ele>314.6</ele>
        <time>2022-04-14T12:52:58Z</time>
      </trkpt>
      <trkpt lat="46.71434" lon="5.59395">
        <ele>314.6</ele>
        <time>2022-04-14T12:53:01Z</time>
      </trkpt>
      <trkpt lat="46.71481" lon="5.59408">
        <ele>314.4</ele>
        <time>2022-04-14T12:53:08Z</time>
      </trkpt>
      <trkpt lat="46.71508" lon="5.59423">
        <ele>313.6</ele>
        <time>2022-04-14T12:53:12Z</time>
      </trkpt>
      <trkpt lat="46.71522" lon="5.59433">
        <ele>313.4</ele>
        <time>2022-04-14T12:53:14Z</time>
      </trkpt>
      <trkpt lat="46.71535" lon="5.59446">
        <ele>313.2</ele>
        <time>2022-04-14T12:53:16Z</time>
      </trkpt>
      <trkpt lat="46.71544" lon="5.59462">
        <ele>313</ele>
        <time>2022-04-14T12:53:18Z</time>
      </trkpt>
      <trkpt lat="46.71547" lon="5.59481">
        <ele>312.8</ele>
        <time>2022-04-14T12:53:20Z</time>
      </trkpt>
      <trkpt lat="46.71548" lon="5.59489">
        <ele>312.8</ele>
        <time>2022-04-14T12:53:21Z</time>
      </trkpt>
      <trkpt lat="46.71549" lon="5.59505">
        <ele>312.8</ele>
        <time>2022-04-14T12:53:23Z</time>
      </trkpt>
      <trkpt lat="46.71554" lon="5.59517">
        <ele>313</ele>
        <time>2022-04-14T12:53:25Z</time>
      </trkpt>
      <trkpt lat="46.71558" lon="5.59522">
        <ele>313.4</ele>
        <time>2022-04-14T12:53:26Z</time>
      </trkpt>
      <trkpt lat="46.71567" lon="5.59527">
        <ele>314.2</ele>
        <time>2022-04-14T12:53:28Z</time>
      </trkpt>
      <trkpt lat="46.71577" lon="5.59531">
        <ele>315</ele>
        <time>2022-04-14T12:53:30Z</time>
      </trkpt>
      <trkpt lat="46.71585" lon="5.59535">
        <ele>315.2</ele>
        <time>2022-04-14T12:53:32Z</time>
      </trkpt>
      <trkpt lat="46.71589" lon="5.59537">
        <ele>315.4</ele>
        <time>2022-04-14T12:53:33Z</time>
      </trkpt>
      <trkpt lat="46.71599" lon="5.59547">
        <ele>316.2</ele>
        <time>2022-04-14T12:53:36Z</time>
      </trkpt>
      <trkpt lat="46.71603" lon="5.5955">
        <ele>316.4</ele>
        <time>2022-04-14T12:53:37Z</time>
      </trkpt>
      <trkpt lat="46.71619" lon="5.59559">
        <ele>317</ele>
        <time>2022-04-14T12:53:40Z</time>
      </trkpt>
      <trkpt lat="46.7163" lon="5.59563">
        <ele>317.4</ele>
        <time>2022-04-14T12:53:42Z</time>
      </trkpt>
      <trkpt lat="46.71658" lon="5.59579">
        <ele>318</ele>
        <time>2022-04-14T12:53:47Z</time>
      </trkpt>
      <trkpt lat="46.71663" lon="5.59583">
        <ele>318</ele>
        <time>2022-04-14T12:53:48Z</time>
      </trkpt>
      <trkpt lat="46.71676" lon="5.5959">
        <ele>318</ele>
        <time>2022-04-14T12:53:50Z</time>
      </trkpt>
      <trkpt lat="46.71689" lon="5.59597">
        <ele>317.8</ele>
        <time>2022-04-14T12:53:52Z</time>
      </trkpt>
      <trkpt lat="46.717" lon="5.59606">
        <ele>317.8</ele>
        <time>2022-04-14T12:53:54Z</time>
      </trkpt>
      <trkpt lat="46.71715" lon="5.59618">
        <ele>317.8</ele>
        <time>2022-04-14T12:53:57Z</time>
      </trkpt>
      <trkpt lat="46.71718" lon="5.59623">
        <ele>317.8</ele>
        <time>2022-04-14T12:53:58Z</time>
      </trkpt>
      <trkpt lat="46.7172" lon="5.5963">
        <ele>317.8</ele>
        <time>2022-04-14T12:53:59Z</time>
      </trkpt>
      <trkpt lat="46.71719" lon="5.59643">
        <ele>318</ele>
        <time>2022-04-14T12:54:01Z</time>
      </trkpt>
      <trkpt lat="46.71715" lon="5.59659">
        <ele>318.4</ele>
        <time>2022-04-14T12:54:04Z</time>
      </trkpt>
      <trkpt lat="46.71711" lon="5.59669">
        <ele>319.2</ele>
        <time>2022-04-14T12:54:06Z</time>
      </trkpt>
      <trkpt lat="46.71709" lon="5.59673">
        <ele>319.6</ele>
        <time>2022-04-14T12:54:07Z</time>
      </trkpt>
      <trkpt lat="46.71698" lon="5.59695">
        <ele>320.8</ele>
        <time>2022-04-14T12:54:12Z</time>
      </trkpt>
      <trkpt lat="46.71694" lon="5.59705">
        <ele>321.6</ele>
        <time>2022-04-14T12:54:14Z</time>
      </trkpt>
      <trkpt lat="46.71692" lon="5.59709">
        <ele>322</ele>
        <time>2022-04-14T12:54:15Z</time>
      </trkpt>
      <trkpt lat="46.71686" lon="5.59727">
        <ele>323.2</ele>
        <time>2022-04-14T12:54:19Z</time>
      </trkpt>
      <trkpt lat="46.71684" lon="5.59732">
        <ele>323.4</ele>
        <time>2022-04-14T12:54:20Z</time>
      </trkpt>
      <trkpt lat="46.71681" lon="5.59741">
        <ele>324.4</ele>
        <time>2022-04-14T12:54:22Z</time>
      </trkpt>
      <trkpt lat="46.71679" lon="5.59757">
        <ele>325</ele>
        <time>2022-04-14T12:54:25Z</time>
      </trkpt>
      <trkpt lat="46.71683" lon="5.59766">
        <ele>325.2</ele>
        <time>2022-04-14T12:54:27Z</time>
      </trkpt>
      <trkpt lat="46.71686" lon="5.5977">
        <ele>325.4</ele>
        <time>2022-04-14T12:54:28Z</time>
      </trkpt>
      <trkpt lat="46.71694" lon="5.59777">
        <ele>326.4</ele>
        <time>2022-04-14T12:54:31Z</time>
      </trkpt>
      <trkpt lat="46.71698" lon="5.59779">
        <ele>326.8</ele>
        <time>2022-04-14T12:54:32Z</time>
      </trkpt>
      <trkpt lat="46.71726" lon="5.59799">
        <ele>327.4</ele>
        <time>2022-04-14T12:54:37Z</time>
      </trkpt>
      <trkpt lat="46.71773" lon="5.59832">
        <ele>325.8</ele>
        <time>2022-04-14T12:54:44Z</time>
      </trkpt>
      <trkpt lat="46.71779" lon="5.59837">
        <ele>325.4</ele>
        <time>2022-04-14T12:54:45Z</time>
      </trkpt>
      <trkpt lat="46.71793" lon="5.59846">
        <ele>325.2</ele>
        <time>2022-04-14T12:54:47Z</time>
      </trkpt>
      <trkpt lat="46.71823" lon="5.59869">
        <ele>324.8</ele>
        <time>2022-04-14T12:54:52Z</time>
      </trkpt>
      <trkpt lat="46.71855" lon="5.59891">
        <ele>325.4</ele>
        <time>2022-04-14T12:54:58Z</time>
      </trkpt>
      <trkpt lat="46.71882" lon="5.59903">
        <ele>326.4</ele>
        <time>2022-04-14T12:55:03Z</time>
      </trkpt>
      <trkpt lat="46.71893" lon="5.59907">
        <ele>327</ele>
        <time>2022-04-14T12:55:05Z</time>
      </trkpt>
      <trkpt lat="46.71925" lon="5.5992">
        <ele>327.6</ele>
        <time>2022-04-14T12:55:11Z</time>
      </trkpt>
      <trkpt lat="46.71946" lon="5.59931">
        <ele>328.2</ele>
        <time>2022-04-14T12:55:15Z</time>
      </trkpt>
      <trkpt lat="46.71951" lon="5.59934">
        <ele>328.2</ele>
        <time>2022-04-14T12:55:16Z</time>
      </trkpt>
      <trkpt lat="46.7197" lon="5.59954">
        <ele>328.6</ele>
        <time>2022-04-14T12:55:20Z</time>
      </trkpt>
      <trkpt lat="46.71974" lon="5.5996">
        <ele>328.8</ele>
        <time>2022-04-14T12:55:21Z</time>
      </trkpt>
      <trkpt lat="46.71991" lon="5.59991">
        <ele>329</ele>
        <time>2022-04-14T12:55:26Z</time>
      </trkpt>
      <trkpt lat="46.72015" lon="5.60032">
        <ele>329.6</ele>
        <time>2022-04-14T12:55:33Z</time>
      </trkpt>
      <trkpt lat="46.72021" lon="5.60043">
        <ele>329.8</ele>
        <time>2022-04-14T12:55:35Z</time>
      </trkpt>
      <trkpt lat="46.7203" lon="5.60068">
        <ele>330.4</ele>
        <time>2022-04-14T12:55:39Z</time>
      </trkpt>
      <trkpt lat="46.72036" lon="5.60085">
        <ele>331.2</ele>
        <time>2022-04-14T12:55:42Z</time>
      </trkpt>
      <trkpt lat="46.72041" lon="5.60095">
        <ele>331.4</ele>
        <time>2022-04-14T12:55:44Z</time>
      </trkpt>
      <trkpt lat="46.72043" lon="5.601">
        <ele>331.8</ele>
        <time>2022-04-14T12:55:45Z</time>
      </trkpt>
      <trkpt lat="46.72048" lon="5.6011">
        <ele>332.2</ele>
        <time>2022-04-14T12:55:47Z</time>
      </trkpt>
      <trkpt lat="46.72059" lon="5.60129">
        <ele>333.4</ele>
        <time>2022-04-14T12:55:51Z</time>
      </trkpt>
      <trkpt lat="46.72062" lon="5.60134">
        <ele>333.6</ele>
        <time>2022-04-14T12:55:52Z</time>
      </trkpt>
      <trkpt lat="46.72074" lon="5.60151">
        <ele>334.6</ele>
        <time>2022-04-14T12:55:56Z</time>
      </trkpt>
      <trkpt lat="46.72087" lon="5.60165">
        <ele>335.2</ele>
        <time>2022-04-14T12:56:00Z</time>
      </trkpt>
      <trkpt lat="46.72097" lon="5.60172">
        <ele>335.8</ele>
        <time>2022-04-14T12:56:03Z</time>
      </trkpt>
      <trkpt lat="46.72107" lon="5.60179">
        <ele>336.8</ele>
        <time>2022-04-14T12:56:06Z</time>
      </trkpt>
      <trkpt lat="46.72114" lon="5.60182">
        <ele>337.4</ele>
        <time>2022-04-14T12:56:08Z</time>
      </trkpt>
      <trkpt lat="46.72125" lon="5.60185">
        <ele>338</ele>
        <time>2022-04-14T12:56:11Z</time>
      </trkpt>
      <trkpt lat="46.7214" lon="5.60189">
        <ele>339</ele>
        <time>2022-04-14T12:56:15Z</time>
      </trkpt>
      <trkpt lat="46.72147" lon="5.60189">
        <ele>339.4</ele>
        <time>2022-04-14T12:56:17Z</time>
      </trkpt>
      <trkpt lat="46.72165" lon="5.60188">
        <ele>340.6</ele>
        <time>2022-04-14T12:56:22Z</time>
      </trkpt>
      <trkpt lat="46.72168" lon="5.60188">
        <ele>340.6</ele>
        <time>2022-04-14T12:56:23Z</time>
      </trkpt>
      <trkpt lat="46.72182" lon="5.60188">
        <ele>341.8</ele>
        <time>2022-04-14T12:56:27Z</time>
      </trkpt>
      <trkpt lat="46.72199" lon="5.60187">
        <ele>342.6</ele>
        <time>2022-04-14T12:56:32Z</time>
      </trkpt>
      <trkpt lat="46.72203" lon="5.60187">
        <ele>342.8</ele>
        <time>2022-04-14T12:56:33Z</time>
      </trkpt>
      <trkpt lat="46.72226" lon="5.60191">
        <ele>343.8</ele>
        <time>2022-04-14T12:56:40Z</time>
      </trkpt>
      <trkpt lat="46.72233" lon="5.60194">
        <ele>344.6</ele>
        <time>2022-04-14T12:56:42Z</time>
      </trkpt>
      <trkpt lat="46.72236" lon="5.60196">
        <ele>345.2</ele>
        <time>2022-04-14T12:56:43Z</time>
      </trkpt>
      <trkpt lat="46.7225" lon="5.6021">
        <ele>346.4</ele>
        <time>2022-04-14T12:56:48Z</time>
      </trkpt>
      <trkpt lat="46.72253" lon="5.60213">
        <ele>346.8</ele>
        <time>2022-04-14T12:56:49Z</time>
      </trkpt>
      <trkpt lat="46.72261" lon="5.60224">
        <ele>347.6</ele>
        <time>2022-04-14T12:56:52Z</time>
      </trkpt>
      <trkpt lat="46.72269" lon="5.6024">
        <ele>348.2</ele>
        <time>2022-04-14T12:56:56Z</time>
      </trkpt>
      <trkpt lat="46.7227" lon="5.60245">
        <ele>348.8</ele>
        <time>2022-04-14T12:56:57Z</time>
      </trkpt>
      <trkpt lat="46.72268" lon="5.60261">
        <ele>349.6</ele>
        <time>2022-04-14T12:57:00Z</time>
      </trkpt>
      <trkpt lat="46.72265" lon="5.60265">
        <ele>350</ele>
        <time>2022-04-14T12:57:01Z</time>
      </trkpt>
      <trkpt lat="46.72256" lon="5.60274">
        <ele>350.4</ele>
        <time>2022-04-14T12:57:04Z</time>
      </trkpt>
      <trkpt lat="46.72238" lon="5.60278">
        <ele>351.2</ele>
        <time>2022-04-14T12:57:09Z</time>
      </trkpt>
      <trkpt lat="46.72234" lon="5.60278">
        <ele>351.4</ele>
        <time>2022-04-14T12:57:10Z</time>
      </trkpt>
      <trkpt lat="46.72219" lon="5.6028">
        <ele>352.2</ele>
        <time>2022-04-14T12:57:14Z</time>
      </trkpt>
      <trkpt lat="46.72199" lon="5.60283">
        <ele>353.4</ele>
        <time>2022-04-14T12:57:19Z</time>
      </trkpt>
      <trkpt lat="46.72191" lon="5.60284">
        <ele>353.8</ele>
        <time>2022-04-14T12:57:21Z</time>
      </trkpt>
      <trkpt lat="46.72179" lon="5.60286">
        <ele>354.4</ele>
        <time>2022-04-14T12:57:24Z</time>
      </trkpt>
      <trkpt lat="46.72158" lon="5.60293">
        <ele>355.8</ele>
        <time>2022-04-14T12:57:29Z</time>
      </trkpt>
      <trkpt lat="46.72138" lon="5.60302">
        <ele>357</ele>
        <time>2022-04-14T12:57:34Z</time>
      </trkpt>
      <trkpt lat="46.72121" lon="5.60309">
        <ele>357.8</ele>
        <time>2022-04-14T12:57:38Z</time>
      </trkpt>
      <trkpt lat="46.72117" lon="5.6031">
        <ele>358.2</ele>
        <time>2022-04-14T12:57:39Z</time>
      </trkpt>
      <trkpt lat="46.72112" lon="5.60312">
        <ele>358.2</ele>
        <time>2022-04-14T12:57:40Z</time>
      </trkpt>
      <trkpt lat="46.72097" lon="5.6032">
        <ele>359</ele>
        <time>2022-04-14T12:57:44Z</time>
      </trkpt>
      <trkpt lat="46.72089" lon="5.60323">
        <ele>359.4</ele>
        <time>2022-04-14T12:57:46Z</time>
      </trkpt>
      <trkpt lat="46.72072" lon="5.60324">
        <ele>360.4</ele>
        <time>2022-04-14T12:57:50Z</time>
      </trkpt>
      <trkpt lat="46.72068" lon="5.60323">
        <ele>360.6</ele>
        <time>2022-04-14T12:57:51Z</time>
      </trkpt>
      <trkpt lat="46.72059" lon="5.6032">
        <ele>361.2</ele>
        <time>2022-04-14T12:57:53Z</time>
      </trkpt>
      <trkpt lat="46.72052" lon="5.60315">
        <ele>361.6</ele>
        <time>2022-04-14T12:57:55Z</time>
      </trkpt>
      <trkpt lat="46.72041" lon="5.60309">
        <ele>362</ele>
        <time>2022-04-14T12:57:58Z</time>
      </trkpt>
      <trkpt lat="46.72031" lon="5.60301">
        <ele>362.6</ele>
        <time>2022-04-14T12:58:01Z</time>
      </trkpt>
      <trkpt lat="46.72021" lon="5.60293">
        <ele>363.8</ele>
        <time>2022-04-14T12:58:04Z</time>
      </trkpt>
      <trkpt lat="46.72015" lon="5.60287">
        <ele>364.6</ele>
        <time>2022-04-14T12:58:06Z</time>
      </trkpt>
      <trkpt lat="46.72012" lon="5.60284">
        <ele>364.8</ele>
        <time>2022-04-14T12:58:07Z</time>
      </trkpt>
      <trkpt lat="46.72008" lon="5.60282">
        <ele>365.2</ele>
        <time>2022-04-14T12:58:08Z</time>
      </trkpt>
      <trkpt lat="46.71997" lon="5.60273">
        <ele>366.2</ele>
        <time>2022-04-14T12:58:11Z</time>
      </trkpt>
      <trkpt lat="46.71987" lon="5.60264">
        <ele>367</ele>
        <time>2022-04-14T12:58:14Z</time>
      </trkpt>
      <trkpt lat="46.71984" lon="5.60261">
        <ele>367.4</ele>
        <time>2022-04-14T12:58:15Z</time>
      </trkpt>
      <trkpt lat="46.71973" lon="5.60251">
        <ele>367.8</ele>
        <time>2022-04-14T12:58:18Z</time>
      </trkpt>
      <trkpt lat="46.71967" lon="5.60243">
        <ele>368.2</ele>
        <time>2022-04-14T12:58:20Z</time>
      </trkpt>
      <trkpt lat="46.71963" lon="5.6024">
        <ele>368.2</ele>
        <time>2022-04-14T12:58:21Z</time>
      </trkpt>
      <trkpt lat="46.71946" lon="5.60228">
        <ele>369.2</ele>
        <time>2022-04-14T12:58:26Z</time>
      </trkpt>
      <trkpt lat="46.71933" lon="5.60219">
        <ele>370.4</ele>
        <time>2022-04-14T12:58:30Z</time>
      </trkpt>
      <trkpt lat="46.71929" lon="5.60216">
        <ele>370.6</ele>
        <time>2022-04-14T12:58:31Z</time>
      </trkpt>
      <trkpt lat="46.71919" lon="5.60211">
        <ele>371.6</ele>
        <time>2022-04-14T12:58:34Z</time>
      </trkpt>
      <trkpt lat="46.71909" lon="5.60207">
        <ele>372.2</ele>
        <time>2022-04-14T12:58:37Z</time>
      </trkpt>
      <trkpt lat="46.71902" lon="5.60204">
        <ele>372.8</ele>
        <time>2022-04-14T12:58:39Z</time>
      </trkpt>
      <trkpt lat="46.71895" lon="5.60202">
        <ele>373.4</ele>
        <time>2022-04-14T12:58:41Z</time>
      </trkpt>
      <trkpt lat="46.71885" lon="5.60199">
        <ele>374</ele>
        <time>2022-04-14T12:58:44Z</time>
      </trkpt>
      <trkpt lat="46.7187" lon="5.60197">
        <ele>374.8</ele>
        <time>2022-04-14T12:58:48Z</time>
      </trkpt>
      <trkpt lat="46.7186" lon="5.60197">
        <ele>375.6</ele>
        <time>2022-04-14T12:58:51Z</time>
      </trkpt>
      <trkpt lat="46.71852" lon="5.60197">
        <ele>376.2</ele>
        <time>2022-04-14T12:58:53Z</time>
      </trkpt>
      <trkpt lat="46.71834" lon="5.602">
        <ele>377.4</ele>
        <time>2022-04-14T12:58:58Z</time>
      </trkpt>
      <trkpt lat="46.71823" lon="5.60202">
        <ele>378</ele>
        <time>2022-04-14T12:59:01Z</time>
      </trkpt>
      <trkpt lat="46.71813" lon="5.60204">
        <ele>378.6</ele>
        <time>2022-04-14T12:59:04Z</time>
      </trkpt>
      <trkpt lat="46.71795" lon="5.60209">
        <ele>379.8</ele>
        <time>2022-04-14T12:59:09Z</time>
      </trkpt>
      <trkpt lat="46.71788" lon="5.60211">
        <ele>380.4</ele>
        <time>2022-04-14T12:59:11Z</time>
      </trkpt>
      <trkpt lat="46.71784" lon="5.60212">
        <ele>380.6</ele>
        <time>2022-04-14T12:59:12Z</time>
      </trkpt>
      <trkpt lat="46.71777" lon="5.60214">
        <ele>381</ele>
        <time>2022-04-14T12:59:14Z</time>
      </trkpt>
      <trkpt lat="46.71759" lon="5.60219">
        <ele>382</ele>
        <time>2022-04-14T12:59:19Z</time>
      </trkpt>
      <trkpt lat="46.71745" lon="5.60224">
        <ele>383.2</ele>
        <time>2022-04-14T12:59:23Z</time>
      </trkpt>
      <trkpt lat="46.71731" lon="5.60228">
        <ele>384.2</ele>
        <time>2022-04-14T12:59:27Z</time>
      </trkpt>
      <trkpt lat="46.71713" lon="5.60232">
        <ele>385.4</ele>
        <time>2022-04-14T12:59:32Z</time>
      </trkpt>
      <trkpt lat="46.71709" lon="5.60232">
        <ele>385.6</ele>
        <time>2022-04-14T12:59:33Z</time>
      </trkpt>
      <trkpt lat="46.71699" lon="5.60231">
        <ele>386.6</ele>
        <time>2022-04-14T12:59:36Z</time>
      </trkpt>
      <trkpt lat="46.71676" lon="5.60228">
        <ele>387.6</ele>
        <time>2022-04-14T12:59:42Z</time>
      </trkpt>
      <trkpt lat="46.71654" lon="5.60228">
        <ele>388.6</ele>
        <time>2022-04-14T12:59:48Z</time>
      </trkpt>
      <trkpt lat="46.7165" lon="5.60228">
        <ele>388.8</ele>
        <time>2022-04-14T12:59:49Z</time>
      </trkpt>
      <trkpt lat="46.7163" lon="5.6023">
        <ele>389.6</ele>
        <time>2022-04-14T12:59:54Z</time>
      </trkpt>
      <trkpt lat="46.71621" lon="5.6023">
        <ele>390.2</ele>
        <time>2022-04-14T12:59:56Z</time>
      </trkpt>
      <trkpt lat="46.71617" lon="5.6023">
        <ele>390.8</ele>
        <time>2022-04-14T12:59:57Z</time>
      </trkpt>
      <trkpt lat="46.716" lon="5.60228">
        <ele>391.8</ele>
        <time>2022-04-14T13:00:01Z</time>
      </trkpt>
      <trkpt lat="46.71587" lon="5.60224">
        <ele>392.4</ele>
        <time>2022-04-14T13:00:04Z</time>
      </trkpt>
      <trkpt lat="46.71579" lon="5.6022">
        <ele>392.8</ele>
        <time>2022-04-14T13:00:06Z</time>
      </trkpt>
      <trkpt lat="46.71559" lon="5.60211">
        <ele>393.4</ele>
        <time>2022-04-14T13:00:11Z</time>
      </trkpt>
      <trkpt lat="46.71548" lon="5.60202">
        <ele>394</ele>
        <time>2022-04-14T13:00:14Z</time>
      </trkpt>
      <trkpt lat="46.71543" lon="5.60198">
        <ele>394.4</ele>
        <time>2022-04-14T13:00:15Z</time>
      </trkpt>
      <trkpt lat="46.71534" lon="5.60192">
        <ele>395.2</ele>
        <time>2022-04-14T13:00:17Z</time>
      </trkpt>
      <trkpt lat="46.71525" lon="5.60188">
        <ele>395.8</ele>
        <time>2022-04-14T13:00:19Z</time>
      </trkpt>
      <trkpt lat="46.7152" lon="5.60186">
        <ele>395.8</ele>
        <time>2022-04-14T13:00:20Z</time>
      </trkpt>
      <trkpt lat="46.71516" lon="5.60182">
        <ele>396</ele>
        <time>2022-04-14T13:00:21Z</time>
      </trkpt>
      <trkpt lat="46.71507" lon="5.60178">
        <ele>396.2</ele>
        <time>2022-04-14T13:00:23Z</time>
      </trkpt>
      <trkpt lat="46.71503" lon="5.60175">
        <ele>396.2</ele>
        <time>2022-04-14T13:00:24Z</time>
      </trkpt>
      <trkpt lat="46.71498" lon="5.60172">
        <ele>396.6</ele>
        <time>2022-04-14T13:00:25Z</time>
      </trkpt>
      <trkpt lat="46.71491" lon="5.60164">
        <ele>396.8</ele>
        <time>2022-04-14T13:00:27Z</time>
      </trkpt>
      <trkpt lat="46.71484" lon="5.60156">
        <ele>397</ele>
        <time>2022-04-14T13:00:29Z</time>
      </trkpt>
      <trkpt lat="46.7148" lon="5.60153">
        <ele>397.4</ele>
        <time>2022-04-14T13:00:30Z</time>
      </trkpt>
      <trkpt lat="46.71475" lon="5.60148">
        <ele>397.4</ele>
        <time>2022-04-14T13:00:31Z</time>
      </trkpt>
      <trkpt lat="46.71471" lon="5.60145">
        <ele>397.8</ele>
        <time>2022-04-14T13:00:32Z</time>
      </trkpt>
      <trkpt lat="46.71461" lon="5.60137">
        <ele>398.4</ele>
        <time>2022-04-14T13:00:35Z</time>
      </trkpt>
      <trkpt lat="46.71452" lon="5.60134">
        <ele>398.8</ele>
        <time>2022-04-14T13:00:37Z</time>
      </trkpt>
      <trkpt lat="46.71423" lon="5.60115">
        <ele>399.4</ele>
        <time>2022-04-14T13:00:43Z</time>
      </trkpt>
      <trkpt lat="46.71419" lon="5.6011">
        <ele>399.6</ele>
        <time>2022-04-14T13:00:44Z</time>
      </trkpt>
      <trkpt lat="46.71403" lon="5.60094">
        <ele>400.6</ele>
        <time>2022-04-14T13:00:49Z</time>
      </trkpt>
      <trkpt lat="46.71392" lon="5.6008">
        <ele>401</ele>
        <time>2022-04-14T13:00:52Z</time>
      </trkpt>
      <trkpt lat="46.71383" lon="5.60074">
        <ele>401.2</ele>
        <time>2022-04-14T13:00:54Z</time>
      </trkpt>
      <trkpt lat="46.71379" lon="5.60074">
        <ele>401.4</ele>
        <time>2022-04-14T13:00:55Z</time>
      </trkpt>
      <trkpt lat="46.71375" lon="5.60077">
        <ele>401.6</ele>
        <time>2022-04-14T13:00:56Z</time>
      </trkpt>
      <trkpt lat="46.71372" lon="5.60086">
        <ele>401.8</ele>
        <time>2022-04-14T13:00:58Z</time>
      </trkpt>
      <trkpt lat="46.71377" lon="5.601">
        <ele>402.2</ele>
        <time>2022-04-14T13:01:01Z</time>
      </trkpt>
      <trkpt lat="46.71385" lon="5.60108">
        <ele>402.6</ele>
        <time>2022-04-14T13:01:04Z</time>
      </trkpt>
      <trkpt lat="46.71391" lon="5.60114">
        <ele>403</ele>
        <time>2022-04-14T13:01:06Z</time>
      </trkpt>
      <trkpt lat="46.71405" lon="5.60128">
        <ele>403.8</ele>
        <time>2022-04-14T13:01:11Z</time>
      </trkpt>
      <trkpt lat="46.71408" lon="5.60131">
        <ele>404</ele>
        <time>2022-04-14T13:01:12Z</time>
      </trkpt>
      <trkpt lat="46.7142" lon="5.60143">
        <ele>404.8</ele>
        <time>2022-04-14T13:01:16Z</time>
      </trkpt>
      <trkpt lat="46.71422" lon="5.60146">
        <ele>405.4</ele>
        <time>2022-04-14T13:01:17Z</time>
      </trkpt>
      <trkpt lat="46.71426" lon="5.60154">
        <ele>405.8</ele>
        <time>2022-04-14T13:01:19Z</time>
      </trkpt>
      <trkpt lat="46.71428" lon="5.60158">
        <ele>405.8</ele>
        <time>2022-04-14T13:01:20Z</time>
      </trkpt>
      <trkpt lat="46.71431" lon="5.60162">
        <ele>406</ele>
        <time>2022-04-14T13:01:21Z</time>
      </trkpt>
      <trkpt lat="46.71438" lon="5.6017">
        <ele>407</ele>
        <time>2022-04-14T13:01:24Z</time>
      </trkpt>
      <trkpt lat="46.71448" lon="5.60179">
        <ele>407.8</ele>
        <time>2022-04-14T13:01:27Z</time>
      </trkpt>
      <trkpt lat="46.71455" lon="5.60186">
        <ele>408</ele>
        <time>2022-04-14T13:01:29Z</time>
      </trkpt>
      <trkpt lat="46.71459" lon="5.60189">
        <ele>408.2</ele>
        <time>2022-04-14T13:01:30Z</time>
      </trkpt>
      <trkpt lat="46.71469" lon="5.60196">
        <ele>408.6</ele>
        <time>2022-04-14T13:01:32Z</time>
      </trkpt>
      <trkpt lat="46.71473" lon="5.602">
        <ele>409</ele>
        <time>2022-04-14T13:01:33Z</time>
      </trkpt>
      <trkpt lat="46.71477" lon="5.60203">
        <ele>409.2</ele>
        <time>2022-04-14T13:01:34Z</time>
      </trkpt>
      <trkpt lat="46.71483" lon="5.6021">
        <ele>409.8</ele>
        <time>2022-04-14T13:01:36Z</time>
      </trkpt>
      <trkpt lat="46.71486" lon="5.60213">
        <ele>410.4</ele>
        <time>2022-04-14T13:01:37Z</time>
      </trkpt>
      <trkpt lat="46.71488" lon="5.60216">
        <ele>410.8</ele>
        <time>2022-04-14T13:01:38Z</time>
      </trkpt>
      <trkpt lat="46.71491" lon="5.60222">
        <ele>411.2</ele>
        <time>2022-04-14T13:01:40Z</time>
      </trkpt>
      <trkpt lat="46.71494" lon="5.60229">
        <ele>411.8</ele>
        <time>2022-04-14T13:01:42Z</time>
      </trkpt>
      <trkpt lat="46.71506" lon="5.60249">
        <ele>412.8</ele>
        <time>2022-04-14T13:01:47Z</time>
      </trkpt>
      <trkpt lat="46.71508" lon="5.60252">
        <ele>413</ele>
        <time>2022-04-14T13:01:48Z</time>
      </trkpt>
      <trkpt lat="46.71519" lon="5.60263">
        <ele>414</ele>
        <time>2022-04-14T13:01:52Z</time>
      </trkpt>
      <trkpt lat="46.71526" lon="5.60269">
        <ele>414.8</ele>
        <time>2022-04-14T13:01:54Z</time>
      </trkpt>
      <trkpt lat="46.71529" lon="5.60271">
        <ele>415</ele>
        <time>2022-04-14T13:01:55Z</time>
      </trkpt>
      <trkpt lat="46.71545" lon="5.60285">
        <ele>416</ele>
        <time>2022-04-14T13:01:59Z</time>
      </trkpt>
      <trkpt lat="46.71549" lon="5.60287">
        <ele>416.4</ele>
        <time>2022-04-14T13:02:00Z</time>
      </trkpt>
      <trkpt lat="46.71553" lon="5.60289">
        <ele>416.8</ele>
        <time>2022-04-14T13:02:01Z</time>
      </trkpt>
      <trkpt lat="46.71561" lon="5.60295">
        <ele>417.2</ele>
        <time>2022-04-14T13:02:03Z</time>
      </trkpt>
      <trkpt lat="46.7157" lon="5.60301">
        <ele>417.6</ele>
        <time>2022-04-14T13:02:05Z</time>
      </trkpt>
      <trkpt lat="46.71583" lon="5.60307">
        <ele>418.2</ele>
        <time>2022-04-14T13:02:08Z</time>
      </trkpt>
      <trkpt lat="46.71596" lon="5.60313">
        <ele>418.4</ele>
        <time>2022-04-14T13:02:11Z</time>
      </trkpt>
      <trkpt lat="46.71607" lon="5.60319">
        <ele>419.4</ele>
        <time>2022-04-14T13:02:14Z</time>
      </trkpt>
      <trkpt lat="46.71628" lon="5.60328">
        <ele>420.4</ele>
        <time>2022-04-14T13:02:20Z</time>
      </trkpt>
      <trkpt lat="46.71634" lon="5.6033">
        <ele>420.4</ele>
        <time>2022-04-14T13:02:22Z</time>
      </trkpt>
      <trkpt lat="46.7164" lon="5.60331">
        <ele>421.4</ele>
        <time>2022-04-14T13:02:24Z</time>
      </trkpt>
      <trkpt lat="46.71645" lon="5.60335">
        <ele>421.8</ele>
        <time>2022-04-14T13:02:26Z</time>
      </trkpt>
      <trkpt lat="46.71653" lon="5.60341">
        <ele>422.4</ele>
        <time>2022-04-14T13:02:29Z</time>
      </trkpt>
      <trkpt lat="46.71663" lon="5.60344">
        <ele>423</ele>
        <time>2022-04-14T13:02:32Z</time>
      </trkpt>
      <trkpt lat="46.71667" lon="5.60347">
        <ele>423.6</ele>
        <time>2022-04-14T13:02:33Z</time>
      </trkpt>
      <trkpt lat="46.71695" lon="5.60362">
        <ele>425</ele>
        <time>2022-04-14T13:02:40Z</time>
      </trkpt>
      <trkpt lat="46.71705" lon="5.60367">
        <ele>425.6</ele>
        <time>2022-04-14T13:02:43Z</time>
      </trkpt>
      <trkpt lat="46.71713" lon="5.60369">
        <ele>426.2</ele>
        <time>2022-04-14T13:02:45Z</time>
      </trkpt>
      <trkpt lat="46.7172" lon="5.60372">
        <ele>426.4</ele>
        <time>2022-04-14T13:02:47Z</time>
      </trkpt>
      <trkpt lat="46.71728" lon="5.60376">
        <ele>427.2</ele>
        <time>2022-04-14T13:02:49Z</time>
      </trkpt>
      <trkpt lat="46.71742" lon="5.60387">
        <ele>428.2</ele>
        <time>2022-04-14T13:02:53Z</time>
      </trkpt>
      <trkpt lat="46.71745" lon="5.6039">
        <ele>428.4</ele>
        <time>2022-04-14T13:02:54Z</time>
      </trkpt>
      <trkpt lat="46.7176" lon="5.60398">
        <ele>429.2</ele>
        <time>2022-04-14T13:02:59Z</time>
      </trkpt>
      <trkpt lat="46.71765" lon="5.604">
        <ele>429.6</ele>
        <time>2022-04-14T13:03:00Z</time>
      </trkpt>
      <trkpt lat="46.71785" lon="5.60414">
        <ele>430.8</ele>
        <time>2022-04-14T13:03:06Z</time>
      </trkpt>
      <trkpt lat="46.71793" lon="5.60421">
        <ele>431.4</ele>
        <time>2022-04-14T13:03:08Z</time>
      </trkpt>
      <trkpt lat="46.71799" lon="5.60426">
        <ele>431.8</ele>
        <time>2022-04-14T13:03:10Z</time>
      </trkpt>
      <trkpt lat="46.71813" lon="5.6044">
        <ele>432.6</ele>
        <time>2022-04-14T13:03:15Z</time>
      </trkpt>
      <trkpt lat="46.71819" lon="5.60446">
        <ele>433.2</ele>
        <time>2022-04-14T13:03:17Z</time>
      </trkpt>
      <trkpt lat="46.7183" lon="5.60456">
        <ele>434.4</ele>
        <time>2022-04-14T13:03:21Z</time>
      </trkpt>
      <trkpt lat="46.71835" lon="5.6046">
        <ele>434.8</ele>
        <time>2022-04-14T13:03:23Z</time>
      </trkpt>
      <trkpt lat="46.71843" lon="5.60468">
        <ele>435.6</ele>
        <time>2022-04-14T13:03:26Z</time>
      </trkpt>
      <trkpt lat="46.71855" lon="5.60478">
        <ele>436.6</ele>
        <time>2022-04-14T13:03:30Z</time>
      </trkpt>
      <trkpt lat="46.71868" lon="5.60488">
        <ele>437.6</ele>
        <time>2022-04-14T13:03:35Z</time>
      </trkpt>
      <trkpt lat="46.71884" lon="5.605">
        <ele>438.6</ele>
        <time>2022-04-14T13:03:40Z</time>
      </trkpt>
      <trkpt lat="46.7189" lon="5.60505">
        <ele>439</ele>
        <time>2022-04-14T13:03:42Z</time>
      </trkpt>
      <trkpt lat="46.719" lon="5.60511">
        <ele>440</ele>
        <time>2022-04-14T13:03:45Z</time>
      </trkpt>
      <trkpt lat="46.71903" lon="5.60513">
        <ele>440.2</ele>
        <time>2022-04-14T13:03:46Z</time>
      </trkpt>
      <trkpt lat="46.71912" lon="5.6052">
        <ele>441.2</ele>
        <time>2022-04-14T13:03:49Z</time>
      </trkpt>
      <trkpt lat="46.71926" lon="5.60528">
        <ele>441.8</ele>
        <time>2022-04-14T13:03:53Z</time>
      </trkpt>
      <trkpt lat="46.71936" lon="5.60537">
        <ele>442.2</ele>
        <time>2022-04-14T13:03:56Z</time>
      </trkpt>
      <trkpt lat="46.71951" lon="5.60553">
        <ele>443.4</ele>
        <time>2022-04-14T13:04:01Z</time>
      </trkpt>
      <trkpt lat="46.71954" lon="5.60557">
        <ele>443.4</ele>
        <time>2022-04-14T13:04:02Z</time>
      </trkpt>
      <trkpt lat="46.71962" lon="5.60566">
        <ele>444.4</ele>
        <time>2022-04-14T13:04:05Z</time>
      </trkpt>
      <trkpt lat="46.71972" lon="5.60575">
        <ele>445.4</ele>
        <time>2022-04-14T13:04:08Z</time>
      </trkpt>
      <trkpt lat="46.71983" lon="5.60591">
        <ele>446.2</ele>
        <time>2022-04-14T13:04:13Z</time>
      </trkpt>
      <trkpt lat="46.71985" lon="5.60594">
        <ele>446.4</ele>
        <time>2022-04-14T13:04:14Z</time>
      </trkpt>
      <trkpt lat="46.71995" lon="5.60604">
        <ele>447.2</ele>
        <time>2022-04-14T13:04:18Z</time>
      </trkpt>
      <trkpt lat="46.71998" lon="5.60607">
        <ele>447.6</ele>
        <time>2022-04-14T13:04:19Z</time>
      </trkpt>
      <trkpt lat="46.7201" lon="5.60624">
        <ele>448.4</ele>
        <time>2022-04-14T13:04:23Z</time>
      </trkpt>
      <trkpt lat="46.72012" lon="5.60629">
        <ele>448.8</ele>
        <time>2022-04-14T13:04:24Z</time>
      </trkpt>
      <trkpt lat="46.72018" lon="5.60642">
        <ele>450</ele>
        <time>2022-04-14T13:04:29Z</time>
      </trkpt>
      <trkpt lat="46.72023" lon="5.60646">
        <ele>450.2</ele>
        <time>2022-04-14T13:04:30Z</time>
      </trkpt>
      <trkpt lat="46.72039" lon="5.60661">
        <ele>450.8</ele>
        <time>2022-04-14T13:04:33Z</time>
      </trkpt>
      <trkpt lat="46.72042" lon="5.60665">
        <ele>450.8</ele>
        <time>2022-04-14T13:04:34Z</time>
      </trkpt>
      <trkpt lat="46.72045" lon="5.60668">
        <ele>451</ele>
        <time>2022-04-14T13:04:35Z</time>
      </trkpt>
      <trkpt lat="46.72056" lon="5.60675">
        <ele>451.6</ele>
        <time>2022-04-14T13:04:38Z</time>
      </trkpt>
      <trkpt lat="46.72059" lon="5.60679">
        <ele>452</ele>
        <time>2022-04-14T13:04:39Z</time>
      </trkpt>
      <trkpt lat="46.72063" lon="5.60682">
        <ele>452.6</ele>
        <time>2022-04-14T13:04:40Z</time>
      </trkpt>
      <trkpt lat="46.72065" lon="5.60692">
        <ele>453</ele>
        <time>2022-04-14T13:04:42Z</time>
      </trkpt>
      <trkpt lat="46.72073" lon="5.60704">
        <ele>453.8</ele>
        <time>2022-04-14T13:04:45Z</time>
      </trkpt>
      <trkpt lat="46.72083" lon="5.60713">
        <ele>454.2</ele>
        <time>2022-04-14T13:04:47Z</time>
      </trkpt>
      <trkpt lat="46.72086" lon="5.60718">
        <ele>454.4</ele>
        <time>2022-04-14T13:04:48Z</time>
      </trkpt>
      <trkpt lat="46.7209" lon="5.60727">
        <ele>454.8</ele>
        <time>2022-04-14T13:04:50Z</time>
      </trkpt>
      <trkpt lat="46.72095" lon="5.60734">
        <ele>455.6</ele>
        <time>2022-04-14T13:04:53Z</time>
      </trkpt>
      <trkpt lat="46.72098" lon="5.60735">
        <ele>456</ele>
        <time>2022-04-14T13:04:54Z</time>
      </trkpt>
      <trkpt lat="46.72112" lon="5.60741">
        <ele>457.2</ele>
        <time>2022-04-14T13:04:58Z</time>
      </trkpt>
      <trkpt lat="46.72115" lon="5.60742">
        <ele>457.6</ele>
        <time>2022-04-14T13:04:59Z</time>
      </trkpt>
      <trkpt lat="46.7213" lon="5.60745">
        <ele>458.4</ele>
        <time>2022-04-14T13:05:04Z</time>
      </trkpt>
      <trkpt lat="46.72142" lon="5.60746">
        <ele>459.4</ele>
        <time>2022-04-14T13:05:08Z</time>
      </trkpt>
      <trkpt lat="46.72147" lon="5.6075">
        <ele>459.8</ele>
        <time>2022-04-14T13:05:10Z</time>
      </trkpt>
      <trkpt lat="46.72156" lon="5.60765">
        <ele>460.6</ele>
        <time>2022-04-14T13:05:14Z</time>
      </trkpt>
      <trkpt lat="46.72157" lon="5.60769">
        <ele>461</ele>
        <time>2022-04-14T13:05:15Z</time>
      </trkpt>
      <trkpt lat="46.72151" lon="5.60789">
        <ele>461.8</ele>
        <time>2022-04-14T13:05:19Z</time>
      </trkpt>
      <trkpt lat="46.72148" lon="5.60791">
        <ele>462</ele>
        <time>2022-04-14T13:05:20Z</time>
      </trkpt>
      <trkpt lat="46.72142" lon="5.60795">
        <ele>462.8</ele>
        <time>2022-04-14T13:05:22Z</time>
      </trkpt>
      <trkpt lat="46.72139" lon="5.60796">
        <ele>463</ele>
        <time>2022-04-14T13:05:23Z</time>
      </trkpt>
      <trkpt lat="46.72126" lon="5.60797">
        <ele>464.2</ele>
        <time>2022-04-14T13:05:28Z</time>
      </trkpt>
      <trkpt lat="46.72113" lon="5.60799">
        <ele>465.2</ele>
        <time>2022-04-14T13:05:33Z</time>
      </trkpt>
      <trkpt lat="46.72103" lon="5.60801">
        <ele>465.8</ele>
        <time>2022-04-14T13:05:36Z</time>
      </trkpt>
      <trkpt lat="46.72094" lon="5.60805">
        <ele>466.4</ele>
        <time>2022-04-14T13:05:39Z</time>
      </trkpt>
      <trkpt lat="46.72081" lon="5.60813">
        <ele>467.4</ele>
        <time>2022-04-14T13:05:43Z</time>
      </trkpt>
      <trkpt lat="46.72078" lon="5.60817">
        <ele>467.4</ele>
        <time>2022-04-14T13:05:44Z</time>
      </trkpt>
      <trkpt lat="46.72072" lon="5.60833">
        <ele>467.8</ele>
        <time>2022-04-14T13:05:47Z</time>
      </trkpt>
      <trkpt lat="46.72073" lon="5.60852">
        <ele>467.8</ele>
        <time>2022-04-14T13:05:50Z</time>
      </trkpt>
      <trkpt lat="46.72075" lon="5.60866">
        <ele>467.8</ele>
        <time>2022-04-14T13:05:52Z</time>
      </trkpt>
      <trkpt lat="46.7207" lon="5.60895">
        <ele>467</ele>
        <time>2022-04-14T13:05:56Z</time>
      </trkpt>
      <trkpt lat="46.7206" lon="5.60912">
        <ele>466.8</ele>
        <time>2022-04-14T13:05:58Z</time>
      </trkpt>
      <trkpt lat="46.72048" lon="5.60926">
        <ele>466.6</ele>
        <time>2022-04-14T13:06:00Z</time>
      </trkpt>
      <trkpt lat="46.7203" lon="5.60941">
        <ele>466.4</ele>
        <time>2022-04-14T13:06:03Z</time>
      </trkpt>
      <trkpt lat="46.72018" lon="5.60948">
        <ele>466.2</ele>
        <time>2022-04-14T13:06:05Z</time>
      </trkpt>
      <trkpt lat="46.72013" lon="5.6095">
        <ele>466.2</ele>
        <time>2022-04-14T13:06:06Z</time>
      </trkpt>
      <trkpt lat="46.72002" lon="5.60953">
        <ele>466.4</ele>
        <time>2022-04-14T13:06:08Z</time>
      </trkpt>
      <trkpt lat="46.71996" lon="5.60953">
        <ele>466.4</ele>
        <time>2022-04-14T13:06:09Z</time>
      </trkpt>
      <trkpt lat="46.71974" lon="5.60959">
        <ele>466.6</ele>
        <time>2022-04-14T13:06:13Z</time>
      </trkpt>
      <trkpt lat="46.71959" lon="5.60967">
        <ele>466.8</ele>
        <time>2022-04-14T13:06:16Z</time>
      </trkpt>
      <trkpt lat="46.71952" lon="5.60978">
        <ele>467</ele>
        <time>2022-04-14T13:06:18Z</time>
      </trkpt>
      <trkpt lat="46.71947" lon="5.60993">
        <ele>467</ele>
        <time>2022-04-14T13:06:20Z</time>
      </trkpt>
      <trkpt lat="46.71942" lon="5.61009">
        <ele>467</ele>
        <time>2022-04-14T13:06:22Z</time>
      </trkpt>
      <trkpt lat="46.7194" lon="5.61019">
        <ele>467</ele>
        <time>2022-04-14T13:06:23Z</time>
      </trkpt>
      <trkpt lat="46.71938" lon="5.61049">
        <ele>466.6</ele>
        <time>2022-04-14T13:06:26Z</time>
      </trkpt>
      <trkpt lat="46.71937" lon="5.61069">
        <ele>466.4</ele>
        <time>2022-04-14T13:06:28Z</time>
      </trkpt>
      <trkpt lat="46.71934" lon="5.61087">
        <ele>466.4</ele>
        <time>2022-04-14T13:06:30Z</time>
      </trkpt>
      <trkpt lat="46.71931" lon="5.61095">
        <ele>466</ele>
        <time>2022-04-14T13:06:31Z</time>
      </trkpt>
      <trkpt lat="46.71915" lon="5.61118">
        <ele>465.2</ele>
        <time>2022-04-14T13:06:34Z</time>
      </trkpt>
      <trkpt lat="46.71901" lon="5.61128">
        <ele>464.8</ele>
        <time>2022-04-14T13:06:36Z</time>
      </trkpt>
      <trkpt lat="46.71887" lon="5.61139">
        <ele>464.4</ele>
        <time>2022-04-14T13:06:38Z</time>
      </trkpt>
      <trkpt lat="46.71876" lon="5.61154">
        <ele>464</ele>
        <time>2022-04-14T13:06:40Z</time>
      </trkpt>
      <trkpt lat="46.71864" lon="5.61171">
        <ele>463.6</ele>
        <time>2022-04-14T13:06:42Z</time>
      </trkpt>
      <trkpt lat="46.71852" lon="5.61193">
        <ele>463.2</ele>
        <time>2022-04-14T13:06:44Z</time>
      </trkpt>
      <trkpt lat="46.71846" lon="5.61204">
        <ele>462.4</ele>
        <time>2022-04-14T13:06:45Z</time>
      </trkpt>
      <trkpt lat="46.71835" lon="5.61236">
        <ele>461</ele>
        <time>2022-04-14T13:06:47Z</time>
      </trkpt>
      <trkpt lat="46.71831" lon="5.61252">
        <ele>460.4</ele>
        <time>2022-04-14T13:06:48Z</time>
      </trkpt>
      <trkpt lat="46.71828" lon="5.61267">
        <ele>459.4</ele>
        <time>2022-04-14T13:06:49Z</time>
      </trkpt>
      <trkpt lat="46.71822" lon="5.61297">
        <ele>458.4</ele>
        <time>2022-04-14T13:06:51Z</time>
      </trkpt>
      <trkpt lat="46.71812" lon="5.61341">
        <ele>457.4</ele>
        <time>2022-04-14T13:06:54Z</time>
      </trkpt>
      <trkpt lat="46.71809" lon="5.61353">
        <ele>457.4</ele>
        <time>2022-04-14T13:06:55Z</time>
      </trkpt>
      <trkpt lat="46.71793" lon="5.61429">
        <ele>457.2</ele>
        <time>2022-04-14T13:07:01Z</time>
      </trkpt>
      <trkpt lat="46.71778" lon="5.61471">
        <ele>456.8</ele>
        <time>2022-04-14T13:07:04Z</time>
      </trkpt>
      <trkpt lat="46.71772" lon="5.61482">
        <ele>456.6</ele>
        <time>2022-04-14T13:07:05Z</time>
      </trkpt>
      <trkpt lat="46.71749" lon="5.61531">
        <ele>456.4</ele>
        <time>2022-04-14T13:07:10Z</time>
      </trkpt>
      <trkpt lat="46.71744" lon="5.61548">
        <ele>456.6</ele>
        <time>2022-04-14T13:07:12Z</time>
      </trkpt>
      <trkpt lat="46.71741" lon="5.61566">
        <ele>457.4</ele>
        <time>2022-04-14T13:07:14Z</time>
      </trkpt>
      <trkpt lat="46.71739" lon="5.61575">
        <ele>458.6</ele>
        <time>2022-04-14T13:07:15Z</time>
      </trkpt>
      <trkpt lat="46.71732" lon="5.61607">
        <ele>460.2</ele>
        <time>2022-04-14T13:07:19Z</time>
      </trkpt>
      <trkpt lat="46.71731" lon="5.61614">
        <ele>460.4</ele>
        <time>2022-04-14T13:07:20Z</time>
      </trkpt>
      <trkpt lat="46.71729" lon="5.61622">
        <ele>461.4</ele>
        <time>2022-04-14T13:07:21Z</time>
      </trkpt>
      <trkpt lat="46.71725" lon="5.61644">
        <ele>462.6</ele>
        <time>2022-04-14T13:07:24Z</time>
      </trkpt>
      <trkpt lat="46.7172" lon="5.61663">
        <ele>463.8</ele>
        <time>2022-04-14T13:07:27Z</time>
      </trkpt>
      <trkpt lat="46.71716" lon="5.61676">
        <ele>464.8</ele>
        <time>2022-04-14T13:07:29Z</time>
      </trkpt>
      <trkpt lat="46.71708" lon="5.617">
        <ele>466.2</ele>
        <time>2022-04-14T13:07:33Z</time>
      </trkpt>
      <trkpt lat="46.71706" lon="5.61705">
        <ele>466.4</ele>
        <time>2022-04-14T13:07:34Z</time>
      </trkpt>
      <trkpt lat="46.71698" lon="5.61724">
        <ele>467.4</ele>
        <time>2022-04-14T13:07:37Z</time>
      </trkpt>
      <trkpt lat="46.71686" lon="5.6175">
        <ele>468.4</ele>
        <time>2022-04-14T13:07:42Z</time>
      </trkpt>
      <trkpt lat="46.7168" lon="5.61765">
        <ele>469.2</ele>
        <time>2022-04-14T13:07:45Z</time>
      </trkpt>
      <trkpt lat="46.71677" lon="5.61776">
        <ele>469.8</ele>
        <time>2022-04-14T13:07:47Z</time>
      </trkpt>
      <trkpt lat="46.71675" lon="5.61781">
        <ele>470</ele>
        <time>2022-04-14T13:07:48Z</time>
      </trkpt>
      <trkpt lat="46.71671" lon="5.61798">
        <ele>471</ele>
        <time>2022-04-14T13:07:51Z</time>
      </trkpt>
      <trkpt lat="46.7167" lon="5.61803">
        <ele>471.2</ele>
        <time>2022-04-14T13:07:52Z</time>
      </trkpt>
      <trkpt lat="46.71665" lon="5.6183">
        <ele>472</ele>
        <time>2022-04-14T13:07:56Z</time>
      </trkpt>
      <trkpt lat="46.71662" lon="5.61844">
        <ele>472.2</ele>
        <time>2022-04-14T13:07:58Z</time>
      </trkpt>
      <trkpt lat="46.71653" lon="5.61902">
        <ele>473</ele>
        <time>2022-04-14T13:08:06Z</time>
      </trkpt>
      <trkpt lat="46.71636" lon="5.61952">
        <ele>473.2</ele>
        <time>2022-04-14T13:08:13Z</time>
      </trkpt>
      <trkpt lat="46.71609" lon="5.62001">
        <ele>473.8</ele>
        <time>2022-04-14T13:08:21Z</time>
      </trkpt>
      <trkpt lat="46.71606" lon="5.62007">
        <ele>474.2</ele>
        <time>2022-04-14T13:08:22Z</time>
      </trkpt>
      <trkpt lat="46.71586" lon="5.62036">
        <ele>475.2</ele>
        <time>2022-04-14T13:08:28Z</time>
      </trkpt>
      <trkpt lat="46.71583" lon="5.6204">
        <ele>475.6</ele>
        <time>2022-04-14T13:08:29Z</time>
      </trkpt>
      <trkpt lat="46.71577" lon="5.62049">
        <ele>476.4</ele>
        <time>2022-04-14T13:08:31Z</time>
      </trkpt>
      <trkpt lat="46.71572" lon="5.62056">
        <ele>476.8</ele>
        <time>2022-04-14T13:08:33Z</time>
      </trkpt>
      <trkpt lat="46.71569" lon="5.62062">
        <ele>477.6</ele>
        <time>2022-04-14T13:08:35Z</time>
      </trkpt>
      <trkpt lat="46.71562" lon="5.62072">
        <ele>478.8</ele>
        <time>2022-04-14T13:08:38Z</time>
      </trkpt>
      <trkpt lat="46.71559" lon="5.62077">
        <ele>479</ele>
        <time>2022-04-14T13:08:39Z</time>
      </trkpt>
      <trkpt lat="46.71553" lon="5.62089">
        <ele>480</ele>
        <time>2022-04-14T13:08:42Z</time>
      </trkpt>
      <trkpt lat="46.71545" lon="5.62101">
        <ele>481.4</ele>
        <time>2022-04-14T13:08:45Z</time>
      </trkpt>
      <trkpt lat="46.71535" lon="5.62109">
        <ele>482.6</ele>
        <time>2022-04-14T13:08:48Z</time>
      </trkpt>
      <trkpt lat="46.71528" lon="5.62112">
        <ele>483.4</ele>
        <time>2022-04-14T13:08:50Z</time>
      </trkpt>
      <trkpt lat="46.71523" lon="5.62113">
        <ele>483.6</ele>
        <time>2022-04-14T13:08:51Z</time>
      </trkpt>
      <trkpt lat="46.71505" lon="5.62116">
        <ele>484.8</ele>
        <time>2022-04-14T13:08:55Z</time>
      </trkpt>
      <trkpt lat="46.71488" lon="5.62111">
        <ele>485.2</ele>
        <time>2022-04-14T13:08:59Z</time>
      </trkpt>
      <trkpt lat="46.71478" lon="5.62107">
        <ele>485.4</ele>
        <time>2022-04-14T13:09:01Z</time>
      </trkpt>
      <trkpt lat="46.71464" lon="5.62101">
        <ele>485.6</ele>
        <time>2022-04-14T13:09:04Z</time>
      </trkpt>
      <trkpt lat="46.7145" lon="5.62097">
        <ele>486.4</ele>
        <time>2022-04-14T13:09:07Z</time>
      </trkpt>
      <trkpt lat="46.71436" lon="5.62096">
        <ele>487</ele>
        <time>2022-04-14T13:09:10Z</time>
      </trkpt>
      <trkpt lat="46.71422" lon="5.62096">
        <ele>487.6</ele>
        <time>2022-04-14T13:09:13Z</time>
      </trkpt>
      <trkpt lat="46.71418" lon="5.62097">
        <ele>488</ele>
        <time>2022-04-14T13:09:14Z</time>
      </trkpt>
      <trkpt lat="46.71413" lon="5.62097">
        <ele>488.2</ele>
        <time>2022-04-14T13:09:15Z</time>
      </trkpt>
      <trkpt lat="46.71402" lon="5.62099">
        <ele>488.4</ele>
        <time>2022-04-14T13:09:17Z</time>
      </trkpt>
      <trkpt lat="46.71391" lon="5.62101">
        <ele>488.8</ele>
        <time>2022-04-14T13:09:19Z</time>
      </trkpt>
      <trkpt lat="46.71379" lon="5.62103">
        <ele>489.2</ele>
        <time>2022-04-14T13:09:21Z</time>
      </trkpt>
      <trkpt lat="46.71369" lon="5.62102">
        <ele>489.6</ele>
        <time>2022-04-14T13:09:23Z</time>
      </trkpt>
      <trkpt lat="46.71362" lon="5.62101">
        <ele>489.6</ele>
        <time>2022-04-14T13:09:24Z</time>
      </trkpt>
      <trkpt lat="46.71309" lon="5.62092">
        <ele>490.2</ele>
        <time>2022-04-14T13:09:33Z</time>
      </trkpt>
      <trkpt lat="46.71303" lon="5.62091">
        <ele>490.4</ele>
        <time>2022-04-14T13:09:34Z</time>
      </trkpt>
      <trkpt lat="46.71268" lon="5.62086">
        <ele>491.4</ele>
        <time>2022-04-14T13:09:40Z</time>
      </trkpt>
      <trkpt lat="46.71257" lon="5.62085">
        <ele>491.8</ele>
        <time>2022-04-14T13:09:42Z</time>
      </trkpt>
      <trkpt lat="46.71247" lon="5.62084">
        <ele>492.2</ele>
        <time>2022-04-14T13:09:44Z</time>
      </trkpt>
      <trkpt lat="46.71242" lon="5.62085">
        <ele>492.4</ele>
        <time>2022-04-14T13:09:45Z</time>
      </trkpt>
      <trkpt lat="46.71238" lon="5.62085">
        <ele>492.4</ele>
        <time>2022-04-14T13:09:46Z</time>
      </trkpt>
      <trkpt lat="46.71233" lon="5.62085">
        <ele>492.8</ele>
        <time>2022-04-14T13:09:47Z</time>
      </trkpt>
      <trkpt lat="46.71218" lon="5.62081">
        <ele>493.6</ele>
        <time>2022-04-14T13:09:50Z</time>
      </trkpt>
      <trkpt lat="46.71209" lon="5.62078">
        <ele>494.4</ele>
        <time>2022-04-14T13:09:52Z</time>
      </trkpt>
      <trkpt lat="46.71204" lon="5.62076">
        <ele>494.6</ele>
        <time>2022-04-14T13:09:53Z</time>
      </trkpt>
      <trkpt lat="46.71183" lon="5.6207">
        <ele>495.4</ele>
        <time>2022-04-14T13:09:57Z</time>
      </trkpt>
      <trkpt lat="46.71178" lon="5.6207">
        <ele>495.6</ele>
        <time>2022-04-14T13:09:58Z</time>
      </trkpt>
      <trkpt lat="46.71174" lon="5.6207">
        <ele>495.8</ele>
        <time>2022-04-14T13:09:59Z</time>
      </trkpt>
      <trkpt lat="46.71157" lon="5.62071">
        <ele>496.2</ele>
        <time>2022-04-14T13:10:02Z</time>
      </trkpt>
      <trkpt lat="46.71147" lon="5.6207">
        <ele>496.6</ele>
        <time>2022-04-14T13:10:04Z</time>
      </trkpt>
      <trkpt lat="46.71142" lon="5.62069">
        <ele>497</ele>
        <time>2022-04-14T13:10:05Z</time>
      </trkpt>
      <trkpt lat="46.71129" lon="5.62069">
        <ele>498.2</ele>
        <time>2022-04-14T13:10:08Z</time>
      </trkpt>
      <trkpt lat="46.71122" lon="5.62069">
        <ele>498.6</ele>
        <time>2022-04-14T13:10:10Z</time>
      </trkpt>
      <trkpt lat="46.71119" lon="5.6207">
        <ele>498.8</ele>
        <time>2022-04-14T13:10:11Z</time>
      </trkpt>
      <trkpt lat="46.7111" lon="5.62072">
        <ele>499.2</ele>
        <time>2022-04-14T13:10:13Z</time>
      </trkpt>
      <trkpt lat="46.71098" lon="5.62073">
        <ele>500.2</ele>
        <time>2022-04-14T13:10:16Z</time>
      </trkpt>
      <trkpt lat="46.7107" lon="5.62072">
        <ele>501.4</ele>
        <time>2022-04-14T13:10:21Z</time>
      </trkpt>
      <trkpt lat="46.71056" lon="5.62073">
        <ele>501.8</ele>
        <time>2022-04-14T13:10:23Z</time>
      </trkpt>
      <trkpt lat="46.71036" lon="5.62079">
        <ele>502.2</ele>
        <time>2022-04-14T13:10:26Z</time>
      </trkpt>
      <trkpt lat="46.7103" lon="5.62081">
        <ele>502.2</ele>
        <time>2022-04-14T13:10:27Z</time>
      </trkpt>
      <trkpt lat="46.7101" lon="5.62085">
        <ele>502.2</ele>
        <time>2022-04-14T13:10:30Z</time>
      </trkpt>
      <trkpt lat="46.70982" lon="5.62092">
        <ele>502.8</ele>
        <time>2022-04-14T13:10:35Z</time>
      </trkpt>
      <trkpt lat="46.70967" lon="5.62095">
        <ele>503.4</ele>
        <time>2022-04-14T13:10:38Z</time>
      </trkpt>
      <trkpt lat="46.70953" lon="5.62097">
        <ele>503.8</ele>
        <time>2022-04-14T13:10:41Z</time>
      </trkpt>
      <trkpt lat="46.70938" lon="5.62099">
        <ele>504.8</ele>
        <time>2022-04-14T13:10:44Z</time>
      </trkpt>
      <trkpt lat="46.70928" lon="5.62101">
        <ele>505.4</ele>
        <time>2022-04-14T13:10:46Z</time>
      </trkpt>
      <trkpt lat="46.70918" lon="5.62101">
        <ele>505.6</ele>
        <time>2022-04-14T13:10:48Z</time>
      </trkpt>
      <trkpt lat="46.70914" lon="5.621">
        <ele>505.8</ele>
        <time>2022-04-14T13:10:49Z</time>
      </trkpt>
      <trkpt lat="46.70888" lon="5.62098">
        <ele>506.8</ele>
        <time>2022-04-14T13:10:54Z</time>
      </trkpt>
      <trkpt lat="46.70882" lon="5.62098">
        <ele>506.8</ele>
        <time>2022-04-14T13:10:55Z</time>
      </trkpt>
      <trkpt lat="46.70877" lon="5.62098">
        <ele>507</ele>
        <time>2022-04-14T13:10:56Z</time>
      </trkpt>
      <trkpt lat="46.70859" lon="5.62097">
        <ele>507</ele>
        <time>2022-04-14T13:10:59Z</time>
      </trkpt>
      <trkpt lat="46.70852" lon="5.62096">
        <ele>507</ele>
        <time>2022-04-14T13:11:00Z</time>
      </trkpt>
      <trkpt lat="46.70831" lon="5.62092">
        <ele>507</ele>
        <time>2022-04-14T13:11:03Z</time>
      </trkpt>
      <trkpt lat="46.70824" lon="5.62089">
        <ele>506.8</ele>
        <time>2022-04-14T13:11:04Z</time>
      </trkpt>
      <trkpt lat="46.7081" lon="5.62081">
        <ele>506.4</ele>
        <time>2022-04-14T13:11:06Z</time>
      </trkpt>
      <trkpt lat="46.70805" lon="5.62078">
        <ele>505.8</ele>
        <time>2022-04-14T13:11:07Z</time>
      </trkpt>
      <trkpt lat="46.708" lon="5.62078">
        <ele>505</ele>
        <time>2022-04-14T13:11:08Z</time>
      </trkpt>
      <trkpt lat="46.70793" lon="5.62086">
        <ele>504.4</ele>
        <time>2022-04-14T13:11:10Z</time>
      </trkpt>
      <trkpt lat="46.70787" lon="5.62098">
        <ele>504</ele>
        <time>2022-04-14T13:11:12Z</time>
      </trkpt>
      <trkpt lat="46.70776" lon="5.62112">
        <ele>503.2</ele>
        <time>2022-04-14T13:11:15Z</time>
      </trkpt>
      <trkpt lat="46.70772" lon="5.62117">
        <ele>502</ele>
        <time>2022-04-14T13:11:17Z</time>
      </trkpt>
      <trkpt lat="46.70771" lon="5.62117">
        <ele>501.6</ele>
        <time>2022-04-14T13:11:19Z</time>
      </trkpt>
      <trkpt lat="46.70771" lon="5.62117">
        <ele>501.4</ele>
        <time>2022-04-14T13:11:20Z</time>
      </trkpt>
      <trkpt lat="46.70765" lon="5.6212">
        <ele>500.4</ele>
        <time>2022-04-14T13:11:55Z</time>
      </trkpt>
      <trkpt lat="46.7076" lon="5.62123">
        <ele>500.2</ele>
        <time>2022-04-14T13:11:56Z</time>
      </trkpt>
      <trkpt lat="46.7075" lon="5.62132">
        <ele>500.2</ele>
        <time>2022-04-14T13:11:58Z</time>
      </trkpt>
      <trkpt lat="46.70744" lon="5.62137">
        <ele>500</ele>
        <time>2022-04-14T13:11:59Z</time>
      </trkpt>
      <trkpt lat="46.70732" lon="5.62149">
        <ele>499.8</ele>
        <time>2022-04-14T13:12:01Z</time>
      </trkpt>
      <trkpt lat="46.7072" lon="5.62163">
        <ele>499.2</ele>
        <time>2022-04-14T13:12:03Z</time>
      </trkpt>
      <trkpt lat="46.70714" lon="5.62169">
        <ele>499</ele>
        <time>2022-04-14T13:12:04Z</time>
      </trkpt>
      <trkpt lat="46.70701" lon="5.62182">
        <ele>498.2</ele>
        <time>2022-04-14T13:12:06Z</time>
      </trkpt>
      <trkpt lat="46.70693" lon="5.62189">
        <ele>497.8</ele>
        <time>2022-04-14T13:12:07Z</time>
      </trkpt>
      <trkpt lat="46.70684" lon="5.62195">
        <ele>497</ele>
        <time>2022-04-14T13:12:08Z</time>
      </trkpt>
      <trkpt lat="46.70675" lon="5.62199">
        <ele>496.8</ele>
        <time>2022-04-14T13:12:09Z</time>
      </trkpt>
      <trkpt lat="46.70655" lon="5.62203">
        <ele>495.8</ele>
        <time>2022-04-14T13:12:11Z</time>
      </trkpt>
      <trkpt lat="46.70644" lon="5.62203">
        <ele>495.2</ele>
        <time>2022-04-14T13:12:12Z</time>
      </trkpt>
      <trkpt lat="46.70611" lon="5.62203">
        <ele>494.2</ele>
        <time>2022-04-14T13:12:15Z</time>
      </trkpt>
      <trkpt lat="46.70599" lon="5.62204">
        <ele>493.6</ele>
        <time>2022-04-14T13:12:16Z</time>
      </trkpt>
      <trkpt lat="46.70588" lon="5.62206">
        <ele>493</ele>
        <time>2022-04-14T13:12:17Z</time>
      </trkpt>
      <trkpt lat="46.70565" lon="5.6221">
        <ele>492</ele>
        <time>2022-04-14T13:12:19Z</time>
      </trkpt>
      <trkpt lat="46.7054" lon="5.62215">
        <ele>490.4</ele>
        <time>2022-04-14T13:12:21Z</time>
      </trkpt>
      <trkpt lat="46.70528" lon="5.62218">
        <ele>490</ele>
        <time>2022-04-14T13:12:22Z</time>
      </trkpt>
      <trkpt lat="46.70516" lon="5.62221">
        <ele>489</ele>
        <time>2022-04-14T13:12:23Z</time>
      </trkpt>
      <trkpt lat="46.70491" lon="5.62226">
        <ele>487.6</ele>
        <time>2022-04-14T13:12:25Z</time>
      </trkpt>
      <trkpt lat="46.7048" lon="5.62229">
        <ele>486.8</ele>
        <time>2022-04-14T13:12:26Z</time>
      </trkpt>
      <trkpt lat="46.70468" lon="5.62235">
        <ele>486.8</ele>
        <time>2022-04-14T13:12:27Z</time>
      </trkpt>
      <trkpt lat="46.70458" lon="5.62242">
        <ele>486</ele>
        <time>2022-04-14T13:12:28Z</time>
      </trkpt>
      <trkpt lat="46.70436" lon="5.62259">
        <ele>484.6</ele>
        <time>2022-04-14T13:12:30Z</time>
      </trkpt>
      <trkpt lat="46.70425" lon="5.62267">
        <ele>483.4</ele>
        <time>2022-04-14T13:12:31Z</time>
      </trkpt>
      <trkpt lat="46.70402" lon="5.62279">
        <ele>481.6</ele>
        <time>2022-04-14T13:12:33Z</time>
      </trkpt>
      <trkpt lat="46.70378" lon="5.62286">
        <ele>479.6</ele>
        <time>2022-04-14T13:12:35Z</time>
      </trkpt>
      <trkpt lat="46.70354" lon="5.62291">
        <ele>477.8</ele>
        <time>2022-04-14T13:12:37Z</time>
      </trkpt>
      <trkpt lat="46.70341" lon="5.62294">
        <ele>476.8</ele>
        <time>2022-04-14T13:12:38Z</time>
      </trkpt>
      <trkpt lat="46.70317" lon="5.62302">
        <ele>475.6</ele>
        <time>2022-04-14T13:12:40Z</time>
      </trkpt>
      <trkpt lat="46.70292" lon="5.6231">
        <ele>474</ele>
        <time>2022-04-14T13:12:42Z</time>
      </trkpt>
      <trkpt lat="46.70268" lon="5.62317">
        <ele>472.8</ele>
        <time>2022-04-14T13:12:44Z</time>
      </trkpt>
      <trkpt lat="46.70256" lon="5.62322">
        <ele>472.6</ele>
        <time>2022-04-14T13:12:45Z</time>
      </trkpt>
      <trkpt lat="46.70244" lon="5.62328">
        <ele>472</ele>
        <time>2022-04-14T13:12:46Z</time>
      </trkpt>
      <trkpt lat="46.70233" lon="5.62334">
        <ele>471.8</ele>
        <time>2022-04-14T13:12:47Z</time>
      </trkpt>
      <trkpt lat="46.7021" lon="5.62349">
        <ele>470.2</ele>
        <time>2022-04-14T13:12:49Z</time>
      </trkpt>
      <trkpt lat="46.70187" lon="5.62362">
        <ele>468.2</ele>
        <time>2022-04-14T13:12:51Z</time>
      </trkpt>
      <trkpt lat="46.70176" lon="5.62367">
        <ele>467.8</ele>
        <time>2022-04-14T13:12:52Z</time>
      </trkpt>
      <trkpt lat="46.70165" lon="5.62371">
        <ele>467</ele>
        <time>2022-04-14T13:12:53Z</time>
      </trkpt>
      <trkpt lat="46.70152" lon="5.62375">
        <ele>466</ele>
        <time>2022-04-14T13:12:54Z</time>
      </trkpt>
      <trkpt lat="46.7014" lon="5.62378">
        <ele>465.6</ele>
        <time>2022-04-14T13:12:55Z</time>
      </trkpt>
      <trkpt lat="46.70128" lon="5.62382">
        <ele>465</ele>
        <time>2022-04-14T13:12:56Z</time>
      </trkpt>
      <trkpt lat="46.70105" lon="5.62392">
        <ele>462.8</ele>
        <time>2022-04-14T13:12:58Z</time>
      </trkpt>
      <trkpt lat="46.70081" lon="5.62404">
        <ele>461</ele>
        <time>2022-04-14T13:13:00Z</time>
      </trkpt>
      <trkpt lat="46.70069" lon="5.6241">
        <ele>460</ele>
        <time>2022-04-14T13:13:01Z</time>
      </trkpt>
      <trkpt lat="46.70046" lon="5.62423">
        <ele>458.6</ele>
        <time>2022-04-14T13:13:03Z</time>
      </trkpt>
      <trkpt lat="46.70025" lon="5.62434">
        <ele>457.4</ele>
        <time>2022-04-14T13:13:05Z</time>
      </trkpt>
      <trkpt lat="46.70016" lon="5.62438">
        <ele>456.8</ele>
        <time>2022-04-14T13:13:06Z</time>
      </trkpt>
      <trkpt lat="46.70006" lon="5.62439">
        <ele>455.6</ele>
        <time>2022-04-14T13:13:07Z</time>
      </trkpt>
      <trkpt lat="46.69996" lon="5.62439">
        <ele>455</ele>
        <time>2022-04-14T13:13:08Z</time>
      </trkpt>
      <trkpt lat="46.69987" lon="5.62437">
        <ele>454.8</ele>
        <time>2022-04-14T13:13:09Z</time>
      </trkpt>
      <trkpt lat="46.69978" lon="5.62435">
        <ele>454</ele>
        <time>2022-04-14T13:13:10Z</time>
      </trkpt>
      <trkpt lat="46.6997" lon="5.62437">
        <ele>453.6</ele>
        <time>2022-04-14T13:13:11Z</time>
      </trkpt>
      <trkpt lat="46.69962" lon="5.62442">
        <ele>453</ele>
        <time>2022-04-14T13:13:12Z</time>
      </trkpt>
      <trkpt lat="46.69955" lon="5.62448">
        <ele>452.6</ele>
        <time>2022-04-14T13:13:13Z</time>
      </trkpt>
      <trkpt lat="46.69948" lon="5.62455">
        <ele>451.6</ele>
        <time>2022-04-14T13:13:14Z</time>
      </trkpt>
      <trkpt lat="46.69931" lon="5.62471">
        <ele>449.8</ele>
        <time>2022-04-14T13:13:16Z</time>
      </trkpt>
      <trkpt lat="46.6991" lon="5.62481">
        <ele>448.6</ele>
        <time>2022-04-14T13:13:18Z</time>
      </trkpt>
      <trkpt lat="46.69899" lon="5.62483">
        <ele>447.8</ele>
        <time>2022-04-14T13:13:19Z</time>
      </trkpt>
      <trkpt lat="46.69888" lon="5.62486">
        <ele>447.4</ele>
        <time>2022-04-14T13:13:20Z</time>
      </trkpt>
      <trkpt lat="46.69868" lon="5.62494">
        <ele>446</ele>
        <time>2022-04-14T13:13:22Z</time>
      </trkpt>
      <trkpt lat="46.69859" lon="5.62498">
        <ele>445.6</ele>
        <time>2022-04-14T13:13:23Z</time>
      </trkpt>
      <trkpt lat="46.69809" lon="5.62523">
        <ele>445.8</ele>
        <time>2022-04-14T13:13:29Z</time>
      </trkpt>
      <trkpt lat="46.69795" lon="5.62526">
        <ele>447</ele>
        <time>2022-04-14T13:13:31Z</time>
      </trkpt>
      <trkpt lat="46.69784" lon="5.62533">
        <ele>448.4</ele>
        <time>2022-04-14T13:13:33Z</time>
      </trkpt>
      <trkpt lat="46.69775" lon="5.62539">
        <ele>449.4</ele>
        <time>2022-04-14T13:13:35Z</time>
      </trkpt>
      <trkpt lat="46.69766" lon="5.62546">
        <ele>450.4</ele>
        <time>2022-04-14T13:13:37Z</time>
      </trkpt>
      <trkpt lat="46.69762" lon="5.6255">
        <ele>450.8</ele>
        <time>2022-04-14T13:13:38Z</time>
      </trkpt>
      <trkpt lat="46.69752" lon="5.62559">
        <ele>452.2</ele>
        <time>2022-04-14T13:13:40Z</time>
      </trkpt>
      <trkpt lat="46.69735" lon="5.62571">
        <ele>453.2</ele>
        <time>2022-04-14T13:13:43Z</time>
      </trkpt>
      <trkpt lat="46.6973" lon="5.62573">
        <ele>453.6</ele>
        <time>2022-04-14T13:13:44Z</time>
      </trkpt>
      <trkpt lat="46.6972" lon="5.62577">
        <ele>454.6</ele>
        <time>2022-04-14T13:13:47Z</time>
      </trkpt>
      <trkpt lat="46.69713" lon="5.6258">
        <ele>455.2</ele>
        <time>2022-04-14T13:13:49Z</time>
      </trkpt>
      <trkpt lat="46.69706" lon="5.62583">
        <ele>456</ele>
        <time>2022-04-14T13:13:51Z</time>
      </trkpt>
      <trkpt lat="46.6969" lon="5.62595">
        <ele>457.2</ele>
        <time>2022-04-14T13:13:56Z</time>
      </trkpt>
      <trkpt lat="46.69675" lon="5.62608">
        <ele>458.4</ele>
        <time>2022-04-14T13:14:01Z</time>
      </trkpt>
      <trkpt lat="46.69664" lon="5.6262">
        <ele>459.4</ele>
        <time>2022-04-14T13:14:05Z</time>
      </trkpt>
      <trkpt lat="46.69661" lon="5.62622">
        <ele>459.6</ele>
        <time>2022-04-14T13:14:06Z</time>
      </trkpt>
      <trkpt lat="46.69644" lon="5.62641">
        <ele>460.8</ele>
        <time>2022-04-14T13:14:12Z</time>
      </trkpt>
      <trkpt lat="46.69636" lon="5.62662">
        <ele>462</ele>
        <time>2022-04-14T13:14:17Z</time>
      </trkpt>
      <trkpt lat="46.69628" lon="5.62682">
        <ele>463</ele>
        <time>2022-04-14T13:14:22Z</time>
      </trkpt>
      <trkpt lat="46.69625" lon="5.62691">
        <ele>463.4</ele>
        <time>2022-04-14T13:14:24Z</time>
      </trkpt>
      <trkpt lat="46.69616" lon="5.62708">
        <ele>464.4</ele>
        <time>2022-04-14T13:14:28Z</time>
      </trkpt>
      <trkpt lat="46.69605" lon="5.62727">
        <ele>465.4</ele>
        <time>2022-04-14T13:14:33Z</time>
      </trkpt>
      <trkpt lat="46.69592" lon="5.62749">
        <ele>466.6</ele>
        <time>2022-04-14T13:14:38Z</time>
      </trkpt>
      <trkpt lat="46.69586" lon="5.62761">
        <ele>467.6</ele>
        <time>2022-04-14T13:14:41Z</time>
      </trkpt>
      <trkpt lat="46.69566" lon="5.62786">
        <ele>468.8</ele>
        <time>2022-04-14T13:14:49Z</time>
      </trkpt>
      <trkpt lat="46.69563" lon="5.6279">
        <ele>469</ele>
        <time>2022-04-14T13:14:50Z</time>
      </trkpt>
      <trkpt lat="46.6955" lon="5.62809">
        <ele>469.8</ele>
        <time>2022-04-14T13:14:55Z</time>
      </trkpt>
      <trkpt lat="46.69544" lon="5.6282">
        <ele>470.8</ele>
        <time>2022-04-14T13:14:58Z</time>
      </trkpt>
      <trkpt lat="46.6954" lon="5.62828">
        <ele>471</ele>
        <time>2022-04-14T13:15:00Z</time>
      </trkpt>
      <trkpt lat="46.69533" lon="5.6285">
        <ele>472.2</ele>
        <time>2022-04-14T13:15:05Z</time>
      </trkpt>
      <trkpt lat="46.69532" lon="5.62855">
        <ele>472.4</ele>
        <time>2022-04-14T13:15:06Z</time>
      </trkpt>
      <trkpt lat="46.69529" lon="5.62874">
        <ele>473.2</ele>
        <time>2022-04-14T13:15:10Z</time>
      </trkpt>
      <trkpt lat="46.69529" lon="5.629">
        <ele>474</ele>
        <time>2022-04-14T13:15:15Z</time>
      </trkpt>
      <trkpt lat="46.6953" lon="5.62909">
        <ele>474.6</ele>
        <time>2022-04-14T13:15:17Z</time>
      </trkpt>
      <trkpt lat="46.69533" lon="5.62918">
        <ele>475.4</ele>
        <time>2022-04-14T13:15:20Z</time>
      </trkpt>
      <trkpt lat="46.69534" lon="5.62921">
        <ele>475.8</ele>
        <time>2022-04-14T13:15:21Z</time>
      </trkpt>
      <trkpt lat="46.69537" lon="5.6293">
        <ele>476.6</ele>
        <time>2022-04-14T13:15:24Z</time>
      </trkpt>
      <trkpt lat="46.69538" lon="5.62932">
        <ele>476.8</ele>
        <time>2022-04-14T13:15:25Z</time>
      </trkpt>
      <trkpt lat="46.6954" lon="5.62934">
        <ele>477.4</ele>
        <time>2022-04-14T13:15:26Z</time>
      </trkpt>
      <trkpt lat="46.69548" lon="5.62942">
        <ele>478</ele>
        <time>2022-04-14T13:15:29Z</time>
      </trkpt>
      <trkpt lat="46.6955" lon="5.62945">
        <ele>478.2</ele>
        <time>2022-04-14T13:15:30Z</time>
      </trkpt>
      <trkpt lat="46.69557" lon="5.62949">
        <ele>479</ele>
        <time>2022-04-14T13:15:33Z</time>
      </trkpt>
      <trkpt lat="46.69564" lon="5.62954">
        <ele>479.6</ele>
        <time>2022-04-14T13:15:35Z</time>
      </trkpt>
      <trkpt lat="46.6957" lon="5.62959">
        <ele>480.2</ele>
        <time>2022-04-14T13:15:37Z</time>
      </trkpt>
      <trkpt lat="46.69575" lon="5.62964">
        <ele>480.4</ele>
        <time>2022-04-14T13:15:39Z</time>
      </trkpt>
      <trkpt lat="46.6958" lon="5.62969">
        <ele>480.8</ele>
        <time>2022-04-14T13:15:41Z</time>
      </trkpt>
      <trkpt lat="46.6959" lon="5.62976">
        <ele>481.4</ele>
        <time>2022-04-14T13:15:44Z</time>
      </trkpt>
      <trkpt lat="46.69599" lon="5.62986">
        <ele>482.6</ele>
        <time>2022-04-14T13:15:47Z</time>
      </trkpt>
      <trkpt lat="46.69616" lon="5.63">
        <ele>483.6</ele>
        <time>2022-04-14T13:15:52Z</time>
      </trkpt>
      <trkpt lat="46.69618" lon="5.63001">
        <ele>484</ele>
        <time>2022-04-14T13:15:53Z</time>
      </trkpt>
      <trkpt lat="46.69627" lon="5.63013">
        <ele>484.6</ele>
        <time>2022-04-14T13:15:57Z</time>
      </trkpt>
      <trkpt lat="46.69632" lon="5.6302">
        <ele>485</ele>
        <time>2022-04-14T13:15:59Z</time>
      </trkpt>
      <trkpt lat="46.69635" lon="5.63029">
        <ele>485.6</ele>
        <time>2022-04-14T13:16:01Z</time>
      </trkpt>
      <trkpt lat="46.69636" lon="5.63033">
        <ele>485.8</ele>
        <time>2022-04-14T13:16:02Z</time>
      </trkpt>
      <trkpt lat="46.69639" lon="5.63046">
        <ele>486.8</ele>
        <time>2022-04-14T13:16:05Z</time>
      </trkpt>
      <trkpt lat="46.69638" lon="5.63056">
        <ele>487.2</ele>
        <time>2022-04-14T13:16:07Z</time>
      </trkpt>
      <trkpt lat="46.69637" lon="5.63072">
        <ele>487.6</ele>
        <time>2022-04-14T13:16:10Z</time>
      </trkpt>
      <trkpt lat="46.69638" lon="5.63076">
        <ele>487.6</ele>
        <time>2022-04-14T13:16:11Z</time>
      </trkpt>
      <trkpt lat="46.69637" lon="5.63081">
        <ele>487.8</ele>
        <time>2022-04-14T13:16:12Z</time>
      </trkpt>
      <trkpt lat="46.69637" lon="5.63086">
        <ele>488</ele>
        <time>2022-04-14T13:16:13Z</time>
      </trkpt>
      <trkpt lat="46.69637" lon="5.63097">
        <ele>488.8</ele>
        <time>2022-04-14T13:16:16Z</time>
      </trkpt>
      <trkpt lat="46.69637" lon="5.63101">
        <ele>489.4</ele>
        <time>2022-04-14T13:16:17Z</time>
      </trkpt>
      <trkpt lat="46.69634" lon="5.63115">
        <ele>490</ele>
        <time>2022-04-14T13:16:20Z</time>
      </trkpt>
      <trkpt lat="46.69633" lon="5.63118">
        <ele>490.4</ele>
        <time>2022-04-14T13:16:21Z</time>
      </trkpt>
      <trkpt lat="46.69631" lon="5.63122">
        <ele>490.6</ele>
        <time>2022-04-14T13:16:22Z</time>
      </trkpt>
      <trkpt lat="46.69629" lon="5.63128">
        <ele>491.6</ele>
        <time>2022-04-14T13:16:24Z</time>
      </trkpt>
      <trkpt lat="46.69628" lon="5.63132">
        <ele>491.6</ele>
        <time>2022-04-14T13:16:25Z</time>
      </trkpt>
      <trkpt lat="46.69627" lon="5.63137">
        <ele>492</ele>
        <time>2022-04-14T13:16:26Z</time>
      </trkpt>
      <trkpt lat="46.69619" lon="5.63154">
        <ele>492.8</ele>
        <time>2022-04-14T13:16:30Z</time>
      </trkpt>
      <trkpt lat="46.69618" lon="5.63158">
        <ele>492.8</ele>
        <time>2022-04-14T13:16:31Z</time>
      </trkpt>
      <trkpt lat="46.6961" lon="5.63173">
        <ele>493.8</ele>
        <time>2022-04-14T13:16:35Z</time>
      </trkpt>
      <trkpt lat="46.69603" lon="5.63182">
        <ele>494.2</ele>
        <time>2022-04-14T13:16:37Z</time>
      </trkpt>
      <trkpt lat="46.69597" lon="5.63201">
        <ele>494.8</ele>
        <time>2022-04-14T13:16:41Z</time>
      </trkpt>
      <trkpt lat="46.69592" lon="5.63218">
        <ele>496</ele>
        <time>2022-04-14T13:16:45Z</time>
      </trkpt>
      <trkpt lat="46.69593" lon="5.63223">
        <ele>496.4</ele>
        <time>2022-04-14T13:16:46Z</time>
      </trkpt>
      <trkpt lat="46.69588" lon="5.63236">
        <ele>497</ele>
        <time>2022-04-14T13:16:49Z</time>
      </trkpt>
      <trkpt lat="46.69588" lon="5.63241">
        <ele>497.4</ele>
        <time>2022-04-14T13:16:50Z</time>
      </trkpt>
      <trkpt lat="46.69587" lon="5.63245">
        <ele>497.6</ele>
        <time>2022-04-14T13:16:51Z</time>
      </trkpt>
      <trkpt lat="46.69582" lon="5.63252">
        <ele>498.2</ele>
        <time>2022-04-14T13:16:53Z</time>
      </trkpt>
      <trkpt lat="46.69578" lon="5.63262">
        <ele>498.6</ele>
        <time>2022-04-14T13:16:55Z</time>
      </trkpt>
      <trkpt lat="46.69576" lon="5.6327">
        <ele>499.2</ele>
        <time>2022-04-14T13:16:57Z</time>
      </trkpt>
      <trkpt lat="46.6957" lon="5.63284">
        <ele>499.6</ele>
        <time>2022-04-14T13:17:00Z</time>
      </trkpt>
      <trkpt lat="46.69563" lon="5.63304">
        <ele>500.2</ele>
        <time>2022-04-14T13:17:04Z</time>
      </trkpt>
      <trkpt lat="46.69559" lon="5.63318">
        <ele>500.8</ele>
        <time>2022-04-14T13:17:07Z</time>
      </trkpt>
      <trkpt lat="46.69556" lon="5.63327">
        <ele>501.2</ele>
        <time>2022-04-14T13:17:09Z</time>
      </trkpt>
      <trkpt lat="46.69547" lon="5.63347">
        <ele>502.6</ele>
        <time>2022-04-14T13:17:14Z</time>
      </trkpt>
      <trkpt lat="46.69543" lon="5.63362">
        <ele>503.8</ele>
        <time>2022-04-14T13:17:17Z</time>
      </trkpt>
      <trkpt lat="46.69538" lon="5.63378">
        <ele>504.2</ele>
        <time>2022-04-14T13:17:20Z</time>
      </trkpt>
      <trkpt lat="46.69537" lon="5.63383">
        <ele>504.6</ele>
        <time>2022-04-14T13:17:21Z</time>
      </trkpt>
      <trkpt lat="46.69534" lon="5.63392">
        <ele>505.2</ele>
        <time>2022-04-14T13:17:23Z</time>
      </trkpt>
      <trkpt lat="46.69531" lon="5.63411">
        <ele>506.2</ele>
        <time>2022-04-14T13:17:27Z</time>
      </trkpt>
      <trkpt lat="46.69525" lon="5.63436">
        <ele>507.6</ele>
        <time>2022-04-14T13:17:32Z</time>
      </trkpt>
      <trkpt lat="46.69526" lon="5.63446">
        <ele>507.8</ele>
        <time>2022-04-14T13:17:34Z</time>
      </trkpt>
      <trkpt lat="46.69526" lon="5.63468">
        <ele>508.6</ele>
        <time>2022-04-14T13:17:38Z</time>
      </trkpt>
      <trkpt lat="46.69527" lon="5.63486">
        <ele>509</ele>
        <time>2022-04-14T13:17:41Z</time>
      </trkpt>
      <trkpt lat="46.69527" lon="5.6351">
        <ele>509.6</ele>
        <time>2022-04-14T13:17:45Z</time>
      </trkpt>
      <trkpt lat="46.69526" lon="5.63516">
        <ele>509.8</ele>
        <time>2022-04-14T13:17:46Z</time>
      </trkpt>
      <trkpt lat="46.69522" lon="5.63525">
        <ele>510</ele>
        <time>2022-04-14T13:17:48Z</time>
      </trkpt>
      <trkpt lat="46.69518" lon="5.63526">
        <ele>510</ele>
        <time>2022-04-14T13:17:49Z</time>
      </trkpt>
      <trkpt lat="46.69511" lon="5.63524">
        <ele>510.2</ele>
        <time>2022-04-14T13:17:51Z</time>
      </trkpt>
      <trkpt lat="46.69507" lon="5.63521">
        <ele>510.4</ele>
        <time>2022-04-14T13:17:52Z</time>
      </trkpt>
      <trkpt lat="46.69499" lon="5.63512">
        <ele>510.8</ele>
        <time>2022-04-14T13:17:54Z</time>
      </trkpt>
      <trkpt lat="46.69491" lon="5.63505">
        <ele>511.2</ele>
        <time>2022-04-14T13:17:56Z</time>
      </trkpt>
      <trkpt lat="46.69486" lon="5.63502">
        <ele>511.4</ele>
        <time>2022-04-14T13:17:57Z</time>
      </trkpt>
      <trkpt lat="46.69472" lon="5.63497">
        <ele>511.6</ele>
        <time>2022-04-14T13:18:00Z</time>
      </trkpt>
      <trkpt lat="46.69467" lon="5.63496">
        <ele>511.8</ele>
        <time>2022-04-14T13:18:01Z</time>
      </trkpt>
      <trkpt lat="46.69457" lon="5.63495">
        <ele>512.2</ele>
        <time>2022-04-14T13:18:03Z</time>
      </trkpt>
      <trkpt lat="46.69429" lon="5.63486">
        <ele>512.6</ele>
        <time>2022-04-14T13:18:08Z</time>
      </trkpt>
      <trkpt lat="46.69417" lon="5.63479">
        <ele>512.8</ele>
        <time>2022-04-14T13:18:10Z</time>
      </trkpt>
      <trkpt lat="46.69395" lon="5.63464">
        <ele>512.8</ele>
        <time>2022-04-14T13:18:14Z</time>
      </trkpt>
      <trkpt lat="46.69343" lon="5.63436">
        <ele>513.8</ele>
        <time>2022-04-14T13:18:23Z</time>
      </trkpt>
      <trkpt lat="46.69308" lon="5.63428">
        <ele>514</ele>
        <time>2022-04-14T13:18:29Z</time>
      </trkpt>
      <trkpt lat="46.69286" lon="5.63426">
        <ele>515</ele>
        <time>2022-04-14T13:18:33Z</time>
      </trkpt>
      <trkpt lat="46.6927" lon="5.63425">
        <ele>515.6</ele>
        <time>2022-04-14T13:18:36Z</time>
      </trkpt>
      <trkpt lat="46.69265" lon="5.63426">
        <ele>515.6</ele>
        <time>2022-04-14T13:18:37Z</time>
      </trkpt>
      <trkpt lat="46.69261" lon="5.63428">
        <ele>515.8</ele>
        <time>2022-04-14T13:18:38Z</time>
      </trkpt>
      <trkpt lat="46.69256" lon="5.63431">
        <ele>516</ele>
        <time>2022-04-14T13:18:39Z</time>
      </trkpt>
      <trkpt lat="46.69246" lon="5.6344">
        <ele>516.2</ele>
        <time>2022-04-14T13:18:41Z</time>
      </trkpt>
      <trkpt lat="46.69239" lon="5.63449">
        <ele>516.8</ele>
        <time>2022-04-14T13:18:43Z</time>
      </trkpt>
      <trkpt lat="46.69235" lon="5.63453">
        <ele>517.2</ele>
        <time>2022-04-14T13:18:44Z</time>
      </trkpt>
      <trkpt lat="46.69231" lon="5.63458">
        <ele>517.4</ele>
        <time>2022-04-14T13:18:45Z</time>
      </trkpt>
      <trkpt lat="46.69223" lon="5.63465">
        <ele>518</ele>
        <time>2022-04-14T13:18:47Z</time>
      </trkpt>
      <trkpt lat="46.69219" lon="5.63468">
        <ele>518.4</ele>
        <time>2022-04-14T13:18:48Z</time>
      </trkpt>
      <trkpt lat="46.69211" lon="5.63473">
        <ele>518.8</ele>
        <time>2022-04-14T13:18:50Z</time>
      </trkpt>
      <trkpt lat="46.692" lon="5.63478">
        <ele>519.4</ele>
        <time>2022-04-14T13:18:52Z</time>
      </trkpt>
      <trkpt lat="46.69194" lon="5.6348">
        <ele>519.6</ele>
        <time>2022-04-14T13:18:53Z</time>
      </trkpt>
      <trkpt lat="46.69147" lon="5.63491">
        <ele>520.4</ele>
        <time>2022-04-14T13:19:00Z</time>
      </trkpt>
      <trkpt lat="46.6914" lon="5.63493">
        <ele>520.4</ele>
        <time>2022-04-14T13:19:01Z</time>
      </trkpt>
      <trkpt lat="46.69111" lon="5.63501">
        <ele>519.8</ele>
        <time>2022-04-14T13:19:05Z</time>
      </trkpt>
      <trkpt lat="46.6907" lon="5.63512">
        <ele>519</ele>
        <time>2022-04-14T13:19:10Z</time>
      </trkpt>
      <trkpt lat="46.69063" lon="5.63516">
        <ele>518.8</ele>
        <time>2022-04-14T13:19:11Z</time>
      </trkpt>
      <trkpt lat="46.69056" lon="5.63522">
        <ele>518.6</ele>
        <time>2022-04-14T13:19:12Z</time>
      </trkpt>
      <trkpt lat="46.69045" lon="5.63539">
        <ele>518.4</ele>
        <time>2022-04-14T13:19:14Z</time>
      </trkpt>
      <trkpt lat="46.69022" lon="5.63591">
        <ele>517.6</ele>
        <time>2022-04-14T13:19:19Z</time>
      </trkpt>
      <trkpt lat="46.69011" lon="5.63614">
        <ele>517</ele>
        <time>2022-04-14T13:19:21Z</time>
      </trkpt>
      <trkpt lat="46.69004" lon="5.63625">
        <ele>516.6</ele>
        <time>2022-04-14T13:19:22Z</time>
      </trkpt>
      <trkpt lat="46.68996" lon="5.63636">
        <ele>516</ele>
        <time>2022-04-14T13:19:23Z</time>
      </trkpt>
      <trkpt lat="46.68979" lon="5.63656">
        <ele>514.4</ele>
        <time>2022-04-14T13:19:25Z</time>
      </trkpt>
      <trkpt lat="46.6896" lon="5.63676">
        <ele>512.2</ele>
        <time>2022-04-14T13:19:27Z</time>
      </trkpt>
      <trkpt lat="46.6895" lon="5.63685">
        <ele>511.4</ele>
        <time>2022-04-14T13:19:28Z</time>
      </trkpt>
      <trkpt lat="46.6894" lon="5.63692">
        <ele>511</ele>
        <time>2022-04-14T13:19:29Z</time>
      </trkpt>
      <trkpt lat="46.68919" lon="5.63701">
        <ele>510.2</ele>
        <time>2022-04-14T13:19:31Z</time>
      </trkpt>
      <trkpt lat="46.68908" lon="5.63705">
        <ele>509.4</ele>
        <time>2022-04-14T13:19:32Z</time>
      </trkpt>
      <trkpt lat="46.68878" lon="5.63713">
        <ele>508</ele>
        <time>2022-04-14T13:19:35Z</time>
      </trkpt>
      <trkpt lat="46.68868" lon="5.63717">
        <ele>507.8</ele>
        <time>2022-04-14T13:19:36Z</time>
      </trkpt>
      <trkpt lat="46.68858" lon="5.63721">
        <ele>507.6</ele>
        <time>2022-04-14T13:19:37Z</time>
      </trkpt>
      <trkpt lat="46.68829" lon="5.63741">
        <ele>507.4</ele>
        <time>2022-04-14T13:19:40Z</time>
      </trkpt>
      <trkpt lat="46.68815" lon="5.6376">
        <ele>507.2</ele>
        <time>2022-04-14T13:19:42Z</time>
      </trkpt>
      <trkpt lat="46.6881" lon="5.63772">
        <ele>507.2</ele>
        <time>2022-04-14T13:19:43Z</time>
      </trkpt>
      <trkpt lat="46.68808" lon="5.63786">
        <ele>507.4</ele>
        <time>2022-04-14T13:19:44Z</time>
      </trkpt>
      <trkpt lat="46.68808" lon="5.63813">
        <ele>507.4</ele>
        <time>2022-04-14T13:19:46Z</time>
      </trkpt>
      <trkpt lat="46.68809" lon="5.63825">
        <ele>507.4</ele>
        <time>2022-04-14T13:19:47Z</time>
      </trkpt>
      <trkpt lat="46.68808" lon="5.63846">
        <ele>507.4</ele>
        <time>2022-04-14T13:19:49Z</time>
      </trkpt>
      <trkpt lat="46.68799" lon="5.63904">
        <ele>507.6</ele>
        <time>2022-04-14T13:19:54Z</time>
      </trkpt>
      <trkpt lat="46.68789" lon="5.63948">
        <ele>507.6</ele>
        <time>2022-04-14T13:19:58Z</time>
      </trkpt>
      <trkpt lat="46.68789" lon="5.63971">
        <ele>507.6</ele>
        <time>2022-04-14T13:20:00Z</time>
      </trkpt>
      <trkpt lat="46.68798" lon="5.64017">
        <ele>507</ele>
        <time>2022-04-14T13:20:04Z</time>
      </trkpt>
      <trkpt lat="46.688" lon="5.64029">
        <ele>507</ele>
        <time>2022-04-14T13:20:05Z</time>
      </trkpt>
      <trkpt lat="46.68813" lon="5.64101">
        <ele>506.2</ele>
        <time>2022-04-14T13:20:11Z</time>
      </trkpt>
      <trkpt lat="46.68816" lon="5.64114">
        <ele>505.8</ele>
        <time>2022-04-14T13:20:12Z</time>
      </trkpt>
      <trkpt lat="46.68826" lon="5.64172">
        <ele>504.8</ele>
        <time>2022-04-14T13:20:17Z</time>
      </trkpt>
      <trkpt lat="46.68827" lon="5.64182">
        <ele>504.8</ele>
        <time>2022-04-14T13:20:18Z</time>
      </trkpt>
      <trkpt lat="46.68828" lon="5.64193">
        <ele>504.6</ele>
        <time>2022-04-14T13:20:19Z</time>
      </trkpt>
      <trkpt lat="46.68827" lon="5.64234">
        <ele>504.8</ele>
        <time>2022-04-14T13:20:23Z</time>
      </trkpt>
      <trkpt lat="46.68825" lon="5.64244">
        <ele>505</ele>
        <time>2022-04-14T13:20:24Z</time>
      </trkpt>
      <trkpt lat="46.6882" lon="5.64262">
        <ele>505.6</ele>
        <time>2022-04-14T13:20:26Z</time>
      </trkpt>
      <trkpt lat="46.68816" lon="5.6427">
        <ele>505.8</ele>
        <time>2022-04-14T13:20:27Z</time>
      </trkpt>
      <trkpt lat="46.68811" lon="5.64278">
        <ele>505.8</ele>
        <time>2022-04-14T13:20:28Z</time>
      </trkpt>
      <trkpt lat="46.68788" lon="5.64308">
        <ele>506</ele>
        <time>2022-04-14T13:20:32Z</time>
      </trkpt>
      <trkpt lat="46.68764" lon="5.64335">
        <ele>505.8</ele>
        <time>2022-04-14T13:20:36Z</time>
      </trkpt>
      <trkpt lat="46.68751" lon="5.64345">
        <ele>505.6</ele>
        <time>2022-04-14T13:20:38Z</time>
      </trkpt>
      <trkpt lat="46.68744" lon="5.6435">
        <ele>505.6</ele>
        <time>2022-04-14T13:20:39Z</time>
      </trkpt>
      <trkpt lat="46.68732" lon="5.64362">
        <ele>505.6</ele>
        <time>2022-04-14T13:20:41Z</time>
      </trkpt>
      <trkpt lat="46.68726" lon="5.64369">
        <ele>505.6</ele>
        <time>2022-04-14T13:20:42Z</time>
      </trkpt>
      <trkpt lat="46.6872" lon="5.64377">
        <ele>505.6</ele>
        <time>2022-04-14T13:20:43Z</time>
      </trkpt>
      <trkpt lat="46.68707" lon="5.64405">
        <ele>505.4</ele>
        <time>2022-04-14T13:20:46Z</time>
      </trkpt>
      <trkpt lat="46.68696" lon="5.64433">
        <ele>505.2</ele>
        <time>2022-04-14T13:20:49Z</time>
      </trkpt>
      <trkpt lat="46.68684" lon="5.64467">
        <ele>505.4</ele>
        <time>2022-04-14T13:20:53Z</time>
      </trkpt>
      <trkpt lat="46.68672" lon="5.64502">
        <ele>506.2</ele>
        <time>2022-04-14T13:20:58Z</time>
      </trkpt>
      <trkpt lat="46.68664" lon="5.64519">
        <ele>507.2</ele>
        <time>2022-04-14T13:21:02Z</time>
      </trkpt>
      <trkpt lat="46.68662" lon="5.64522">
        <ele>507.4</ele>
        <time>2022-04-14T13:21:03Z</time>
      </trkpt>
      <trkpt lat="46.68655" lon="5.64533">
        <ele>507.8</ele>
        <time>2022-04-14T13:21:06Z</time>
      </trkpt>
      <trkpt lat="46.68655" lon="5.64539">
        <ele>507.8</ele>
        <time>2022-04-14T13:21:07Z</time>
      </trkpt>
      <trkpt lat="46.68655" lon="5.64546">
        <ele>508</ele>
        <time>2022-04-14T13:21:08Z</time>
      </trkpt>
      <trkpt lat="46.68659" lon="5.64569">
        <ele>508</ele>
        <time>2022-04-14T13:21:11Z</time>
      </trkpt>
      <trkpt lat="46.68663" lon="5.64604">
        <ele>508.2</ele>
        <time>2022-04-14T13:21:15Z</time>
      </trkpt>
      <trkpt lat="46.68665" lon="5.64622">
        <ele>508.2</ele>
        <time>2022-04-14T13:21:17Z</time>
      </trkpt>
      <trkpt lat="46.68673" lon="5.64687">
        <ele>509</ele>
        <time>2022-04-14T13:21:24Z</time>
      </trkpt>
      <trkpt lat="46.68674" lon="5.64696">
        <ele>509.2</ele>
        <time>2022-04-14T13:21:25Z</time>
      </trkpt>
      <trkpt lat="46.68682" lon="5.64758">
        <ele>510.2</ele>
        <time>2022-04-14T13:21:32Z</time>
      </trkpt>
      <trkpt lat="46.68692" lon="5.64839">
        <ele>511.4</ele>
        <time>2022-04-14T13:21:41Z</time>
      </trkpt>
      <trkpt lat="46.68693" lon="5.64849">
        <ele>511.6</ele>
        <time>2022-04-14T13:21:42Z</time>
      </trkpt>
      <trkpt lat="46.68702" lon="5.64925">
        <ele>512</ele>
        <time>2022-04-14T13:21:50Z</time>
      </trkpt>
      <trkpt lat="46.68704" lon="5.64935">
        <ele>512.2</ele>
        <time>2022-04-14T13:21:51Z</time>
      </trkpt>
      <trkpt lat="46.68708" lon="5.64973">
        <ele>512.6</ele>
        <time>2022-04-14T13:21:55Z</time>
      </trkpt>
      <trkpt lat="46.68713" lon="5.6501">
        <ele>512.8</ele>
        <time>2022-04-14T13:21:59Z</time>
      </trkpt>
      <trkpt lat="46.6872" lon="5.65066">
        <ele>513.8</ele>
        <time>2022-04-14T13:22:05Z</time>
      </trkpt>
      <trkpt lat="46.68723" lon="5.65094">
        <ele>513.8</ele>
        <time>2022-04-14T13:22:08Z</time>
      </trkpt>
      <trkpt lat="46.68734" lon="5.6518">
        <ele>513.8</ele>
        <time>2022-04-14T13:22:17Z</time>
      </trkpt>
      <trkpt lat="46.68736" lon="5.65201">
        <ele>514</ele>
        <time>2022-04-14T13:22:19Z</time>
      </trkpt>
      <trkpt lat="46.68747" lon="5.65286">
        <ele>513.8</ele>
        <time>2022-04-14T13:22:27Z</time>
      </trkpt>
      <trkpt lat="46.6875" lon="5.65306">
        <ele>514</ele>
        <time>2022-04-14T13:22:29Z</time>
      </trkpt>
      <trkpt lat="46.68758" lon="5.65374">
        <ele>514.8</ele>
        <time>2022-04-14T13:22:36Z</time>
      </trkpt>
      <trkpt lat="46.6876" lon="5.65392">
        <ele>515.2</ele>
        <time>2022-04-14T13:22:38Z</time>
      </trkpt>
      <trkpt lat="46.68766" lon="5.65437">
        <ele>516</ele>
        <time>2022-04-14T13:22:43Z</time>
      </trkpt>
      <trkpt lat="46.6877" lon="5.65472">
        <ele>516.2</ele>
        <time>2022-04-14T13:22:47Z</time>
      </trkpt>
      <trkpt lat="46.68774" lon="5.65506">
        <ele>517</ele>
        <time>2022-04-14T13:22:51Z</time>
      </trkpt>
      <trkpt lat="46.68778" lon="5.65543">
        <ele>517.6</ele>
        <time>2022-04-14T13:22:55Z</time>
      </trkpt>
      <trkpt lat="46.68784" lon="5.65608">
        <ele>517.6</ele>
        <time>2022-04-14T13:23:01Z</time>
      </trkpt>
      <trkpt lat="46.68785" lon="5.6562">
        <ele>517.4</ele>
        <time>2022-04-14T13:23:02Z</time>
      </trkpt>
      <trkpt lat="46.68791" lon="5.65679">
        <ele>516</ele>
        <time>2022-04-14T13:23:07Z</time>
      </trkpt>
      <trkpt lat="46.68795" lon="5.65716">
        <ele>515.8</ele>
        <time>2022-04-14T13:23:10Z</time>
      </trkpt>
      <trkpt lat="46.68801" lon="5.65775">
        <ele>515</ele>
        <time>2022-04-14T13:23:15Z</time>
      </trkpt>
      <trkpt lat="46.68805" lon="5.65818">
        <ele>514</ele>
        <time>2022-04-14T13:23:19Z</time>
      </trkpt>
      <trkpt lat="46.68805" lon="5.65828">
        <ele>514</ele>
        <time>2022-04-14T13:23:20Z</time>
      </trkpt>
      <trkpt lat="46.68809" lon="5.65882">
        <ele>514</ele>
        <time>2022-04-14T13:23:26Z</time>
      </trkpt>
      <trkpt lat="46.68815" lon="5.65948">
        <ele>514</ele>
        <time>2022-04-14T13:23:33Z</time>
      </trkpt>
      <trkpt lat="46.68823" lon="5.66024">
        <ele>514.8</ele>
        <time>2022-04-14T13:23:41Z</time>
      </trkpt>
      <trkpt lat="46.68823" lon="5.66042">
        <ele>515</ele>
        <time>2022-04-14T13:23:43Z</time>
      </trkpt>
      <trkpt lat="46.68821" lon="5.66049">
        <ele>515</ele>
        <time>2022-04-14T13:23:44Z</time>
      </trkpt>
      <trkpt lat="46.68816" lon="5.66053">
        <ele>515</ele>
        <time>2022-04-14T13:23:45Z</time>
      </trkpt>
      <trkpt lat="46.6881" lon="5.66054">
        <ele>515</ele>
        <time>2022-04-14T13:23:46Z</time>
      </trkpt>
      <trkpt lat="46.68804" lon="5.66053">
        <ele>515</ele>
        <time>2022-04-14T13:23:47Z</time>
      </trkpt>
      <trkpt lat="46.68783" lon="5.66049">
        <ele>515</ele>
        <time>2022-04-14T13:23:50Z</time>
      </trkpt>
      <trkpt lat="46.68745" lon="5.6604">
        <ele>515</ele>
        <time>2022-04-14T13:23:55Z</time>
      </trkpt>
      <trkpt lat="46.68703" lon="5.66036">
        <ele>515.4</ele>
        <time>2022-04-14T13:24:01Z</time>
      </trkpt>
      <trkpt lat="46.68687" lon="5.66033">
        <ele>515.6</ele>
        <time>2022-04-14T13:24:03Z</time>
      </trkpt>
      <trkpt lat="46.68671" lon="5.66027">
        <ele>516</ele>
        <time>2022-04-14T13:24:05Z</time>
      </trkpt>
      <trkpt lat="46.68663" lon="5.66023">
        <ele>516</ele>
        <time>2022-04-14T13:24:06Z</time>
      </trkpt>
      <trkpt lat="46.68611" lon="5.65999">
        <ele>516</ele>
        <time>2022-04-14T13:24:13Z</time>
      </trkpt>
      <trkpt lat="46.68591" lon="5.6599">
        <ele>516.2</ele>
        <time>2022-04-14T13:24:16Z</time>
      </trkpt>
      <trkpt lat="46.68585" lon="5.65987">
        <ele>516.2</ele>
        <time>2022-04-14T13:24:17Z</time>
      </trkpt>
      <trkpt lat="46.68547" lon="5.65954">
        <ele>516.6</ele>
        <time>2022-04-14T13:24:23Z</time>
      </trkpt>
      <trkpt lat="46.68529" lon="5.65935">
        <ele>516.2</ele>
        <time>2022-04-14T13:24:26Z</time>
      </trkpt>
      <trkpt lat="46.68525" lon="5.65926">
        <ele>516</ele>
        <time>2022-04-14T13:24:27Z</time>
      </trkpt>
      <trkpt lat="46.68522" lon="5.65915">
        <ele>515.6</ele>
        <time>2022-04-14T13:24:28Z</time>
      </trkpt>
      <trkpt lat="46.68516" lon="5.6588">
        <ele>515.4</ele>
        <time>2022-04-14T13:24:31Z</time>
      </trkpt>
      <trkpt lat="46.68514" lon="5.6587">
        <ele>515</ele>
        <time>2022-04-14T13:24:32Z</time>
      </trkpt>
      <trkpt lat="46.68508" lon="5.65861">
        <ele>514.8</ele>
        <time>2022-04-14T13:24:33Z</time>
      </trkpt>
      <trkpt lat="46.68501" lon="5.65854">
        <ele>514.6</ele>
        <time>2022-04-14T13:24:34Z</time>
      </trkpt>
      <trkpt lat="46.68486" lon="5.65845">
        <ele>514.4</ele>
        <time>2022-04-14T13:24:36Z</time>
      </trkpt>
      <trkpt lat="46.68468" lon="5.65838">
        <ele>514</ele>
        <time>2022-04-14T13:24:38Z</time>
      </trkpt>
      <trkpt lat="46.68449" lon="5.65833">
        <ele>513.4</ele>
        <time>2022-04-14T13:24:40Z</time>
      </trkpt>
      <trkpt lat="46.68439" lon="5.6583">
        <ele>512.8</ele>
        <time>2022-04-14T13:24:41Z</time>
      </trkpt>
      <trkpt lat="46.68419" lon="5.65824">
        <ele>511.6</ele>
        <time>2022-04-14T13:24:43Z</time>
      </trkpt>
      <trkpt lat="46.68388" lon="5.65814">
        <ele>510.2</ele>
        <time>2022-04-14T13:24:46Z</time>
      </trkpt>
      <trkpt lat="46.68359" lon="5.65803">
        <ele>508.8</ele>
        <time>2022-04-14T13:24:49Z</time>
      </trkpt>
      <trkpt lat="46.68331" lon="5.65799">
        <ele>507.6</ele>
        <time>2022-04-14T13:24:52Z</time>
      </trkpt>
      <trkpt lat="46.68275" lon="5.65796">
        <ele>507</ele>
        <time>2022-04-14T13:24:58Z</time>
      </trkpt>
      <trkpt lat="46.6822" lon="5.65801">
        <ele>507</ele>
        <time>2022-04-14T13:25:04Z</time>
      </trkpt>
      <trkpt lat="46.68211" lon="5.658">
        <ele>507</ele>
        <time>2022-04-14T13:25:05Z</time>
      </trkpt>
      <trkpt lat="46.68164" lon="5.65785">
        <ele>507.2</ele>
        <time>2022-04-14T13:25:10Z</time>
      </trkpt>
      <trkpt lat="46.6811" lon="5.65756">
        <ele>507.8</ele>
        <time>2022-04-14T13:25:16Z</time>
      </trkpt>
      <trkpt lat="46.68072" lon="5.65725">
        <ele>508.2</ele>
        <time>2022-04-14T13:25:21Z</time>
      </trkpt>
      <trkpt lat="46.68031" lon="5.65708">
        <ele>508.6</ele>
        <time>2022-04-14T13:25:26Z</time>
      </trkpt>
      <trkpt lat="46.68022" lon="5.65705">
        <ele>508.6</ele>
        <time>2022-04-14T13:25:27Z</time>
      </trkpt>
      <trkpt lat="46.67965" lon="5.65684">
        <ele>508.2</ele>
        <time>2022-04-14T13:25:34Z</time>
      </trkpt>
      <trkpt lat="46.67914" lon="5.65655">
        <ele>509.2</ele>
        <time>2022-04-14T13:25:41Z</time>
      </trkpt>
      <trkpt lat="46.679" lon="5.65647">
        <ele>509.6</ele>
        <time>2022-04-14T13:25:43Z</time>
      </trkpt>
      <trkpt lat="46.67879" lon="5.65635">
        <ele>510</ele>
        <time>2022-04-14T13:25:46Z</time>
      </trkpt>
      <trkpt lat="46.67831" lon="5.65603">
        <ele>510.8</ele>
        <time>2022-04-14T13:25:53Z</time>
      </trkpt>
      <trkpt lat="46.67803" lon="5.65584">
        <ele>511</ele>
        <time>2022-04-14T13:25:57Z</time>
      </trkpt>
      <trkpt lat="46.67769" lon="5.65559">
        <ele>511.2</ele>
        <time>2022-04-14T13:26:02Z</time>
      </trkpt>
      <trkpt lat="46.6775" lon="5.65545">
        <ele>511.4</ele>
        <time>2022-04-14T13:26:05Z</time>
      </trkpt>
      <trkpt lat="46.67736" lon="5.65539">
        <ele>511.4</ele>
        <time>2022-04-14T13:26:07Z</time>
      </trkpt>
      <trkpt lat="46.67729" lon="5.65537">
        <ele>511.4</ele>
        <time>2022-04-14T13:26:08Z</time>
      </trkpt>
      <trkpt lat="46.67694" lon="5.65532">
        <ele>512.2</ele>
        <time>2022-04-14T13:26:13Z</time>
      </trkpt>
      <trkpt lat="46.67687" lon="5.65531">
        <ele>512.2</ele>
        <time>2022-04-14T13:26:14Z</time>
      </trkpt>
      <trkpt lat="46.67653" lon="5.65517">
        <ele>513.2</ele>
        <time>2022-04-14T13:26:19Z</time>
      </trkpt>
      <trkpt lat="46.67645" lon="5.65513">
        <ele>513.4</ele>
        <time>2022-04-14T13:26:20Z</time>
      </trkpt>
      <trkpt lat="46.6759" lon="5.65483">
        <ele>513.6</ele>
        <time>2022-04-14T13:26:27Z</time>
      </trkpt>
      <trkpt lat="46.67538" lon="5.65455">
        <ele>513.2</ele>
        <time>2022-04-14T13:26:33Z</time>
      </trkpt>
      <trkpt lat="46.67529" lon="5.65449">
        <ele>513</ele>
        <time>2022-04-14T13:26:34Z</time>
      </trkpt>
      <trkpt lat="46.67505" lon="5.65426">
        <ele>512.4</ele>
        <time>2022-04-14T13:26:37Z</time>
      </trkpt>
      <trkpt lat="46.67497" lon="5.65418">
        <ele>512.2</ele>
        <time>2022-04-14T13:26:38Z</time>
      </trkpt>
      <trkpt lat="46.67472" lon="5.65396">
        <ele>511</ele>
        <time>2022-04-14T13:26:41Z</time>
      </trkpt>
      <trkpt lat="46.67463" lon="5.65391">
        <ele>510.8</ele>
        <time>2022-04-14T13:26:42Z</time>
      </trkpt>
      <trkpt lat="46.67409" lon="5.6536">
        <ele>510.2</ele>
        <time>2022-04-14T13:26:48Z</time>
      </trkpt>
      <trkpt lat="46.6739" lon="5.6535">
        <ele>510</ele>
        <time>2022-04-14T13:26:50Z</time>
      </trkpt>
      <trkpt lat="46.67372" lon="5.6534">
        <ele>509.8</ele>
        <time>2022-04-14T13:26:52Z</time>
      </trkpt>
      <trkpt lat="46.67342" lon="5.65326">
        <ele>508.8</ele>
        <time>2022-04-14T13:26:55Z</time>
      </trkpt>
      <trkpt lat="46.67304" lon="5.65308">
        <ele>507.8</ele>
        <time>2022-04-14T13:26:59Z</time>
      </trkpt>
      <trkpt lat="46.67294" lon="5.65305">
        <ele>507.8</ele>
        <time>2022-04-14T13:27:00Z</time>
      </trkpt>
      <trkpt lat="46.67246" lon="5.65295">
        <ele>508</ele>
        <time>2022-04-14T13:27:05Z</time>
      </trkpt>
      <trkpt lat="46.67188" lon="5.65284">
        <ele>508.6</ele>
        <time>2022-04-14T13:27:11Z</time>
      </trkpt>
      <trkpt lat="46.67169" lon="5.65281">
        <ele>508.6</ele>
        <time>2022-04-14T13:27:13Z</time>
      </trkpt>
      <trkpt lat="46.67123" lon="5.65271">
        <ele>508.8</ele>
        <time>2022-04-14T13:27:18Z</time>
      </trkpt>
      <trkpt lat="46.67097" lon="5.65266">
        <ele>509.6</ele>
        <time>2022-04-14T13:27:21Z</time>
      </trkpt>
      <trkpt lat="46.67071" lon="5.65264">
        <ele>509.8</ele>
        <time>2022-04-14T13:27:24Z</time>
      </trkpt>
      <trkpt lat="46.67039" lon="5.65258">
        <ele>510.8</ele>
        <time>2022-04-14T13:27:28Z</time>
      </trkpt>
      <trkpt lat="46.67008" lon="5.65242">
        <ele>511.4</ele>
        <time>2022-04-14T13:27:32Z</time>
      </trkpt>
      <trkpt lat="46.67001" lon="5.65237">
        <ele>511.8</ele>
        <time>2022-04-14T13:27:33Z</time>
      </trkpt>
      <trkpt lat="46.66978" lon="5.65225">
        <ele>512.6</ele>
        <time>2022-04-14T13:27:36Z</time>
      </trkpt>
      <trkpt lat="46.66963" lon="5.6522">
        <ele>513</ele>
        <time>2022-04-14T13:27:38Z</time>
      </trkpt>
      <trkpt lat="46.66923" lon="5.65215">
        <ele>514</ele>
        <time>2022-04-14T13:27:43Z</time>
      </trkpt>
      <trkpt lat="46.66883" lon="5.65224">
        <ele>514.2</ele>
        <time>2022-04-14T13:27:48Z</time>
      </trkpt>
      <trkpt lat="46.66848" lon="5.65241">
        <ele>514.2</ele>
        <time>2022-04-14T13:27:52Z</time>
      </trkpt>
      <trkpt lat="46.6684" lon="5.65247">
        <ele>513.8</ele>
        <time>2022-04-14T13:27:53Z</time>
      </trkpt>
      <trkpt lat="46.66808" lon="5.65275">
        <ele>512.8</ele>
        <time>2022-04-14T13:27:57Z</time>
      </trkpt>
      <trkpt lat="46.66799" lon="5.65279">
        <ele>512.6</ele>
        <time>2022-04-14T13:27:58Z</time>
      </trkpt>
      <trkpt lat="46.66791" lon="5.65283">
        <ele>512.6</ele>
        <time>2022-04-14T13:27:59Z</time>
      </trkpt>
      <trkpt lat="46.66766" lon="5.65284">
        <ele>512.4</ele>
        <time>2022-04-14T13:28:02Z</time>
      </trkpt>
      <trkpt lat="46.66757" lon="5.65283">
        <ele>512.4</ele>
        <time>2022-04-14T13:28:03Z</time>
      </trkpt>
      <trkpt lat="46.66732" lon="5.65273">
        <ele>512.8</ele>
        <time>2022-04-14T13:28:06Z</time>
      </trkpt>
      <trkpt lat="46.66697" lon="5.65248">
        <ele>513.8</ele>
        <time>2022-04-14T13:28:11Z</time>
      </trkpt>
      <trkpt lat="46.66691" lon="5.65244">
        <ele>514.2</ele>
        <time>2022-04-14T13:28:12Z</time>
      </trkpt>
      <trkpt lat="46.66661" lon="5.65223">
        <ele>515</ele>
        <time>2022-04-14T13:28:17Z</time>
      </trkpt>
      <trkpt lat="46.66655" lon="5.65219">
        <ele>515.2</ele>
        <time>2022-04-14T13:28:18Z</time>
      </trkpt>
      <trkpt lat="46.66636" lon="5.65204">
        <ele>515.6</ele>
        <time>2022-04-14T13:28:22Z</time>
      </trkpt>
      <trkpt lat="46.66633" lon="5.65201">
        <ele>515.8</ele>
        <time>2022-04-14T13:28:23Z</time>
      </trkpt>
      <trkpt lat="46.66627" lon="5.65193">
        <ele>516</ele>
        <time>2022-04-14T13:28:25Z</time>
      </trkpt>
      <trkpt lat="46.66623" lon="5.6518">
        <ele>516.2</ele>
        <time>2022-04-14T13:28:27Z</time>
      </trkpt>
      <trkpt lat="46.6661" lon="5.65146">
        <ele>516.6</ele>
        <time>2022-04-14T13:28:31Z</time>
      </trkpt>
      <trkpt lat="46.66579" lon="5.65097">
        <ele>516.8</ele>
        <time>2022-04-14T13:28:37Z</time>
      </trkpt>
      <trkpt lat="46.66567" lon="5.65081">
        <ele>516.6</ele>
        <time>2022-04-14T13:28:39Z</time>
      </trkpt>
      <trkpt lat="46.66549" lon="5.65061">
        <ele>516</ele>
        <time>2022-04-14T13:28:42Z</time>
      </trkpt>
      <trkpt lat="46.66538" lon="5.65051">
        <ele>516</ele>
        <time>2022-04-14T13:28:44Z</time>
      </trkpt>
      <trkpt lat="46.66526" lon="5.65044">
        <ele>516</ele>
        <time>2022-04-14T13:28:46Z</time>
      </trkpt>
      <trkpt lat="46.66507" lon="5.65034">
        <ele>516</ele>
        <time>2022-04-14T13:28:49Z</time>
      </trkpt>
      <trkpt lat="46.66495" lon="5.65025">
        <ele>516.2</ele>
        <time>2022-04-14T13:28:51Z</time>
      </trkpt>
      <trkpt lat="46.66464" lon="5.64999">
        <ele>517.2</ele>
        <time>2022-04-14T13:28:56Z</time>
      </trkpt>
      <trkpt lat="46.66459" lon="5.64992">
        <ele>517.4</ele>
        <time>2022-04-14T13:28:57Z</time>
      </trkpt>
      <trkpt lat="46.66456" lon="5.64983">
        <ele>517.4</ele>
        <time>2022-04-14T13:28:58Z</time>
      </trkpt>
      <trkpt lat="46.66454" lon="5.64973">
        <ele>517.6</ele>
        <time>2022-04-14T13:28:59Z</time>
      </trkpt>
      <trkpt lat="46.66455" lon="5.6491">
        <ele>517.8</ele>
        <time>2022-04-14T13:29:05Z</time>
      </trkpt>
      <trkpt lat="46.66455" lon="5.64873">
        <ele>518</ele>
        <time>2022-04-14T13:29:09Z</time>
      </trkpt>
      <trkpt lat="46.66453" lon="5.64865">
        <ele>518</ele>
        <time>2022-04-14T13:29:10Z</time>
      </trkpt>
      <trkpt lat="46.66452" lon="5.64857">
        <ele>518</ele>
        <time>2022-04-14T13:29:11Z</time>
      </trkpt>
      <trkpt lat="46.66447" lon="5.64843">
        <ele>518.4</ele>
        <time>2022-04-14T13:29:13Z</time>
      </trkpt>
      <trkpt lat="46.66444" lon="5.64836">
        <ele>519</ele>
        <time>2022-04-14T13:29:14Z</time>
      </trkpt>
      <trkpt lat="46.66438" lon="5.64821">
        <ele>519.6</ele>
        <time>2022-04-14T13:29:16Z</time>
      </trkpt>
      <trkpt lat="46.66436" lon="5.64814">
        <ele>519.8</ele>
        <time>2022-04-14T13:29:17Z</time>
      </trkpt>
      <trkpt lat="46.66433" lon="5.64798">
        <ele>520.6</ele>
        <time>2022-04-14T13:29:19Z</time>
      </trkpt>
      <trkpt lat="46.6643" lon="5.64769">
        <ele>521</ele>
        <time>2022-04-14T13:29:22Z</time>
      </trkpt>
      <trkpt lat="46.66424" lon="5.64753">
        <ele>521.2</ele>
        <time>2022-04-14T13:29:24Z</time>
      </trkpt>
      <trkpt lat="46.66414" lon="5.6474">
        <ele>521.4</ele>
        <time>2022-04-14T13:29:26Z</time>
      </trkpt>
      <trkpt lat="46.66402" lon="5.64729">
        <ele>521.6</ele>
        <time>2022-04-14T13:29:28Z</time>
      </trkpt>
      <trkpt lat="46.66396" lon="5.64724">
        <ele>521.6</ele>
        <time>2022-04-14T13:29:29Z</time>
      </trkpt>
      <trkpt lat="46.66351" lon="5.64688">
        <ele>521.6</ele>
        <time>2022-04-14T13:29:36Z</time>
      </trkpt>
      <trkpt lat="46.663" lon="5.64659">
        <ele>521.4</ele>
        <time>2022-04-14T13:29:43Z</time>
      </trkpt>
      <trkpt lat="46.66292" lon="5.64655">
        <ele>521.4</ele>
        <time>2022-04-14T13:29:44Z</time>
      </trkpt>
      <trkpt lat="46.66238" lon="5.64635">
        <ele>521.6</ele>
        <time>2022-04-14T13:29:51Z</time>
      </trkpt>
      <trkpt lat="46.66221" lon="5.64629">
        <ele>521.6</ele>
        <time>2022-04-14T13:29:53Z</time>
      </trkpt>
      <trkpt lat="46.66177" lon="5.64611">
        <ele>521.4</ele>
        <time>2022-04-14T13:29:58Z</time>
      </trkpt>
      <trkpt lat="46.6616" lon="5.646">
        <ele>521</ele>
        <time>2022-04-14T13:30:00Z</time>
      </trkpt>
      <trkpt lat="46.66151" lon="5.64593">
        <ele>520.6</ele>
        <time>2022-04-14T13:30:01Z</time>
      </trkpt>
      <trkpt lat="46.66143" lon="5.64585">
        <ele>520</ele>
        <time>2022-04-14T13:30:02Z</time>
      </trkpt>
      <trkpt lat="46.66127" lon="5.64568">
        <ele>519.6</ele>
        <time>2022-04-14T13:30:04Z</time>
      </trkpt>
      <trkpt lat="46.66084" lon="5.64523">
        <ele>519</ele>
        <time>2022-04-14T13:30:10Z</time>
      </trkpt>
      <trkpt lat="46.6605" lon="5.64494">
        <ele>520.2</ele>
        <time>2022-04-14T13:30:15Z</time>
      </trkpt>
      <trkpt lat="46.66044" lon="5.64491">
        <ele>520.4</ele>
        <time>2022-04-14T13:30:16Z</time>
      </trkpt>
      <trkpt lat="46.66037" lon="5.64489">
        <ele>520.6</ele>
        <time>2022-04-14T13:30:17Z</time>
      </trkpt>
      <trkpt lat="46.66016" lon="5.64484">
        <ele>521.6</ele>
        <time>2022-04-14T13:30:20Z</time>
      </trkpt>
      <trkpt lat="46.66008" lon="5.64483">
        <ele>522</ele>
        <time>2022-04-14T13:30:21Z</time>
      </trkpt>
      <trkpt lat="46.65966" lon="5.6448">
        <ele>522.6</ele>
        <time>2022-04-14T13:30:26Z</time>
      </trkpt>
      <trkpt lat="46.65908" lon="5.64471">
        <ele>521.6</ele>
        <time>2022-04-14T13:30:32Z</time>
      </trkpt>
      <trkpt lat="46.65898" lon="5.64469">
        <ele>521.4</ele>
        <time>2022-04-14T13:30:33Z</time>
      </trkpt>
      <trkpt lat="46.65877" lon="5.64465">
        <ele>520.4</ele>
        <time>2022-04-14T13:30:35Z</time>
      </trkpt>
      <trkpt lat="46.65844" lon="5.6446">
        <ele>519.8</ele>
        <time>2022-04-14T13:30:38Z</time>
      </trkpt>
      <trkpt lat="46.65809" lon="5.64456">
        <ele>519.2</ele>
        <time>2022-04-14T13:30:41Z</time>
      </trkpt>
      <trkpt lat="46.65785" lon="5.64457">
        <ele>518</ele>
        <time>2022-04-14T13:30:43Z</time>
      </trkpt>
      <trkpt lat="46.65749" lon="5.64458">
        <ele>516.6</ele>
        <time>2022-04-14T13:30:46Z</time>
      </trkpt>
      <trkpt lat="46.65714" lon="5.64457">
        <ele>515.4</ele>
        <time>2022-04-14T13:30:49Z</time>
      </trkpt>
      <trkpt lat="46.6569" lon="5.64455">
        <ele>514</ele>
        <time>2022-04-14T13:30:51Z</time>
      </trkpt>
      <trkpt lat="46.65644" lon="5.64449">
        <ele>512.6</ele>
        <time>2022-04-14T13:30:55Z</time>
      </trkpt>
      <trkpt lat="46.65622" lon="5.64448">
        <ele>512.4</ele>
        <time>2022-04-14T13:30:57Z</time>
      </trkpt>
      <trkpt lat="46.65612" lon="5.64448">
        <ele>512.2</ele>
        <time>2022-04-14T13:30:58Z</time>
      </trkpt>
      <trkpt lat="46.65581" lon="5.64457">
        <ele>511.8</ele>
        <time>2022-04-14T13:31:01Z</time>
      </trkpt>
      <trkpt lat="46.65571" lon="5.64459">
        <ele>511.6</ele>
        <time>2022-04-14T13:31:02Z</time>
      </trkpt>
      <trkpt lat="46.6555" lon="5.64458">
        <ele>511.6</ele>
        <time>2022-04-14T13:31:04Z</time>
      </trkpt>
      <trkpt lat="46.65513" lon="5.64442">
        <ele>512.2</ele>
        <time>2022-04-14T13:31:08Z</time>
      </trkpt>
      <trkpt lat="46.65475" lon="5.64425">
        <ele>513.2</ele>
        <time>2022-04-14T13:31:13Z</time>
      </trkpt>
      <trkpt lat="46.65459" lon="5.64422">
        <ele>513.6</ele>
        <time>2022-04-14T13:31:15Z</time>
      </trkpt>
      <trkpt lat="46.65451" lon="5.64422">
        <ele>513.8</ele>
        <time>2022-04-14T13:31:16Z</time>
      </trkpt>
      <trkpt lat="46.65436" lon="5.64424">
        <ele>514.4</ele>
        <time>2022-04-14T13:31:18Z</time>
      </trkpt>
      <trkpt lat="46.65413" lon="5.64428">
        <ele>514.6</ele>
        <time>2022-04-14T13:31:21Z</time>
      </trkpt>
      <trkpt lat="46.65397" lon="5.64429">
        <ele>515</ele>
        <time>2022-04-14T13:31:23Z</time>
      </trkpt>
      <trkpt lat="46.6539" lon="5.64428">
        <ele>515</ele>
        <time>2022-04-14T13:31:24Z</time>
      </trkpt>
      <trkpt lat="46.65375" lon="5.64422">
        <ele>515.2</ele>
        <time>2022-04-14T13:31:26Z</time>
      </trkpt>
      <trkpt lat="46.65361" lon="5.64412">
        <ele>515.2</ele>
        <time>2022-04-14T13:31:28Z</time>
      </trkpt>
      <trkpt lat="46.6535" lon="5.64397">
        <ele>515.2</ele>
        <time>2022-04-14T13:31:30Z</time>
      </trkpt>
      <trkpt lat="46.65342" lon="5.64379">
        <ele>515.4</ele>
        <time>2022-04-14T13:31:32Z</time>
      </trkpt>
      <trkpt lat="46.65334" lon="5.64361">
        <ele>515.8</ele>
        <time>2022-04-14T13:31:34Z</time>
      </trkpt>
      <trkpt lat="46.6533" lon="5.64353">
        <ele>516</ele>
        <time>2022-04-14T13:31:35Z</time>
      </trkpt>
      <trkpt lat="46.65319" lon="5.64339">
        <ele>516.2</ele>
        <time>2022-04-14T13:31:37Z</time>
      </trkpt>
      <trkpt lat="46.65313" lon="5.64333">
        <ele>516.4</ele>
        <time>2022-04-14T13:31:38Z</time>
      </trkpt>
      <trkpt lat="46.65292" lon="5.64321">
        <ele>516.8</ele>
        <time>2022-04-14T13:31:41Z</time>
      </trkpt>
      <trkpt lat="46.65242" lon="5.64306">
        <ele>517</ele>
        <time>2022-04-14T13:31:48Z</time>
      </trkpt>
      <trkpt lat="46.65188" lon="5.64291">
        <ele>517.2</ele>
        <time>2022-04-14T13:31:56Z</time>
      </trkpt>
      <trkpt lat="46.65139" lon="5.64278">
        <ele>518</ele>
        <time>2022-04-14T13:32:03Z</time>
      </trkpt>
      <trkpt lat="46.65083" lon="5.64268">
        <ele>518.2</ele>
        <time>2022-04-14T13:32:10Z</time>
      </trkpt>
      <trkpt lat="46.65038" lon="5.64273">
        <ele>517.6</ele>
        <time>2022-04-14T13:32:15Z</time>
      </trkpt>
      <trkpt lat="46.65008" lon="5.6428">
        <ele>516.8</ele>
        <time>2022-04-14T13:32:18Z</time>
      </trkpt>
      <trkpt lat="46.64988" lon="5.64288">
        <ele>516.6</ele>
        <time>2022-04-14T13:32:20Z</time>
      </trkpt>
      <trkpt lat="46.64977" lon="5.64293">
        <ele>515.8</ele>
        <time>2022-04-14T13:32:21Z</time>
      </trkpt>
      <trkpt lat="46.64955" lon="5.64303">
        <ele>514.6</ele>
        <time>2022-04-14T13:32:23Z</time>
      </trkpt>
      <trkpt lat="46.64922" lon="5.64319">
        <ele>513.2</ele>
        <time>2022-04-14T13:32:26Z</time>
      </trkpt>
      <trkpt lat="46.649" lon="5.64327">
        <ele>511.8</ele>
        <time>2022-04-14T13:32:28Z</time>
      </trkpt>
      <trkpt lat="46.64889" lon="5.64329">
        <ele>511.4</ele>
        <time>2022-04-14T13:32:29Z</time>
      </trkpt>
      <trkpt lat="46.64878" lon="5.64329">
        <ele>510.6</ele>
        <time>2022-04-14T13:32:30Z</time>
      </trkpt>
      <trkpt lat="46.64856" lon="5.64324">
        <ele>510.2</ele>
        <time>2022-04-14T13:32:32Z</time>
      </trkpt>
      <trkpt lat="46.64846" lon="5.6432">
        <ele>509.8</ele>
        <time>2022-04-14T13:32:33Z</time>
      </trkpt>
      <trkpt lat="46.64826" lon="5.6431">
        <ele>509.8</ele>
        <time>2022-04-14T13:32:35Z</time>
      </trkpt>
      <trkpt lat="46.64786" lon="5.64287">
        <ele>509.8</ele>
        <time>2022-04-14T13:32:39Z</time>
      </trkpt>
      <trkpt lat="46.64742" lon="5.64276">
        <ele>509.4</ele>
        <time>2022-04-14T13:32:43Z</time>
      </trkpt>
      <trkpt lat="46.64731" lon="5.64276">
        <ele>509.2</ele>
        <time>2022-04-14T13:32:44Z</time>
      </trkpt>
      <trkpt lat="46.6471" lon="5.6428">
        <ele>508.6</ele>
        <time>2022-04-14T13:32:46Z</time>
      </trkpt>
      <trkpt lat="46.647" lon="5.64282">
        <ele>508.4</ele>
        <time>2022-04-14T13:32:47Z</time>
      </trkpt>
      <trkpt lat="46.64662" lon="5.64284">
        <ele>508.2</ele>
        <time>2022-04-14T13:32:51Z</time>
      </trkpt>
      <trkpt lat="46.64621" lon="5.64271">
        <ele>508.8</ele>
        <time>2022-04-14T13:32:56Z</time>
      </trkpt>
      <trkpt lat="46.64605" lon="5.64265">
        <ele>509.6</ele>
        <time>2022-04-14T13:32:58Z</time>
      </trkpt>
      <trkpt lat="46.64575" lon="5.64255">
        <ele>510.4</ele>
        <time>2022-04-14T13:33:02Z</time>
      </trkpt>
      <trkpt lat="46.64552" lon="5.64256">
        <ele>510.8</ele>
        <time>2022-04-14T13:33:05Z</time>
      </trkpt>
      <trkpt lat="46.64545" lon="5.64258">
        <ele>511</ele>
        <time>2022-04-14T13:33:06Z</time>
      </trkpt>
      <trkpt lat="46.64538" lon="5.64262">
        <ele>511.4</ele>
        <time>2022-04-14T13:33:07Z</time>
      </trkpt>
      <trkpt lat="46.64525" lon="5.6427">
        <ele>512.2</ele>
        <time>2022-04-14T13:33:09Z</time>
      </trkpt>
      <trkpt lat="46.64519" lon="5.64275">
        <ele>512.6</ele>
        <time>2022-04-14T13:33:10Z</time>
      </trkpt>
      <trkpt lat="46.64512" lon="5.6428">
        <ele>513.2</ele>
        <time>2022-04-14T13:33:11Z</time>
      </trkpt>
      <trkpt lat="46.64495" lon="5.643">
        <ele>514.4</ele>
        <time>2022-04-14T13:33:14Z</time>
      </trkpt>
      <trkpt lat="46.6449" lon="5.64306">
        <ele>514.6</ele>
        <time>2022-04-14T13:33:15Z</time>
      </trkpt>
      <trkpt lat="46.64476" lon="5.64331">
        <ele>515.6</ele>
        <time>2022-04-14T13:33:18Z</time>
      </trkpt>
      <trkpt lat="46.64464" lon="5.64356">
        <ele>516.6</ele>
        <time>2022-04-14T13:33:21Z</time>
      </trkpt>
      <trkpt lat="46.64457" lon="5.64372">
        <ele>517.2</ele>
        <time>2022-04-14T13:33:23Z</time>
      </trkpt>
      <trkpt lat="46.64449" lon="5.64397">
        <ele>517.8</ele>
        <time>2022-04-14T13:33:26Z</time>
      </trkpt>
      <trkpt lat="46.64446" lon="5.64405">
        <ele>518</ele>
        <time>2022-04-14T13:33:27Z</time>
      </trkpt>
      <trkpt lat="46.6444" lon="5.64428">
        <ele>518.8</ele>
        <time>2022-04-14T13:33:30Z</time>
      </trkpt>
      <trkpt lat="46.64429" lon="5.64458">
        <ele>520</ele>
        <time>2022-04-14T13:33:34Z</time>
      </trkpt>
      <trkpt lat="46.64407" lon="5.64496">
        <ele>520.6</ele>
        <time>2022-04-14T13:33:40Z</time>
      </trkpt>
      <trkpt lat="46.64388" lon="5.64516">
        <ele>521.2</ele>
        <time>2022-04-14T13:33:44Z</time>
      </trkpt>
      <trkpt lat="46.64383" lon="5.6452">
        <ele>521.4</ele>
        <time>2022-04-14T13:33:45Z</time>
      </trkpt>
      <trkpt lat="46.64377" lon="5.64523">
        <ele>521.8</ele>
        <time>2022-04-14T13:33:46Z</time>
      </trkpt>
      <trkpt lat="46.64354" lon="5.64533">
        <ele>522.4</ele>
        <time>2022-04-14T13:33:50Z</time>
      </trkpt>
      <trkpt lat="46.64341" lon="5.64535">
        <ele>522.4</ele>
        <time>2022-04-14T13:33:52Z</time>
      </trkpt>
      <trkpt lat="46.64288" lon="5.64553">
        <ele>523</ele>
        <time>2022-04-14T13:34:00Z</time>
      </trkpt>
      <trkpt lat="46.64235" lon="5.64577">
        <ele>522.4</ele>
        <time>2022-04-14T13:34:07Z</time>
      </trkpt>
      <trkpt lat="46.64179" lon="5.64593">
        <ele>522.2</ele>
        <time>2022-04-14T13:34:14Z</time>
      </trkpt>
      <trkpt lat="46.64162" lon="5.64589">
        <ele>522</ele>
        <time>2022-04-14T13:34:16Z</time>
      </trkpt>
      <trkpt lat="46.64146" lon="5.64583">
        <ele>522</ele>
        <time>2022-04-14T13:34:18Z</time>
      </trkpt>
      <trkpt lat="46.64104" lon="5.64566">
        <ele>522</ele>
        <time>2022-04-14T13:34:24Z</time>
      </trkpt>
      <trkpt lat="46.6409" lon="5.64562">
        <ele>522.2</ele>
        <time>2022-04-14T13:34:26Z</time>
      </trkpt>
      <trkpt lat="46.64068" lon="5.64563">
        <ele>523.4</ele>
        <time>2022-04-14T13:34:29Z</time>
      </trkpt>
      <trkpt lat="46.6403" lon="5.64575">
        <ele>524.2</ele>
        <time>2022-04-14T13:34:34Z</time>
      </trkpt>
      <trkpt lat="46.63985" lon="5.6458">
        <ele>524.2</ele>
        <time>2022-04-14T13:34:39Z</time>
      </trkpt>
      <trkpt lat="46.6394" lon="5.6457">
        <ele>522.8</ele>
        <time>2022-04-14T13:34:44Z</time>
      </trkpt>
      <trkpt lat="46.639" lon="5.64545">
        <ele>522.4</ele>
        <time>2022-04-14T13:34:49Z</time>
      </trkpt>
      <trkpt lat="46.63861" lon="5.64513">
        <ele>523.6</ele>
        <time>2022-04-14T13:34:55Z</time>
      </trkpt>
      <trkpt lat="46.63854" lon="5.64508">
        <ele>523.8</ele>
        <time>2022-04-14T13:34:56Z</time>
      </trkpt>
      <trkpt lat="46.63832" lon="5.64488">
        <ele>524.6</ele>
        <time>2022-04-14T13:35:00Z</time>
      </trkpt>
      <trkpt lat="46.63826" lon="5.64484">
        <ele>524.8</ele>
        <time>2022-04-14T13:35:01Z</time>
      </trkpt>
      <trkpt lat="46.63811" lon="5.6447">
        <ele>525.8</ele>
        <time>2022-04-14T13:35:04Z</time>
      </trkpt>
      <trkpt lat="46.63795" lon="5.64457">
        <ele>527</ele>
        <time>2022-04-14T13:35:07Z</time>
      </trkpt>
      <trkpt lat="46.63769" lon="5.64436">
        <ele>528</ele>
        <time>2022-04-14T13:35:12Z</time>
      </trkpt>
      <trkpt lat="46.63759" lon="5.64427">
        <ele>528.4</ele>
        <time>2022-04-14T13:35:14Z</time>
      </trkpt>
      <trkpt lat="46.6375" lon="5.64418">
        <ele>529</ele>
        <time>2022-04-14T13:35:16Z</time>
      </trkpt>
      <trkpt lat="46.6373" lon="5.64402">
        <ele>529.8</ele>
        <time>2022-04-14T13:35:20Z</time>
      </trkpt>
      <trkpt lat="46.63725" lon="5.64399">
        <ele>530.2</ele>
        <time>2022-04-14T13:35:21Z</time>
      </trkpt>
      <trkpt lat="46.637" lon="5.64383">
        <ele>531.2</ele>
        <time>2022-04-14T13:35:26Z</time>
      </trkpt>
      <trkpt lat="46.63695" lon="5.6438">
        <ele>531.4</ele>
        <time>2022-04-14T13:35:27Z</time>
      </trkpt>
      <trkpt lat="46.6368" lon="5.64372">
        <ele>532.2</ele>
        <time>2022-04-14T13:35:30Z</time>
      </trkpt>
      <trkpt lat="46.63657" lon="5.64357">
        <ele>533.2</ele>
        <time>2022-04-14T13:35:35Z</time>
      </trkpt>
      <trkpt lat="46.63653" lon="5.64353">
        <ele>533.6</ele>
        <time>2022-04-14T13:35:36Z</time>
      </trkpt>
      <trkpt lat="46.63648" lon="5.6435">
        <ele>534</ele>
        <time>2022-04-14T13:35:37Z</time>
      </trkpt>
      <trkpt lat="46.6363" lon="5.64336">
        <ele>534.4</ele>
        <time>2022-04-14T13:35:41Z</time>
      </trkpt>
      <trkpt lat="46.63599" lon="5.64311">
        <ele>535</ele>
        <time>2022-04-14T13:35:47Z</time>
      </trkpt>
      <trkpt lat="46.63565" lon="5.64283">
        <ele>534.8</ele>
        <time>2022-04-14T13:35:53Z</time>
      </trkpt>
      <trkpt lat="46.63518" lon="5.64254">
        <ele>534.6</ele>
        <time>2022-04-14T13:36:01Z</time>
      </trkpt>
      <trkpt lat="46.63497" lon="5.64237">
        <ele>535.2</ele>
        <time>2022-04-14T13:36:05Z</time>
      </trkpt>
      <trkpt lat="46.63492" lon="5.64231">
        <ele>535.4</ele>
        <time>2022-04-14T13:36:06Z</time>
      </trkpt>
      <trkpt lat="46.63487" lon="5.64223">
        <ele>535.6</ele>
        <time>2022-04-14T13:36:07Z</time>
      </trkpt>
      <trkpt lat="46.63469" lon="5.64191">
        <ele>535.8</ele>
        <time>2022-04-14T13:36:11Z</time>
      </trkpt>
      <trkpt lat="46.63464" lon="5.64182">
        <ele>535.8</ele>
        <time>2022-04-14T13:36:12Z</time>
      </trkpt>
      <trkpt lat="46.63448" lon="5.64145">
        <ele>535.4</ele>
        <time>2022-04-14T13:36:16Z</time>
      </trkpt>
      <trkpt lat="46.63437" lon="5.64121">
        <ele>535</ele>
        <time>2022-04-14T13:36:19Z</time>
      </trkpt>
      <trkpt lat="46.63429" lon="5.64113">
        <ele>534.8</ele>
        <time>2022-04-14T13:36:21Z</time>
      </trkpt>
      <trkpt lat="46.63424" lon="5.64112">
        <ele>534.6</ele>
        <time>2022-04-14T13:36:23Z</time>
      </trkpt>
      <trkpt lat="46.63422" lon="5.64112">
        <ele>534.6</ele>
        <time>2022-04-14T13:36:24Z</time>
      </trkpt>
      <trkpt lat="46.63413" lon="5.64125">
        <ele>535</ele>
        <time>2022-04-14T13:36:28Z</time>
      </trkpt>
      <trkpt lat="46.63396" lon="5.6415">
        <ele>535.2</ele>
        <time>2022-04-14T13:36:32Z</time>
      </trkpt>
      <trkpt lat="46.63365" lon="5.64202">
        <ele>535.2</ele>
        <time>2022-04-14T13:36:39Z</time>
      </trkpt>
      <trkpt lat="46.63351" lon="5.64224">
        <ele>535.4</ele>
        <time>2022-04-14T13:36:42Z</time>
      </trkpt>
      <trkpt lat="46.63341" lon="5.64236">
        <ele>535.6</ele>
        <time>2022-04-14T13:36:44Z</time>
      </trkpt>
      <trkpt lat="46.63335" lon="5.6424">
        <ele>535.6</ele>
        <time>2022-04-14T13:36:45Z</time>
      </trkpt>
      <trkpt lat="46.63298" lon="5.64261">
        <ele>536.4</ele>
        <time>2022-04-14T13:36:51Z</time>
      </trkpt>
      <trkpt lat="46.63292" lon="5.64266">
        <ele>536.2</ele>
        <time>2022-04-14T13:36:52Z</time>
      </trkpt>
      <trkpt lat="46.63282" lon="5.64277">
        <ele>536.6</ele>
        <time>2022-04-14T13:36:54Z</time>
      </trkpt>
      <trkpt lat="46.63263" lon="5.643">
        <ele>537.4</ele>
        <time>2022-04-14T13:36:58Z</time>
      </trkpt>
      <trkpt lat="46.63247" lon="5.64318">
        <ele>537.6</ele>
        <time>2022-04-14T13:37:01Z</time>
      </trkpt>
      <trkpt lat="46.63233" lon="5.64326">
        <ele>537.6</ele>
        <time>2022-04-14T13:37:03Z</time>
      </trkpt>
      <trkpt lat="46.63225" lon="5.64328">
        <ele>537.6</ele>
        <time>2022-04-14T13:37:04Z</time>
      </trkpt>
      <trkpt lat="46.63203" lon="5.64329">
        <ele>537.8</ele>
        <time>2022-04-14T13:37:07Z</time>
      </trkpt>
      <trkpt lat="46.63196" lon="5.64328">
        <ele>537.8</ele>
        <time>2022-04-14T13:37:08Z</time>
      </trkpt>
      <trkpt lat="46.63162" lon="5.64326">
        <ele>538.2</ele>
        <time>2022-04-14T13:37:13Z</time>
      </trkpt>
      <trkpt lat="46.63151" lon="5.64328">
        <ele>539</ele>
        <time>2022-04-14T13:37:15Z</time>
      </trkpt>
      <trkpt lat="46.63133" lon="5.64332">
        <ele>540.2</ele>
        <time>2022-04-14T13:37:18Z</time>
      </trkpt>
      <trkpt lat="46.63106" lon="5.64337">
        <ele>541</ele>
        <time>2022-04-14T13:37:23Z</time>
      </trkpt>
      <trkpt lat="46.63101" lon="5.64336">
        <ele>541.2</ele>
        <time>2022-04-14T13:37:24Z</time>
      </trkpt>
      <trkpt lat="46.63082" lon="5.64332">
        <ele>542.2</ele>
        <time>2022-04-14T13:37:27Z</time>
      </trkpt>
      <trkpt lat="46.63067" lon="5.64331">
        <ele>542.2</ele>
        <time>2022-04-14T13:37:29Z</time>
      </trkpt>
      <trkpt lat="46.63024" lon="5.64327">
        <ele>542.2</ele>
        <time>2022-04-14T13:37:34Z</time>
      </trkpt>
      <trkpt lat="46.62985" lon="5.64321">
        <ele>541</ele>
        <time>2022-04-14T13:37:38Z</time>
      </trkpt>
      <trkpt lat="46.62975" lon="5.64319">
        <ele>540.4</ele>
        <time>2022-04-14T13:37:39Z</time>
      </trkpt>
      <trkpt lat="46.62964" lon="5.64318">
        <ele>540</ele>
        <time>2022-04-14T13:37:40Z</time>
      </trkpt>
      <trkpt lat="46.62943" lon="5.64315">
        <ele>539</ele>
        <time>2022-04-14T13:37:42Z</time>
      </trkpt>
      <trkpt lat="46.62921" lon="5.64311">
        <ele>537.6</ele>
        <time>2022-04-14T13:37:44Z</time>
      </trkpt>
      <trkpt lat="46.62899" lon="5.64308">
        <ele>536.4</ele>
        <time>2022-04-14T13:37:46Z</time>
      </trkpt>
      <trkpt lat="46.62888" lon="5.64307">
        <ele>536.2</ele>
        <time>2022-04-14T13:37:47Z</time>
      </trkpt>
      <trkpt lat="46.62855" lon="5.64301">
        <ele>535</ele>
        <time>2022-04-14T13:37:50Z</time>
      </trkpt>
      <trkpt lat="46.62823" lon="5.64296">
        <ele>533.6</ele>
        <time>2022-04-14T13:37:53Z</time>
      </trkpt>
      <trkpt lat="46.62802" lon="5.64292">
        <ele>533.2</ele>
        <time>2022-04-14T13:37:55Z</time>
      </trkpt>
      <trkpt lat="46.62762" lon="5.64277">
        <ele>532.4</ele>
        <time>2022-04-14T13:37:59Z</time>
      </trkpt>
      <trkpt lat="46.62753" lon="5.64271">
        <ele>532</ele>
        <time>2022-04-14T13:38:00Z</time>
      </trkpt>
      <trkpt lat="46.62713" lon="5.64246">
        <ele>531</ele>
        <time>2022-04-14T13:38:04Z</time>
      </trkpt>
      <trkpt lat="46.62703" lon="5.64241">
        <ele>531</ele>
        <time>2022-04-14T13:38:05Z</time>
      </trkpt>
      <trkpt lat="46.62693" lon="5.64238">
        <ele>530.8</ele>
        <time>2022-04-14T13:38:06Z</time>
      </trkpt>
      <trkpt lat="46.62644" lon="5.64231">
        <ele>530.4</ele>
        <time>2022-04-14T13:38:11Z</time>
      </trkpt>
      <trkpt lat="46.62594" lon="5.64229">
        <ele>531</ele>
        <time>2022-04-14T13:38:17Z</time>
      </trkpt>
      <trkpt lat="46.62571" lon="5.6423">
        <ele>532</ele>
        <time>2022-04-14T13:38:20Z</time>
      </trkpt>
      <trkpt lat="46.62564" lon="5.6423">
        <ele>532.4</ele>
        <time>2022-04-14T13:38:21Z</time>
      </trkpt>
      <trkpt lat="46.6255" lon="5.6423">
        <ele>533.2</ele>
        <time>2022-04-14T13:38:23Z</time>
      </trkpt>
      <trkpt lat="46.62542" lon="5.64228">
        <ele>533.4</ele>
        <time>2022-04-14T13:38:24Z</time>
      </trkpt>
      <trkpt lat="46.62529" lon="5.64223">
        <ele>533.8</ele>
        <time>2022-04-14T13:38:26Z</time>
      </trkpt>
      <trkpt lat="46.62524" lon="5.64218">
        <ele>534</ele>
        <time>2022-04-14T13:38:27Z</time>
      </trkpt>
      <trkpt lat="46.62509" lon="5.642">
        <ele>534.6</ele>
        <time>2022-04-14T13:38:30Z</time>
      </trkpt>
      <trkpt lat="46.625" lon="5.64189">
        <ele>536</ele>
        <time>2022-04-14T13:38:32Z</time>
      </trkpt>
      <trkpt lat="46.6248" lon="5.64169">
        <ele>537.4</ele>
        <time>2022-04-14T13:38:36Z</time>
      </trkpt>
      <trkpt lat="46.62466" lon="5.64156">
        <ele>538.4</ele>
        <time>2022-04-14T13:38:39Z</time>
      </trkpt>
      <trkpt lat="46.62447" lon="5.6414">
        <ele>539.8</ele>
        <time>2022-04-14T13:38:43Z</time>
      </trkpt>
      <trkpt lat="46.62422" lon="5.64117">
        <ele>540.2</ele>
        <time>2022-04-14T13:38:48Z</time>
      </trkpt>
      <trkpt lat="46.62407" lon="5.64102">
        <ele>540.8</ele>
        <time>2022-04-14T13:38:51Z</time>
      </trkpt>
      <trkpt lat="46.62388" lon="5.64089">
        <ele>541</ele>
        <time>2022-04-14T13:38:54Z</time>
      </trkpt>
      <trkpt lat="46.62344" lon="5.64064">
        <ele>540.8</ele>
        <time>2022-04-14T13:39:00Z</time>
      </trkpt>
      <trkpt lat="46.62313" lon="5.6405">
        <ele>539.8</ele>
        <time>2022-04-14T13:39:04Z</time>
      </trkpt>
      <trkpt lat="46.62305" lon="5.64049">
        <ele>539.6</ele>
        <time>2022-04-14T13:39:05Z</time>
      </trkpt>
      <trkpt lat="46.62266" lon="5.64051">
        <ele>539.6</ele>
        <time>2022-04-14T13:39:10Z</time>
      </trkpt>
      <trkpt lat="46.62233" lon="5.64065">
        <ele>540.4</ele>
        <time>2022-04-14T13:39:15Z</time>
      </trkpt>
      <trkpt lat="46.62227" lon="5.6407">
        <ele>540.8</ele>
        <time>2022-04-14T13:39:16Z</time>
      </trkpt>
      <trkpt lat="46.62183" lon="5.64097">
        <ele>541.4</ele>
        <time>2022-04-14T13:39:22Z</time>
      </trkpt>
      <trkpt lat="46.62166" lon="5.64101">
        <ele>541</ele>
        <time>2022-04-14T13:39:24Z</time>
      </trkpt>
      <trkpt lat="46.62149" lon="5.641">
        <ele>540.6</ele>
        <time>2022-04-14T13:39:26Z</time>
      </trkpt>
      <trkpt lat="46.62101" lon="5.64103">
        <ele>540</ele>
        <time>2022-04-14T13:39:32Z</time>
      </trkpt>
      <trkpt lat="46.62056" lon="5.6412">
        <ele>540.8</ele>
        <time>2022-04-14T13:39:38Z</time>
      </trkpt>
      <trkpt lat="46.62005" lon="5.64131">
        <ele>541.8</ele>
        <time>2022-04-14T13:39:45Z</time>
      </trkpt>
      <trkpt lat="46.61991" lon="5.64132">
        <ele>542</ele>
        <time>2022-04-14T13:39:47Z</time>
      </trkpt>
      <trkpt lat="46.61965" lon="5.64132">
        <ele>542.8</ele>
        <time>2022-04-14T13:39:51Z</time>
      </trkpt>
      <trkpt lat="46.61958" lon="5.64133">
        <ele>543.4</ele>
        <time>2022-04-14T13:39:52Z</time>
      </trkpt>
      <trkpt lat="46.61938" lon="5.64134">
        <ele>545</ele>
        <time>2022-04-14T13:39:55Z</time>
      </trkpt>
      <trkpt lat="46.61912" lon="5.64139">
        <ele>546</ele>
        <time>2022-04-14T13:39:59Z</time>
      </trkpt>
      <trkpt lat="46.61905" lon="5.6414">
        <ele>546.2</ele>
        <time>2022-04-14T13:40:00Z</time>
      </trkpt>
      <trkpt lat="46.61851" lon="5.64143">
        <ele>546.8</ele>
        <time>2022-04-14T13:40:08Z</time>
      </trkpt>
      <trkpt lat="46.61845" lon="5.64143">
        <ele>547.2</ele>
        <time>2022-04-14T13:40:09Z</time>
      </trkpt>
      <trkpt lat="46.61808" lon="5.64144">
        <ele>548.4</ele>
        <time>2022-04-14T13:40:15Z</time>
      </trkpt>
      <trkpt lat="46.61788" lon="5.64145">
        <ele>549.4</ele>
        <time>2022-04-14T13:40:18Z</time>
      </trkpt>
      <trkpt lat="46.6175" lon="5.64149">
        <ele>550.6</ele>
        <time>2022-04-14T13:40:24Z</time>
      </trkpt>
      <trkpt lat="46.61739" lon="5.64152">
        <ele>550.8</ele>
        <time>2022-04-14T13:40:26Z</time>
      </trkpt>
      <trkpt lat="46.61728" lon="5.6416">
        <ele>551.2</ele>
        <time>2022-04-14T13:40:28Z</time>
      </trkpt>
      <trkpt lat="46.61718" lon="5.64173">
        <ele>551.6</ele>
        <time>2022-04-14T13:40:30Z</time>
      </trkpt>
      <trkpt lat="46.61713" lon="5.64181">
        <ele>551.6</ele>
        <time>2022-04-14T13:40:31Z</time>
      </trkpt>
      <trkpt lat="46.61708" lon="5.64189">
        <ele>551.6</ele>
        <time>2022-04-14T13:40:32Z</time>
      </trkpt>
      <trkpt lat="46.61671" lon="5.64258">
        <ele>550.6</ele>
        <time>2022-04-14T13:40:40Z</time>
      </trkpt>
      <trkpt lat="46.6166" lon="5.64273">
        <ele>550.6</ele>
        <time>2022-04-14T13:40:42Z</time>
      </trkpt>
      <trkpt lat="46.61642" lon="5.6429">
        <ele>550.8</ele>
        <time>2022-04-14T13:40:45Z</time>
      </trkpt>
      <trkpt lat="46.61635" lon="5.64295">
        <ele>550.8</ele>
        <time>2022-04-14T13:40:46Z</time>
      </trkpt>
      <trkpt lat="46.61614" lon="5.64305">
        <ele>550.8</ele>
        <time>2022-04-14T13:40:49Z</time>
      </trkpt>
      <trkpt lat="46.61578" lon="5.64311">
        <ele>551</ele>
        <time>2022-04-14T13:40:54Z</time>
      </trkpt>
      <trkpt lat="46.61571" lon="5.64314">
        <ele>550.8</ele>
        <time>2022-04-14T13:40:55Z</time>
      </trkpt>
      <trkpt lat="46.61564" lon="5.64319">
        <ele>550.8</ele>
        <time>2022-04-14T13:40:56Z</time>
      </trkpt>
      <trkpt lat="46.61543" lon="5.64338">
        <ele>550.6</ele>
        <time>2022-04-14T13:40:59Z</time>
      </trkpt>
      <trkpt lat="46.61537" lon="5.64345">
        <ele>550.4</ele>
        <time>2022-04-14T13:41:00Z</time>
      </trkpt>
      <trkpt lat="46.61531" lon="5.64352">
        <ele>550.2</ele>
        <time>2022-04-14T13:41:01Z</time>
      </trkpt>
      <trkpt lat="46.61513" lon="5.64374">
        <ele>549.8</ele>
        <time>2022-04-14T13:41:04Z</time>
      </trkpt>
      <trkpt lat="46.61484" lon="5.64401">
        <ele>549.6</ele>
        <time>2022-04-14T13:41:08Z</time>
      </trkpt>
      <trkpt lat="46.61475" lon="5.64407">
        <ele>549.4</ele>
        <time>2022-04-14T13:41:09Z</time>
      </trkpt>
      <trkpt lat="46.61455" lon="5.64417">
        <ele>549.2</ele>
        <time>2022-04-14T13:41:11Z</time>
      </trkpt>
      <trkpt lat="46.61437" lon="5.64421">
        <ele>548.4</ele>
        <time>2022-04-14T13:41:13Z</time>
      </trkpt>
      <trkpt lat="46.61419" lon="5.64425">
        <ele>547.8</ele>
        <time>2022-04-14T13:41:15Z</time>
      </trkpt>
      <trkpt lat="46.61382" lon="5.64434">
        <ele>547</ele>
        <time>2022-04-14T13:41:19Z</time>
      </trkpt>
      <trkpt lat="46.61323" lon="5.64444">
        <ele>547</ele>
        <time>2022-04-14T13:41:26Z</time>
      </trkpt>
      <trkpt lat="46.61315" lon="5.64444">
        <ele>547.2</ele>
        <time>2022-04-14T13:41:27Z</time>
      </trkpt>
      <trkpt lat="46.61279" lon="5.6444">
        <ele>548.2</ele>
        <time>2022-04-14T13:41:32Z</time>
      </trkpt>
      <trkpt lat="46.6126" lon="5.64435">
        <ele>549</ele>
        <time>2022-04-14T13:41:35Z</time>
      </trkpt>
      <trkpt lat="46.61248" lon="5.64433">
        <ele>549.6</ele>
        <time>2022-04-14T13:41:37Z</time>
      </trkpt>
      <trkpt lat="46.61242" lon="5.64431">
        <ele>550</ele>
        <time>2022-04-14T13:41:38Z</time>
      </trkpt>
      <trkpt lat="46.61226" lon="5.64421">
        <ele>551.2</ele>
        <time>2022-04-14T13:41:41Z</time>
      </trkpt>
      <trkpt lat="46.61205" lon="5.64402">
        <ele>552.4</ele>
        <time>2022-04-14T13:41:45Z</time>
      </trkpt>
      <trkpt lat="46.6119" lon="5.64386">
        <ele>553.2</ele>
        <time>2022-04-14T13:41:48Z</time>
      </trkpt>
      <trkpt lat="46.61183" lon="5.64373">
        <ele>553.6</ele>
        <time>2022-04-14T13:41:50Z</time>
      </trkpt>
      <trkpt lat="46.61177" lon="5.64357">
        <ele>553.8</ele>
        <time>2022-04-14T13:41:52Z</time>
      </trkpt>
      <trkpt lat="46.61174" lon="5.6434">
        <ele>554.4</ele>
        <time>2022-04-14T13:41:54Z</time>
      </trkpt>
      <trkpt lat="46.61174" lon="5.64332">
        <ele>554.8</ele>
        <time>2022-04-14T13:41:55Z</time>
      </trkpt>
      <trkpt lat="46.61174" lon="5.64324">
        <ele>555</ele>
        <time>2022-04-14T13:41:56Z</time>
      </trkpt>
      <trkpt lat="46.61176" lon="5.64307">
        <ele>555.2</ele>
        <time>2022-04-14T13:41:58Z</time>
      </trkpt>
      <trkpt lat="46.61178" lon="5.64283">
        <ele>556</ele>
        <time>2022-04-14T13:42:01Z</time>
      </trkpt>
      <trkpt lat="46.61181" lon="5.6426">
        <ele>557</ele>
        <time>2022-04-14T13:42:04Z</time>
      </trkpt>
      <trkpt lat="46.61183" lon="5.64237">
        <ele>557.8</ele>
        <time>2022-04-14T13:42:07Z</time>
      </trkpt>
      <trkpt lat="46.61182" lon="5.6423">
        <ele>558.6</ele>
        <time>2022-04-14T13:42:08Z</time>
      </trkpt>
      <trkpt lat="46.61181" lon="5.64223">
        <ele>559.2</ele>
        <time>2022-04-14T13:42:09Z</time>
      </trkpt>
      <trkpt lat="46.61176" lon="5.6421">
        <ele>560</ele>
        <time>2022-04-14T13:42:11Z</time>
      </trkpt>
      <trkpt lat="46.61172" lon="5.64204">
        <ele>560.2</ele>
        <time>2022-04-14T13:42:12Z</time>
      </trkpt>
      <trkpt lat="46.61159" lon="5.64189">
        <ele>561.4</ele>
        <time>2022-04-14T13:42:15Z</time>
      </trkpt>
      <trkpt lat="46.61145" lon="5.64175">
        <ele>562.2</ele>
        <time>2022-04-14T13:42:18Z</time>
      </trkpt>
      <trkpt lat="46.61137" lon="5.64167">
        <ele>562.6</ele>
        <time>2022-04-14T13:42:20Z</time>
      </trkpt>
      <trkpt lat="46.61128" lon="5.64157">
        <ele>563.6</ele>
        <time>2022-04-14T13:42:23Z</time>
      </trkpt>
      <trkpt lat="46.61127" lon="5.64155">
        <ele>563.6</ele>
        <time>2022-04-14T13:42:24Z</time>
      </trkpt>
      <trkpt lat="46.61124" lon="5.64146">
        <ele>564.4</ele>
        <time>2022-04-14T13:42:27Z</time>
      </trkpt>
      <trkpt lat="46.61122" lon="5.64145">
        <ele>564.6</ele>
        <time>2022-04-14T13:42:28Z</time>
      </trkpt>
      <trkpt lat="46.61113" lon="5.64147">
        <ele>565.4</ele>
        <time>2022-04-14T13:42:31Z</time>
      </trkpt>
      <trkpt lat="46.6109" lon="5.64144">
        <ele>565.6</ele>
        <time>2022-04-14T13:42:35Z</time>
      </trkpt>
      <trkpt lat="46.61046" lon="5.64146">
        <ele>565</ele>
        <time>2022-04-14T13:42:42Z</time>
      </trkpt>
      <trkpt lat="46.60988" lon="5.64152">
        <ele>564.4</ele>
        <time>2022-04-14T13:42:50Z</time>
      </trkpt>
      <trkpt lat="46.60931" lon="5.6415">
        <ele>563.4</ele>
        <time>2022-04-14T13:42:57Z</time>
      </trkpt>
      <trkpt lat="46.60923" lon="5.6415">
        <ele>563.2</ele>
        <time>2022-04-14T13:42:58Z</time>
      </trkpt>
      <trkpt lat="46.60872" lon="5.64148">
        <ele>562.2</ele>
        <time>2022-04-14T13:43:04Z</time>
      </trkpt>
      <trkpt lat="46.60828" lon="5.64149">
        <ele>561.2</ele>
        <time>2022-04-14T13:43:09Z</time>
      </trkpt>
      <trkpt lat="46.60811" lon="5.64152">
        <ele>560.8</ele>
        <time>2022-04-14T13:43:11Z</time>
      </trkpt>
      <trkpt lat="46.60777" lon="5.64157">
        <ele>560</ele>
        <time>2022-04-14T13:43:15Z</time>
      </trkpt>
      <trkpt lat="46.60744" lon="5.64161">
        <ele>560</ele>
        <time>2022-04-14T13:43:19Z</time>
      </trkpt>
      <trkpt lat="46.60721" lon="5.64159">
        <ele>560.2</ele>
        <time>2022-04-14T13:43:22Z</time>
      </trkpt>
      <trkpt lat="46.60714" lon="5.64157">
        <ele>560.2</ele>
        <time>2022-04-14T13:43:23Z</time>
      </trkpt>
      <trkpt lat="46.60675" lon="5.64145">
        <ele>561</ele>
        <time>2022-04-14T13:43:28Z</time>
      </trkpt>
      <trkpt lat="46.60667" lon="5.64143">
        <ele>561.2</ele>
        <time>2022-04-14T13:43:29Z</time>
      </trkpt>
      <trkpt lat="46.60621" lon="5.64133">
        <ele>561</ele>
        <time>2022-04-14T13:43:35Z</time>
      </trkpt>
      <trkpt lat="46.60613" lon="5.64133">
        <ele>561</ele>
        <time>2022-04-14T13:43:36Z</time>
      </trkpt>
      <trkpt lat="46.60562" lon="5.64146">
        <ele>560</ele>
        <time>2022-04-14T13:43:42Z</time>
      </trkpt>
      <trkpt lat="46.60535" lon="5.64147">
        <ele>558.6</ele>
        <time>2022-04-14T13:43:45Z</time>
      </trkpt>
      <trkpt lat="46.60508" lon="5.64145">
        <ele>557.2</ele>
        <time>2022-04-14T13:43:48Z</time>
      </trkpt>
      <trkpt lat="46.60453" lon="5.64136">
        <ele>556.2</ele>
        <time>2022-04-14T13:43:54Z</time>
      </trkpt>
      <trkpt lat="46.60393" lon="5.64116">
        <ele>556</ele>
        <time>2022-04-14T13:44:01Z</time>
      </trkpt>
      <trkpt lat="46.60333" lon="5.64098">
        <ele>555.4</ele>
        <time>2022-04-14T13:44:08Z</time>
      </trkpt>
      <trkpt lat="46.60325" lon="5.64096">
        <ele>555.2</ele>
        <time>2022-04-14T13:44:09Z</time>
      </trkpt>
      <trkpt lat="46.60275" lon="5.64081">
        <ele>554.4</ele>
        <time>2022-04-14T13:44:15Z</time>
      </trkpt>
      <trkpt lat="46.60224" lon="5.64077">
        <ele>554.6</ele>
        <time>2022-04-14T13:44:21Z</time>
      </trkpt>
      <trkpt lat="46.60165" lon="5.64073">
        <ele>554.8</ele>
        <time>2022-04-14T13:44:28Z</time>
      </trkpt>
      <trkpt lat="46.60157" lon="5.64072">
        <ele>554.8</ele>
        <time>2022-04-14T13:44:29Z</time>
      </trkpt>
      <trkpt lat="46.60111" lon="5.64065">
        <ele>555.4</ele>
        <time>2022-04-14T13:44:35Z</time>
      </trkpt>
      <trkpt lat="46.60103" lon="5.64066">
        <ele>555.4</ele>
        <time>2022-04-14T13:44:36Z</time>
      </trkpt>
      <trkpt lat="46.60074" lon="5.64075">
        <ele>556</ele>
        <time>2022-04-14T13:44:40Z</time>
      </trkpt>
      <trkpt lat="46.60019" lon="5.6409">
        <ele>556.2</ele>
        <time>2022-04-14T13:44:48Z</time>
      </trkpt>
      <trkpt lat="46.59979" lon="5.64097">
        <ele>556.2</ele>
        <time>2022-04-14T13:44:54Z</time>
      </trkpt>
      <trkpt lat="46.59973" lon="5.64097">
        <ele>556.2</ele>
        <time>2022-04-14T13:44:55Z</time>
      </trkpt>
      <trkpt lat="46.59966" lon="5.64093">
        <ele>556</ele>
        <time>2022-04-14T13:44:57Z</time>
      </trkpt>
      <trkpt lat="46.59958" lon="5.64092">
        <ele>555.4</ele>
        <time>2022-04-14T13:45:01Z</time>
      </trkpt>
      <trkpt lat="46.59952" lon="5.641">
        <ele>555.4</ele>
        <time>2022-04-14T13:45:03Z</time>
      </trkpt>
      <trkpt lat="46.59948" lon="5.64107">
        <ele>555.2</ele>
        <time>2022-04-14T13:45:04Z</time>
      </trkpt>
      <trkpt lat="46.59931" lon="5.64142">
        <ele>554.8</ele>
        <time>2022-04-14T13:45:08Z</time>
      </trkpt>
      <trkpt lat="46.59921" lon="5.64159">
        <ele>554.4</ele>
        <time>2022-04-14T13:45:10Z</time>
      </trkpt>
      <trkpt lat="46.59899" lon="5.64205">
        <ele>553.4</ele>
        <time>2022-04-14T13:45:15Z</time>
      </trkpt>
      <trkpt lat="46.59894" lon="5.64213">
        <ele>553.2</ele>
        <time>2022-04-14T13:45:16Z</time>
      </trkpt>
      <trkpt lat="46.59865" lon="5.64275">
        <ele>553.2</ele>
        <time>2022-04-14T13:45:23Z</time>
      </trkpt>
      <trkpt lat="46.59845" lon="5.64314">
        <ele>554</ele>
        <time>2022-04-14T13:45:28Z</time>
      </trkpt>
      <trkpt lat="46.59841" lon="5.64322">
        <ele>554.6</ele>
        <time>2022-04-14T13:45:29Z</time>
      </trkpt>
      <trkpt lat="46.59823" lon="5.64357">
        <ele>555.6</ele>
        <time>2022-04-14T13:45:34Z</time>
      </trkpt>
      <trkpt lat="46.59819" lon="5.64363">
        <ele>555.8</ele>
        <time>2022-04-14T13:45:35Z</time>
      </trkpt>
      <trkpt lat="46.59805" lon="5.64394">
        <ele>556.8</ele>
        <time>2022-04-14T13:45:40Z</time>
      </trkpt>
      <trkpt lat="46.59802" lon="5.64399">
        <ele>557.4</ele>
        <time>2022-04-14T13:45:41Z</time>
      </trkpt>
      <trkpt lat="46.59796" lon="5.6441">
        <ele>557.8</ele>
        <time>2022-04-14T13:45:43Z</time>
      </trkpt>
      <trkpt lat="46.59784" lon="5.64433">
        <ele>559</ele>
        <time>2022-04-14T13:45:47Z</time>
      </trkpt>
      <trkpt lat="46.59774" lon="5.64451">
        <ele>559.8</ele>
        <time>2022-04-14T13:45:50Z</time>
      </trkpt>
      <trkpt lat="46.59771" lon="5.64456">
        <ele>560.2</ele>
        <time>2022-04-14T13:45:51Z</time>
      </trkpt>
      <trkpt lat="46.59765" lon="5.64468">
        <ele>560.6</ele>
        <time>2022-04-14T13:45:53Z</time>
      </trkpt>
      <trkpt lat="46.59757" lon="5.64484">
        <ele>561.2</ele>
        <time>2022-04-14T13:45:56Z</time>
      </trkpt>
      <trkpt lat="46.59743" lon="5.64514">
        <ele>562.2</ele>
        <time>2022-04-14T13:46:01Z</time>
      </trkpt>
      <trkpt lat="46.59738" lon="5.64526">
        <ele>562.8</ele>
        <time>2022-04-14T13:46:03Z</time>
      </trkpt>
      <trkpt lat="46.59736" lon="5.64533">
        <ele>563</ele>
        <time>2022-04-14T13:46:04Z</time>
      </trkpt>
      <trkpt lat="46.59733" lon="5.64547">
        <ele>563.4</ele>
        <time>2022-04-14T13:46:06Z</time>
      </trkpt>
      <trkpt lat="46.59728" lon="5.64562">
        <ele>563.6</ele>
        <time>2022-04-14T13:46:08Z</time>
      </trkpt>
      <trkpt lat="46.59725" lon="5.64569">
        <ele>563.6</ele>
        <time>2022-04-14T13:46:09Z</time>
      </trkpt>
      <trkpt lat="46.59721" lon="5.64575">
        <ele>563.6</ele>
        <time>2022-04-14T13:46:10Z</time>
      </trkpt>
      <trkpt lat="46.59706" lon="5.64591">
        <ele>564</ele>
        <time>2022-04-14T13:46:13Z</time>
      </trkpt>
      <trkpt lat="46.59675" lon="5.64621">
        <ele>563.6</ele>
        <time>2022-04-14T13:46:18Z</time>
      </trkpt>
      <trkpt lat="46.59652" lon="5.64636">
        <ele>563</ele>
        <time>2022-04-14T13:46:21Z</time>
      </trkpt>
      <trkpt lat="46.59636" lon="5.64641">
        <ele>562.6</ele>
        <time>2022-04-14T13:46:23Z</time>
      </trkpt>
      <trkpt lat="46.59627" lon="5.64641">
        <ele>562.2</ele>
        <time>2022-04-14T13:46:24Z</time>
      </trkpt>
      <trkpt lat="46.59618" lon="5.6464">
        <ele>562.2</ele>
        <time>2022-04-14T13:46:25Z</time>
      </trkpt>
      <trkpt lat="46.596" lon="5.64634">
        <ele>561.2</ele>
        <time>2022-04-14T13:46:27Z</time>
      </trkpt>
      <trkpt lat="46.59562" lon="5.64621">
        <ele>560</ele>
        <time>2022-04-14T13:46:31Z</time>
      </trkpt>
      <trkpt lat="46.59534" lon="5.64612">
        <ele>558.8</ele>
        <time>2022-04-14T13:46:34Z</time>
      </trkpt>
      <trkpt lat="46.59516" lon="5.64607">
        <ele>557.6</ele>
        <time>2022-04-14T13:46:36Z</time>
      </trkpt>
      <trkpt lat="46.59473" lon="5.64597">
        <ele>557.2</ele>
        <time>2022-04-14T13:46:41Z</time>
      </trkpt>
      <trkpt lat="46.59414" lon="5.64579">
        <ele>557.6</ele>
        <time>2022-04-14T13:46:48Z</time>
      </trkpt>
      <trkpt lat="46.59405" lon="5.64576">
        <ele>557.4</ele>
        <time>2022-04-14T13:46:49Z</time>
      </trkpt>
      <trkpt lat="46.59357" lon="5.64562">
        <ele>556.4</ele>
        <time>2022-04-14T13:46:54Z</time>
      </trkpt>
      <trkpt lat="46.59348" lon="5.64561">
        <ele>556.2</ele>
        <time>2022-04-14T13:46:55Z</time>
      </trkpt>
      <trkpt lat="46.59317" lon="5.64563">
        <ele>555.2</ele>
        <time>2022-04-14T13:46:58Z</time>
      </trkpt>
      <trkpt lat="46.59307" lon="5.64566">
        <ele>555</ele>
        <time>2022-04-14T13:46:59Z</time>
      </trkpt>
      <trkpt lat="46.59287" lon="5.64573">
        <ele>554</ele>
        <time>2022-04-14T13:47:01Z</time>
      </trkpt>
      <trkpt lat="46.59237" lon="5.64589">
        <ele>552.8</ele>
        <time>2022-04-14T13:47:06Z</time>
      </trkpt>
      <trkpt lat="46.59227" lon="5.6459">
        <ele>552.8</ele>
        <time>2022-04-14T13:47:07Z</time>
      </trkpt>
      <trkpt lat="46.59198" lon="5.64591">
        <ele>552.2</ele>
        <time>2022-04-14T13:47:10Z</time>
      </trkpt>
      <trkpt lat="46.59178" lon="5.646">
        <ele>552</ele>
        <time>2022-04-14T13:47:12Z</time>
      </trkpt>
      <trkpt lat="46.59168" lon="5.64608">
        <ele>552</ele>
        <time>2022-04-14T13:47:13Z</time>
      </trkpt>
      <trkpt lat="46.59159" lon="5.64615">
        <ele>551.8</ele>
        <time>2022-04-14T13:47:14Z</time>
      </trkpt>
      <trkpt lat="46.59129" lon="5.64637">
        <ele>550.6</ele>
        <time>2022-04-14T13:47:17Z</time>
      </trkpt>
      <trkpt lat="46.59119" lon="5.64644">
        <ele>550.4</ele>
        <time>2022-04-14T13:47:18Z</time>
      </trkpt>
      <trkpt lat="46.59099" lon="5.64657">
        <ele>549.4</ele>
        <time>2022-04-14T13:47:20Z</time>
      </trkpt>
      <trkpt lat="46.59059" lon="5.64684">
        <ele>547.8</ele>
        <time>2022-04-14T13:47:24Z</time>
      </trkpt>
      <trkpt lat="46.59049" lon="5.64692">
        <ele>547.6</ele>
        <time>2022-04-14T13:47:25Z</time>
      </trkpt>
      <trkpt lat="46.59031" lon="5.64707">
        <ele>546.2</ele>
        <time>2022-04-14T13:47:27Z</time>
      </trkpt>
      <trkpt lat="46.59005" lon="5.64731">
        <ele>545.6</ele>
        <time>2022-04-14T13:47:30Z</time>
      </trkpt>
      <trkpt lat="46.58979" lon="5.64753">
        <ele>545.4</ele>
        <time>2022-04-14T13:47:33Z</time>
      </trkpt>
      <trkpt lat="46.5897" lon="5.64757">
        <ele>545.2</ele>
        <time>2022-04-14T13:47:34Z</time>
      </trkpt>
      <trkpt lat="46.5896" lon="5.64759">
        <ele>545.2</ele>
        <time>2022-04-14T13:47:35Z</time>
      </trkpt>
      <trkpt lat="46.58941" lon="5.64759">
        <ele>545</ele>
        <time>2022-04-14T13:47:37Z</time>
      </trkpt>
      <trkpt lat="46.58923" lon="5.64752">
        <ele>544.6</ele>
        <time>2022-04-14T13:47:39Z</time>
      </trkpt>
      <trkpt lat="46.58915" lon="5.64747">
        <ele>544.6</ele>
        <time>2022-04-14T13:47:40Z</time>
      </trkpt>
      <trkpt lat="46.58899" lon="5.64737">
        <ele>544.6</ele>
        <time>2022-04-14T13:47:42Z</time>
      </trkpt>
      <trkpt lat="46.58883" lon="5.64734">
        <ele>544.8</ele>
        <time>2022-04-14T13:47:44Z</time>
      </trkpt>
      <trkpt lat="46.58866" lon="5.64738">
        <ele>545.4</ele>
        <time>2022-04-14T13:47:46Z</time>
      </trkpt>
      <trkpt lat="46.58858" lon="5.64743">
        <ele>545.6</ele>
        <time>2022-04-14T13:47:47Z</time>
      </trkpt>
      <trkpt lat="46.58844" lon="5.64752">
        <ele>546.2</ele>
        <time>2022-04-14T13:47:49Z</time>
      </trkpt>
      <trkpt lat="46.58822" lon="5.64764">
        <ele>546.6</ele>
        <time>2022-04-14T13:47:52Z</time>
      </trkpt>
      <trkpt lat="46.58787" lon="5.6478">
        <ele>547.4</ele>
        <time>2022-04-14T13:47:57Z</time>
      </trkpt>
      <trkpt lat="46.58781" lon="5.64783">
        <ele>547.6</ele>
        <time>2022-04-14T13:47:58Z</time>
      </trkpt>
      <trkpt lat="46.58774" lon="5.64786">
        <ele>548</ele>
        <time>2022-04-14T13:47:59Z</time>
      </trkpt>
      <trkpt lat="46.58761" lon="5.64791">
        <ele>548.4</ele>
        <time>2022-04-14T13:48:01Z</time>
      </trkpt>
      <trkpt lat="46.58746" lon="5.64795">
        <ele>548.8</ele>
        <time>2022-04-14T13:48:03Z</time>
      </trkpt>
      <trkpt lat="46.58738" lon="5.64795">
        <ele>548.8</ele>
        <time>2022-04-14T13:48:04Z</time>
      </trkpt>
      <trkpt lat="46.5873" lon="5.64793">
        <ele>549</ele>
        <time>2022-04-14T13:48:05Z</time>
      </trkpt>
      <trkpt lat="46.58714" lon="5.64786">
        <ele>549.2</ele>
        <time>2022-04-14T13:48:07Z</time>
      </trkpt>
      <trkpt lat="46.58707" lon="5.64782">
        <ele>549.4</ele>
        <time>2022-04-14T13:48:08Z</time>
      </trkpt>
      <trkpt lat="46.58673" lon="5.64761">
        <ele>549.4</ele>
        <time>2022-04-14T13:48:13Z</time>
      </trkpt>
      <trkpt lat="46.58667" lon="5.64758">
        <ele>549.4</ele>
        <time>2022-04-14T13:48:14Z</time>
      </trkpt>
      <trkpt lat="46.58661" lon="5.64756">
        <ele>549.6</ele>
        <time>2022-04-14T13:48:15Z</time>
      </trkpt>
      <trkpt lat="46.58655" lon="5.64754">
        <ele>549.6</ele>
        <time>2022-04-14T13:48:16Z</time>
      </trkpt>
      <trkpt lat="46.58649" lon="5.64754">
        <ele>550</ele>
        <time>2022-04-14T13:48:17Z</time>
      </trkpt>
      <trkpt lat="46.58643" lon="5.64755">
        <ele>550.2</ele>
        <time>2022-04-14T13:48:18Z</time>
      </trkpt>
      <trkpt lat="46.58638" lon="5.64756">
        <ele>550.8</ele>
        <time>2022-04-14T13:48:19Z</time>
      </trkpt>
      <trkpt lat="46.58619" lon="5.64759">
        <ele>551.4</ele>
        <time>2022-04-14T13:48:22Z</time>
      </trkpt>
      <trkpt lat="46.58581" lon="5.64753">
        <ele>551.4</ele>
        <time>2022-04-14T13:48:27Z</time>
      </trkpt>
      <trkpt lat="46.58573" lon="5.64752">
        <ele>551.2</ele>
        <time>2022-04-14T13:48:28Z</time>
      </trkpt>
      <trkpt lat="46.5855" lon="5.64757">
        <ele>550.4</ele>
        <time>2022-04-14T13:48:31Z</time>
      </trkpt>
      <trkpt lat="46.58529" lon="5.64761">
        <ele>549.8</ele>
        <time>2022-04-14T13:48:34Z</time>
      </trkpt>
      <trkpt lat="46.58522" lon="5.64759">
        <ele>549.8</ele>
        <time>2022-04-14T13:48:35Z</time>
      </trkpt>
      <trkpt lat="46.58515" lon="5.64756">
        <ele>549.8</ele>
        <time>2022-04-14T13:48:36Z</time>
      </trkpt>
      <trkpt lat="46.58502" lon="5.64747">
        <ele>549.6</ele>
        <time>2022-04-14T13:48:38Z</time>
      </trkpt>
      <trkpt lat="46.58495" lon="5.64742">
        <ele>549.6</ele>
        <time>2022-04-14T13:48:39Z</time>
      </trkpt>
      <trkpt lat="46.58463" lon="5.64715">
        <ele>549.6</ele>
        <time>2022-04-14T13:48:44Z</time>
      </trkpt>
      <trkpt lat="46.58415" lon="5.64685">
        <ele>550.6</ele>
        <time>2022-04-14T13:48:51Z</time>
      </trkpt>
      <trkpt lat="46.58408" lon="5.6468">
        <ele>550.8</ele>
        <time>2022-04-14T13:48:52Z</time>
      </trkpt>
      <trkpt lat="46.5836" lon="5.64643">
        <ele>550.2</ele>
        <time>2022-04-14T13:48:58Z</time>
      </trkpt>
      <trkpt lat="46.58334" lon="5.64619">
        <ele>549.2</ele>
        <time>2022-04-14T13:49:01Z</time>
      </trkpt>
      <trkpt lat="46.58306" lon="5.64595">
        <ele>548.2</ele>
        <time>2022-04-14T13:49:04Z</time>
      </trkpt>
      <trkpt lat="46.58288" lon="5.64577">
        <ele>547</ele>
        <time>2022-04-14T13:49:06Z</time>
      </trkpt>
      <trkpt lat="46.58251" lon="5.64537">
        <ele>545.2</ele>
        <time>2022-04-14T13:49:10Z</time>
      </trkpt>
      <trkpt lat="46.58243" lon="5.64526">
        <ele>544.8</ele>
        <time>2022-04-14T13:49:11Z</time>
      </trkpt>
      <trkpt lat="46.5822" lon="5.64491">
        <ele>544.2</ele>
        <time>2022-04-14T13:49:14Z</time>
      </trkpt>
      <trkpt lat="46.58205" lon="5.64469">
        <ele>544</ele>
        <time>2022-04-14T13:49:16Z</time>
      </trkpt>
      <trkpt lat="46.58196" lon="5.64459">
        <ele>544.2</ele>
        <time>2022-04-14T13:49:17Z</time>
      </trkpt>
      <trkpt lat="46.58186" lon="5.6445">
        <ele>544.2</ele>
        <time>2022-04-14T13:49:18Z</time>
      </trkpt>
      <trkpt lat="46.58165" lon="5.64437">
        <ele>544.2</ele>
        <time>2022-04-14T13:49:20Z</time>
      </trkpt>
      <trkpt lat="46.58132" lon="5.64418">
        <ele>543.8</ele>
        <time>2022-04-14T13:49:23Z</time>
      </trkpt>
      <trkpt lat="46.581" lon="5.64398">
        <ele>542.6</ele>
        <time>2022-04-14T13:49:26Z</time>
      </trkpt>
      <trkpt lat="46.58079" lon="5.64386">
        <ele>541</ele>
        <time>2022-04-14T13:49:28Z</time>
      </trkpt>
      <trkpt lat="46.58048" lon="5.64367">
        <ele>539.6</ele>
        <time>2022-04-14T13:49:31Z</time>
      </trkpt>
      <trkpt lat="46.57999" lon="5.64337">
        <ele>538.4</ele>
        <time>2022-04-14T13:49:36Z</time>
      </trkpt>
      <trkpt lat="46.57961" lon="5.64315">
        <ele>537.2</ele>
        <time>2022-04-14T13:49:40Z</time>
      </trkpt>
      <trkpt lat="46.57933" lon="5.64298">
        <ele>536.4</ele>
        <time>2022-04-14T13:49:43Z</time>
      </trkpt>
      <trkpt lat="46.57924" lon="5.64291">
        <ele>535.8</ele>
        <time>2022-04-14T13:49:44Z</time>
      </trkpt>
      <trkpt lat="46.57875" lon="5.64263">
        <ele>534.6</ele>
        <time>2022-04-14T13:49:49Z</time>
      </trkpt>
      <trkpt lat="46.57856" lon="5.64253">
        <ele>534.2</ele>
        <time>2022-04-14T13:49:51Z</time>
      </trkpt>
      <trkpt lat="46.57836" lon="5.64242">
        <ele>533.6</ele>
        <time>2022-04-14T13:49:53Z</time>
      </trkpt>
      <trkpt lat="46.57816" lon="5.64232">
        <ele>532.4</ele>
        <time>2022-04-14T13:49:55Z</time>
      </trkpt>
      <trkpt lat="46.57787" lon="5.64216">
        <ele>531.8</ele>
        <time>2022-04-14T13:49:58Z</time>
      </trkpt>
      <trkpt lat="46.57757" lon="5.64201">
        <ele>531.4</ele>
        <time>2022-04-14T13:50:01Z</time>
      </trkpt>
      <trkpt lat="46.57709" lon="5.64176">
        <ele>530.6</ele>
        <time>2022-04-14T13:50:06Z</time>
      </trkpt>
      <trkpt lat="46.57692" lon="5.64165">
        <ele>530</ele>
        <time>2022-04-14T13:50:08Z</time>
      </trkpt>
      <trkpt lat="46.57652" lon="5.64138">
        <ele>529.2</ele>
        <time>2022-04-14T13:50:13Z</time>
      </trkpt>
      <trkpt lat="46.57606" lon="5.64104">
        <ele>529</ele>
        <time>2022-04-14T13:50:19Z</time>
      </trkpt>
      <trkpt lat="46.57585" lon="5.64088">
        <ele>529</ele>
        <time>2022-04-14T13:50:22Z</time>
      </trkpt>
      <trkpt lat="46.5757" lon="5.64083">
        <ele>528.8</ele>
        <time>2022-04-14T13:50:24Z</time>
      </trkpt>
      <trkpt lat="46.57537" lon="5.64078">
        <ele>528.8</ele>
        <time>2022-04-14T13:50:29Z</time>
      </trkpt>
      <trkpt lat="46.57526" lon="5.64069">
        <ele>528.8</ele>
        <time>2022-04-14T13:50:31Z</time>
      </trkpt>
      <trkpt lat="46.57521" lon="5.64062">
        <ele>528.8</ele>
        <time>2022-04-14T13:50:32Z</time>
      </trkpt>
      <trkpt lat="46.57493" lon="5.64009">
        <ele>529</ele>
        <time>2022-04-14T13:50:39Z</time>
      </trkpt>
      <trkpt lat="46.57492" lon="5.63995">
        <ele>528.8</ele>
        <time>2022-04-14T13:50:41Z</time>
      </trkpt>
      <trkpt lat="46.57494" lon="5.63988">
        <ele>528.6</ele>
        <time>2022-04-14T13:50:42Z</time>
      </trkpt>
      <trkpt lat="46.57496" lon="5.6398">
        <ele>528.6</ele>
        <time>2022-04-14T13:50:43Z</time>
      </trkpt>
      <trkpt lat="46.57497" lon="5.63967">
        <ele>528.6</ele>
        <time>2022-04-14T13:50:45Z</time>
      </trkpt>
      <trkpt lat="46.57491" lon="5.63958">
        <ele>528.4</ele>
        <time>2022-04-14T13:50:47Z</time>
      </trkpt>
      <trkpt lat="46.57486" lon="5.63953">
        <ele>528.4</ele>
        <time>2022-04-14T13:50:48Z</time>
      </trkpt>
      <trkpt lat="46.57463" lon="5.63926">
        <ele>528.2</ele>
        <time>2022-04-14T13:50:52Z</time>
      </trkpt>
      <trkpt lat="46.57438" lon="5.63896">
        <ele>528</ele>
        <time>2022-04-14T13:50:56Z</time>
      </trkpt>
      <trkpt lat="46.57421" lon="5.63871">
        <ele>527.8</ele>
        <time>2022-04-14T13:50:59Z</time>
      </trkpt>
      <trkpt lat="46.57416" lon="5.63862">
        <ele>527.8</ele>
        <time>2022-04-14T13:51:00Z</time>
      </trkpt>
      <trkpt lat="46.57407" lon="5.63842">
        <ele>527.8</ele>
        <time>2022-04-14T13:51:02Z</time>
      </trkpt>
      <trkpt lat="46.574" lon="5.63819">
        <ele>527.4</ele>
        <time>2022-04-14T13:51:04Z</time>
      </trkpt>
      <trkpt lat="46.57387" lon="5.63773">
        <ele>526.8</ele>
        <time>2022-04-14T13:51:08Z</time>
      </trkpt>
      <trkpt lat="46.57378" lon="5.63741">
        <ele>526.6</ele>
        <time>2022-04-14T13:51:11Z</time>
      </trkpt>
      <trkpt lat="46.57355" lon="5.63665">
        <ele>526.2</ele>
        <time>2022-04-14T13:51:18Z</time>
      </trkpt>
      <trkpt lat="46.57352" lon="5.63655">
        <ele>526</ele>
        <time>2022-04-14T13:51:19Z</time>
      </trkpt>
      <trkpt lat="46.57345" lon="5.63635">
        <ele>525.8</ele>
        <time>2022-04-14T13:51:21Z</time>
      </trkpt>
      <trkpt lat="46.57333" lon="5.6362">
        <ele>525.6</ele>
        <time>2022-04-14T13:51:23Z</time>
      </trkpt>
      <trkpt lat="46.57309" lon="5.63614">
        <ele>524.8</ele>
        <time>2022-04-14T13:51:26Z</time>
      </trkpt>
      <trkpt lat="46.57277" lon="5.63606">
        <ele>524.6</ele>
        <time>2022-04-14T13:51:30Z</time>
      </trkpt>
      <trkpt lat="46.57252" lon="5.63596">
        <ele>524.2</ele>
        <time>2022-04-14T13:51:33Z</time>
      </trkpt>
      <trkpt lat="46.57219" lon="5.63584">
        <ele>524</ele>
        <time>2022-04-14T13:51:37Z</time>
      </trkpt>
      <trkpt lat="46.57203" lon="5.63582">
        <ele>523.8</ele>
        <time>2022-04-14T13:51:39Z</time>
      </trkpt>
      <trkpt lat="46.57155" lon="5.63584">
        <ele>524.2</ele>
        <time>2022-04-14T13:51:45Z</time>
      </trkpt>
      <trkpt lat="46.57112" lon="5.63573">
        <ele>525</ele>
        <time>2022-04-14T13:51:51Z</time>
      </trkpt>
      <trkpt lat="46.57076" lon="5.63554">
        <ele>525.6</ele>
        <time>2022-04-14T13:51:56Z</time>
      </trkpt>
      <trkpt lat="46.57069" lon="5.63549">
        <ele>525.6</ele>
        <time>2022-04-14T13:51:57Z</time>
      </trkpt>
      <trkpt lat="46.57027" lon="5.63512">
        <ele>525.8</ele>
        <time>2022-04-14T13:52:03Z</time>
      </trkpt>
      <trkpt lat="46.57006" lon="5.63496">
        <ele>525.4</ele>
        <time>2022-04-14T13:52:06Z</time>
      </trkpt>
      <trkpt lat="46.56984" lon="5.63482">
        <ele>525.4</ele>
        <time>2022-04-14T13:52:09Z</time>
      </trkpt>
      <trkpt lat="46.56932" lon="5.63442">
        <ele>526.2</ele>
        <time>2022-04-14T13:52:17Z</time>
      </trkpt>
      <trkpt lat="46.56919" lon="5.63429">
        <ele>526.4</ele>
        <time>2022-04-14T13:52:19Z</time>
      </trkpt>
      <trkpt lat="46.56913" lon="5.63422">
        <ele>526.6</ele>
        <time>2022-04-14T13:52:20Z</time>
      </trkpt>
      <trkpt lat="46.56895" lon="5.63401">
        <ele>527.6</ele>
        <time>2022-04-14T13:52:23Z</time>
      </trkpt>
      <trkpt lat="46.56889" lon="5.63393">
        <ele>527.8</ele>
        <time>2022-04-14T13:52:24Z</time>
      </trkpt>
      <trkpt lat="46.56843" lon="5.63339">
        <ele>527</ele>
        <time>2022-04-14T13:52:31Z</time>
      </trkpt>
      <trkpt lat="46.56829" lon="5.63324">
        <ele>526.6</ele>
        <time>2022-04-14T13:52:33Z</time>
      </trkpt>
      <trkpt lat="46.56822" lon="5.63317">
        <ele>526.4</ele>
        <time>2022-04-14T13:52:34Z</time>
      </trkpt>
      <trkpt lat="46.56807" lon="5.63307">
        <ele>526.2</ele>
        <time>2022-04-14T13:52:36Z</time>
      </trkpt>
      <trkpt lat="46.56751" lon="5.63282">
        <ele>525.8</ele>
        <time>2022-04-14T13:52:43Z</time>
      </trkpt>
      <trkpt lat="46.56697" lon="5.63261">
        <ele>526</ele>
        <time>2022-04-14T13:52:50Z</time>
      </trkpt>
      <trkpt lat="46.5669" lon="5.63257">
        <ele>526.2</ele>
        <time>2022-04-14T13:52:51Z</time>
      </trkpt>
      <trkpt lat="46.56683" lon="5.6325">
        <ele>526.4</ele>
        <time>2022-04-14T13:52:52Z</time>
      </trkpt>
      <trkpt lat="46.56673" lon="5.63232">
        <ele>526.2</ele>
        <time>2022-04-14T13:52:54Z</time>
      </trkpt>
      <trkpt lat="46.56669" lon="5.63207">
        <ele>526.4</ele>
        <time>2022-04-14T13:52:56Z</time>
      </trkpt>
      <trkpt lat="46.56669" lon="5.63194">
        <ele>526.2</ele>
        <time>2022-04-14T13:52:57Z</time>
      </trkpt>
      <trkpt lat="46.56673" lon="5.63154">
        <ele>525.6</ele>
        <time>2022-04-14T13:53:00Z</time>
      </trkpt>
      <trkpt lat="46.56675" lon="5.6314">
        <ele>525</ele>
        <time>2022-04-14T13:53:01Z</time>
      </trkpt>
      <trkpt lat="46.56679" lon="5.63126">
        <ele>524.4</ele>
        <time>2022-04-14T13:53:02Z</time>
      </trkpt>
      <trkpt lat="46.56681" lon="5.63112">
        <ele>523.8</ele>
        <time>2022-04-14T13:53:03Z</time>
      </trkpt>
      <trkpt lat="46.56682" lon="5.63082">
        <ele>523.2</ele>
        <time>2022-04-14T13:53:05Z</time>
      </trkpt>
      <trkpt lat="46.5668" lon="5.63067">
        <ele>522.2</ele>
        <time>2022-04-14T13:53:06Z</time>
      </trkpt>
      <trkpt lat="46.56676" lon="5.63037">
        <ele>520.8</ele>
        <time>2022-04-14T13:53:08Z</time>
      </trkpt>
      <trkpt lat="46.56672" lon="5.63023">
        <ele>520</ele>
        <time>2022-04-14T13:53:09Z</time>
      </trkpt>
      <trkpt lat="46.56669" lon="5.63009">
        <ele>519.2</ele>
        <time>2022-04-14T13:53:10Z</time>
      </trkpt>
      <trkpt lat="46.56649" lon="5.62947">
        <ele>518.2</ele>
        <time>2022-04-14T13:53:15Z</time>
      </trkpt>
      <trkpt lat="46.56638" lon="5.62923">
        <ele>518</ele>
        <time>2022-04-14T13:53:17Z</time>
      </trkpt>
      <trkpt lat="46.56618" lon="5.6289">
        <ele>517.4</ele>
        <time>2022-04-14T13:53:20Z</time>
      </trkpt>
      <trkpt lat="46.56611" lon="5.62879">
        <ele>517.2</ele>
        <time>2022-04-14T13:53:21Z</time>
      </trkpt>
      <trkpt lat="46.56572" lon="5.6283">
        <ele>516</ele>
        <time>2022-04-14T13:53:26Z</time>
      </trkpt>
      <trkpt lat="46.56519" lon="5.62778">
        <ele>515</ele>
        <time>2022-04-14T13:53:32Z</time>
      </trkpt>
      <trkpt lat="46.56501" lon="5.62761">
        <ele>513.8</ele>
        <time>2022-04-14T13:53:34Z</time>
      </trkpt>
      <trkpt lat="46.56466" lon="5.62727">
        <ele>512.6</ele>
        <time>2022-04-14T13:53:38Z</time>
      </trkpt>
      <trkpt lat="46.56444" lon="5.627">
        <ele>512</ele>
        <time>2022-04-14T13:53:41Z</time>
      </trkpt>
      <trkpt lat="46.56432" lon="5.6268">
        <ele>511.6</ele>
        <time>2022-04-14T13:53:43Z</time>
      </trkpt>
      <trkpt lat="46.56427" lon="5.62668">
        <ele>511.6</ele>
        <time>2022-04-14T13:53:44Z</time>
      </trkpt>
      <trkpt lat="46.56422" lon="5.62655">
        <ele>511.6</ele>
        <time>2022-04-14T13:53:45Z</time>
      </trkpt>
      <trkpt lat="46.56417" lon="5.62625">
        <ele>511.2</ele>
        <time>2022-04-14T13:53:47Z</time>
      </trkpt>
      <trkpt lat="46.56417" lon="5.6261">
        <ele>511.2</ele>
        <time>2022-04-14T13:53:48Z</time>
      </trkpt>
      <trkpt lat="46.56418" lon="5.62596">
        <ele>511</ele>
        <time>2022-04-14T13:53:49Z</time>
      </trkpt>
      <trkpt lat="46.56422" lon="5.62566">
        <ele>510.8</ele>
        <time>2022-04-14T13:53:51Z</time>
      </trkpt>
      <trkpt lat="46.56428" lon="5.62538">
        <ele>510.4</ele>
        <time>2022-04-14T13:53:53Z</time>
      </trkpt>
      <trkpt lat="46.5644" lon="5.62482">
        <ele>509.4</ele>
        <time>2022-04-14T13:53:57Z</time>
      </trkpt>
      <trkpt lat="46.56442" lon="5.62468">
        <ele>509.2</ele>
        <time>2022-04-14T13:53:58Z</time>
      </trkpt>
      <trkpt lat="46.56448" lon="5.62441">
        <ele>508.8</ele>
        <time>2022-04-14T13:54:00Z</time>
      </trkpt>
      <trkpt lat="46.56455" lon="5.62386">
        <ele>508.4</ele>
        <time>2022-04-14T13:54:04Z</time>
      </trkpt>
      <trkpt lat="46.56455" lon="5.62372">
        <ele>508.2</ele>
        <time>2022-04-14T13:54:05Z</time>
      </trkpt>
      <trkpt lat="46.56453" lon="5.62359">
        <ele>508.2</ele>
        <time>2022-04-14T13:54:06Z</time>
      </trkpt>
      <trkpt lat="46.56448" lon="5.62333">
        <ele>508.2</ele>
        <time>2022-04-14T13:54:08Z</time>
      </trkpt>
      <trkpt lat="46.56428" lon="5.62252">
        <ele>507.4</ele>
        <time>2022-04-14T13:54:14Z</time>
      </trkpt>
      <trkpt lat="46.56422" lon="5.62225">
        <ele>507</ele>
        <time>2022-04-14T13:54:16Z</time>
      </trkpt>
      <trkpt lat="46.56419" lon="5.62212">
        <ele>506.6</ele>
        <time>2022-04-14T13:54:17Z</time>
      </trkpt>
      <trkpt lat="46.56412" lon="5.62186">
        <ele>506</ele>
        <time>2022-04-14T13:54:19Z</time>
      </trkpt>
      <trkpt lat="46.56398" lon="5.62129">
        <ele>505.8</ele>
        <time>2022-04-14T13:54:24Z</time>
      </trkpt>
      <trkpt lat="46.56379" lon="5.62053">
        <ele>506.4</ele>
        <time>2022-04-14T13:54:31Z</time>
      </trkpt>
      <trkpt lat="46.56374" lon="5.62032">
        <ele>506.6</ele>
        <time>2022-04-14T13:54:33Z</time>
      </trkpt>
      <trkpt lat="46.56369" lon="5.62012">
        <ele>507</ele>
        <time>2022-04-14T13:54:35Z</time>
      </trkpt>
      <trkpt lat="46.56361" lon="5.6196">
        <ele>507.2</ele>
        <time>2022-04-14T13:54:40Z</time>
      </trkpt>
      <trkpt lat="46.56359" lon="5.61912">
        <ele>507.6</ele>
        <time>2022-04-14T13:54:45Z</time>
      </trkpt>
      <trkpt lat="46.56361" lon="5.61879">
        <ele>508.2</ele>
        <time>2022-04-14T13:54:49Z</time>
      </trkpt>
      <trkpt lat="46.56363" lon="5.61856">
        <ele>508.4</ele>
        <time>2022-04-14T13:54:52Z</time>
      </trkpt>
      <trkpt lat="46.56367" lon="5.61825">
        <ele>509.2</ele>
        <time>2022-04-14T13:54:56Z</time>
      </trkpt>
      <trkpt lat="46.56369" lon="5.61798">
        <ele>510.2</ele>
        <time>2022-04-14T13:55:00Z</time>
      </trkpt>
      <trkpt lat="46.56369" lon="5.61792">
        <ele>510.4</ele>
        <time>2022-04-14T13:55:01Z</time>
      </trkpt>
      <trkpt lat="46.5637" lon="5.61779">
        <ele>511.4</ele>
        <time>2022-04-14T13:55:04Z</time>
      </trkpt>
      <trkpt lat="46.56371" lon="5.61772">
        <ele>512</ele>
        <time>2022-04-14T13:55:06Z</time>
      </trkpt>
      <trkpt lat="46.5637" lon="5.61768">
        <ele>512.6</ele>
        <time>2022-04-14T13:55:07Z</time>
      </trkpt>
      <trkpt lat="46.56364" lon="5.61759">
        <ele>513</ele>
        <time>2022-04-14T13:55:09Z</time>
      </trkpt>
      <trkpt lat="46.56351" lon="5.61744">
        <ele>513.6</ele>
        <time>2022-04-14T13:55:12Z</time>
      </trkpt>
      <trkpt lat="46.56346" lon="5.61738">
        <ele>513.6</ele>
        <time>2022-04-14T13:55:13Z</time>
      </trkpt>
      <trkpt lat="46.56313" lon="5.61697">
        <ele>514.4</ele>
        <time>2022-04-14T13:55:20Z</time>
      </trkpt>
      <trkpt lat="46.56272" lon="5.61645">
        <ele>514.4</ele>
        <time>2022-04-14T13:55:28Z</time>
      </trkpt>
      <trkpt lat="46.56267" lon="5.61639">
        <ele>514.4</ele>
        <time>2022-04-14T13:55:29Z</time>
      </trkpt>
      <trkpt lat="46.56234" lon="5.61587">
        <ele>514.2</ele>
        <time>2022-04-14T13:55:36Z</time>
      </trkpt>
      <trkpt lat="46.56199" lon="5.61521">
        <ele>514</ele>
        <time>2022-04-14T13:55:44Z</time>
      </trkpt>
      <trkpt lat="46.56168" lon="5.61456">
        <ele>514.2</ele>
        <time>2022-04-14T13:55:51Z</time>
      </trkpt>
      <trkpt lat="46.56164" lon="5.61447">
        <ele>514.4</ele>
        <time>2022-04-14T13:55:52Z</time>
      </trkpt>
      <trkpt lat="46.56145" lon="5.61409">
        <ele>514.6</ele>
        <time>2022-04-14T13:55:56Z</time>
      </trkpt>
      <trkpt lat="46.56127" lon="5.61372">
        <ele>515.2</ele>
        <time>2022-04-14T13:56:00Z</time>
      </trkpt>
      <trkpt lat="46.56095" lon="5.61306">
        <ele>515</ele>
        <time>2022-04-14T13:56:07Z</time>
      </trkpt>
      <trkpt lat="46.56086" lon="5.61288">
        <ele>515</ele>
        <time>2022-04-14T13:56:09Z</time>
      </trkpt>
      <trkpt lat="46.56052" lon="5.61218">
        <ele>515.8</ele>
        <time>2022-04-14T13:56:17Z</time>
      </trkpt>
      <trkpt lat="46.56048" lon="5.6121">
        <ele>516</ele>
        <time>2022-04-14T13:56:18Z</time>
      </trkpt>
      <trkpt lat="46.56019" lon="5.61151">
        <ele>517.2</ele>
        <time>2022-04-14T13:56:25Z</time>
      </trkpt>
      <trkpt lat="46.56007" lon="5.61127">
        <ele>517.6</ele>
        <time>2022-04-14T13:56:28Z</time>
      </trkpt>
      <trkpt lat="46.55986" lon="5.61078">
        <ele>518.2</ele>
        <time>2022-04-14T13:56:34Z</time>
      </trkpt>
      <trkpt lat="46.55977" lon="5.61051">
        <ele>518.6</ele>
        <time>2022-04-14T13:56:37Z</time>
      </trkpt>
      <trkpt lat="46.55954" lon="5.60972">
        <ele>519.2</ele>
        <time>2022-04-14T13:56:45Z</time>
      </trkpt>
      <trkpt lat="46.55947" lon="5.6094">
        <ele>519.4</ele>
        <time>2022-04-14T13:56:48Z</time>
      </trkpt>
      <trkpt lat="46.55941" lon="5.60907">
        <ele>519.4</ele>
        <time>2022-04-14T13:56:51Z</time>
      </trkpt>
      <trkpt lat="46.55936" lon="5.60874">
        <ele>519.6</ele>
        <time>2022-04-14T13:56:54Z</time>
      </trkpt>
      <trkpt lat="46.55934" lon="5.60851">
        <ele>519.8</ele>
        <time>2022-04-14T13:56:56Z</time>
      </trkpt>
      <trkpt lat="46.55934" lon="5.60839">
        <ele>519.8</ele>
        <time>2022-04-14T13:56:57Z</time>
      </trkpt>
      <trkpt lat="46.55932" lon="5.60805">
        <ele>520</ele>
        <time>2022-04-14T13:57:00Z</time>
      </trkpt>
      <trkpt lat="46.5592" lon="5.6072">
        <ele>520.2</ele>
        <time>2022-04-14T13:57:07Z</time>
      </trkpt>
      <trkpt lat="46.55902" lon="5.60644">
        <ele>519.2</ele>
        <time>2022-04-14T13:57:13Z</time>
      </trkpt>
      <trkpt lat="46.55892" lon="5.60606">
        <ele>518.6</ele>
        <time>2022-04-14T13:57:16Z</time>
      </trkpt>
      <trkpt lat="46.55884" lon="5.60582">
        <ele>518.4</ele>
        <time>2022-04-14T13:57:18Z</time>
      </trkpt>
      <trkpt lat="46.55878" lon="5.60571">
        <ele>518.4</ele>
        <time>2022-04-14T13:57:19Z</time>
      </trkpt>
      <trkpt lat="46.55872" lon="5.60561">
        <ele>518</ele>
        <time>2022-04-14T13:57:20Z</time>
      </trkpt>
      <trkpt lat="46.55856" lon="5.60546">
        <ele>517.4</ele>
        <time>2022-04-14T13:57:22Z</time>
      </trkpt>
      <trkpt lat="46.55846" lon="5.6054">
        <ele>517</ele>
        <time>2022-04-14T13:57:23Z</time>
      </trkpt>
      <trkpt lat="46.55797" lon="5.60526">
        <ele>516.2</ele>
        <time>2022-04-14T13:57:28Z</time>
      </trkpt>
      <trkpt lat="46.55766" lon="5.60518">
        <ele>515.8</ele>
        <time>2022-04-14T13:57:31Z</time>
      </trkpt>
      <trkpt lat="46.55747" lon="5.60505">
        <ele>515</ele>
        <time>2022-04-14T13:57:33Z</time>
      </trkpt>
      <trkpt lat="46.55738" lon="5.60496">
        <ele>514.6</ele>
        <time>2022-04-14T13:57:34Z</time>
      </trkpt>
      <trkpt lat="46.55731" lon="5.60486">
        <ele>514.4</ele>
        <time>2022-04-14T13:57:35Z</time>
      </trkpt>
      <trkpt lat="46.55724" lon="5.60474">
        <ele>514.2</ele>
        <time>2022-04-14T13:57:36Z</time>
      </trkpt>
      <trkpt lat="46.55701" lon="5.60422">
        <ele>513.4</ele>
        <time>2022-04-14T13:57:40Z</time>
      </trkpt>
      <trkpt lat="46.55694" lon="5.60408">
        <ele>512.4</ele>
        <time>2022-04-14T13:57:41Z</time>
      </trkpt>
      <trkpt lat="46.55688" lon="5.60396">
        <ele>512</ele>
        <time>2022-04-14T13:57:42Z</time>
      </trkpt>
      <trkpt lat="46.5568" lon="5.60384">
        <ele>511.6</ele>
        <time>2022-04-14T13:57:43Z</time>
      </trkpt>
      <trkpt lat="46.55672" lon="5.60373">
        <ele>511</ele>
        <time>2022-04-14T13:57:44Z</time>
      </trkpt>
      <trkpt lat="46.55663" lon="5.60365">
        <ele>510.8</ele>
        <time>2022-04-14T13:57:45Z</time>
      </trkpt>
      <trkpt lat="46.55643" lon="5.60353">
        <ele>510.4</ele>
        <time>2022-04-14T13:57:47Z</time>
      </trkpt>
      <trkpt lat="46.55621" lon="5.60348">
        <ele>510</ele>
        <time>2022-04-14T13:57:49Z</time>
      </trkpt>
      <trkpt lat="46.55598" lon="5.60347">
        <ele>509.2</ele>
        <time>2022-04-14T13:57:51Z</time>
      </trkpt>
      <trkpt lat="46.55576" lon="5.60345">
        <ele>508.8</ele>
        <time>2022-04-14T13:57:53Z</time>
      </trkpt>
      <trkpt lat="46.55518" lon="5.6034">
        <ele>507.8</ele>
        <time>2022-04-14T13:57:58Z</time>
      </trkpt>
      <trkpt lat="46.55507" lon="5.60337">
        <ele>507.6</ele>
        <time>2022-04-14T13:57:59Z</time>
      </trkpt>
      <trkpt lat="46.55451" lon="5.60319">
        <ele>506.8</ele>
        <time>2022-04-14T13:58:04Z</time>
      </trkpt>
      <trkpt lat="46.55429" lon="5.60311">
        <ele>506.2</ele>
        <time>2022-04-14T13:58:06Z</time>
      </trkpt>
      <trkpt lat="46.55418" lon="5.60307">
        <ele>505.8</ele>
        <time>2022-04-14T13:58:07Z</time>
      </trkpt>
      <trkpt lat="46.55356" lon="5.60285">
        <ele>504.6</ele>
        <time>2022-04-14T13:58:13Z</time>
      </trkpt>
      <trkpt lat="46.55345" lon="5.60282">
        <ele>504.6</ele>
        <time>2022-04-14T13:58:14Z</time>
      </trkpt>
      <trkpt lat="46.55325" lon="5.60278">
        <ele>504.4</ele>
        <time>2022-04-14T13:58:16Z</time>
      </trkpt>
      <trkpt lat="46.55303" lon="5.6028">
        <ele>504.4</ele>
        <time>2022-04-14T13:58:18Z</time>
      </trkpt>
      <trkpt lat="46.55251" lon="5.60301">
        <ele>504.2</ele>
        <time>2022-04-14T13:58:23Z</time>
      </trkpt>
      <trkpt lat="46.55201" lon="5.60322">
        <ele>503.6</ele>
        <time>2022-04-14T13:58:28Z</time>
      </trkpt>
      <trkpt lat="46.5519" lon="5.60323">
        <ele>503.4</ele>
        <time>2022-04-14T13:58:29Z</time>
      </trkpt>
      <trkpt lat="46.55179" lon="5.60323">
        <ele>503.2</ele>
        <time>2022-04-14T13:58:30Z</time>
      </trkpt>
      <trkpt lat="46.55158" lon="5.60318">
        <ele>503</ele>
        <time>2022-04-14T13:58:32Z</time>
      </trkpt>
      <trkpt lat="46.55138" lon="5.60306">
        <ele>502.6</ele>
        <time>2022-04-14T13:58:34Z</time>
      </trkpt>
      <trkpt lat="46.55129" lon="5.60298">
        <ele>502.6</ele>
        <time>2022-04-14T13:58:35Z</time>
      </trkpt>
      <trkpt lat="46.55121" lon="5.60288">
        <ele>502.2</ele>
        <time>2022-04-14T13:58:36Z</time>
      </trkpt>
      <trkpt lat="46.55106" lon="5.60266">
        <ele>502</ele>
        <time>2022-04-14T13:58:38Z</time>
      </trkpt>
      <trkpt lat="46.55093" lon="5.60242">
        <ele>501.6</ele>
        <time>2022-04-14T13:58:40Z</time>
      </trkpt>
      <trkpt lat="46.5505" lon="5.6018">
        <ele>501</ele>
        <time>2022-04-14T13:58:46Z</time>
      </trkpt>
      <trkpt lat="46.55015" lon="5.60153">
        <ele>500.6</ele>
        <time>2022-04-14T13:58:50Z</time>
      </trkpt>
      <trkpt lat="46.54978" lon="5.6013">
        <ele>500.4</ele>
        <time>2022-04-14T13:58:54Z</time>
      </trkpt>
      <trkpt lat="46.54952" lon="5.60107">
        <ele>500</ele>
        <time>2022-04-14T13:58:57Z</time>
      </trkpt>
      <trkpt lat="46.5492" lon="5.60071">
        <ele>499.4</ele>
        <time>2022-04-14T13:59:01Z</time>
      </trkpt>
      <trkpt lat="46.54912" lon="5.60063">
        <ele>499</ele>
        <time>2022-04-14T13:59:02Z</time>
      </trkpt>
      <trkpt lat="46.54903" lon="5.60056">
        <ele>499</ele>
        <time>2022-04-14T13:59:03Z</time>
      </trkpt>
      <trkpt lat="46.54865" lon="5.60039">
        <ele>498.6</ele>
        <time>2022-04-14T13:59:07Z</time>
      </trkpt>
      <trkpt lat="46.54817" lon="5.60023">
        <ele>498.4</ele>
        <time>2022-04-14T13:59:12Z</time>
      </trkpt>
      <trkpt lat="46.54808" lon="5.60017">
        <ele>498.4</ele>
        <time>2022-04-14T13:59:13Z</time>
      </trkpt>
      <trkpt lat="46.548" lon="5.60009">
        <ele>498.4</ele>
        <time>2022-04-14T13:59:14Z</time>
      </trkpt>
      <trkpt lat="46.54785" lon="5.5999">
        <ele>497.8</ele>
        <time>2022-04-14T13:59:16Z</time>
      </trkpt>
      <trkpt lat="46.54764" lon="5.59957">
        <ele>497.2</ele>
        <time>2022-04-14T13:59:19Z</time>
      </trkpt>
      <trkpt lat="46.54757" lon="5.59948">
        <ele>497</ele>
        <time>2022-04-14T13:59:20Z</time>
      </trkpt>
      <trkpt lat="46.54749" lon="5.59939">
        <ele>496.8</ele>
        <time>2022-04-14T13:59:21Z</time>
      </trkpt>
      <trkpt lat="46.5474" lon="5.59933">
        <ele>496.6</ele>
        <time>2022-04-14T13:59:22Z</time>
      </trkpt>
      <trkpt lat="46.54721" lon="5.59928">
        <ele>496.4</ele>
        <time>2022-04-14T13:59:24Z</time>
      </trkpt>
      <trkpt lat="46.54701" lon="5.59931">
        <ele>496.2</ele>
        <time>2022-04-14T13:59:26Z</time>
      </trkpt>
      <trkpt lat="46.54692" lon="5.59936">
        <ele>496.2</ele>
        <time>2022-04-14T13:59:27Z</time>
      </trkpt>
      <trkpt lat="46.54637" lon="5.59967">
        <ele>495.8</ele>
        <time>2022-04-14T13:59:33Z</time>
      </trkpt>
      <trkpt lat="46.54628" lon="5.59971">
        <ele>495.6</ele>
        <time>2022-04-14T13:59:34Z</time>
      </trkpt>
      <trkpt lat="46.54591" lon="5.59981">
        <ele>495.2</ele>
        <time>2022-04-14T13:59:38Z</time>
      </trkpt>
      <trkpt lat="46.54582" lon="5.59981">
        <ele>495.2</ele>
        <time>2022-04-14T13:59:39Z</time>
      </trkpt>
      <trkpt lat="46.54548" lon="5.59977">
        <ele>495</ele>
        <time>2022-04-14T13:59:43Z</time>
      </trkpt>
      <trkpt lat="46.54539" lon="5.59973">
        <ele>495</ele>
        <time>2022-04-14T13:59:44Z</time>
      </trkpt>
      <trkpt lat="46.54506" lon="5.59961">
        <ele>494.2</ele>
        <time>2022-04-14T13:59:48Z</time>
      </trkpt>
      <trkpt lat="46.54471" lon="5.59949">
        <ele>493.4</ele>
        <time>2022-04-14T13:59:52Z</time>
      </trkpt>
      <trkpt lat="46.54454" lon="5.59943">
        <ele>493</ele>
        <time>2022-04-14T13:59:54Z</time>
      </trkpt>
      <trkpt lat="46.54419" lon="5.59929">
        <ele>492.4</ele>
        <time>2022-04-14T13:59:59Z</time>
      </trkpt>
      <trkpt lat="46.54412" lon="5.59922">
        <ele>492.2</ele>
        <time>2022-04-14T14:00:01Z</time>
      </trkpt>
      <trkpt lat="46.54409" lon="5.59918">
        <ele>492.2</ele>
        <time>2022-04-14T14:00:02Z</time>
      </trkpt>
      <trkpt lat="46.54406" lon="5.59915">
        <ele>492</ele>
        <time>2022-04-14T14:00:03Z</time>
      </trkpt>
      <trkpt lat="46.54397" lon="5.59907">
        <ele>492</ele>
        <time>2022-04-14T14:00:05Z</time>
      </trkpt>
      <trkpt lat="46.54393" lon="5.59901">
        <ele>491.8</ele>
        <time>2022-04-14T14:00:06Z</time>
      </trkpt>
      <trkpt lat="46.5439" lon="5.59894">
        <ele>491.8</ele>
        <time>2022-04-14T14:00:07Z</time>
      </trkpt>
      <trkpt lat="46.54389" lon="5.59879">
        <ele>491.6</ele>
        <time>2022-04-14T14:00:09Z</time>
      </trkpt>
      <trkpt lat="46.54394" lon="5.59842">
        <ele>491</ele>
        <time>2022-04-14T14:00:13Z</time>
      </trkpt>
      <trkpt lat="46.54395" lon="5.59833">
        <ele>490.8</ele>
        <time>2022-04-14T14:00:14Z</time>
      </trkpt>
      <trkpt lat="46.54405" lon="5.5977">
        <ele>490.6</ele>
        <time>2022-04-14T14:00:21Z</time>
      </trkpt>
      <trkpt lat="46.54415" lon="5.59688">
        <ele>491.6</ele>
        <time>2022-04-14T14:00:30Z</time>
      </trkpt>
      <trkpt lat="46.5442" lon="5.59654">
        <ele>492</ele>
        <time>2022-04-14T14:00:34Z</time>
      </trkpt>
      <trkpt lat="46.54426" lon="5.59604">
        <ele>493</ele>
        <time>2022-04-14T14:00:40Z</time>
      </trkpt>
      <trkpt lat="46.54434" lon="5.59544">
        <ele>494</ele>
        <time>2022-04-14T14:00:48Z</time>
      </trkpt>
      <trkpt lat="46.54434" lon="5.59537">
        <ele>494.2</ele>
        <time>2022-04-14T14:00:49Z</time>
      </trkpt>
      <trkpt lat="46.54437" lon="5.59516">
        <ele>495.4</ele>
        <time>2022-04-14T14:00:52Z</time>
      </trkpt>
      <trkpt lat="46.54442" lon="5.59473">
        <ele>496.2</ele>
        <time>2022-04-14T14:00:58Z</time>
      </trkpt>
      <trkpt lat="46.54448" lon="5.59422">
        <ele>497.4</ele>
        <time>2022-04-14T14:01:05Z</time>
      </trkpt>
      <trkpt lat="46.54449" lon="5.59415">
        <ele>497.8</ele>
        <time>2022-04-14T14:01:06Z</time>
      </trkpt>
      <trkpt lat="46.54453" lon="5.5938">
        <ele>498.6</ele>
        <time>2022-04-14T14:01:11Z</time>
      </trkpt>
      <trkpt lat="46.54456" lon="5.59359">
        <ele>498.8</ele>
        <time>2022-04-14T14:01:14Z</time>
      </trkpt>
      <trkpt lat="46.54458" lon="5.59345">
        <ele>499.4</ele>
        <time>2022-04-14T14:01:16Z</time>
      </trkpt>
      <trkpt lat="46.54461" lon="5.59332">
        <ele>499.4</ele>
        <time>2022-04-14T14:01:18Z</time>
      </trkpt>
      <trkpt lat="46.54475" lon="5.59295">
        <ele>500.8</ele>
        <time>2022-04-14T14:01:24Z</time>
      </trkpt>
      <trkpt lat="46.54488" lon="5.5927">
        <ele>501.4</ele>
        <time>2022-04-14T14:01:28Z</time>
      </trkpt>
      <trkpt lat="46.54492" lon="5.59256">
        <ele>501.6</ele>
        <time>2022-04-14T14:01:30Z</time>
      </trkpt>
      <trkpt lat="46.54493" lon="5.59248">
        <ele>501.8</ele>
        <time>2022-04-14T14:01:31Z</time>
      </trkpt>
      <trkpt lat="46.54495" lon="5.59231">
        <ele>502</ele>
        <time>2022-04-14T14:01:33Z</time>
      </trkpt>
      <trkpt lat="46.54495" lon="5.59222">
        <ele>502</ele>
        <time>2022-04-14T14:01:34Z</time>
      </trkpt>
      <trkpt lat="46.54499" lon="5.59167">
        <ele>502.2</ele>
        <time>2022-04-14T14:01:40Z</time>
      </trkpt>
      <trkpt lat="46.54505" lon="5.59115">
        <ele>502.4</ele>
        <time>2022-04-14T14:01:46Z</time>
      </trkpt>
      <trkpt lat="46.5451" lon="5.59075">
        <ele>503</ele>
        <time>2022-04-14T14:01:51Z</time>
      </trkpt>
      <trkpt lat="46.54512" lon="5.5902">
        <ele>504</ele>
        <time>2022-04-14T14:01:58Z</time>
      </trkpt>
      <trkpt lat="46.54513" lon="5.58976">
        <ele>505.2</ele>
        <time>2022-04-14T14:02:03Z</time>
      </trkpt>
      <trkpt lat="46.54514" lon="5.58956">
        <ele>505.4</ele>
        <time>2022-04-14T14:02:05Z</time>
      </trkpt>
      <trkpt lat="46.54515" lon="5.58872">
        <ele>505.4</ele>
        <time>2022-04-14T14:02:13Z</time>
      </trkpt>
      <trkpt lat="46.54517" lon="5.58789">
        <ele>504.8</ele>
        <time>2022-04-14T14:02:21Z</time>
      </trkpt>
      <trkpt lat="46.54517" lon="5.58779">
        <ele>505</ele>
        <time>2022-04-14T14:02:22Z</time>
      </trkpt>
      <trkpt lat="46.54519" lon="5.58706">
        <ele>505.6</ele>
        <time>2022-04-14T14:02:30Z</time>
      </trkpt>
      <trkpt lat="46.5452" lon="5.58698">
        <ele>505.6</ele>
        <time>2022-04-14T14:02:31Z</time>
      </trkpt>
      <trkpt lat="46.54529" lon="5.58622">
        <ele>506</ele>
        <time>2022-04-14T14:02:39Z</time>
      </trkpt>
      <trkpt lat="46.54539" lon="5.58545">
        <ele>505.6</ele>
        <time>2022-04-14T14:02:47Z</time>
      </trkpt>
      <trkpt lat="46.54544" lon="5.58463">
        <ele>506.2</ele>
        <time>2022-04-14T14:02:56Z</time>
      </trkpt>
      <trkpt lat="46.54543" lon="5.58455">
        <ele>506.4</ele>
        <time>2022-04-14T14:02:57Z</time>
      </trkpt>
      <trkpt lat="46.54542" lon="5.58447">
        <ele>506.8</ele>
        <time>2022-04-14T14:02:58Z</time>
      </trkpt>
      <trkpt lat="46.5454" lon="5.58439">
        <ele>507</ele>
        <time>2022-04-14T14:02:59Z</time>
      </trkpt>
      <trkpt lat="46.54536" lon="5.58432">
        <ele>507</ele>
        <time>2022-04-14T14:03:00Z</time>
      </trkpt>
      <trkpt lat="46.54531" lon="5.58427">
        <ele>507.2</ele>
        <time>2022-04-14T14:03:01Z</time>
      </trkpt>
      <trkpt lat="46.54518" lon="5.58423">
        <ele>507.6</ele>
        <time>2022-04-14T14:03:03Z</time>
      </trkpt>
      <trkpt lat="46.54496" lon="5.58418">
        <ele>507.8</ele>
        <time>2022-04-14T14:03:06Z</time>
      </trkpt>
      <trkpt lat="46.54488" lon="5.58416">
        <ele>507.8</ele>
        <time>2022-04-14T14:03:07Z</time>
      </trkpt>
      <trkpt lat="46.54439" lon="5.584">
        <ele>507.6</ele>
        <time>2022-04-14T14:03:13Z</time>
      </trkpt>
      <trkpt lat="46.54423" lon="5.58393">
        <ele>506.2</ele>
        <time>2022-04-14T14:03:15Z</time>
      </trkpt>
      <trkpt lat="46.54399" lon="5.58381">
        <ele>505</ele>
        <time>2022-04-14T14:03:18Z</time>
      </trkpt>
      <trkpt lat="46.54384" lon="5.58374">
        <ele>503.8</ele>
        <time>2022-04-14T14:03:20Z</time>
      </trkpt>
      <trkpt lat="46.54369" lon="5.58366">
        <ele>503.2</ele>
        <time>2022-04-14T14:03:22Z</time>
      </trkpt>
      <trkpt lat="46.54315" lon="5.58339">
        <ele>502.6</ele>
        <time>2022-04-14T14:03:29Z</time>
      </trkpt>
      <trkpt lat="46.54292" lon="5.58328">
        <ele>502.2</ele>
        <time>2022-04-14T14:03:32Z</time>
      </trkpt>
      <trkpt lat="46.54244" lon="5.58303">
        <ele>501.6</ele>
        <time>2022-04-14T14:03:38Z</time>
      </trkpt>
      <trkpt lat="46.5422" lon="5.5829">
        <ele>501</ele>
        <time>2022-04-14T14:03:41Z</time>
      </trkpt>
      <trkpt lat="46.54197" lon="5.58274">
        <ele>501</ele>
        <time>2022-04-14T14:03:44Z</time>
      </trkpt>
      <trkpt lat="46.54191" lon="5.58266">
        <ele>501.2</ele>
        <time>2022-04-14T14:03:45Z</time>
      </trkpt>
      <trkpt lat="46.54186" lon="5.58256">
        <ele>501.2</ele>
        <time>2022-04-14T14:03:46Z</time>
      </trkpt>
      <trkpt lat="46.5418" lon="5.58235">
        <ele>501.2</ele>
        <time>2022-04-14T14:03:48Z</time>
      </trkpt>
      <trkpt lat="46.54172" lon="5.58196">
        <ele>502.4</ele>
        <time>2022-04-14T14:03:52Z</time>
      </trkpt>
      <trkpt lat="46.5417" lon="5.58188">
        <ele>502.6</ele>
        <time>2022-04-14T14:03:53Z</time>
      </trkpt>
      <trkpt lat="46.54165" lon="5.58172">
        <ele>503</ele>
        <time>2022-04-14T14:03:55Z</time>
      </trkpt>
      <trkpt lat="46.54158" lon="5.5816">
        <ele>503.4</ele>
        <time>2022-04-14T14:03:57Z</time>
      </trkpt>
      <trkpt lat="46.54155" lon="5.58155">
        <ele>504</ele>
        <time>2022-04-14T14:03:58Z</time>
      </trkpt>
      <trkpt lat="46.54141" lon="5.58136">
        <ele>505.4</ele>
        <time>2022-04-14T14:04:01Z</time>
      </trkpt>
      <trkpt lat="46.54132" lon="5.58127">
        <ele>505.6</ele>
        <time>2022-04-14T14:04:03Z</time>
      </trkpt>
      <trkpt lat="46.54116" lon="5.58111">
        <ele>506.4</ele>
        <time>2022-04-14T14:04:06Z</time>
      </trkpt>
      <trkpt lat="46.54094" lon="5.58086">
        <ele>506.6</ele>
        <time>2022-04-14T14:04:11Z</time>
      </trkpt>
      <trkpt lat="46.54083" lon="5.58071">
        <ele>507.4</ele>
        <time>2022-04-14T14:04:14Z</time>
      </trkpt>
      <trkpt lat="46.54074" lon="5.58057">
        <ele>508.8</ele>
        <time>2022-04-14T14:04:17Z</time>
      </trkpt>
      <trkpt lat="46.54058" lon="5.5804">
        <ele>510</ele>
        <time>2022-04-14T14:04:21Z</time>
      </trkpt>
      <trkpt lat="46.54043" lon="5.58029">
        <ele>510.8</ele>
        <time>2022-04-14T14:04:24Z</time>
      </trkpt>
      <trkpt lat="46.54011" lon="5.58006">
        <ele>511.2</ele>
        <time>2022-04-14T14:04:30Z</time>
      </trkpt>
      <trkpt lat="46.53971" lon="5.5799">
        <ele>510.8</ele>
        <time>2022-04-14T14:04:36Z</time>
      </trkpt>
      <trkpt lat="46.53945" lon="5.57984">
        <ele>510</ele>
        <time>2022-04-14T14:04:39Z</time>
      </trkpt>
      <trkpt lat="46.53935" lon="5.57982">
        <ele>509.2</ele>
        <time>2022-04-14T14:04:40Z</time>
      </trkpt>
      <trkpt lat="46.53925" lon="5.57981">
        <ele>508.8</ele>
        <time>2022-04-14T14:04:41Z</time>
      </trkpt>
      <trkpt lat="46.53903" lon="5.57978">
        <ele>507.4</ele>
        <time>2022-04-14T14:04:43Z</time>
      </trkpt>
      <trkpt lat="46.53891" lon="5.57975">
        <ele>506.2</ele>
        <time>2022-04-14T14:04:44Z</time>
      </trkpt>
      <trkpt lat="46.53879" lon="5.57972">
        <ele>504.6</ele>
        <time>2022-04-14T14:04:45Z</time>
      </trkpt>
      <trkpt lat="46.53855" lon="5.57965">
        <ele>502.2</ele>
        <time>2022-04-14T14:04:47Z</time>
      </trkpt>
      <trkpt lat="46.5383" lon="5.57957">
        <ele>500.6</ele>
        <time>2022-04-14T14:04:49Z</time>
      </trkpt>
      <trkpt lat="46.53818" lon="5.57954">
        <ele>500.4</ele>
        <time>2022-04-14T14:04:50Z</time>
      </trkpt>
      <trkpt lat="46.53793" lon="5.57947">
        <ele>499.4</ele>
        <time>2022-04-14T14:04:52Z</time>
      </trkpt>
      <trkpt lat="46.53781" lon="5.57943">
        <ele>498.2</ele>
        <time>2022-04-14T14:04:53Z</time>
      </trkpt>
      <trkpt lat="46.53769" lon="5.57939">
        <ele>496.8</ele>
        <time>2022-04-14T14:04:54Z</time>
      </trkpt>
      <trkpt lat="46.53744" lon="5.57932">
        <ele>495.6</ele>
        <time>2022-04-14T14:04:56Z</time>
      </trkpt>
      <trkpt lat="46.53719" lon="5.57924">
        <ele>494.6</ele>
        <time>2022-04-14T14:04:58Z</time>
      </trkpt>
      <trkpt lat="46.53707" lon="5.5792">
        <ele>494</ele>
        <time>2022-04-14T14:04:59Z</time>
      </trkpt>
      <trkpt lat="46.53669" lon="5.57909">
        <ele>493</ele>
        <time>2022-04-14T14:05:02Z</time>
      </trkpt>
      <trkpt lat="46.53632" lon="5.57897">
        <ele>491.8</ele>
        <time>2022-04-14T14:05:05Z</time>
      </trkpt>
      <trkpt lat="46.53608" lon="5.57887">
        <ele>490.2</ele>
        <time>2022-04-14T14:05:07Z</time>
      </trkpt>
      <trkpt lat="46.53574" lon="5.57874">
        <ele>488.8</ele>
        <time>2022-04-14T14:05:10Z</time>
      </trkpt>
      <trkpt lat="46.53552" lon="5.57864">
        <ele>488.6</ele>
        <time>2022-04-14T14:05:12Z</time>
      </trkpt>
      <trkpt lat="46.53542" lon="5.57857">
        <ele>488.4</ele>
        <time>2022-04-14T14:05:13Z</time>
      </trkpt>
      <trkpt lat="46.53516" lon="5.57836">
        <ele>489</ele>
        <time>2022-04-14T14:05:16Z</time>
      </trkpt>
      <trkpt lat="46.53488" lon="5.57809">
        <ele>489.8</ele>
        <time>2022-04-14T14:05:20Z</time>
      </trkpt>
      <trkpt lat="46.53476" lon="5.57796">
        <ele>491</ele>
        <time>2022-04-14T14:05:22Z</time>
      </trkpt>
      <trkpt lat="46.5347" lon="5.57789">
        <ele>491.8</ele>
        <time>2022-04-14T14:05:23Z</time>
      </trkpt>
      <trkpt lat="46.53464" lon="5.57784">
        <ele>492.2</ele>
        <time>2022-04-14T14:05:24Z</time>
      </trkpt>
      <trkpt lat="46.53451" lon="5.57776">
        <ele>493.4</ele>
        <time>2022-04-14T14:05:26Z</time>
      </trkpt>
      <trkpt lat="46.53423" lon="5.57761">
        <ele>494.6</ele>
        <time>2022-04-14T14:05:30Z</time>
      </trkpt>
      <trkpt lat="46.53385" lon="5.57746">
        <ele>495.6</ele>
        <time>2022-04-14T14:05:35Z</time>
      </trkpt>
      <trkpt lat="46.5337" lon="5.57741">
        <ele>495.4</ele>
        <time>2022-04-14T14:05:37Z</time>
      </trkpt>
      <trkpt lat="46.53336" lon="5.57729">
        <ele>495.6</ele>
        <time>2022-04-14T14:05:42Z</time>
      </trkpt>
      <trkpt lat="46.5331" lon="5.57707">
        <ele>496.4</ele>
        <time>2022-04-14T14:05:47Z</time>
      </trkpt>
      <trkpt lat="46.53301" lon="5.57695">
        <ele>497</ele>
        <time>2022-04-14T14:05:49Z</time>
      </trkpt>
      <trkpt lat="46.53294" lon="5.57683">
        <ele>497.6</ele>
        <time>2022-04-14T14:05:51Z</time>
      </trkpt>
      <trkpt lat="46.53292" lon="5.57675">
        <ele>497.8</ele>
        <time>2022-04-14T14:05:52Z</time>
      </trkpt>
      <trkpt lat="46.5329" lon="5.57668">
        <ele>498.2</ele>
        <time>2022-04-14T14:05:53Z</time>
      </trkpt>
      <trkpt lat="46.53287" lon="5.5764">
        <ele>498.4</ele>
        <time>2022-04-14T14:05:56Z</time>
      </trkpt>
      <trkpt lat="46.53288" lon="5.57586">
        <ele>498.4</ele>
        <time>2022-04-14T14:06:01Z</time>
      </trkpt>
      <trkpt lat="46.53279" lon="5.57532">
        <ele>497.2</ele>
        <time>2022-04-14T14:06:06Z</time>
      </trkpt>
      <trkpt lat="46.53271" lon="5.57502">
        <ele>497.2</ele>
        <time>2022-04-14T14:06:09Z</time>
      </trkpt>
      <trkpt lat="46.53261" lon="5.57475">
        <ele>497.2</ele>
        <time>2022-04-14T14:06:12Z</time>
      </trkpt>
      <trkpt lat="46.53237" lon="5.57437">
        <ele>497.6</ele>
        <time>2022-04-14T14:06:17Z</time>
      </trkpt>
      <trkpt lat="46.53202" lon="5.57398">
        <ele>497.6</ele>
        <time>2022-04-14T14:06:23Z</time>
      </trkpt>
      <trkpt lat="46.53159" lon="5.57359">
        <ele>496.8</ele>
        <time>2022-04-14T14:06:29Z</time>
      </trkpt>
      <trkpt lat="46.53136" lon="5.57343">
        <ele>495.8</ele>
        <time>2022-04-14T14:06:32Z</time>
      </trkpt>
      <trkpt lat="46.5312" lon="5.57332">
        <ele>495</ele>
        <time>2022-04-14T14:06:34Z</time>
      </trkpt>
      <trkpt lat="46.53113" lon="5.57325">
        <ele>494.6</ele>
        <time>2022-04-14T14:06:35Z</time>
      </trkpt>
      <trkpt lat="46.53105" lon="5.57318">
        <ele>494.4</ele>
        <time>2022-04-14T14:06:36Z</time>
      </trkpt>
      <trkpt lat="46.53093" lon="5.57299">
        <ele>493.8</ele>
        <time>2022-04-14T14:06:38Z</time>
      </trkpt>
      <trkpt lat="46.53088" lon="5.57289">
        <ele>493.6</ele>
        <time>2022-04-14T14:06:39Z</time>
      </trkpt>
      <trkpt lat="46.5307" lon="5.57246">
        <ele>492.8</ele>
        <time>2022-04-14T14:06:43Z</time>
      </trkpt>
      <trkpt lat="46.53065" lon="5.57235">
        <ele>492.6</ele>
        <time>2022-04-14T14:06:44Z</time>
      </trkpt>
      <trkpt lat="46.53034" lon="5.57157">
        <ele>491.8</ele>
        <time>2022-04-14T14:06:51Z</time>
      </trkpt>
      <trkpt lat="46.53029" lon="5.57145">
        <ele>491.8</ele>
        <time>2022-04-14T14:06:52Z</time>
      </trkpt>
      <trkpt lat="46.53015" lon="5.5711">
        <ele>491.4</ele>
        <time>2022-04-14T14:06:55Z</time>
      </trkpt>
      <trkpt lat="46.52997" lon="5.57067">
        <ele>491</ele>
        <time>2022-04-14T14:06:59Z</time>
      </trkpt>
      <trkpt lat="46.52983" lon="5.57039">
        <ele>490.6</ele>
        <time>2022-04-14T14:07:02Z</time>
      </trkpt>
      <trkpt lat="46.52972" lon="5.57023">
        <ele>490.6</ele>
        <time>2022-04-14T14:07:04Z</time>
      </trkpt>
      <trkpt lat="46.5295" lon="5.56989">
        <ele>491</ele>
        <time>2022-04-14T14:07:08Z</time>
      </trkpt>
      <trkpt lat="46.52942" lon="5.5697">
        <ele>491.2</ele>
        <time>2022-04-14T14:07:10Z</time>
      </trkpt>
      <trkpt lat="46.52936" lon="5.5695">
        <ele>491.6</ele>
        <time>2022-04-14T14:07:12Z</time>
      </trkpt>
      <trkpt lat="46.52931" lon="5.56929">
        <ele>492</ele>
        <time>2022-04-14T14:07:14Z</time>
      </trkpt>
      <trkpt lat="46.52912" lon="5.56854">
        <ele>491.8</ele>
        <time>2022-04-14T14:07:21Z</time>
      </trkpt>
      <trkpt lat="46.5291" lon="5.56844">
        <ele>491.6</ele>
        <time>2022-04-14T14:07:22Z</time>
      </trkpt>
      <trkpt lat="46.52894" lon="5.56771">
        <ele>491.6</ele>
        <time>2022-04-14T14:07:29Z</time>
      </trkpt>
      <trkpt lat="46.52877" lon="5.56693">
        <ele>491.6</ele>
        <time>2022-04-14T14:07:36Z</time>
      </trkpt>
      <trkpt lat="46.5286" lon="5.56617">
        <ele>491</ele>
        <time>2022-04-14T14:07:43Z</time>
      </trkpt>
      <trkpt lat="46.52855" lon="5.56595">
        <ele>490.8</ele>
        <time>2022-04-14T14:07:45Z</time>
      </trkpt>
      <trkpt lat="46.52841" lon="5.5654">
        <ele>490.4</ele>
        <time>2022-04-14T14:07:50Z</time>
      </trkpt>
      <trkpt lat="46.52824" lon="5.5647">
        <ele>489.4</ele>
        <time>2022-04-14T14:07:56Z</time>
      </trkpt>
      <trkpt lat="46.52821" lon="5.56458">
        <ele>489</ele>
        <time>2022-04-14T14:07:57Z</time>
      </trkpt>
      <trkpt lat="46.52806" lon="5.564">
        <ele>488</ele>
        <time>2022-04-14T14:08:02Z</time>
      </trkpt>
      <trkpt lat="46.52801" lon="5.56377">
        <ele>487.8</ele>
        <time>2022-04-14T14:08:04Z</time>
      </trkpt>
      <trkpt lat="46.52782" lon="5.56303">
        <ele>487.8</ele>
        <time>2022-04-14T14:08:11Z</time>
      </trkpt>
      <trkpt lat="46.52777" lon="5.56281">
        <ele>487.6</ele>
        <time>2022-04-14T14:08:13Z</time>
      </trkpt>
      <trkpt lat="46.52757" lon="5.56205">
        <ele>487.6</ele>
        <time>2022-04-14T14:08:20Z</time>
      </trkpt>
      <trkpt lat="46.52748" lon="5.56174">
        <ele>487.6</ele>
        <time>2022-04-14T14:08:23Z</time>
      </trkpt>
      <trkpt lat="46.52733" lon="5.56114">
        <ele>487.6</ele>
        <time>2022-04-14T14:08:29Z</time>
      </trkpt>
      <trkpt lat="46.52728" lon="5.56095">
        <ele>487.4</ele>
        <time>2022-04-14T14:08:31Z</time>
      </trkpt>
      <trkpt lat="46.5272" lon="5.56081">
        <ele>487.4</ele>
        <time>2022-04-14T14:08:33Z</time>
      </trkpt>
      <trkpt lat="46.52706" lon="5.56077">
        <ele>487.2</ele>
        <time>2022-04-14T14:08:35Z</time>
      </trkpt>
      <trkpt lat="46.52699" lon="5.56078">
        <ele>487.2</ele>
        <time>2022-04-14T14:08:36Z</time>
      </trkpt>
      <trkpt lat="46.52677" lon="5.56087">
        <ele>487</ele>
        <time>2022-04-14T14:08:39Z</time>
      </trkpt>
      <trkpt lat="46.52657" lon="5.56096">
        <ele>486.8</ele>
        <time>2022-04-14T14:08:42Z</time>
      </trkpt>
      <trkpt lat="46.52622" lon="5.56109">
        <ele>487</ele>
        <time>2022-04-14T14:08:48Z</time>
      </trkpt>
      <trkpt lat="46.52616" lon="5.56107">
        <ele>487</ele>
        <time>2022-04-14T14:08:51Z</time>
      </trkpt>
      <trkpt lat="46.52613" lon="5.56106">
        <ele>487</ele>
        <time>2022-04-14T14:08:53Z</time>
      </trkpt>
      <trkpt lat="46.5261" lon="5.56111">
        <ele>487</ele>
        <time>2022-04-14T14:08:55Z</time>
      </trkpt>
      <trkpt lat="46.52607" lon="5.5614">
        <ele>486.8</ele>
        <time>2022-04-14T14:08:59Z</time>
      </trkpt>
      <trkpt lat="46.52606" lon="5.56149">
        <ele>486.8</ele>
        <time>2022-04-14T14:09:00Z</time>
      </trkpt>
      <trkpt lat="46.526" lon="5.56164">
        <ele>487</ele>
        <time>2022-04-14T14:09:02Z</time>
      </trkpt>
      <trkpt lat="46.52589" lon="5.56171">
        <ele>487</ele>
        <time>2022-04-14T14:09:04Z</time>
      </trkpt>
      <trkpt lat="46.52582" lon="5.56172">
        <ele>487</ele>
        <time>2022-04-14T14:09:05Z</time>
      </trkpt>
      <trkpt lat="46.52546" lon="5.56176">
        <ele>486.4</ele>
        <time>2022-04-14T14:09:10Z</time>
      </trkpt>
      <trkpt lat="46.52523" lon="5.56179">
        <ele>486.2</ele>
        <time>2022-04-14T14:09:13Z</time>
      </trkpt>
      <trkpt lat="46.52507" lon="5.56176">
        <ele>486</ele>
        <time>2022-04-14T14:09:15Z</time>
      </trkpt>
      <trkpt lat="46.5246" lon="5.56157">
        <ele>486.4</ele>
        <time>2022-04-14T14:09:21Z</time>
      </trkpt>
      <trkpt lat="46.52405" lon="5.56138">
        <ele>486.2</ele>
        <time>2022-04-14T14:09:28Z</time>
      </trkpt>
      <trkpt lat="46.52397" lon="5.56138">
        <ele>486</ele>
        <time>2022-04-14T14:09:29Z</time>
      </trkpt>
      <trkpt lat="46.52389" lon="5.5614">
        <ele>486</ele>
        <time>2022-04-14T14:09:30Z</time>
      </trkpt>
      <trkpt lat="46.52374" lon="5.56147">
        <ele>485.8</ele>
        <time>2022-04-14T14:09:32Z</time>
      </trkpt>
      <trkpt lat="46.52346" lon="5.56167">
        <ele>486</ele>
        <time>2022-04-14T14:09:36Z</time>
      </trkpt>
      <trkpt lat="46.52339" lon="5.56168">
        <ele>486.2</ele>
        <time>2022-04-14T14:09:37Z</time>
      </trkpt>
      <trkpt lat="46.52332" lon="5.56168">
        <ele>486.2</ele>
        <time>2022-04-14T14:09:38Z</time>
      </trkpt>
      <trkpt lat="46.52317" lon="5.56164">
        <ele>486.4</ele>
        <time>2022-04-14T14:09:40Z</time>
      </trkpt>
      <trkpt lat="46.52269" lon="5.56143">
        <ele>487.2</ele>
        <time>2022-04-14T14:09:47Z</time>
      </trkpt>
      <trkpt lat="46.52216" lon="5.56138">
        <ele>488</ele>
        <time>2022-04-14T14:09:54Z</time>
      </trkpt>
      <trkpt lat="46.52175" lon="5.56125">
        <ele>487.2</ele>
        <time>2022-04-14T14:09:59Z</time>
      </trkpt>
      <trkpt lat="46.52167" lon="5.56124">
        <ele>487</ele>
        <time>2022-04-14T14:10:00Z</time>
      </trkpt>
      <trkpt lat="46.5215" lon="5.56126">
        <ele>486.4</ele>
        <time>2022-04-14T14:10:02Z</time>
      </trkpt>
      <trkpt lat="46.52135" lon="5.56139">
        <ele>486</ele>
        <time>2022-04-14T14:10:04Z</time>
      </trkpt>
      <trkpt lat="46.52129" lon="5.56147">
        <ele>486</ele>
        <time>2022-04-14T14:10:05Z</time>
      </trkpt>
      <trkpt lat="46.52099" lon="5.56191">
        <ele>485.6</ele>
        <time>2022-04-14T14:10:10Z</time>
      </trkpt>
      <trkpt lat="46.52054" lon="5.56227">
        <ele>485.8</ele>
        <time>2022-04-14T14:10:16Z</time>
      </trkpt>
      <trkpt lat="46.51999" lon="5.56268">
        <ele>485.8</ele>
        <time>2022-04-14T14:10:23Z</time>
      </trkpt>
      <trkpt lat="46.51991" lon="5.56273">
        <ele>485.8</ele>
        <time>2022-04-14T14:10:24Z</time>
      </trkpt>
      <trkpt lat="46.51938" lon="5.56314">
        <ele>485.8</ele>
        <time>2022-04-14T14:10:31Z</time>
      </trkpt>
      <trkpt lat="46.51915" lon="5.56333">
        <ele>485.8</ele>
        <time>2022-04-14T14:10:34Z</time>
      </trkpt>
      <trkpt lat="46.51899" lon="5.5634">
        <ele>485.6</ele>
        <time>2022-04-14T14:10:36Z</time>
      </trkpt>
      <trkpt lat="46.5184" lon="5.56354">
        <ele>485.4</ele>
        <time>2022-04-14T14:10:43Z</time>
      </trkpt>
      <trkpt lat="46.51824" lon="5.56357">
        <ele>485.4</ele>
        <time>2022-04-14T14:10:45Z</time>
      </trkpt>
      <trkpt lat="46.51766" lon="5.56371">
        <ele>485.6</ele>
        <time>2022-04-14T14:10:52Z</time>
      </trkpt>
      <trkpt lat="46.51707" lon="5.56378">
        <ele>485.8</ele>
        <time>2022-04-14T14:10:59Z</time>
      </trkpt>
      <trkpt lat="46.5169" lon="5.5638">
        <ele>486</ele>
        <time>2022-04-14T14:11:01Z</time>
      </trkpt>
      <trkpt lat="46.51631" lon="5.56388">
        <ele>486</ele>
        <time>2022-04-14T14:11:08Z</time>
      </trkpt>
      <trkpt lat="46.51589" lon="5.56393">
        <ele>486.6</ele>
        <time>2022-04-14T14:11:13Z</time>
      </trkpt>
      <trkpt lat="46.51531" lon="5.5641">
        <ele>486</ele>
        <time>2022-04-14T14:11:20Z</time>
      </trkpt>
      <trkpt lat="46.51473" lon="5.56423">
        <ele>486.4</ele>
        <time>2022-04-14T14:11:27Z</time>
      </trkpt>
      <trkpt lat="46.51449" lon="5.56423">
        <ele>486.4</ele>
        <time>2022-04-14T14:11:30Z</time>
      </trkpt>
      <trkpt lat="46.51441" lon="5.56427">
        <ele>486.6</ele>
        <time>2022-04-14T14:11:31Z</time>
      </trkpt>
      <trkpt lat="46.51434" lon="5.56434">
        <ele>486.6</ele>
        <time>2022-04-14T14:11:32Z</time>
      </trkpt>
      <trkpt lat="46.51429" lon="5.56444">
        <ele>486.6</ele>
        <time>2022-04-14T14:11:33Z</time>
      </trkpt>
      <trkpt lat="46.51426" lon="5.56456">
        <ele>486.6</ele>
        <time>2022-04-14T14:11:34Z</time>
      </trkpt>
      <trkpt lat="46.51424" lon="5.56481">
        <ele>486.6</ele>
        <time>2022-04-14T14:11:36Z</time>
      </trkpt>
      <trkpt lat="46.51422" lon="5.56531">
        <ele>486.6</ele>
        <time>2022-04-14T14:11:40Z</time>
      </trkpt>
      <trkpt lat="46.5142" lon="5.56543">
        <ele>486.6</ele>
        <time>2022-04-14T14:11:41Z</time>
      </trkpt>
      <trkpt lat="46.51415" lon="5.56554">
        <ele>486.6</ele>
        <time>2022-04-14T14:11:42Z</time>
      </trkpt>
      <trkpt lat="46.51409" lon="5.56562">
        <ele>486.4</ele>
        <time>2022-04-14T14:11:43Z</time>
      </trkpt>
      <trkpt lat="46.514" lon="5.56566">
        <ele>486.4</ele>
        <time>2022-04-14T14:11:44Z</time>
      </trkpt>
      <trkpt lat="46.51383" lon="5.56567">
        <ele>486.4</ele>
        <time>2022-04-14T14:11:46Z</time>
      </trkpt>
      <trkpt lat="46.51341" lon="5.56571">
        <ele>486.4</ele>
        <time>2022-04-14T14:11:51Z</time>
      </trkpt>
      <trkpt lat="46.51325" lon="5.56575">
        <ele>486.4</ele>
        <time>2022-04-14T14:11:53Z</time>
      </trkpt>
      <trkpt lat="46.51277" lon="5.56589">
        <ele>487</ele>
        <time>2022-04-14T14:11:59Z</time>
      </trkpt>
      <trkpt lat="46.51219" lon="5.56605">
        <ele>487.2</ele>
        <time>2022-04-14T14:12:06Z</time>
      </trkpt>
      <trkpt lat="46.51211" lon="5.56608">
        <ele>487.2</ele>
        <time>2022-04-14T14:12:07Z</time>
      </trkpt>
      <trkpt lat="46.51195" lon="5.5661">
        <ele>487.2</ele>
        <time>2022-04-14T14:12:09Z</time>
      </trkpt>
      <trkpt lat="46.51187" lon="5.5661">
        <ele>487.4</ele>
        <time>2022-04-14T14:12:10Z</time>
      </trkpt>
      <trkpt lat="46.51179" lon="5.5661">
        <ele>487.4</ele>
        <time>2022-04-14T14:12:11Z</time>
      </trkpt>
      <trkpt lat="46.51133" lon="5.56604">
        <ele>487.8</ele>
        <time>2022-04-14T14:12:17Z</time>
      </trkpt>
      <trkpt lat="46.51109" lon="5.56602">
        <ele>488.4</ele>
        <time>2022-04-14T14:12:20Z</time>
      </trkpt>
      <trkpt lat="46.51076" lon="5.56594">
        <ele>488.6</ele>
        <time>2022-04-14T14:12:24Z</time>
      </trkpt>
      <trkpt lat="46.5103" lon="5.56578">
        <ele>489</ele>
        <time>2022-04-14T14:12:30Z</time>
      </trkpt>
      <trkpt lat="46.51016" lon="5.56573">
        <ele>489.6</ele>
        <time>2022-04-14T14:12:32Z</time>
      </trkpt>
      <trkpt lat="46.51004" lon="5.56571">
        <ele>490</ele>
        <time>2022-04-14T14:12:34Z</time>
      </trkpt>
      <trkpt lat="46.50998" lon="5.56571">
        <ele>490.2</ele>
        <time>2022-04-14T14:12:35Z</time>
      </trkpt>
      <trkpt lat="46.50992" lon="5.56572">
        <ele>490.6</ele>
        <time>2022-04-14T14:12:36Z</time>
      </trkpt>
      <trkpt lat="46.50977" lon="5.56579">
        <ele>492</ele>
        <time>2022-04-14T14:12:39Z</time>
      </trkpt>
      <trkpt lat="46.50972" lon="5.56582">
        <ele>492.2</ele>
        <time>2022-04-14T14:12:40Z</time>
      </trkpt>
      <trkpt lat="46.50955" lon="5.56598">
        <ele>493.4</ele>
        <time>2022-04-14T14:12:44Z</time>
      </trkpt>
      <trkpt lat="46.50951" lon="5.56603">
        <ele>493.6</ele>
        <time>2022-04-14T14:12:45Z</time>
      </trkpt>
      <trkpt lat="46.50943" lon="5.56613">
        <ele>494.6</ele>
        <time>2022-04-14T14:12:47Z</time>
      </trkpt>
      <trkpt lat="46.50921" lon="5.56645">
        <ele>495.6</ele>
        <time>2022-04-14T14:12:53Z</time>
      </trkpt>
      <trkpt lat="46.50918" lon="5.56648">
        <ele>496</ele>
        <time>2022-04-14T14:12:54Z</time>
      </trkpt>
      <trkpt lat="46.50907" lon="5.56659">
        <ele>496.8</ele>
        <time>2022-04-14T14:12:57Z</time>
      </trkpt>
      <trkpt lat="46.50903" lon="5.56663">
        <ele>497</ele>
        <time>2022-04-14T14:12:58Z</time>
      </trkpt>
      <trkpt lat="46.50891" lon="5.56675">
        <ele>498</ele>
        <time>2022-04-14T14:13:01Z</time>
      </trkpt>
      <trkpt lat="46.50878" lon="5.56684">
        <ele>498.8</ele>
        <time>2022-04-14T14:13:04Z</time>
      </trkpt>
      <trkpt lat="46.50874" lon="5.56688">
        <ele>499</ele>
        <time>2022-04-14T14:13:05Z</time>
      </trkpt>
      <trkpt lat="46.5087" lon="5.5669">
        <ele>499.2</ele>
        <time>2022-04-14T14:13:06Z</time>
      </trkpt>
      <trkpt lat="46.5086" lon="5.56691">
        <ele>499.6</ele>
        <time>2022-04-14T14:13:08Z</time>
      </trkpt>
      <trkpt lat="46.50855" lon="5.56691">
        <ele>499.8</ele>
        <time>2022-04-14T14:13:09Z</time>
      </trkpt>
      <trkpt lat="46.50845" lon="5.56691">
        <ele>500.6</ele>
        <time>2022-04-14T14:13:11Z</time>
      </trkpt>
      <trkpt lat="46.50829" lon="5.56691">
        <ele>501</ele>
        <time>2022-04-14T14:13:14Z</time>
      </trkpt>
      <trkpt lat="46.50818" lon="5.56692">
        <ele>501.4</ele>
        <time>2022-04-14T14:13:16Z</time>
      </trkpt>
      <trkpt lat="46.50806" lon="5.56691">
        <ele>501.6</ele>
        <time>2022-04-14T14:13:18Z</time>
      </trkpt>
      <trkpt lat="46.50793" lon="5.56685">
        <ele>501.6</ele>
        <time>2022-04-14T14:13:20Z</time>
      </trkpt>
      <trkpt lat="46.50762" lon="5.56657">
        <ele>501</ele>
        <time>2022-04-14T14:13:25Z</time>
      </trkpt>
      <trkpt lat="46.50756" lon="5.5665">
        <ele>501.2</ele>
        <time>2022-04-14T14:13:26Z</time>
      </trkpt>
      <trkpt lat="46.50744" lon="5.56638">
        <ele>500.8</ele>
        <time>2022-04-14T14:13:28Z</time>
      </trkpt>
      <trkpt lat="46.50731" lon="5.56629">
        <ele>500.8</ele>
        <time>2022-04-14T14:13:30Z</time>
      </trkpt>
      <trkpt lat="46.50699" lon="5.56613">
        <ele>501</ele>
        <time>2022-04-14T14:13:35Z</time>
      </trkpt>
      <trkpt lat="46.50677" lon="5.56606">
        <ele>501.8</ele>
        <time>2022-04-14T14:13:39Z</time>
      </trkpt>
      <trkpt lat="46.50672" lon="5.56604">
        <ele>502</ele>
        <time>2022-04-14T14:13:40Z</time>
      </trkpt>
      <trkpt lat="46.50657" lon="5.56601">
        <ele>503</ele>
        <time>2022-04-14T14:13:43Z</time>
      </trkpt>
      <trkpt lat="46.50648" lon="5.56599">
        <ele>504</ele>
        <time>2022-04-14T14:13:45Z</time>
      </trkpt>
      <trkpt lat="46.50644" lon="5.56598">
        <ele>504.4</ele>
        <time>2022-04-14T14:13:46Z</time>
      </trkpt>
      <trkpt lat="46.50635" lon="5.56596">
        <ele>505.2</ele>
        <time>2022-04-14T14:13:48Z</time>
      </trkpt>
      <trkpt lat="46.50619" lon="5.56591">
        <ele>506.2</ele>
        <time>2022-04-14T14:13:52Z</time>
      </trkpt>
      <trkpt lat="46.50615" lon="5.56589">
        <ele>506.4</ele>
        <time>2022-04-14T14:13:53Z</time>
      </trkpt>
      <trkpt lat="46.50607" lon="5.56584">
        <ele>507.6</ele>
        <time>2022-04-14T14:13:55Z</time>
      </trkpt>
      <trkpt lat="46.50593" lon="5.56572">
        <ele>508.6</ele>
        <time>2022-04-14T14:13:59Z</time>
      </trkpt>
      <trkpt lat="46.5059" lon="5.56569">
        <ele>508.8</ele>
        <time>2022-04-14T14:14:00Z</time>
      </trkpt>
      <trkpt lat="46.50573" lon="5.56555">
        <ele>509.8</ele>
        <time>2022-04-14T14:14:04Z</time>
      </trkpt>
      <trkpt lat="46.50568" lon="5.56552">
        <ele>510</ele>
        <time>2022-04-14T14:14:05Z</time>
      </trkpt>
      <trkpt lat="46.50558" lon="5.56547">
        <ele>510.6</ele>
        <time>2022-04-14T14:14:07Z</time>
      </trkpt>
      <trkpt lat="46.50549" lon="5.56543">
        <ele>511</ele>
        <time>2022-04-14T14:14:09Z</time>
      </trkpt>
      <trkpt lat="46.50525" lon="5.56535">
        <ele>511.8</ele>
        <time>2022-04-14T14:14:14Z</time>
      </trkpt>
      <trkpt lat="46.5052" lon="5.56535">
        <ele>512.4</ele>
        <time>2022-04-14T14:14:15Z</time>
      </trkpt>
      <trkpt lat="46.50496" lon="5.5653">
        <ele>513.8</ele>
        <time>2022-04-14T14:14:20Z</time>
      </trkpt>
      <trkpt lat="46.50481" lon="5.56528">
        <ele>514</ele>
        <time>2022-04-14T14:14:23Z</time>
      </trkpt>
      <trkpt lat="46.50465" lon="5.56525">
        <ele>514.4</ele>
        <time>2022-04-14T14:14:26Z</time>
      </trkpt>
      <trkpt lat="46.50448" lon="5.56521">
        <ele>514.8</ele>
        <time>2022-04-14T14:14:29Z</time>
      </trkpt>
      <trkpt lat="46.50436" lon="5.56517">
        <ele>515</ele>
        <time>2022-04-14T14:14:31Z</time>
      </trkpt>
      <trkpt lat="46.50393" lon="5.56504">
        <ele>515.4</ele>
        <time>2022-04-14T14:14:38Z</time>
      </trkpt>
      <trkpt lat="46.50375" lon="5.56498">
        <ele>516</ele>
        <time>2022-04-14T14:14:41Z</time>
      </trkpt>
      <trkpt lat="46.50331" lon="5.56483">
        <ele>516.8</ele>
        <time>2022-04-14T14:14:49Z</time>
      </trkpt>
      <trkpt lat="46.50325" lon="5.56481">
        <ele>517</ele>
        <time>2022-04-14T14:14:50Z</time>
      </trkpt>
      <trkpt lat="46.50298" lon="5.56472">
        <ele>518.2</ele>
        <time>2022-04-14T14:14:55Z</time>
      </trkpt>
      <trkpt lat="46.50283" lon="5.56464">
        <ele>518.8</ele>
        <time>2022-04-14T14:14:58Z</time>
      </trkpt>
      <trkpt lat="46.50263" lon="5.56445">
        <ele>519.4</ele>
        <time>2022-04-14T14:15:02Z</time>
      </trkpt>
      <trkpt lat="46.50255" lon="5.56434">
        <ele>520</ele>
        <time>2022-04-14T14:15:04Z</time>
      </trkpt>
      <trkpt lat="46.50242" lon="5.56419">
        <ele>520.4</ele>
        <time>2022-04-14T14:15:07Z</time>
      </trkpt>
      <trkpt lat="46.50219" lon="5.56397">
        <ele>521.4</ele>
        <time>2022-04-14T14:15:12Z</time>
      </trkpt>
      <trkpt lat="46.50215" lon="5.56393">
        <ele>521.6</ele>
        <time>2022-04-14T14:15:13Z</time>
      </trkpt>
      <trkpt lat="46.50179" lon="5.56353">
        <ele>522.4</ele>
        <time>2022-04-14T14:15:20Z</time>
      </trkpt>
      <trkpt lat="46.50155" lon="5.56314">
        <ele>522.2</ele>
        <time>2022-04-14T14:15:25Z</time>
      </trkpt>
      <trkpt lat="46.50135" lon="5.56259">
        <ele>521.6</ele>
        <time>2022-04-14T14:15:31Z</time>
      </trkpt>
      <trkpt lat="46.50126" lon="5.56243">
        <ele>521.6</ele>
        <time>2022-04-14T14:15:33Z</time>
      </trkpt>
      <trkpt lat="46.50115" lon="5.56229">
        <ele>521.4</ele>
        <time>2022-04-14T14:15:35Z</time>
      </trkpt>
      <trkpt lat="46.50079" lon="5.56202">
        <ele>521.4</ele>
        <time>2022-04-14T14:15:40Z</time>
      </trkpt>
      <trkpt lat="46.50043" lon="5.56176">
        <ele>520.6</ele>
        <time>2022-04-14T14:15:45Z</time>
      </trkpt>
      <trkpt lat="46.50019" lon="5.5616">
        <ele>520</ele>
        <time>2022-04-14T14:15:48Z</time>
      </trkpt>
      <trkpt lat="46.49995" lon="5.56146">
        <ele>519.6</ele>
        <time>2022-04-14T14:15:51Z</time>
      </trkpt>
      <trkpt lat="46.49971" lon="5.56128">
        <ele>519</ele>
        <time>2022-04-14T14:15:54Z</time>
      </trkpt>
      <trkpt lat="46.4996" lon="5.56111">
        <ele>518.8</ele>
        <time>2022-04-14T14:15:56Z</time>
      </trkpt>
      <trkpt lat="46.49955" lon="5.561">
        <ele>518.8</ele>
        <time>2022-04-14T14:15:57Z</time>
      </trkpt>
      <trkpt lat="46.49934" lon="5.5605">
        <ele>518.4</ele>
        <time>2022-04-14T14:16:02Z</time>
      </trkpt>
      <trkpt lat="46.49928" lon="5.5604">
        <ele>518.4</ele>
        <time>2022-04-14T14:16:03Z</time>
      </trkpt>
      <trkpt lat="46.49905" lon="5.56017">
        <ele>518</ele>
        <time>2022-04-14T14:16:06Z</time>
      </trkpt>
      <trkpt lat="46.49879" lon="5.55998">
        <ele>517.4</ele>
        <time>2022-04-14T14:16:09Z</time>
      </trkpt>
      <trkpt lat="46.49861" lon="5.55986">
        <ele>517</ele>
        <time>2022-04-14T14:16:11Z</time>
      </trkpt>
      <trkpt lat="46.49842" lon="5.55972">
        <ele>516.4</ele>
        <time>2022-04-14T14:16:13Z</time>
      </trkpt>
      <trkpt lat="46.49824" lon="5.55954">
        <ele>515.4</ele>
        <time>2022-04-14T14:16:15Z</time>
      </trkpt>
      <trkpt lat="46.49816" lon="5.55944">
        <ele>515</ele>
        <time>2022-04-14T14:16:16Z</time>
      </trkpt>
      <trkpt lat="46.49783" lon="5.55907">
        <ele>514</ele>
        <time>2022-04-14T14:16:20Z</time>
      </trkpt>
      <trkpt lat="46.49734" lon="5.55872">
        <ele>513</ele>
        <time>2022-04-14T14:16:25Z</time>
      </trkpt>
      <trkpt lat="46.49714" lon="5.5586">
        <ele>512.8</ele>
        <time>2022-04-14T14:16:27Z</time>
      </trkpt>
      <trkpt lat="46.49673" lon="5.55834">
        <ele>511.4</ele>
        <time>2022-04-14T14:16:31Z</time>
      </trkpt>
      <trkpt lat="46.49641" lon="5.55815">
        <ele>510.6</ele>
        <time>2022-04-14T14:16:34Z</time>
      </trkpt>
      <trkpt lat="46.49621" lon="5.558">
        <ele>510.2</ele>
        <time>2022-04-14T14:16:36Z</time>
      </trkpt>
      <trkpt lat="46.49571" lon="5.55758">
        <ele>509</ele>
        <time>2022-04-14T14:16:41Z</time>
      </trkpt>
      <trkpt lat="46.4953" lon="5.55722">
        <ele>507.8</ele>
        <time>2022-04-14T14:16:44Z</time>
      </trkpt>
      <trkpt lat="46.495" lon="5.55695">
        <ele>506.4</ele>
        <time>2022-04-14T14:16:48Z</time>
      </trkpt>
      <trkpt lat="46.49469" lon="5.55667">
        <ele>505.6</ele>
        <time>2022-04-14T14:16:51Z</time>
      </trkpt>
      <trkpt lat="46.49459" lon="5.55657">
        <ele>505.2</ele>
        <time>2022-04-14T14:16:52Z</time>
      </trkpt>
      <trkpt lat="46.4944" lon="5.55635">
        <ele>504.2</ele>
        <time>2022-04-14T14:16:54Z</time>
      </trkpt>
      <trkpt lat="46.49433" lon="5.55622">
        <ele>504</ele>
        <time>2022-04-14T14:16:55Z</time>
      </trkpt>
      <trkpt lat="46.49427" lon="5.55607">
        <ele>503.8</ele>
        <time>2022-04-14T14:16:56Z</time>
      </trkpt>
      <trkpt lat="46.49421" lon="5.55573">
        <ele>503.4</ele>
        <time>2022-04-14T14:16:58Z</time>
      </trkpt>
      <trkpt lat="46.4942" lon="5.55539">
        <ele>502.6</ele>
        <time>2022-04-14T14:17:00Z</time>
      </trkpt>
      <trkpt lat="46.49411" lon="5.55507">
        <ele>501</ele>
        <time>2022-04-14T14:17:02Z</time>
      </trkpt>
      <trkpt lat="46.49397" lon="5.55482">
        <ele>500</ele>
        <time>2022-04-14T14:17:04Z</time>
      </trkpt>
      <trkpt lat="46.49388" lon="5.55472">
        <ele>499.8</ele>
        <time>2022-04-14T14:17:05Z</time>
      </trkpt>
      <trkpt lat="46.49379" lon="5.55463">
        <ele>499.4</ele>
        <time>2022-04-14T14:17:06Z</time>
      </trkpt>
      <trkpt lat="46.49359" lon="5.55449">
        <ele>498.8</ele>
        <time>2022-04-14T14:17:08Z</time>
      </trkpt>
      <trkpt lat="46.4935" lon="5.55443">
        <ele>498.6</ele>
        <time>2022-04-14T14:17:09Z</time>
      </trkpt>
      <trkpt lat="46.49303" lon="5.55407">
        <ele>497.6</ele>
        <time>2022-04-14T14:17:14Z</time>
      </trkpt>
      <trkpt lat="46.49293" lon="5.554">
        <ele>497.4</ele>
        <time>2022-04-14T14:17:15Z</time>
      </trkpt>
      <trkpt lat="46.49253" lon="5.55378">
        <ele>497.2</ele>
        <time>2022-04-14T14:17:19Z</time>
      </trkpt>
      <trkpt lat="46.49245" lon="5.5537">
        <ele>497.2</ele>
        <time>2022-04-14T14:17:20Z</time>
      </trkpt>
      <trkpt lat="46.49237" lon="5.55361">
        <ele>497.2</ele>
        <time>2022-04-14T14:17:21Z</time>
      </trkpt>
      <trkpt lat="46.49217" lon="5.55329">
        <ele>497</ele>
        <time>2022-04-14T14:17:24Z</time>
      </trkpt>
      <trkpt lat="46.49203" lon="5.55308">
        <ele>496.8</ele>
        <time>2022-04-14T14:17:26Z</time>
      </trkpt>
      <trkpt lat="46.49187" lon="5.5529">
        <ele>496.8</ele>
        <time>2022-04-14T14:17:28Z</time>
      </trkpt>
      <trkpt lat="46.49173" lon="5.55274">
        <ele>496.6</ele>
        <time>2022-04-14T14:17:30Z</time>
      </trkpt>
      <trkpt lat="46.49166" lon="5.55265">
        <ele>496.6</ele>
        <time>2022-04-14T14:17:31Z</time>
      </trkpt>
      <trkpt lat="46.49131" lon="5.5521">
        <ele>497.4</ele>
        <time>2022-04-14T14:17:37Z</time>
      </trkpt>
      <trkpt lat="46.49119" lon="5.55194">
        <ele>497.8</ele>
        <time>2022-04-14T14:17:39Z</time>
      </trkpt>
      <trkpt lat="46.49103" lon="5.55171">
        <ele>498.6</ele>
        <time>2022-04-14T14:17:42Z</time>
      </trkpt>
      <trkpt lat="46.49085" lon="5.55151">
        <ele>499</ele>
        <time>2022-04-14T14:17:45Z</time>
      </trkpt>
      <trkpt lat="46.49073" lon="5.55133">
        <ele>498.8</ele>
        <time>2022-04-14T14:17:47Z</time>
      </trkpt>
      <trkpt lat="46.49069" lon="5.55123">
        <ele>498.8</ele>
        <time>2022-04-14T14:17:48Z</time>
      </trkpt>
      <trkpt lat="46.49065" lon="5.55112">
        <ele>498.8</ele>
        <time>2022-04-14T14:17:49Z</time>
      </trkpt>
      <trkpt lat="46.49061" lon="5.55089">
        <ele>499</ele>
        <time>2022-04-14T14:17:51Z</time>
      </trkpt>
      <trkpt lat="46.4906" lon="5.55078">
        <ele>499</ele>
        <time>2022-04-14T14:17:52Z</time>
      </trkpt>
      <trkpt lat="46.4906" lon="5.55067">
        <ele>498.8</ele>
        <time>2022-04-14T14:17:53Z</time>
      </trkpt>
      <trkpt lat="46.49062" lon="5.5502">
        <ele>498.6</ele>
        <time>2022-04-14T14:17:57Z</time>
      </trkpt>
      <trkpt lat="46.4907" lon="5.5495">
        <ele>497.6</ele>
        <time>2022-04-14T14:18:03Z</time>
      </trkpt>
      <trkpt lat="46.49076" lon="5.54916">
        <ele>497</ele>
        <time>2022-04-14T14:18:06Z</time>
      </trkpt>
      <trkpt lat="46.49075" lon="5.54892">
        <ele>496.8</ele>
        <time>2022-04-14T14:18:08Z</time>
      </trkpt>
      <trkpt lat="46.4907" lon="5.54869">
        <ele>496.6</ele>
        <time>2022-04-14T14:18:10Z</time>
      </trkpt>
      <trkpt lat="46.49061" lon="5.54846">
        <ele>496.4</ele>
        <time>2022-04-14T14:18:12Z</time>
      </trkpt>
      <trkpt lat="46.49046" lon="5.54815">
        <ele>496</ele>
        <time>2022-04-14T14:18:15Z</time>
      </trkpt>
      <trkpt lat="46.49039" lon="5.54806">
        <ele>495.8</ele>
        <time>2022-04-14T14:18:16Z</time>
      </trkpt>
      <trkpt lat="46.49031" lon="5.54799">
        <ele>495.4</ele>
        <time>2022-04-14T14:18:17Z</time>
      </trkpt>
      <trkpt lat="46.49014" lon="5.5479">
        <ele>494.8</ele>
        <time>2022-04-14T14:18:19Z</time>
      </trkpt>
      <trkpt lat="46.48996" lon="5.54785">
        <ele>494.4</ele>
        <time>2022-04-14T14:18:21Z</time>
      </trkpt>
      <trkpt lat="46.48957" lon="5.54777">
        <ele>493.4</ele>
        <time>2022-04-14T14:18:25Z</time>
      </trkpt>
      <trkpt lat="46.48947" lon="5.54779">
        <ele>493</ele>
        <time>2022-04-14T14:18:26Z</time>
      </trkpt>
      <trkpt lat="46.48937" lon="5.54782">
        <ele>492.4</ele>
        <time>2022-04-14T14:18:27Z</time>
      </trkpt>
      <trkpt lat="46.48927" lon="5.54787">
        <ele>492.2</ele>
        <time>2022-04-14T14:18:28Z</time>
      </trkpt>
      <trkpt lat="46.48917" lon="5.54792">
        <ele>491.8</ele>
        <time>2022-04-14T14:18:29Z</time>
      </trkpt>
      <trkpt lat="46.48895" lon="5.54793">
        <ele>491.4</ele>
        <time>2022-04-14T14:18:31Z</time>
      </trkpt>
      <trkpt lat="46.48885" lon="5.5479">
        <ele>491</ele>
        <time>2022-04-14T14:18:32Z</time>
      </trkpt>
      <trkpt lat="46.48864" lon="5.5478">
        <ele>489.2</ele>
        <time>2022-04-14T14:18:34Z</time>
      </trkpt>
      <trkpt lat="46.48845" lon="5.54768">
        <ele>488.4</ele>
        <time>2022-04-14T14:18:36Z</time>
      </trkpt>
      <trkpt lat="46.48827" lon="5.54754">
        <ele>487.8</ele>
        <time>2022-04-14T14:18:38Z</time>
      </trkpt>
      <trkpt lat="46.4881" lon="5.54736">
        <ele>487.4</ele>
        <time>2022-04-14T14:18:40Z</time>
      </trkpt>
      <trkpt lat="46.48758" lon="5.5469">
        <ele>487</ele>
        <time>2022-04-14T14:18:46Z</time>
      </trkpt>
      <trkpt lat="46.48707" lon="5.54661">
        <ele>488</ele>
        <time>2022-04-14T14:18:52Z</time>
      </trkpt>
      <trkpt lat="46.4865" lon="5.54631">
        <ele>489</ele>
        <time>2022-04-14T14:18:59Z</time>
      </trkpt>
      <trkpt lat="46.48621" lon="5.54619">
        <ele>490.2</ele>
        <time>2022-04-14T14:19:03Z</time>
      </trkpt>
      <trkpt lat="46.48607" lon="5.54614">
        <ele>491.2</ele>
        <time>2022-04-14T14:19:05Z</time>
      </trkpt>
      <trkpt lat="46.48599" lon="5.54612">
        <ele>491.4</ele>
        <time>2022-04-14T14:19:06Z</time>
      </trkpt>
      <trkpt lat="46.48577" lon="5.54603">
        <ele>491.8</ele>
        <time>2022-04-14T14:19:08Z</time>
      </trkpt>
      <trkpt lat="46.48564" lon="5.54591">
        <ele>492</ele>
        <time>2022-04-14T14:19:10Z</time>
      </trkpt>
      <trkpt lat="46.48552" lon="5.54568">
        <ele>492.2</ele>
        <time>2022-04-14T14:19:13Z</time>
      </trkpt>
      <trkpt lat="46.48547" lon="5.54561">
        <ele>492.2</ele>
        <time>2022-04-14T14:19:14Z</time>
      </trkpt>
      <trkpt lat="46.48542" lon="5.54555">
        <ele>492.4</ele>
        <time>2022-04-14T14:19:15Z</time>
      </trkpt>
      <trkpt lat="46.48536" lon="5.54549">
        <ele>492.6</ele>
        <time>2022-04-14T14:19:16Z</time>
      </trkpt>
      <trkpt lat="46.48531" lon="5.54544">
        <ele>493</ele>
        <time>2022-04-14T14:19:17Z</time>
      </trkpt>
      <trkpt lat="46.48525" lon="5.54541">
        <ele>493.4</ele>
        <time>2022-04-14T14:19:18Z</time>
      </trkpt>
      <trkpt lat="46.48519" lon="5.5454">
        <ele>493.8</ele>
        <time>2022-04-14T14:19:19Z</time>
      </trkpt>
      <trkpt lat="46.48513" lon="5.54539">
        <ele>494.2</ele>
        <time>2022-04-14T14:19:20Z</time>
      </trkpt>
      <trkpt lat="46.485" lon="5.54537">
        <ele>495</ele>
        <time>2022-04-14T14:19:22Z</time>
      </trkpt>
      <trkpt lat="46.48475" lon="5.54533">
        <ele>496.2</ele>
        <time>2022-04-14T14:19:26Z</time>
      </trkpt>
      <trkpt lat="46.48448" lon="5.54526">
        <ele>497.4</ele>
        <time>2022-04-14T14:19:30Z</time>
      </trkpt>
      <trkpt lat="46.48434" lon="5.54521">
        <ele>497.8</ele>
        <time>2022-04-14T14:19:32Z</time>
      </trkpt>
      <trkpt lat="46.48408" lon="5.5451">
        <ele>498.4</ele>
        <time>2022-04-14T14:19:36Z</time>
      </trkpt>
      <trkpt lat="46.48381" lon="5.54498">
        <ele>498.8</ele>
        <time>2022-04-14T14:19:40Z</time>
      </trkpt>
      <trkpt lat="46.48336" lon="5.54476">
        <ele>498.6</ele>
        <time>2022-04-14T14:19:46Z</time>
      </trkpt>
      <trkpt lat="46.48287" lon="5.5445">
        <ele>497.4</ele>
        <time>2022-04-14T14:19:52Z</time>
      </trkpt>
      <trkpt lat="46.48278" lon="5.54446">
        <ele>497.2</ele>
        <time>2022-04-14T14:19:53Z</time>
      </trkpt>
      <trkpt lat="46.48222" lon="5.54419">
        <ele>497</ele>
        <time>2022-04-14T14:20:00Z</time>
      </trkpt>
      <trkpt lat="46.48207" lon="5.54411">
        <ele>497</ele>
        <time>2022-04-14T14:20:02Z</time>
      </trkpt>
      <trkpt lat="46.48161" lon="5.54382">
        <ele>498.4</ele>
        <time>2022-04-14T14:20:09Z</time>
      </trkpt>
      <trkpt lat="46.48156" lon="5.54376">
        <ele>498.8</ele>
        <time>2022-04-14T14:20:10Z</time>
      </trkpt>
      <trkpt lat="46.4815" lon="5.54369">
        <ele>499.4</ele>
        <time>2022-04-14T14:20:12Z</time>
      </trkpt>
      <trkpt lat="46.4814" lon="5.54352">
        <ele>499.8</ele>
        <time>2022-04-14T14:20:13Z</time>
      </trkpt>
      <trkpt lat="46.48127" lon="5.54325">
        <ele>500.4</ele>
        <time>2022-04-14T14:20:16Z</time>
      </trkpt>
      <trkpt lat="46.48122" lon="5.54316">
        <ele>501</ele>
        <time>2022-04-14T14:20:17Z</time>
      </trkpt>
      <trkpt lat="46.48117" lon="5.54308">
        <ele>501.2</ele>
        <time>2022-04-14T14:20:18Z</time>
      </trkpt>
      <trkpt lat="46.48112" lon="5.54301">
        <ele>501.6</ele>
        <time>2022-04-14T14:20:19Z</time>
      </trkpt>
      <trkpt lat="46.48099" lon="5.54291">
        <ele>501.8</ele>
        <time>2022-04-14T14:20:21Z</time>
      </trkpt>
      <trkpt lat="46.48065" lon="5.5428">
        <ele>502.4</ele>
        <time>2022-04-14T14:20:26Z</time>
      </trkpt>
      <trkpt lat="46.48008" lon="5.54265">
        <ele>502</ele>
        <time>2022-04-14T14:20:34Z</time>
      </trkpt>
      <trkpt lat="46.48" lon="5.54262">
        <ele>501.8</ele>
        <time>2022-04-14T14:20:35Z</time>
      </trkpt>
      <trkpt lat="46.47946" lon="5.54238">
        <ele>500.6</ele>
        <time>2022-04-14T14:20:42Z</time>
      </trkpt>
      <trkpt lat="46.47938" lon="5.54234">
        <ele>500.2</ele>
        <time>2022-04-14T14:20:43Z</time>
      </trkpt>
      <trkpt lat="46.47912" lon="5.54222">
        <ele>499.2</ele>
        <time>2022-04-14T14:20:46Z</time>
      </trkpt>
      <trkpt lat="46.47893" lon="5.54211">
        <ele>498.8</ele>
        <time>2022-04-14T14:20:48Z</time>
      </trkpt>
      <trkpt lat="46.47864" lon="5.54191">
        <ele>497.6</ele>
        <time>2022-04-14T14:20:51Z</time>
      </trkpt>
      <trkpt lat="46.47843" lon="5.54178">
        <ele>496.4</ele>
        <time>2022-04-14T14:20:53Z</time>
      </trkpt>
      <trkpt lat="46.47833" lon="5.54172">
        <ele>495.8</ele>
        <time>2022-04-14T14:20:54Z</time>
      </trkpt>
      <trkpt lat="46.47812" lon="5.54159">
        <ele>495.2</ele>
        <time>2022-04-14T14:20:56Z</time>
      </trkpt>
      <trkpt lat="46.47792" lon="5.54145">
        <ele>493.6</ele>
        <time>2022-04-14T14:20:58Z</time>
      </trkpt>
      <trkpt lat="46.47771" lon="5.54132">
        <ele>492.8</ele>
        <time>2022-04-14T14:21:00Z</time>
      </trkpt>
      <trkpt lat="46.4776" lon="5.54125">
        <ele>492.4</ele>
        <time>2022-04-14T14:21:01Z</time>
      </trkpt>
      <trkpt lat="46.47708" lon="5.54092">
        <ele>491.8</ele>
        <time>2022-04-14T14:21:06Z</time>
      </trkpt>
      <trkpt lat="46.47686" lon="5.5408">
        <ele>491.4</ele>
        <time>2022-04-14T14:21:08Z</time>
      </trkpt>
      <trkpt lat="46.47665" lon="5.54065">
        <ele>491</ele>
        <time>2022-04-14T14:21:10Z</time>
      </trkpt>
      <trkpt lat="46.47646" lon="5.54039">
        <ele>490.6</ele>
        <time>2022-04-14T14:21:12Z</time>
      </trkpt>
      <trkpt lat="46.47634" lon="5.54005">
        <ele>490</ele>
        <time>2022-04-14T14:21:14Z</time>
      </trkpt>
      <trkpt lat="46.47628" lon="5.53987">
        <ele>488.8</ele>
        <time>2022-04-14T14:21:15Z</time>
      </trkpt>
      <trkpt lat="46.47611" lon="5.53954">
        <ele>486.4</ele>
        <time>2022-04-14T14:21:17Z</time>
      </trkpt>
      <trkpt lat="46.47601" lon="5.53939">
        <ele>486</ele>
        <time>2022-04-14T14:21:18Z</time>
      </trkpt>
      <trkpt lat="46.4759" lon="5.53925">
        <ele>484.8</ele>
        <time>2022-04-14T14:21:19Z</time>
      </trkpt>
      <trkpt lat="46.47568" lon="5.539">
        <ele>483.2</ele>
        <time>2022-04-14T14:21:21Z</time>
      </trkpt>
      <trkpt lat="46.47556" lon="5.53889">
        <ele>482.2</ele>
        <time>2022-04-14T14:21:22Z</time>
      </trkpt>
      <trkpt lat="46.47532" lon="5.5387">
        <ele>480.4</ele>
        <time>2022-04-14T14:21:24Z</time>
      </trkpt>
      <trkpt lat="46.47507" lon="5.53853">
        <ele>478.4</ele>
        <time>2022-04-14T14:21:26Z</time>
      </trkpt>
      <trkpt lat="46.47495" lon="5.53845">
        <ele>477.6</ele>
        <time>2022-04-14T14:21:27Z</time>
      </trkpt>
      <trkpt lat="46.47482" lon="5.53837">
        <ele>476.6</ele>
        <time>2022-04-14T14:21:28Z</time>
      </trkpt>
      <trkpt lat="46.47456" lon="5.53821">
        <ele>475.6</ele>
        <time>2022-04-14T14:21:30Z</time>
      </trkpt>
      <trkpt lat="46.47417" lon="5.53797">
        <ele>473.4</ele>
        <time>2022-04-14T14:21:33Z</time>
      </trkpt>
      <trkpt lat="46.47391" lon="5.53782">
        <ele>471.4</ele>
        <time>2022-04-14T14:21:35Z</time>
      </trkpt>
      <trkpt lat="46.47352" lon="5.53761">
        <ele>470</ele>
        <time>2022-04-14T14:21:38Z</time>
      </trkpt>
      <trkpt lat="46.47326" lon="5.53746">
        <ele>468</ele>
        <time>2022-04-14T14:21:40Z</time>
      </trkpt>
      <trkpt lat="46.47299" lon="5.53732">
        <ele>466.4</ele>
        <time>2022-04-14T14:21:42Z</time>
      </trkpt>
      <trkpt lat="46.47273" lon="5.53721">
        <ele>465.2</ele>
        <time>2022-04-14T14:21:44Z</time>
      </trkpt>
      <trkpt lat="46.47247" lon="5.53712">
        <ele>463.4</ele>
        <time>2022-04-14T14:21:46Z</time>
      </trkpt>
      <trkpt lat="46.47233" lon="5.53707">
        <ele>462.4</ele>
        <time>2022-04-14T14:21:47Z</time>
      </trkpt>
      <trkpt lat="46.4722" lon="5.53702">
        <ele>461.8</ele>
        <time>2022-04-14T14:21:48Z</time>
      </trkpt>
      <trkpt lat="46.47206" lon="5.53697">
        <ele>461.2</ele>
        <time>2022-04-14T14:21:49Z</time>
      </trkpt>
      <trkpt lat="46.4718" lon="5.53687">
        <ele>459.8</ele>
        <time>2022-04-14T14:21:51Z</time>
      </trkpt>
      <trkpt lat="46.47154" lon="5.53676">
        <ele>458.2</ele>
        <time>2022-04-14T14:21:53Z</time>
      </trkpt>
      <trkpt lat="46.47129" lon="5.53665">
        <ele>457</ele>
        <time>2022-04-14T14:21:55Z</time>
      </trkpt>
      <trkpt lat="46.47094" lon="5.53639">
        <ele>455.4</ele>
        <time>2022-04-14T14:21:58Z</time>
      </trkpt>
      <trkpt lat="46.47071" lon="5.5362">
        <ele>454</ele>
        <time>2022-04-14T14:22:00Z</time>
      </trkpt>
      <trkpt lat="46.4706" lon="5.5361">
        <ele>452.8</ele>
        <time>2022-04-14T14:22:01Z</time>
      </trkpt>
      <trkpt lat="46.47037" lon="5.53591">
        <ele>451.2</ele>
        <time>2022-04-14T14:22:03Z</time>
      </trkpt>
      <trkpt lat="46.47015" lon="5.53573">
        <ele>449.8</ele>
        <time>2022-04-14T14:22:05Z</time>
      </trkpt>
      <trkpt lat="46.46992" lon="5.53553">
        <ele>448.6</ele>
        <time>2022-04-14T14:22:07Z</time>
      </trkpt>
      <trkpt lat="46.4697" lon="5.53534">
        <ele>447.4</ele>
        <time>2022-04-14T14:22:09Z</time>
      </trkpt>
      <trkpt lat="46.46947" lon="5.53515">
        <ele>446.2</ele>
        <time>2022-04-14T14:22:11Z</time>
      </trkpt>
      <trkpt lat="46.46924" lon="5.53496">
        <ele>444.6</ele>
        <time>2022-04-14T14:22:13Z</time>
      </trkpt>
      <trkpt lat="46.46914" lon="5.53486">
        <ele>443.2</ele>
        <time>2022-04-14T14:22:14Z</time>
      </trkpt>
      <trkpt lat="46.46892" lon="5.53466">
        <ele>441.6</ele>
        <time>2022-04-14T14:22:16Z</time>
      </trkpt>
      <trkpt lat="46.46871" lon="5.53446">
        <ele>440.4</ele>
        <time>2022-04-14T14:22:18Z</time>
      </trkpt>
      <trkpt lat="46.46851" lon="5.53425">
        <ele>439.2</ele>
        <time>2022-04-14T14:22:20Z</time>
      </trkpt>
      <trkpt lat="46.46832" lon="5.534">
        <ele>437.8</ele>
        <time>2022-04-14T14:22:22Z</time>
      </trkpt>
      <trkpt lat="46.46817" lon="5.53374">
        <ele>436</ele>
        <time>2022-04-14T14:22:24Z</time>
      </trkpt>
      <trkpt lat="46.46813" lon="5.53359">
        <ele>435.2</ele>
        <time>2022-04-14T14:22:25Z</time>
      </trkpt>
      <trkpt lat="46.46809" lon="5.53345">
        <ele>434.2</ele>
        <time>2022-04-14T14:22:26Z</time>
      </trkpt>
      <trkpt lat="46.46807" lon="5.53319">
        <ele>433.2</ele>
        <time>2022-04-14T14:22:28Z</time>
      </trkpt>
      <trkpt lat="46.46815" lon="5.53298">
        <ele>432.4</ele>
        <time>2022-04-14T14:22:30Z</time>
      </trkpt>
      <trkpt lat="46.4682" lon="5.53289">
        <ele>432</ele>
        <time>2022-04-14T14:22:31Z</time>
      </trkpt>
      <trkpt lat="46.46824" lon="5.53281">
        <ele>431.8</ele>
        <time>2022-04-14T14:22:32Z</time>
      </trkpt>
      <trkpt lat="46.46831" lon="5.5326">
        <ele>431.2</ele>
        <time>2022-04-14T14:22:34Z</time>
      </trkpt>
      <trkpt lat="46.46837" lon="5.5324">
        <ele>431.2</ele>
        <time>2022-04-14T14:22:36Z</time>
      </trkpt>
      <trkpt lat="46.46846" lon="5.53223">
        <ele>431.2</ele>
        <time>2022-04-14T14:22:38Z</time>
      </trkpt>
      <trkpt lat="46.46871" lon="5.53185">
        <ele>431.4</ele>
        <time>2022-04-14T14:22:43Z</time>
      </trkpt>
      <trkpt lat="46.46888" lon="5.5315">
        <ele>433.2</ele>
        <time>2022-04-14T14:22:48Z</time>
      </trkpt>
      <trkpt lat="46.46895" lon="5.53137">
        <ele>434.2</ele>
        <time>2022-04-14T14:22:50Z</time>
      </trkpt>
      <trkpt lat="46.46903" lon="5.53121">
        <ele>435.6</ele>
        <time>2022-04-14T14:22:53Z</time>
      </trkpt>
      <trkpt lat="46.46907" lon="5.53115">
        <ele>435.8</ele>
        <time>2022-04-14T14:22:54Z</time>
      </trkpt>
      <trkpt lat="46.46909" lon="5.53111">
        <ele>436.2</ele>
        <time>2022-04-14T14:22:55Z</time>
      </trkpt>
      <trkpt lat="46.46916" lon="5.53101">
        <ele>436.8</ele>
        <time>2022-04-14T14:22:57Z</time>
      </trkpt>
      <trkpt lat="46.46926" lon="5.53088">
        <ele>437.4</ele>
        <time>2022-04-14T14:23:00Z</time>
      </trkpt>
      <trkpt lat="46.46936" lon="5.53076">
        <ele>437.8</ele>
        <time>2022-04-14T14:23:03Z</time>
      </trkpt>
      <trkpt lat="46.46939" lon="5.53072">
        <ele>437.8</ele>
        <time>2022-04-14T14:23:04Z</time>
      </trkpt>
      <trkpt lat="46.46949" lon="5.53061">
        <ele>438.8</ele>
        <time>2022-04-14T14:23:07Z</time>
      </trkpt>
      <trkpt lat="46.46949" lon="5.53061">
        <ele>438.8</ele>
        <time>2022-04-14T14:23:08Z</time>
      </trkpt>
      <trkpt lat="46.46955" lon="5.53054">
        <ele>439</ele>
        <time>2022-04-14T14:23:09Z</time>
      </trkpt>
      <trkpt lat="46.46963" lon="5.53043">
        <ele>440.2</ele>
        <time>2022-04-14T14:23:12Z</time>
      </trkpt>
      <trkpt lat="46.46966" lon="5.53039">
        <ele>440.4</ele>
        <time>2022-04-14T14:23:13Z</time>
      </trkpt>
      <trkpt lat="46.46974" lon="5.53026">
        <ele>441.4</ele>
        <time>2022-04-14T14:23:16Z</time>
      </trkpt>
      <trkpt lat="46.46985" lon="5.53008">
        <ele>442.6</ele>
        <time>2022-04-14T14:23:20Z</time>
      </trkpt>
      <trkpt lat="46.47" lon="5.52979">
        <ele>443.6</ele>
        <time>2022-04-14T14:23:26Z</time>
      </trkpt>
      <trkpt lat="46.47001" lon="5.52975">
        <ele>443.6</ele>
        <time>2022-04-14T14:23:27Z</time>
      </trkpt>
      <trkpt lat="46.47012" lon="5.52958">
        <ele>444.8</ele>
        <time>2022-04-14T14:23:31Z</time>
      </trkpt>
      <trkpt lat="46.47015" lon="5.52954">
        <ele>445</ele>
        <time>2022-04-14T14:23:32Z</time>
      </trkpt>
      <trkpt lat="46.47034" lon="5.52932">
        <ele>445.8</ele>
        <time>2022-04-14T14:23:38Z</time>
      </trkpt>
      <trkpt lat="46.47039" lon="5.52925">
        <ele>446.6</ele>
        <time>2022-04-14T14:23:40Z</time>
      </trkpt>
      <trkpt lat="46.47045" lon="5.52918">
        <ele>447</ele>
        <time>2022-04-14T14:23:42Z</time>
      </trkpt>
      <trkpt lat="46.47056" lon="5.52903">
        <ele>447.8</ele>
        <time>2022-04-14T14:23:46Z</time>
      </trkpt>
      <trkpt lat="46.47059" lon="5.529">
        <ele>448</ele>
        <time>2022-04-14T14:23:47Z</time>
      </trkpt>
      <trkpt lat="46.47071" lon="5.52886">
        <ele>449.2</ele>
        <time>2022-04-14T14:23:51Z</time>
      </trkpt>
      <trkpt lat="46.47081" lon="5.52876">
        <ele>449.6</ele>
        <time>2022-04-14T14:23:54Z</time>
      </trkpt>
      <trkpt lat="46.47088" lon="5.52868">
        <ele>450.2</ele>
        <time>2022-04-14T14:23:56Z</time>
      </trkpt>
      <trkpt lat="46.47108" lon="5.52848">
        <ele>451.4</ele>
        <time>2022-04-14T14:24:02Z</time>
      </trkpt>
      <trkpt lat="46.47112" lon="5.52845">
        <ele>451.8</ele>
        <time>2022-04-14T14:24:03Z</time>
      </trkpt>
      <trkpt lat="46.47121" lon="5.52837">
        <ele>452.6</ele>
        <time>2022-04-14T14:24:06Z</time>
      </trkpt>
      <trkpt lat="46.47135" lon="5.52826">
        <ele>453.4</ele>
        <time>2022-04-14T14:24:10Z</time>
      </trkpt>
      <trkpt lat="46.47138" lon="5.52823">
        <ele>453.6</ele>
        <time>2022-04-14T14:24:11Z</time>
      </trkpt>
      <trkpt lat="46.47152" lon="5.52811">
        <ele>454.6</ele>
        <time>2022-04-14T14:24:15Z</time>
      </trkpt>
      <trkpt lat="46.47163" lon="5.52803">
        <ele>455.6</ele>
        <time>2022-04-14T14:24:18Z</time>
      </trkpt>
      <trkpt lat="46.47166" lon="5.52799">
        <ele>455.8</ele>
        <time>2022-04-14T14:24:19Z</time>
      </trkpt>
      <trkpt lat="46.47181" lon="5.52787">
        <ele>456.8</ele>
        <time>2022-04-14T14:24:23Z</time>
      </trkpt>
      <trkpt lat="46.47201" lon="5.52769">
        <ele>457.6</ele>
        <time>2022-04-14T14:24:29Z</time>
      </trkpt>
      <trkpt lat="46.47204" lon="5.52767">
        <ele>458</ele>
        <time>2022-04-14T14:24:30Z</time>
      </trkpt>
      <trkpt lat="46.47216" lon="5.52759">
        <ele>458.8</ele>
        <time>2022-04-14T14:24:33Z</time>
      </trkpt>
      <trkpt lat="46.47234" lon="5.52746">
        <ele>459.4</ele>
        <time>2022-04-14T14:24:38Z</time>
      </trkpt>
      <trkpt lat="46.47253" lon="5.52733">
        <ele>460</ele>
        <time>2022-04-14T14:24:43Z</time>
      </trkpt>
      <trkpt lat="46.47264" lon="5.52726">
        <ele>460.6</ele>
        <time>2022-04-14T14:24:46Z</time>
      </trkpt>
      <trkpt lat="46.47269" lon="5.52724">
        <ele>460.8</ele>
        <time>2022-04-14T14:24:47Z</time>
      </trkpt>
      <trkpt lat="46.47272" lon="5.52723">
        <ele>461</ele>
        <time>2022-04-14T14:24:48Z</time>
      </trkpt>
      <trkpt lat="46.47292" lon="5.52714">
        <ele>462</ele>
        <time>2022-04-14T14:24:53Z</time>
      </trkpt>
      <trkpt lat="46.47295" lon="5.52712">
        <ele>462</ele>
        <time>2022-04-14T14:24:54Z</time>
      </trkpt>
      <trkpt lat="46.47303" lon="5.52708">
        <ele>463</ele>
        <time>2022-04-14T14:24:56Z</time>
      </trkpt>
      <trkpt lat="46.47307" lon="5.52707">
        <ele>463.4</ele>
        <time>2022-04-14T14:24:57Z</time>
      </trkpt>
      <trkpt lat="46.47319" lon="5.52703">
        <ele>464</ele>
        <time>2022-04-14T14:25:00Z</time>
      </trkpt>
      <trkpt lat="46.47323" lon="5.52701">
        <ele>464</ele>
        <time>2022-04-14T14:25:01Z</time>
      </trkpt>
      <trkpt lat="46.47326" lon="5.527">
        <ele>464.2</ele>
        <time>2022-04-14T14:25:02Z</time>
      </trkpt>
      <trkpt lat="46.47345" lon="5.52692">
        <ele>465.4</ele>
        <time>2022-04-14T14:25:07Z</time>
      </trkpt>
      <trkpt lat="46.47356" lon="5.52686">
        <ele>466</ele>
        <time>2022-04-14T14:25:10Z</time>
      </trkpt>
      <trkpt lat="46.47364" lon="5.52684">
        <ele>466.4</ele>
        <time>2022-04-14T14:25:12Z</time>
      </trkpt>
      <trkpt lat="46.47379" lon="5.52676">
        <ele>467.6</ele>
        <time>2022-04-14T14:25:17Z</time>
      </trkpt>
      <trkpt lat="46.47399" lon="5.52665">
        <ele>468.6</ele>
        <time>2022-04-14T14:25:21Z</time>
      </trkpt>
      <trkpt lat="46.47415" lon="5.52653">
        <ele>470.2</ele>
        <time>2022-04-14T14:25:26Z</time>
      </trkpt>
      <trkpt lat="46.47437" lon="5.5264">
        <ele>471.2</ele>
        <time>2022-04-14T14:25:32Z</time>
      </trkpt>
      <trkpt lat="46.47452" lon="5.52633">
        <ele>471.6</ele>
        <time>2022-04-14T14:25:36Z</time>
      </trkpt>
      <trkpt lat="46.47462" lon="5.52629">
        <ele>472.2</ele>
        <time>2022-04-14T14:25:39Z</time>
      </trkpt>
      <trkpt lat="46.47482" lon="5.5262">
        <ele>473.2</ele>
        <time>2022-04-14T14:25:44Z</time>
      </trkpt>
      <trkpt lat="46.4749" lon="5.52617">
        <ele>473.8</ele>
        <time>2022-04-14T14:25:46Z</time>
      </trkpt>
      <trkpt lat="46.47494" lon="5.52615">
        <ele>474</ele>
        <time>2022-04-14T14:25:47Z</time>
      </trkpt>
      <trkpt lat="46.47498" lon="5.52614">
        <ele>474.4</ele>
        <time>2022-04-14T14:25:48Z</time>
      </trkpt>
      <trkpt lat="46.47518" lon="5.52608">
        <ele>475.6</ele>
        <time>2022-04-14T14:25:53Z</time>
      </trkpt>
      <trkpt lat="46.47526" lon="5.52605">
        <ele>475.8</ele>
        <time>2022-04-14T14:25:55Z</time>
      </trkpt>
      <trkpt lat="46.47538" lon="5.52599">
        <ele>476.6</ele>
        <time>2022-04-14T14:25:58Z</time>
      </trkpt>
      <trkpt lat="46.47549" lon="5.52593">
        <ele>477.2</ele>
        <time>2022-04-14T14:26:01Z</time>
      </trkpt>
      <trkpt lat="46.47552" lon="5.5259">
        <ele>477.6</ele>
        <time>2022-04-14T14:26:02Z</time>
      </trkpt>
      <trkpt lat="46.47559" lon="5.52584">
        <ele>478.2</ele>
        <time>2022-04-14T14:26:04Z</time>
      </trkpt>
      <trkpt lat="46.47567" lon="5.52578">
        <ele>478.8</ele>
        <time>2022-04-14T14:26:06Z</time>
      </trkpt>
      <trkpt lat="46.47581" lon="5.52567">
        <ele>479.8</ele>
        <time>2022-04-14T14:26:10Z</time>
      </trkpt>
      <trkpt lat="46.47585" lon="5.52565">
        <ele>480</ele>
        <time>2022-04-14T14:26:11Z</time>
      </trkpt>
      <trkpt lat="46.47585" lon="5.52565">
        <ele>480.4</ele>
        <time>2022-04-14T14:26:12Z</time>
      </trkpt>
      <trkpt lat="46.47607" lon="5.52556">
        <ele>481</ele>
        <time>2022-04-14T14:26:16Z</time>
      </trkpt>
      <trkpt lat="46.47619" lon="5.52555">
        <ele>481.4</ele>
        <time>2022-04-14T14:26:19Z</time>
      </trkpt>
      <trkpt lat="46.47634" lon="5.52554">
        <ele>482.2</ele>
        <time>2022-04-14T14:26:23Z</time>
      </trkpt>
      <trkpt lat="46.47651" lon="5.52553">
        <ele>483.4</ele>
        <time>2022-04-14T14:26:27Z</time>
      </trkpt>
      <trkpt lat="46.47668" lon="5.52548">
        <ele>484.4</ele>
        <time>2022-04-14T14:26:31Z</time>
      </trkpt>
      <trkpt lat="46.47681" lon="5.52542">
        <ele>485.4</ele>
        <time>2022-04-14T14:26:34Z</time>
      </trkpt>
      <trkpt lat="46.47685" lon="5.5254">
        <ele>485.6</ele>
        <time>2022-04-14T14:26:35Z</time>
      </trkpt>
      <trkpt lat="46.47698" lon="5.52534">
        <ele>486.2</ele>
        <time>2022-04-14T14:26:38Z</time>
      </trkpt>
      <trkpt lat="46.47711" lon="5.52528">
        <ele>486.6</ele>
        <time>2022-04-14T14:26:41Z</time>
      </trkpt>
      <trkpt lat="46.47721" lon="5.52526">
        <ele>486.6</ele>
        <time>2022-04-14T14:26:43Z</time>
      </trkpt>
      <trkpt lat="46.47736" lon="5.5252">
        <ele>486.8</ele>
        <time>2022-04-14T14:26:46Z</time>
      </trkpt>
      <trkpt lat="46.47747" lon="5.52514">
        <ele>486.8</ele>
        <time>2022-04-14T14:26:48Z</time>
      </trkpt>
      <trkpt lat="46.47756" lon="5.52505">
        <ele>486.8</ele>
        <time>2022-04-14T14:26:50Z</time>
      </trkpt>
      <trkpt lat="46.47764" lon="5.52493">
        <ele>486.8</ele>
        <time>2022-04-14T14:26:52Z</time>
      </trkpt>
      <trkpt lat="46.47775" lon="5.52471">
        <ele>486.8</ele>
        <time>2022-04-14T14:26:55Z</time>
      </trkpt>
      <trkpt lat="46.47779" lon="5.52462">
        <ele>486.8</ele>
        <time>2022-04-14T14:26:56Z</time>
      </trkpt>
      <trkpt lat="46.47786" lon="5.52437">
        <ele>486.8</ele>
        <time>2022-04-14T14:26:59Z</time>
      </trkpt>
      <trkpt lat="46.4779" lon="5.52429">
        <ele>486.8</ele>
        <time>2022-04-14T14:27:00Z</time>
      </trkpt>
      <trkpt lat="46.47796" lon="5.52414">
        <ele>486.4</ele>
        <time>2022-04-14T14:27:02Z</time>
      </trkpt>
      <trkpt lat="46.47806" lon="5.52392">
        <ele>486</ele>
        <time>2022-04-14T14:27:05Z</time>
      </trkpt>
      <trkpt lat="46.47813" lon="5.52376">
        <ele>486</ele>
        <time>2022-04-14T14:27:07Z</time>
      </trkpt>
      <trkpt lat="46.47823" lon="5.52356">
        <ele>485.8</ele>
        <time>2022-04-14T14:27:10Z</time>
      </trkpt>
      <trkpt lat="46.47833" lon="5.52335">
        <ele>485.8</ele>
        <time>2022-04-14T14:27:13Z</time>
      </trkpt>
      <trkpt lat="46.47844" lon="5.52317">
        <ele>486</ele>
        <time>2022-04-14T14:27:16Z</time>
      </trkpt>
      <trkpt lat="46.47848" lon="5.52311">
        <ele>486</ele>
        <time>2022-04-14T14:27:17Z</time>
      </trkpt>
      <trkpt lat="46.47862" lon="5.52294">
        <ele>486</ele>
        <time>2022-04-14T14:27:20Z</time>
      </trkpt>
      <trkpt lat="46.47873" lon="5.52284">
        <ele>486</ele>
        <time>2022-04-14T14:27:22Z</time>
      </trkpt>
      <trkpt lat="46.4789" lon="5.5227">
        <ele>486</ele>
        <time>2022-04-14T14:27:25Z</time>
      </trkpt>
      <trkpt lat="46.47927" lon="5.52243">
        <ele>485.6</ele>
        <time>2022-04-14T14:27:31Z</time>
      </trkpt>
      <trkpt lat="46.47933" lon="5.52237">
        <ele>485.6</ele>
        <time>2022-04-14T14:27:32Z</time>
      </trkpt>
      <trkpt lat="46.47938" lon="5.52229">
        <ele>485.6</ele>
        <time>2022-04-14T14:27:33Z</time>
      </trkpt>
      <trkpt lat="46.4794" lon="5.52219">
        <ele>485.2</ele>
        <time>2022-04-14T14:27:34Z</time>
      </trkpt>
      <trkpt lat="46.47939" lon="5.52207">
        <ele>485</ele>
        <time>2022-04-14T14:27:35Z</time>
      </trkpt>
      <trkpt lat="46.47932" lon="5.52184">
        <ele>484.6</ele>
        <time>2022-04-14T14:27:37Z</time>
      </trkpt>
      <trkpt lat="46.47924" lon="5.52168">
        <ele>484.4</ele>
        <time>2022-04-14T14:27:39Z</time>
      </trkpt>
      <trkpt lat="46.47914" lon="5.52155">
        <ele>484.2</ele>
        <time>2022-04-14T14:27:41Z</time>
      </trkpt>
      <trkpt lat="46.47887" lon="5.52131">
        <ele>484.2</ele>
        <time>2022-04-14T14:27:46Z</time>
      </trkpt>
      <trkpt lat="46.47856" lon="5.52111">
        <ele>485.2</ele>
        <time>2022-04-14T14:27:52Z</time>
      </trkpt>
      <trkpt lat="46.47848" lon="5.52105">
        <ele>485.6</ele>
        <time>2022-04-14T14:27:54Z</time>
      </trkpt>
      <trkpt lat="46.47844" lon="5.52103">
        <ele>485.8</ele>
        <time>2022-04-14T14:27:55Z</time>
      </trkpt>
      <trkpt lat="46.47836" lon="5.521">
        <ele>486.2</ele>
        <time>2022-04-14T14:27:57Z</time>
      </trkpt>
      <trkpt lat="46.47827" lon="5.52099">
        <ele>486.6</ele>
        <time>2022-04-14T14:27:59Z</time>
      </trkpt>
      <trkpt lat="46.47822" lon="5.52098">
        <ele>486.8</ele>
        <time>2022-04-14T14:28:00Z</time>
      </trkpt>
      <trkpt lat="46.47812" lon="5.52096">
        <ele>487.2</ele>
        <time>2022-04-14T14:28:02Z</time>
      </trkpt>
      <trkpt lat="46.47803" lon="5.52094">
        <ele>487.6</ele>
        <time>2022-04-14T14:28:04Z</time>
      </trkpt>
      <trkpt lat="46.47795" lon="5.52092">
        <ele>488.2</ele>
        <time>2022-04-14T14:28:06Z</time>
      </trkpt>
      <trkpt lat="46.4779" lon="5.5209">
        <ele>488.6</ele>
        <time>2022-04-14T14:28:07Z</time>
      </trkpt>
      <trkpt lat="46.47786" lon="5.52088">
        <ele>488.6</ele>
        <time>2022-04-14T14:28:08Z</time>
      </trkpt>
      <trkpt lat="46.4777" lon="5.52083">
        <ele>489.4</ele>
        <time>2022-04-14T14:28:11Z</time>
      </trkpt>
      <trkpt lat="46.47759" lon="5.52082">
        <ele>489.6</ele>
        <time>2022-04-14T14:28:13Z</time>
      </trkpt>
      <trkpt lat="46.47748" lon="5.52082">
        <ele>490.2</ele>
        <time>2022-04-14T14:28:15Z</time>
      </trkpt>
      <trkpt lat="46.47725" lon="5.52077">
        <ele>490.8</ele>
        <time>2022-04-14T14:28:19Z</time>
      </trkpt>
      <trkpt lat="46.4771" lon="5.52074">
        <ele>491.2</ele>
        <time>2022-04-14T14:28:22Z</time>
      </trkpt>
      <trkpt lat="46.477" lon="5.52069">
        <ele>491.4</ele>
        <time>2022-04-14T14:28:24Z</time>
      </trkpt>
      <trkpt lat="46.47688" lon="5.52062">
        <ele>491.8</ele>
        <time>2022-04-14T14:28:27Z</time>
      </trkpt>
      <trkpt lat="46.47665" lon="5.52042">
        <ele>492.8</ele>
        <time>2022-04-14T14:28:32Z</time>
      </trkpt>
      <trkpt lat="46.47661" lon="5.52039">
        <ele>493</ele>
        <time>2022-04-14T14:28:33Z</time>
      </trkpt>
      <trkpt lat="46.4765" lon="5.52034">
        <ele>493.8</ele>
        <time>2022-04-14T14:28:35Z</time>
      </trkpt>
      <trkpt lat="46.47631" lon="5.52025">
        <ele>494.6</ele>
        <time>2022-04-14T14:28:39Z</time>
      </trkpt>
      <trkpt lat="46.47622" lon="5.52023">
        <ele>495</ele>
        <time>2022-04-14T14:28:41Z</time>
      </trkpt>
      <trkpt lat="46.47617" lon="5.52022">
        <ele>495.2</ele>
        <time>2022-04-14T14:28:42Z</time>
      </trkpt>
      <trkpt lat="46.47607" lon="5.52019">
        <ele>495.8</ele>
        <time>2022-04-14T14:28:44Z</time>
      </trkpt>
      <trkpt lat="46.47602" lon="5.52018">
        <ele>495.8</ele>
        <time>2022-04-14T14:28:45Z</time>
      </trkpt>
      <trkpt lat="46.47598" lon="5.52017">
        <ele>496</ele>
        <time>2022-04-14T14:28:46Z</time>
      </trkpt>
      <trkpt lat="46.47576" lon="5.52012">
        <ele>497</ele>
        <time>2022-04-14T14:28:51Z</time>
      </trkpt>
      <trkpt lat="46.47571" lon="5.52011">
        <ele>497.2</ele>
        <time>2022-04-14T14:28:52Z</time>
      </trkpt>
      <trkpt lat="46.47562" lon="5.52011">
        <ele>497.6</ele>
        <time>2022-04-14T14:28:54Z</time>
      </trkpt>
      <trkpt lat="46.47552" lon="5.52011">
        <ele>498</ele>
        <time>2022-04-14T14:28:56Z</time>
      </trkpt>
      <trkpt lat="46.47547" lon="5.5201">
        <ele>498.2</ele>
        <time>2022-04-14T14:28:57Z</time>
      </trkpt>
      <trkpt lat="46.47542" lon="5.52011">
        <ele>498.4</ele>
        <time>2022-04-14T14:28:58Z</time>
      </trkpt>
      <trkpt lat="46.47514" lon="5.52011">
        <ele>499.4</ele>
        <time>2022-04-14T14:29:04Z</time>
      </trkpt>
      <trkpt lat="46.47509" lon="5.52012">
        <ele>499.4</ele>
        <time>2022-04-14T14:29:05Z</time>
      </trkpt>
      <trkpt lat="46.4749" lon="5.52013">
        <ele>500</ele>
        <time>2022-04-14T14:29:09Z</time>
      </trkpt>
      <trkpt lat="46.47486" lon="5.52016">
        <ele>500.2</ele>
        <time>2022-04-14T14:29:10Z</time>
      </trkpt>
      <trkpt lat="46.47476" lon="5.5202">
        <ele>500.4</ele>
        <time>2022-04-14T14:29:12Z</time>
      </trkpt>
      <trkpt lat="46.47444" lon="5.52039">
        <ele>501.4</ele>
        <time>2022-04-14T14:29:19Z</time>
      </trkpt>
      <trkpt lat="46.4744" lon="5.52043">
        <ele>501.8</ele>
        <time>2022-04-14T14:29:20Z</time>
      </trkpt>
      <trkpt lat="46.47416" lon="5.52065">
        <ele>502.8</ele>
        <time>2022-04-14T14:29:26Z</time>
      </trkpt>
      <trkpt lat="46.47391" lon="5.52087">
        <ele>503.8</ele>
        <time>2022-04-14T14:29:32Z</time>
      </trkpt>
      <trkpt lat="46.47387" lon="5.5209">
        <ele>503.8</ele>
        <time>2022-04-14T14:29:33Z</time>
      </trkpt>
      <trkpt lat="46.47374" lon="5.52094">
        <ele>504.6</ele>
        <time>2022-04-14T14:29:36Z</time>
      </trkpt>
      <trkpt lat="46.47369" lon="5.52095">
        <ele>504.8</ele>
        <time>2022-04-14T14:29:37Z</time>
      </trkpt>
      <trkpt lat="46.47364" lon="5.52096">
        <ele>505</ele>
        <time>2022-04-14T14:29:38Z</time>
      </trkpt>
      <trkpt lat="46.47359" lon="5.52097">
        <ele>505.2</ele>
        <time>2022-04-14T14:29:39Z</time>
      </trkpt>
      <trkpt lat="46.47355" lon="5.52097">
        <ele>505.4</ele>
        <time>2022-04-14T14:29:40Z</time>
      </trkpt>
      <trkpt lat="46.47341" lon="5.52095">
        <ele>505.8</ele>
        <time>2022-04-14T14:29:43Z</time>
      </trkpt>
      <trkpt lat="46.47336" lon="5.52094">
        <ele>506</ele>
        <time>2022-04-14T14:29:44Z</time>
      </trkpt>
      <trkpt lat="46.47305" lon="5.52083">
        <ele>507.2</ele>
        <time>2022-04-14T14:29:51Z</time>
      </trkpt>
      <trkpt lat="46.473" lon="5.52082">
        <ele>507.2</ele>
        <time>2022-04-14T14:29:52Z</time>
      </trkpt>
      <trkpt lat="46.47282" lon="5.52073">
        <ele>507.8</ele>
        <time>2022-04-14T14:29:56Z</time>
      </trkpt>
      <trkpt lat="46.47272" lon="5.52067">
        <ele>508</ele>
        <time>2022-04-14T14:29:58Z</time>
      </trkpt>
      <trkpt lat="46.47268" lon="5.52064">
        <ele>508.2</ele>
        <time>2022-04-14T14:29:59Z</time>
      </trkpt>
      <trkpt lat="46.47244" lon="5.52037">
        <ele>509.4</ele>
        <time>2022-04-14T14:30:05Z</time>
      </trkpt>
      <trkpt lat="46.47228" lon="5.5202">
        <ele>510.2</ele>
        <time>2022-04-14T14:30:09Z</time>
      </trkpt>
      <trkpt lat="46.47219" lon="5.52015">
        <ele>510.4</ele>
        <time>2022-04-14T14:30:11Z</time>
      </trkpt>
      <trkpt lat="46.47208" lon="5.52013">
        <ele>511</ele>
        <time>2022-04-14T14:30:13Z</time>
      </trkpt>
      <trkpt lat="46.47188" lon="5.5201">
        <ele>511.6</ele>
        <time>2022-04-14T14:30:17Z</time>
      </trkpt>
      <trkpt lat="46.47169" lon="5.5201">
        <ele>512.2</ele>
        <time>2022-04-14T14:30:21Z</time>
      </trkpt>
      <trkpt lat="46.47159" lon="5.52008">
        <ele>512.6</ele>
        <time>2022-04-14T14:30:23Z</time>
      </trkpt>
      <trkpt lat="46.47135" lon="5.52">
        <ele>513.6</ele>
        <time>2022-04-14T14:30:28Z</time>
      </trkpt>
      <trkpt lat="46.47126" lon="5.51994">
        <ele>514</ele>
        <time>2022-04-14T14:30:30Z</time>
      </trkpt>
      <trkpt lat="46.47102" lon="5.51983">
        <ele>514.6</ele>
        <time>2022-04-14T14:30:35Z</time>
      </trkpt>
      <trkpt lat="46.47082" lon="5.51974">
        <ele>515.2</ele>
        <time>2022-04-14T14:30:39Z</time>
      </trkpt>
      <trkpt lat="46.47077" lon="5.51972">
        <ele>515.2</ele>
        <time>2022-04-14T14:30:40Z</time>
      </trkpt>
      <trkpt lat="46.47072" lon="5.5197">
        <ele>515.4</ele>
        <time>2022-04-14T14:30:41Z</time>
      </trkpt>
      <trkpt lat="46.47063" lon="5.51966">
        <ele>515.8</ele>
        <time>2022-04-14T14:30:43Z</time>
      </trkpt>
      <trkpt lat="46.47049" lon="5.5196">
        <ele>516</ele>
        <time>2022-04-14T14:30:46Z</time>
      </trkpt>
      <trkpt lat="46.47035" lon="5.51956">
        <ele>516.4</ele>
        <time>2022-04-14T14:30:49Z</time>
      </trkpt>
      <trkpt lat="46.47023" lon="5.51951">
        <ele>516.8</ele>
        <time>2022-04-14T14:30:52Z</time>
      </trkpt>
      <trkpt lat="46.47006" lon="5.51942">
        <ele>517.6</ele>
        <time>2022-04-14T14:30:56Z</time>
      </trkpt>
      <trkpt lat="46.46997" lon="5.51936">
        <ele>518.2</ele>
        <time>2022-04-14T14:30:58Z</time>
      </trkpt>
      <trkpt lat="46.46965" lon="5.51906">
        <ele>519.2</ele>
        <time>2022-04-14T14:31:06Z</time>
      </trkpt>
      <trkpt lat="46.46944" lon="5.51888">
        <ele>520</ele>
        <time>2022-04-14T14:31:11Z</time>
      </trkpt>
      <trkpt lat="46.46933" lon="5.51886">
        <ele>520.4</ele>
        <time>2022-04-14T14:31:13Z</time>
      </trkpt>
      <trkpt lat="46.46923" lon="5.51886">
        <ele>520.6</ele>
        <time>2022-04-14T14:31:15Z</time>
      </trkpt>
      <trkpt lat="46.46913" lon="5.51887">
        <ele>521</ele>
        <time>2022-04-14T14:31:17Z</time>
      </trkpt>
      <trkpt lat="46.46908" lon="5.51888">
        <ele>521.2</ele>
        <time>2022-04-14T14:31:18Z</time>
      </trkpt>
      <trkpt lat="46.46904" lon="5.51889">
        <ele>521.4</ele>
        <time>2022-04-14T14:31:19Z</time>
      </trkpt>
      <trkpt lat="46.46899" lon="5.5189">
        <ele>521.4</ele>
        <time>2022-04-14T14:31:20Z</time>
      </trkpt>
      <trkpt lat="46.46894" lon="5.51892">
        <ele>521.6</ele>
        <time>2022-04-14T14:31:21Z</time>
      </trkpt>
      <trkpt lat="46.46889" lon="5.51894">
        <ele>521.6</ele>
        <time>2022-04-14T14:31:22Z</time>
      </trkpt>
      <trkpt lat="46.46875" lon="5.51896">
        <ele>522.2</ele>
        <time>2022-04-14T14:31:25Z</time>
      </trkpt>
      <trkpt lat="46.46865" lon="5.51898">
        <ele>522.6</ele>
        <time>2022-04-14T14:31:27Z</time>
      </trkpt>
      <trkpt lat="46.46847" lon="5.51906">
        <ele>523</ele>
        <time>2022-04-14T14:31:31Z</time>
      </trkpt>
      <trkpt lat="46.46837" lon="5.51914">
        <ele>523.2</ele>
        <time>2022-04-14T14:31:33Z</time>
      </trkpt>
      <trkpt lat="46.46826" lon="5.51917">
        <ele>523.6</ele>
        <time>2022-04-14T14:31:35Z</time>
      </trkpt>
      <trkpt lat="46.46821" lon="5.5192">
        <ele>523.6</ele>
        <time>2022-04-14T14:31:36Z</time>
      </trkpt>
      <trkpt lat="46.46815" lon="5.5192">
        <ele>524</ele>
        <time>2022-04-14T14:31:37Z</time>
      </trkpt>
      <trkpt lat="46.4681" lon="5.51921">
        <ele>524</ele>
        <time>2022-04-14T14:31:38Z</time>
      </trkpt>
      <trkpt lat="46.46792" lon="5.5192">
        <ele>524.8</ele>
        <time>2022-04-14T14:31:41Z</time>
      </trkpt>
      <trkpt lat="46.46782" lon="5.5192">
        <ele>525</ele>
        <time>2022-04-14T14:31:43Z</time>
      </trkpt>
      <trkpt lat="46.46772" lon="5.51922">
        <ele>525.4</ele>
        <time>2022-04-14T14:31:45Z</time>
      </trkpt>
      <trkpt lat="46.46767" lon="5.51923">
        <ele>525.8</ele>
        <time>2022-04-14T14:31:46Z</time>
      </trkpt>
      <trkpt lat="46.46761" lon="5.51923">
        <ele>525.8</ele>
        <time>2022-04-14T14:31:47Z</time>
      </trkpt>
      <trkpt lat="46.46743" lon="5.51914">
        <ele>526.6</ele>
        <time>2022-04-14T14:31:51Z</time>
      </trkpt>
      <trkpt lat="46.46737" lon="5.51908">
        <ele>527</ele>
        <time>2022-04-14T14:31:53Z</time>
      </trkpt>
      <trkpt lat="46.46734" lon="5.51906">
        <ele>527</ele>
        <time>2022-04-14T14:31:54Z</time>
      </trkpt>
      <trkpt lat="46.46718" lon="5.51899">
        <ele>527.8</ele>
        <time>2022-04-14T14:31:58Z</time>
      </trkpt>
      <trkpt lat="46.46714" lon="5.51898">
        <ele>528</ele>
        <time>2022-04-14T14:31:59Z</time>
      </trkpt>
      <trkpt lat="46.46704" lon="5.51898">
        <ele>528.6</ele>
        <time>2022-04-14T14:32:01Z</time>
      </trkpt>
      <trkpt lat="46.46691" lon="5.51909">
        <ele>529.2</ele>
        <time>2022-04-14T14:32:04Z</time>
      </trkpt>
      <trkpt lat="46.46687" lon="5.51913">
        <ele>529.2</ele>
        <time>2022-04-14T14:32:05Z</time>
      </trkpt>
      <trkpt lat="46.46663" lon="5.51937">
        <ele>530.2</ele>
        <time>2022-04-14T14:32:10Z</time>
      </trkpt>
      <trkpt lat="46.4665" lon="5.51945">
        <ele>531</ele>
        <time>2022-04-14T14:32:13Z</time>
      </trkpt>
      <trkpt lat="46.46646" lon="5.51947">
        <ele>531.6</ele>
        <time>2022-04-14T14:32:14Z</time>
      </trkpt>
      <trkpt lat="46.46627" lon="5.51958">
        <ele>532.6</ele>
        <time>2022-04-14T14:32:18Z</time>
      </trkpt>
      <trkpt lat="46.46623" lon="5.51958">
        <ele>532.8</ele>
        <time>2022-04-14T14:32:19Z</time>
      </trkpt>
      <trkpt lat="46.46599" lon="5.51954">
        <ele>533.8</ele>
        <time>2022-04-14T14:32:24Z</time>
      </trkpt>
      <trkpt lat="46.46589" lon="5.51949">
        <ele>534.2</ele>
        <time>2022-04-14T14:32:26Z</time>
      </trkpt>
      <trkpt lat="46.46578" lon="5.51947">
        <ele>534.6</ele>
        <time>2022-04-14T14:32:28Z</time>
      </trkpt>
      <trkpt lat="46.46573" lon="5.51945">
        <ele>534.8</ele>
        <time>2022-04-14T14:32:29Z</time>
      </trkpt>
      <trkpt lat="46.46568" lon="5.51944">
        <ele>535</ele>
        <time>2022-04-14T14:32:30Z</time>
      </trkpt>
      <trkpt lat="46.46563" lon="5.51943">
        <ele>535.2</ele>
        <time>2022-04-14T14:32:31Z</time>
      </trkpt>
      <trkpt lat="46.46553" lon="5.51948">
        <ele>535.4</ele>
        <time>2022-04-14T14:32:33Z</time>
      </trkpt>
      <trkpt lat="46.46529" lon="5.51962">
        <ele>535.8</ele>
        <time>2022-04-14T14:32:38Z</time>
      </trkpt>
      <trkpt lat="46.46525" lon="5.51963">
        <ele>536.2</ele>
        <time>2022-04-14T14:32:39Z</time>
      </trkpt>
      <trkpt lat="46.46511" lon="5.51964">
        <ele>536.4</ele>
        <time>2022-04-14T14:32:42Z</time>
      </trkpt>
      <trkpt lat="46.46502" lon="5.51964">
        <ele>536.8</ele>
        <time>2022-04-14T14:32:44Z</time>
      </trkpt>
      <trkpt lat="46.46497" lon="5.51965">
        <ele>536.8</ele>
        <time>2022-04-14T14:32:45Z</time>
      </trkpt>
      <trkpt lat="46.46492" lon="5.51966">
        <ele>537</ele>
        <time>2022-04-14T14:32:46Z</time>
      </trkpt>
      <trkpt lat="46.46488" lon="5.51966">
        <ele>537</ele>
        <time>2022-04-14T14:32:47Z</time>
      </trkpt>
      <trkpt lat="46.46484" lon="5.51966">
        <ele>537.2</ele>
        <time>2022-04-14T14:32:48Z</time>
      </trkpt>
      <trkpt lat="46.4648" lon="5.51967">
        <ele>537.4</ele>
        <time>2022-04-14T14:32:49Z</time>
      </trkpt>
      <trkpt lat="46.46476" lon="5.51969">
        <ele>537.6</ele>
        <time>2022-04-14T14:32:50Z</time>
      </trkpt>
      <trkpt lat="46.46467" lon="5.51974">
        <ele>538.4</ele>
        <time>2022-04-14T14:32:52Z</time>
      </trkpt>
      <trkpt lat="46.46453" lon="5.51979">
        <ele>539.2</ele>
        <time>2022-04-14T14:32:55Z</time>
      </trkpt>
      <trkpt lat="46.46443" lon="5.51981">
        <ele>539.4</ele>
        <time>2022-04-14T14:32:57Z</time>
      </trkpt>
      <trkpt lat="46.46438" lon="5.51981">
        <ele>539.4</ele>
        <time>2022-04-14T14:32:58Z</time>
      </trkpt>
      <trkpt lat="46.46429" lon="5.51978">
        <ele>539.6</ele>
        <time>2022-04-14T14:33:00Z</time>
      </trkpt>
      <trkpt lat="46.4642" lon="5.51975">
        <ele>540.4</ele>
        <time>2022-04-14T14:33:02Z</time>
      </trkpt>
      <trkpt lat="46.46415" lon="5.51974">
        <ele>540.4</ele>
        <time>2022-04-14T14:33:03Z</time>
      </trkpt>
      <trkpt lat="46.4641" lon="5.51974">
        <ele>540.8</ele>
        <time>2022-04-14T14:33:04Z</time>
      </trkpt>
      <trkpt lat="46.46402" lon="5.51977">
        <ele>541.2</ele>
        <time>2022-04-14T14:33:06Z</time>
      </trkpt>
      <trkpt lat="46.46394" lon="5.51986">
        <ele>541.4</ele>
        <time>2022-04-14T14:33:08Z</time>
      </trkpt>
      <trkpt lat="46.46391" lon="5.51993">
        <ele>541.6</ele>
        <time>2022-04-14T14:33:09Z</time>
      </trkpt>
      <trkpt lat="46.46383" lon="5.52006">
        <ele>542</ele>
        <time>2022-04-14T14:33:11Z</time>
      </trkpt>
      <trkpt lat="46.46377" lon="5.52021">
        <ele>542.2</ele>
        <time>2022-04-14T14:33:13Z</time>
      </trkpt>
      <trkpt lat="46.46373" lon="5.52028">
        <ele>542.2</ele>
        <time>2022-04-14T14:33:14Z</time>
      </trkpt>
      <trkpt lat="46.4637" lon="5.52034">
        <ele>542.6</ele>
        <time>2022-04-14T14:33:15Z</time>
      </trkpt>
      <trkpt lat="46.46357" lon="5.52059">
        <ele>543.6</ele>
        <time>2022-04-14T14:33:19Z</time>
      </trkpt>
      <trkpt lat="46.46349" lon="5.52078">
        <ele>544.2</ele>
        <time>2022-04-14T14:33:22Z</time>
      </trkpt>
      <trkpt lat="46.46337" lon="5.52092">
        <ele>544.8</ele>
        <time>2022-04-14T14:33:25Z</time>
      </trkpt>
      <trkpt lat="46.46331" lon="5.52102">
        <ele>545.2</ele>
        <time>2022-04-14T14:33:27Z</time>
      </trkpt>
      <trkpt lat="46.46321" lon="5.52109">
        <ele>545.6</ele>
        <time>2022-04-14T14:33:30Z</time>
      </trkpt>
      <trkpt lat="46.46316" lon="5.5211">
        <ele>545.8</ele>
        <time>2022-04-14T14:33:31Z</time>
      </trkpt>
      <trkpt lat="46.46312" lon="5.52111">
        <ele>546.2</ele>
        <time>2022-04-14T14:33:32Z</time>
      </trkpt>
      <trkpt lat="46.46303" lon="5.52112">
        <ele>546.6</ele>
        <time>2022-04-14T14:33:34Z</time>
      </trkpt>
      <trkpt lat="46.46298" lon="5.52111">
        <ele>546.6</ele>
        <time>2022-04-14T14:33:35Z</time>
      </trkpt>
      <trkpt lat="46.46289" lon="5.52108">
        <ele>547</ele>
        <time>2022-04-14T14:33:37Z</time>
      </trkpt>
      <trkpt lat="46.46267" lon="5.52098">
        <ele>548.2</ele>
        <time>2022-04-14T14:33:42Z</time>
      </trkpt>
      <trkpt lat="46.46258" lon="5.52095">
        <ele>548.4</ele>
        <time>2022-04-14T14:33:44Z</time>
      </trkpt>
      <trkpt lat="46.46249" lon="5.52094">
        <ele>549</ele>
        <time>2022-04-14T14:33:46Z</time>
      </trkpt>
      <trkpt lat="46.46245" lon="5.52094">
        <ele>549</ele>
        <time>2022-04-14T14:33:47Z</time>
      </trkpt>
      <trkpt lat="46.46241" lon="5.52094">
        <ele>549.4</ele>
        <time>2022-04-14T14:33:48Z</time>
      </trkpt>
      <trkpt lat="46.46222" lon="5.52097">
        <ele>550.2</ele>
        <time>2022-04-14T14:33:52Z</time>
      </trkpt>
      <trkpt lat="46.46217" lon="5.52098">
        <ele>550.6</ele>
        <time>2022-04-14T14:33:53Z</time>
      </trkpt>
      <trkpt lat="46.46208" lon="5.52097">
        <ele>550.8</ele>
        <time>2022-04-14T14:33:55Z</time>
      </trkpt>
      <trkpt lat="46.46191" lon="5.5209">
        <ele>551.6</ele>
        <time>2022-04-14T14:33:59Z</time>
      </trkpt>
      <trkpt lat="46.46186" lon="5.52088">
        <ele>551.8</ele>
        <time>2022-04-14T14:34:00Z</time>
      </trkpt>
      <trkpt lat="46.46177" lon="5.52081">
        <ele>552.4</ele>
        <time>2022-04-14T14:34:02Z</time>
      </trkpt>
      <trkpt lat="46.46168" lon="5.52074">
        <ele>552.8</ele>
        <time>2022-04-14T14:34:04Z</time>
      </trkpt>
      <trkpt lat="46.46151" lon="5.52061">
        <ele>553.2</ele>
        <time>2022-04-14T14:34:08Z</time>
      </trkpt>
      <trkpt lat="46.46147" lon="5.52059">
        <ele>553.4</ele>
        <time>2022-04-14T14:34:09Z</time>
      </trkpt>
      <trkpt lat="46.46138" lon="5.52055">
        <ele>553.8</ele>
        <time>2022-04-14T14:34:11Z</time>
      </trkpt>
      <trkpt lat="46.46119" lon="5.5205">
        <ele>554.4</ele>
        <time>2022-04-14T14:34:15Z</time>
      </trkpt>
      <trkpt lat="46.46114" lon="5.52049">
        <ele>554.8</ele>
        <time>2022-04-14T14:34:16Z</time>
      </trkpt>
      <trkpt lat="46.46105" lon="5.52048">
        <ele>555</ele>
        <time>2022-04-14T14:34:18Z</time>
      </trkpt>
      <trkpt lat="46.46086" lon="5.52041">
        <ele>555.8</ele>
        <time>2022-04-14T14:34:22Z</time>
      </trkpt>
      <trkpt lat="46.46081" lon="5.52038">
        <ele>556</ele>
        <time>2022-04-14T14:34:23Z</time>
      </trkpt>
      <trkpt lat="46.4606" lon="5.52024">
        <ele>557</ele>
        <time>2022-04-14T14:34:28Z</time>
      </trkpt>
      <trkpt lat="46.46056" lon="5.52021">
        <ele>557.2</ele>
        <time>2022-04-14T14:34:29Z</time>
      </trkpt>
      <trkpt lat="46.46051" lon="5.52019">
        <ele>557.4</ele>
        <time>2022-04-14T14:34:30Z</time>
      </trkpt>
      <trkpt lat="46.46038" lon="5.52013">
        <ele>558.2</ele>
        <time>2022-04-14T14:34:33Z</time>
      </trkpt>
      <trkpt lat="46.46033" lon="5.52012">
        <ele>558.4</ele>
        <time>2022-04-14T14:34:34Z</time>
      </trkpt>
      <trkpt lat="46.46019" lon="5.52008">
        <ele>559.2</ele>
        <time>2022-04-14T14:34:37Z</time>
      </trkpt>
      <trkpt lat="46.46" lon="5.52">
        <ele>560.2</ele>
        <time>2022-04-14T14:34:42Z</time>
      </trkpt>
      <trkpt lat="46.4599" lon="5.51995">
        <ele>561.2</ele>
        <time>2022-04-14T14:34:45Z</time>
      </trkpt>
      <trkpt lat="46.45982" lon="5.5199">
        <ele>561.6</ele>
        <time>2022-04-14T14:34:47Z</time>
      </trkpt>
      <trkpt lat="46.45964" lon="5.51978">
        <ele>562.4</ele>
        <time>2022-04-14T14:34:51Z</time>
      </trkpt>
      <trkpt lat="46.45954" lon="5.51971">
        <ele>562.6</ele>
        <time>2022-04-14T14:34:53Z</time>
      </trkpt>
      <trkpt lat="46.45949" lon="5.51968">
        <ele>562.8</ele>
        <time>2022-04-14T14:34:54Z</time>
      </trkpt>
      <trkpt lat="46.45931" lon="5.51954">
        <ele>563.4</ele>
        <time>2022-04-14T14:34:58Z</time>
      </trkpt>
      <trkpt lat="46.45922" lon="5.51947">
        <ele>564</ele>
        <time>2022-04-14T14:35:00Z</time>
      </trkpt>
      <trkpt lat="46.45913" lon="5.51939">
        <ele>564.6</ele>
        <time>2022-04-14T14:35:02Z</time>
      </trkpt>
      <trkpt lat="46.45904" lon="5.51933">
        <ele>565</ele>
        <time>2022-04-14T14:35:04Z</time>
      </trkpt>
      <trkpt lat="46.4589" lon="5.51926">
        <ele>565.4</ele>
        <time>2022-04-14T14:35:07Z</time>
      </trkpt>
      <trkpt lat="46.45873" lon="5.51912">
        <ele>566.6</ele>
        <time>2022-04-14T14:35:11Z</time>
      </trkpt>
      <trkpt lat="46.45868" lon="5.51907">
        <ele>566.6</ele>
        <time>2022-04-14T14:35:12Z</time>
      </trkpt>
      <trkpt lat="46.45843" lon="5.51886">
        <ele>567.6</ele>
        <time>2022-04-14T14:35:18Z</time>
      </trkpt>
      <trkpt lat="46.45838" lon="5.51884">
        <ele>567.6</ele>
        <time>2022-04-14T14:35:19Z</time>
      </trkpt>
      <trkpt lat="46.45815" lon="5.51875">
        <ele>568.4</ele>
        <time>2022-04-14T14:35:24Z</time>
      </trkpt>
      <trkpt lat="46.4581" lon="5.51872">
        <ele>568.6</ele>
        <time>2022-04-14T14:35:25Z</time>
      </trkpt>
      <trkpt lat="46.45793" lon="5.51863">
        <ele>569.8</ele>
        <time>2022-04-14T14:35:29Z</time>
      </trkpt>
      <trkpt lat="46.45785" lon="5.51858">
        <ele>570.4</ele>
        <time>2022-04-14T14:35:31Z</time>
      </trkpt>
      <trkpt lat="46.45776" lon="5.51853">
        <ele>571</ele>
        <time>2022-04-14T14:35:33Z</time>
      </trkpt>
      <trkpt lat="46.45763" lon="5.51846">
        <ele>572</ele>
        <time>2022-04-14T14:35:36Z</time>
      </trkpt>
      <trkpt lat="46.45749" lon="5.51838">
        <ele>572.8</ele>
        <time>2022-04-14T14:35:39Z</time>
      </trkpt>
      <trkpt lat="46.4574" lon="5.51834">
        <ele>573</ele>
        <time>2022-04-14T14:35:41Z</time>
      </trkpt>
      <trkpt lat="46.45722" lon="5.51822">
        <ele>574.2</ele>
        <time>2022-04-14T14:35:45Z</time>
      </trkpt>
      <trkpt lat="46.4571" lon="5.51812">
        <ele>574.6</ele>
        <time>2022-04-14T14:35:48Z</time>
      </trkpt>
      <trkpt lat="46.45693" lon="5.51798">
        <ele>575.2</ele>
        <time>2022-04-14T14:35:52Z</time>
      </trkpt>
      <trkpt lat="46.4568" lon="5.5179">
        <ele>576.2</ele>
        <time>2022-04-14T14:35:55Z</time>
      </trkpt>
      <trkpt lat="46.45676" lon="5.51787">
        <ele>576.4</ele>
        <time>2022-04-14T14:35:56Z</time>
      </trkpt>
      <trkpt lat="46.45652" lon="5.51769">
        <ele>577.4</ele>
        <time>2022-04-14T14:36:02Z</time>
      </trkpt>
      <trkpt lat="46.45636" lon="5.51755">
        <ele>578.6</ele>
        <time>2022-04-14T14:36:06Z</time>
      </trkpt>
      <trkpt lat="46.45624" lon="5.51744">
        <ele>579.6</ele>
        <time>2022-04-14T14:36:09Z</time>
      </trkpt>
      <trkpt lat="46.45611" lon="5.51734">
        <ele>580.2</ele>
        <time>2022-04-14T14:36:12Z</time>
      </trkpt>
      <trkpt lat="46.45607" lon="5.51731">
        <ele>580.6</ele>
        <time>2022-04-14T14:36:13Z</time>
      </trkpt>
      <trkpt lat="46.45589" lon="5.51719">
        <ele>582</ele>
        <time>2022-04-14T14:36:17Z</time>
      </trkpt>
      <trkpt lat="46.45571" lon="5.51708">
        <ele>582.8</ele>
        <time>2022-04-14T14:36:21Z</time>
      </trkpt>
      <trkpt lat="46.45567" lon="5.51704">
        <ele>583</ele>
        <time>2022-04-14T14:36:22Z</time>
      </trkpt>
      <trkpt lat="46.45545" lon="5.51689">
        <ele>584</ele>
        <time>2022-04-14T14:36:27Z</time>
      </trkpt>
      <trkpt lat="46.45533" lon="5.51681">
        <ele>584.8</ele>
        <time>2022-04-14T14:36:30Z</time>
      </trkpt>
      <trkpt lat="46.45529" lon="5.51677">
        <ele>585.2</ele>
        <time>2022-04-14T14:36:31Z</time>
      </trkpt>
      <trkpt lat="46.45509" lon="5.51661">
        <ele>586.6</ele>
        <time>2022-04-14T14:36:36Z</time>
      </trkpt>
      <trkpt lat="46.45501" lon="5.51654">
        <ele>587</ele>
        <time>2022-04-14T14:36:38Z</time>
      </trkpt>
      <trkpt lat="46.45497" lon="5.5165">
        <ele>587</ele>
        <time>2022-04-14T14:36:39Z</time>
      </trkpt>
      <trkpt lat="46.45486" lon="5.51636">
        <ele>587.8</ele>
        <time>2022-04-14T14:36:42Z</time>
      </trkpt>
      <trkpt lat="46.45479" lon="5.51626">
        <ele>588.2</ele>
        <time>2022-04-14T14:36:44Z</time>
      </trkpt>
      <trkpt lat="46.45476" lon="5.51621">
        <ele>588.6</ele>
        <time>2022-04-14T14:36:45Z</time>
      </trkpt>
      <trkpt lat="46.45469" lon="5.5161">
        <ele>589</ele>
        <time>2022-04-14T14:36:47Z</time>
      </trkpt>
      <trkpt lat="46.45456" lon="5.51577">
        <ele>589.4</ele>
        <time>2022-04-14T14:36:52Z</time>
      </trkpt>
      <trkpt lat="46.45449" lon="5.51562">
        <ele>589.6</ele>
        <time>2022-04-14T14:36:54Z</time>
      </trkpt>
      <trkpt lat="46.45439" lon="5.51548">
        <ele>589.6</ele>
        <time>2022-04-14T14:36:56Z</time>
      </trkpt>
      <trkpt lat="46.45412" lon="5.51527">
        <ele>589.4</ele>
        <time>2022-04-14T14:37:00Z</time>
      </trkpt>
      <trkpt lat="46.45368" lon="5.51495">
        <ele>587.8</ele>
        <time>2022-04-14T14:37:06Z</time>
      </trkpt>
      <trkpt lat="46.45361" lon="5.51488">
        <ele>587.6</ele>
        <time>2022-04-14T14:37:07Z</time>
      </trkpt>
      <trkpt lat="46.45336" lon="5.51451">
        <ele>587.4</ele>
        <time>2022-04-14T14:37:12Z</time>
      </trkpt>
      <trkpt lat="46.45315" lon="5.51425">
        <ele>588.8</ele>
        <time>2022-04-14T14:37:17Z</time>
      </trkpt>
      <trkpt lat="46.45311" lon="5.5142">
        <ele>589</ele>
        <time>2022-04-14T14:37:18Z</time>
      </trkpt>
      <trkpt lat="46.45303" lon="5.51408">
        <ele>590</ele>
        <time>2022-04-14T14:37:20Z</time>
      </trkpt>
      <trkpt lat="46.45299" lon="5.51392">
        <ele>590.4</ele>
        <time>2022-04-14T14:37:22Z</time>
      </trkpt>
      <trkpt lat="46.45297" lon="5.51349">
        <ele>591</ele>
        <time>2022-04-14T14:37:27Z</time>
      </trkpt>
      <trkpt lat="46.45298" lon="5.51341">
        <ele>591.2</ele>
        <time>2022-04-14T14:37:28Z</time>
      </trkpt>
      <trkpt lat="46.453" lon="5.51318">
        <ele>591</ele>
        <time>2022-04-14T14:37:31Z</time>
      </trkpt>
      <trkpt lat="46.45296" lon="5.51304">
        <ele>590.8</ele>
        <time>2022-04-14T14:37:33Z</time>
      </trkpt>
      <trkpt lat="46.45285" lon="5.51296">
        <ele>590.6</ele>
        <time>2022-04-14T14:37:35Z</time>
      </trkpt>
      <trkpt lat="46.45279" lon="5.51294">
        <ele>590.6</ele>
        <time>2022-04-14T14:37:36Z</time>
      </trkpt>
      <trkpt lat="46.45273" lon="5.51291">
        <ele>590.6</ele>
        <time>2022-04-14T14:37:37Z</time>
      </trkpt>
      <trkpt lat="46.45266" lon="5.5128">
        <ele>590.4</ele>
        <time>2022-04-14T14:37:39Z</time>
      </trkpt>
      <trkpt lat="46.45267" lon="5.51265">
        <ele>590.2</ele>
        <time>2022-04-14T14:37:41Z</time>
      </trkpt>
      <trkpt lat="46.45271" lon="5.51256">
        <ele>590.2</ele>
        <time>2022-04-14T14:37:42Z</time>
      </trkpt>
      <trkpt lat="46.45276" lon="5.51247">
        <ele>590</ele>
        <time>2022-04-14T14:37:43Z</time>
      </trkpt>
      <trkpt lat="46.45292" lon="5.51217">
        <ele>589.2</ele>
        <time>2022-04-14T14:37:46Z</time>
      </trkpt>
      <trkpt lat="46.45298" lon="5.51207">
        <ele>588.6</ele>
        <time>2022-04-14T14:37:47Z</time>
      </trkpt>
      <trkpt lat="46.45303" lon="5.51196">
        <ele>588.2</ele>
        <time>2022-04-14T14:37:48Z</time>
      </trkpt>
      <trkpt lat="46.45308" lon="5.5117">
        <ele>586.6</ele>
        <time>2022-04-14T14:37:50Z</time>
      </trkpt>
      <trkpt lat="46.45311" lon="5.51144">
        <ele>585</ele>
        <time>2022-04-14T14:37:52Z</time>
      </trkpt>
      <trkpt lat="46.45311" lon="5.5113">
        <ele>584.6</ele>
        <time>2022-04-14T14:37:53Z</time>
      </trkpt>
      <trkpt lat="46.45311" lon="5.51116">
        <ele>583.8</ele>
        <time>2022-04-14T14:37:54Z</time>
      </trkpt>
      <trkpt lat="46.45312" lon="5.51071">
        <ele>582.4</ele>
        <time>2022-04-14T14:37:57Z</time>
      </trkpt>
      <trkpt lat="46.45315" lon="5.51057">
        <ele>582</ele>
        <time>2022-04-14T14:37:58Z</time>
      </trkpt>
      <trkpt lat="46.4532" lon="5.51044">
        <ele>580.6</ele>
        <time>2022-04-14T14:37:59Z</time>
      </trkpt>
      <trkpt lat="46.45335" lon="5.51023">
        <ele>579.6</ele>
        <time>2022-04-14T14:38:01Z</time>
      </trkpt>
      <trkpt lat="46.45344" lon="5.51015">
        <ele>578.8</ele>
        <time>2022-04-14T14:38:02Z</time>
      </trkpt>
      <trkpt lat="46.45352" lon="5.51008">
        <ele>577.4</ele>
        <time>2022-04-14T14:38:03Z</time>
      </trkpt>
      <trkpt lat="46.45359" lon="5.50998">
        <ele>576.8</ele>
        <time>2022-04-14T14:38:04Z</time>
      </trkpt>
      <trkpt lat="46.4536" lon="5.50986">
        <ele>575.4</ele>
        <time>2022-04-14T14:38:05Z</time>
      </trkpt>
      <trkpt lat="46.45356" lon="5.50973">
        <ele>574.4</ele>
        <time>2022-04-14T14:38:06Z</time>
      </trkpt>
      <trkpt lat="46.45349" lon="5.50963">
        <ele>573.8</ele>
        <time>2022-04-14T14:38:07Z</time>
      </trkpt>
      <trkpt lat="46.45339" lon="5.50958">
        <ele>573.4</ele>
        <time>2022-04-14T14:38:08Z</time>
      </trkpt>
      <trkpt lat="46.4533" lon="5.50954">
        <ele>573</ele>
        <time>2022-04-14T14:38:09Z</time>
      </trkpt>
      <trkpt lat="46.45299" lon="5.50945">
        <ele>572.6</ele>
        <time>2022-04-14T14:38:12Z</time>
      </trkpt>
      <trkpt lat="46.45277" lon="5.50949">
        <ele>572.4</ele>
        <time>2022-04-14T14:38:14Z</time>
      </trkpt>
      <trkpt lat="46.45265" lon="5.50953">
        <ele>571.6</ele>
        <time>2022-04-14T14:38:15Z</time>
      </trkpt>
      <trkpt lat="46.45253" lon="5.50956">
        <ele>571.2</ele>
        <time>2022-04-14T14:38:16Z</time>
      </trkpt>
      <trkpt lat="46.45241" lon="5.50957">
        <ele>570.2</ele>
        <time>2022-04-14T14:38:17Z</time>
      </trkpt>
      <trkpt lat="46.45229" lon="5.50956">
        <ele>569.6</ele>
        <time>2022-04-14T14:38:18Z</time>
      </trkpt>
      <trkpt lat="46.45217" lon="5.50954">
        <ele>568.6</ele>
        <time>2022-04-14T14:38:19Z</time>
      </trkpt>
      <trkpt lat="46.45204" lon="5.50951">
        <ele>567</ele>
        <time>2022-04-14T14:38:20Z</time>
      </trkpt>
      <trkpt lat="46.45179" lon="5.50944">
        <ele>565.6</ele>
        <time>2022-04-14T14:38:22Z</time>
      </trkpt>
      <trkpt lat="46.45166" lon="5.50939">
        <ele>564.6</ele>
        <time>2022-04-14T14:38:23Z</time>
      </trkpt>
      <trkpt lat="46.45154" lon="5.50932">
        <ele>563.2</ele>
        <time>2022-04-14T14:38:24Z</time>
      </trkpt>
      <trkpt lat="46.45142" lon="5.50924">
        <ele>562.6</ele>
        <time>2022-04-14T14:38:25Z</time>
      </trkpt>
      <trkpt lat="46.4513" lon="5.50913">
        <ele>561.8</ele>
        <time>2022-04-14T14:38:26Z</time>
      </trkpt>
      <trkpt lat="46.4511" lon="5.50888">
        <ele>559.2</ele>
        <time>2022-04-14T14:38:28Z</time>
      </trkpt>
      <trkpt lat="46.45101" lon="5.50875">
        <ele>558</ele>
        <time>2022-04-14T14:38:29Z</time>
      </trkpt>
      <trkpt lat="46.45082" lon="5.50845">
        <ele>556</ele>
        <time>2022-04-14T14:38:31Z</time>
      </trkpt>
      <trkpt lat="46.45066" lon="5.50814">
        <ele>554</ele>
        <time>2022-04-14T14:38:33Z</time>
      </trkpt>
      <trkpt lat="46.45052" lon="5.5078">
        <ele>552.2</ele>
        <time>2022-04-14T14:38:35Z</time>
      </trkpt>
      <trkpt lat="46.45047" lon="5.50761">
        <ele>551</ele>
        <time>2022-04-14T14:38:36Z</time>
      </trkpt>
      <trkpt lat="46.45035" lon="5.50724">
        <ele>548.4</ele>
        <time>2022-04-14T14:38:38Z</time>
      </trkpt>
      <trkpt lat="46.45027" lon="5.50708">
        <ele>547.6</ele>
        <time>2022-04-14T14:38:39Z</time>
      </trkpt>
      <trkpt lat="46.45017" lon="5.50694">
        <ele>545.8</ele>
        <time>2022-04-14T14:38:40Z</time>
      </trkpt>
      <trkpt lat="46.44995" lon="5.5067">
        <ele>543.2</ele>
        <time>2022-04-14T14:38:42Z</time>
      </trkpt>
      <trkpt lat="46.44984" lon="5.50659">
        <ele>541.6</ele>
        <time>2022-04-14T14:38:43Z</time>
      </trkpt>
      <trkpt lat="46.44962" lon="5.50639">
        <ele>540.2</ele>
        <time>2022-04-14T14:38:45Z</time>
      </trkpt>
      <trkpt lat="46.44952" lon="5.50631">
        <ele>539.8</ele>
        <time>2022-04-14T14:38:46Z</time>
      </trkpt>
      <trkpt lat="46.4494" lon="5.50628">
        <ele>539</ele>
        <time>2022-04-14T14:38:47Z</time>
      </trkpt>
      <trkpt lat="46.44927" lon="5.5063">
        <ele>538.6</ele>
        <time>2022-04-14T14:38:48Z</time>
      </trkpt>
      <trkpt lat="46.44915" lon="5.50635">
        <ele>537.6</ele>
        <time>2022-04-14T14:38:49Z</time>
      </trkpt>
      <trkpt lat="46.44904" lon="5.5064">
        <ele>537</ele>
        <time>2022-04-14T14:38:50Z</time>
      </trkpt>
      <trkpt lat="46.44892" lon="5.50643">
        <ele>535.8</ele>
        <time>2022-04-14T14:38:51Z</time>
      </trkpt>
      <trkpt lat="46.4487" lon="5.50642">
        <ele>534.4</ele>
        <time>2022-04-14T14:38:53Z</time>
      </trkpt>
      <trkpt lat="46.44859" lon="5.50638">
        <ele>532.2</ele>
        <time>2022-04-14T14:38:54Z</time>
      </trkpt>
      <trkpt lat="46.44848" lon="5.50628">
        <ele>531.6</ele>
        <time>2022-04-14T14:38:55Z</time>
      </trkpt>
      <trkpt lat="46.44835" lon="5.50615">
        <ele>530.4</ele>
        <time>2022-04-14T14:38:56Z</time>
      </trkpt>
      <trkpt lat="46.44809" lon="5.50596">
        <ele>527.6</ele>
        <time>2022-04-14T14:38:58Z</time>
      </trkpt>
      <trkpt lat="46.44796" lon="5.50588">
        <ele>526.2</ele>
        <time>2022-04-14T14:38:59Z</time>
      </trkpt>
      <trkpt lat="46.44782" lon="5.50581">
        <ele>525</ele>
        <time>2022-04-14T14:39:00Z</time>
      </trkpt>
      <trkpt lat="46.44768" lon="5.50575">
        <ele>523.4</ele>
        <time>2022-04-14T14:39:01Z</time>
      </trkpt>
      <trkpt lat="46.44754" lon="5.5057">
        <ele>522.2</ele>
        <time>2022-04-14T14:39:02Z</time>
      </trkpt>
      <trkpt lat="46.44741" lon="5.50565">
        <ele>521</ele>
        <time>2022-04-14T14:39:03Z</time>
      </trkpt>
      <trkpt lat="46.44717" lon="5.50556">
        <ele>518.4</ele>
        <time>2022-04-14T14:39:05Z</time>
      </trkpt>
      <trkpt lat="46.44707" lon="5.50551">
        <ele>516.8</ele>
        <time>2022-04-14T14:39:06Z</time>
      </trkpt>
      <trkpt lat="46.44692" lon="5.50544">
        <ele>515.2</ele>
        <time>2022-04-14T14:39:08Z</time>
      </trkpt>
      <trkpt lat="46.44685" lon="5.50545">
        <ele>514.6</ele>
        <time>2022-04-14T14:39:09Z</time>
      </trkpt>
      <trkpt lat="46.44679" lon="5.50547">
        <ele>513.8</ele>
        <time>2022-04-14T14:39:10Z</time>
      </trkpt>
      <trkpt lat="46.44679" lon="5.50554">
        <ele>513.4</ele>
        <time>2022-04-14T14:39:11Z</time>
      </trkpt>
      <trkpt lat="46.44677" lon="5.5056">
        <ele>513</ele>
        <time>2022-04-14T14:39:12Z</time>
      </trkpt>
      <trkpt lat="46.44677" lon="5.50567">
        <ele>512.4</ele>
        <time>2022-04-14T14:39:13Z</time>
      </trkpt>
      <trkpt lat="46.4469" lon="5.5058">
        <ele>511.4</ele>
        <time>2022-04-14T14:39:14Z</time>
      </trkpt>
      <trkpt lat="46.4471" lon="5.50599">
        <ele>510</ele>
        <time>2022-04-14T14:39:16Z</time>
      </trkpt>
      <trkpt lat="46.44727" lon="5.50615">
        <ele>508.8</ele>
        <time>2022-04-14T14:39:18Z</time>
      </trkpt>
      <trkpt lat="46.44737" lon="5.50623">
        <ele>507.6</ele>
        <time>2022-04-14T14:39:19Z</time>
      </trkpt>
      <trkpt lat="46.44754" lon="5.50641">
        <ele>506</ele>
        <time>2022-04-14T14:39:21Z</time>
      </trkpt>
      <trkpt lat="46.44763" lon="5.5065">
        <ele>504.8</ele>
        <time>2022-04-14T14:39:22Z</time>
      </trkpt>
      <trkpt lat="46.44782" lon="5.50666">
        <ele>503.4</ele>
        <time>2022-04-14T14:39:24Z</time>
      </trkpt>
      <trkpt lat="46.44791" lon="5.50671">
        <ele>503.2</ele>
        <time>2022-04-14T14:39:25Z</time>
      </trkpt>
      <trkpt lat="46.44798" lon="5.50676">
        <ele>502.8</ele>
        <time>2022-04-14T14:39:26Z</time>
      </trkpt>
      <trkpt lat="46.44803" lon="5.50681">
        <ele>502.6</ele>
        <time>2022-04-14T14:39:27Z</time>
      </trkpt>
      <trkpt lat="46.44807" lon="5.50689">
        <ele>501.8</ele>
        <time>2022-04-14T14:39:28Z</time>
      </trkpt>
      <trkpt lat="46.44807" lon="5.50696">
        <ele>501.4</ele>
        <time>2022-04-14T14:39:29Z</time>
      </trkpt>
      <trkpt lat="46.44802" lon="5.50701">
        <ele>501.2</ele>
        <time>2022-04-14T14:39:30Z</time>
      </trkpt>
      <trkpt lat="46.44794" lon="5.50702">
        <ele>500.8</ele>
        <time>2022-04-14T14:39:31Z</time>
      </trkpt>
      <trkpt lat="46.44785" lon="5.507">
        <ele>500.6</ele>
        <time>2022-04-14T14:39:32Z</time>
      </trkpt>
      <trkpt lat="46.4476" lon="5.50688">
        <ele>499.8</ele>
        <time>2022-04-14T14:39:35Z</time>
      </trkpt>
      <trkpt lat="46.4475" lon="5.50683">
        <ele>499.4</ele>
        <time>2022-04-14T14:39:36Z</time>
      </trkpt>
      <trkpt lat="46.44738" lon="5.50678">
        <ele>498.6</ele>
        <time>2022-04-14T14:39:37Z</time>
      </trkpt>
      <trkpt lat="46.44727" lon="5.50673">
        <ele>497.4</ele>
        <time>2022-04-14T14:39:38Z</time>
      </trkpt>
      <trkpt lat="46.44703" lon="5.50662">
        <ele>495</ele>
        <time>2022-04-14T14:39:40Z</time>
      </trkpt>
      <trkpt lat="46.44691" lon="5.50656">
        <ele>494.4</ele>
        <time>2022-04-14T14:39:41Z</time>
      </trkpt>
      <trkpt lat="46.4468" lon="5.50649">
        <ele>493.2</ele>
        <time>2022-04-14T14:39:42Z</time>
      </trkpt>
      <trkpt lat="46.44668" lon="5.50642">
        <ele>492.2</ele>
        <time>2022-04-14T14:39:43Z</time>
      </trkpt>
      <trkpt lat="46.44657" lon="5.50636">
        <ele>490.6</ele>
        <time>2022-04-14T14:39:44Z</time>
      </trkpt>
      <trkpt lat="46.44644" lon="5.50629">
        <ele>489</ele>
        <time>2022-04-14T14:39:45Z</time>
      </trkpt>
      <trkpt lat="46.44618" lon="5.50611">
        <ele>487.2</ele>
        <time>2022-04-14T14:39:47Z</time>
      </trkpt>
      <trkpt lat="46.44589" lon="5.50594">
        <ele>485</ele>
        <time>2022-04-14T14:39:49Z</time>
      </trkpt>
      <trkpt lat="46.44574" lon="5.50585">
        <ele>484</ele>
        <time>2022-04-14T14:39:50Z</time>
      </trkpt>
      <trkpt lat="46.4456" lon="5.50576">
        <ele>482</ele>
        <time>2022-04-14T14:39:51Z</time>
      </trkpt>
      <trkpt lat="46.44546" lon="5.50567">
        <ele>479.6</ele>
        <time>2022-04-14T14:39:52Z</time>
      </trkpt>
      <trkpt lat="46.44534" lon="5.50558">
        <ele>478.2</ele>
        <time>2022-04-14T14:39:53Z</time>
      </trkpt>
      <trkpt lat="46.44522" lon="5.50549">
        <ele>476.4</ele>
        <time>2022-04-14T14:39:54Z</time>
      </trkpt>
      <trkpt lat="46.44511" lon="5.50537">
        <ele>475.8</ele>
        <time>2022-04-14T14:39:55Z</time>
      </trkpt>
      <trkpt lat="46.44502" lon="5.50523">
        <ele>474.2</ele>
        <time>2022-04-14T14:39:56Z</time>
      </trkpt>
      <trkpt lat="46.44495" lon="5.50507">
        <ele>473.4</ele>
        <time>2022-04-14T14:39:57Z</time>
      </trkpt>
      <trkpt lat="46.44491" lon="5.50488">
        <ele>471.8</ele>
        <time>2022-04-14T14:39:58Z</time>
      </trkpt>
      <trkpt lat="46.44487" lon="5.50449">
        <ele>469.6</ele>
        <time>2022-04-14T14:40:00Z</time>
      </trkpt>
      <trkpt lat="46.44483" lon="5.50431">
        <ele>468</ele>
        <time>2022-04-14T14:40:01Z</time>
      </trkpt>
      <trkpt lat="46.44476" lon="5.50414">
        <ele>467.4</ele>
        <time>2022-04-14T14:40:02Z</time>
      </trkpt>
      <trkpt lat="46.44468" lon="5.50397">
        <ele>465.2</ele>
        <time>2022-04-14T14:40:03Z</time>
      </trkpt>
      <trkpt lat="46.44459" lon="5.50382">
        <ele>464.4</ele>
        <time>2022-04-14T14:40:04Z</time>
      </trkpt>
      <trkpt lat="46.44449" lon="5.50367">
        <ele>463</ele>
        <time>2022-04-14T14:40:05Z</time>
      </trkpt>
      <trkpt lat="46.4443" lon="5.50342">
        <ele>461</ele>
        <time>2022-04-14T14:40:07Z</time>
      </trkpt>
      <trkpt lat="46.44422" lon="5.50331">
        <ele>458</ele>
        <time>2022-04-14T14:40:08Z</time>
      </trkpt>
      <trkpt lat="46.44416" lon="5.50318">
        <ele>456.8</ele>
        <time>2022-04-14T14:40:09Z</time>
      </trkpt>
      <trkpt lat="46.44411" lon="5.50305">
        <ele>454.2</ele>
        <time>2022-04-14T14:40:10Z</time>
      </trkpt>
      <trkpt lat="46.44409" lon="5.5029">
        <ele>453.2</ele>
        <time>2022-04-14T14:40:11Z</time>
      </trkpt>
      <trkpt lat="46.44412" lon="5.50275">
        <ele>452</ele>
        <time>2022-04-14T14:40:12Z</time>
      </trkpt>
      <trkpt lat="46.44417" lon="5.5026">
        <ele>450.6</ele>
        <time>2022-04-14T14:40:13Z</time>
      </trkpt>
      <trkpt lat="46.44423" lon="5.50244">
        <ele>448.6</ele>
        <time>2022-04-14T14:40:14Z</time>
      </trkpt>
      <trkpt lat="46.44426" lon="5.50227">
        <ele>447</ele>
        <time>2022-04-14T14:40:15Z</time>
      </trkpt>
      <trkpt lat="46.44428" lon="5.50208">
        <ele>446</ele>
        <time>2022-04-14T14:40:16Z</time>
      </trkpt>
      <trkpt lat="46.44428" lon="5.50189">
        <ele>444.2</ele>
        <time>2022-04-14T14:40:17Z</time>
      </trkpt>
      <trkpt lat="46.4443" lon="5.5017">
        <ele>443.2</ele>
        <time>2022-04-14T14:40:18Z</time>
      </trkpt>
      <trkpt lat="46.44434" lon="5.50153">
        <ele>441.4</ele>
        <time>2022-04-14T14:40:19Z</time>
      </trkpt>
      <trkpt lat="46.44441" lon="5.50137">
        <ele>440.8</ele>
        <time>2022-04-14T14:40:20Z</time>
      </trkpt>
      <trkpt lat="46.44451" lon="5.50124">
        <ele>439</ele>
        <time>2022-04-14T14:40:21Z</time>
      </trkpt>
      <trkpt lat="46.44462" lon="5.50112">
        <ele>437.8</ele>
        <time>2022-04-14T14:40:22Z</time>
      </trkpt>
      <trkpt lat="46.44473" lon="5.501">
        <ele>436.6</ele>
        <time>2022-04-14T14:40:23Z</time>
      </trkpt>
      <trkpt lat="46.44484" lon="5.50088">
        <ele>435</ele>
        <time>2022-04-14T14:40:24Z</time>
      </trkpt>
      <trkpt lat="46.44494" lon="5.50076">
        <ele>434.2</ele>
        <time>2022-04-14T14:40:25Z</time>
      </trkpt>
      <trkpt lat="46.44503" lon="5.50064">
        <ele>433.2</ele>
        <time>2022-04-14T14:40:26Z</time>
      </trkpt>
      <trkpt lat="46.44513" lon="5.50038">
        <ele>431.2</ele>
        <time>2022-04-14T14:40:28Z</time>
      </trkpt>
      <trkpt lat="46.44504" lon="5.50013">
        <ele>429</ele>
        <time>2022-04-14T14:40:30Z</time>
      </trkpt>
      <trkpt lat="46.44496" lon="5.5">
        <ele>427</ele>
        <time>2022-04-14T14:40:31Z</time>
      </trkpt>
      <trkpt lat="46.44481" lon="5.49972">
        <ele>425.4</ele>
        <time>2022-04-14T14:40:33Z</time>
      </trkpt>
      <trkpt lat="46.44476" lon="5.49957">
        <ele>424.8</ele>
        <time>2022-04-14T14:40:34Z</time>
      </trkpt>
      <trkpt lat="46.44475" lon="5.4994">
        <ele>423.6</ele>
        <time>2022-04-14T14:40:35Z</time>
      </trkpt>
      <trkpt lat="46.44477" lon="5.49908">
        <ele>422.4</ele>
        <time>2022-04-14T14:40:37Z</time>
      </trkpt>
      <trkpt lat="46.44478" lon="5.49894">
        <ele>421.4</ele>
        <time>2022-04-14T14:40:38Z</time>
      </trkpt>
      <trkpt lat="46.44474" lon="5.49882">
        <ele>420.8</ele>
        <time>2022-04-14T14:40:39Z</time>
      </trkpt>
      <trkpt lat="46.44465" lon="5.49875">
        <ele>419.6</ele>
        <time>2022-04-14T14:40:40Z</time>
      </trkpt>
      <trkpt lat="46.44453" lon="5.4987">
        <ele>418.8</ele>
        <time>2022-04-14T14:40:41Z</time>
      </trkpt>
      <trkpt lat="46.4444" lon="5.49866">
        <ele>417.4</ele>
        <time>2022-04-14T14:40:42Z</time>
      </trkpt>
      <trkpt lat="46.44415" lon="5.49862">
        <ele>415.2</ele>
        <time>2022-04-14T14:40:44Z</time>
      </trkpt>
      <trkpt lat="46.44401" lon="5.49863">
        <ele>414</ele>
        <time>2022-04-14T14:40:45Z</time>
      </trkpt>
      <trkpt lat="46.44388" lon="5.49863">
        <ele>412.8</ele>
        <time>2022-04-14T14:40:46Z</time>
      </trkpt>
      <trkpt lat="46.44376" lon="5.49863">
        <ele>411.6</ele>
        <time>2022-04-14T14:40:47Z</time>
      </trkpt>
      <trkpt lat="46.4436" lon="5.49867">
        <ele>409.2</ele>
        <time>2022-04-14T14:40:49Z</time>
      </trkpt>
      <trkpt lat="46.44352" lon="5.49844">
        <ele>408.8</ele>
        <time>2022-04-14T14:40:50Z</time>
      </trkpt>
      <trkpt lat="46.44346" lon="5.49827">
        <ele>407.8</ele>
        <time>2022-04-14T14:40:51Z</time>
      </trkpt>
      <trkpt lat="46.44338" lon="5.49812">
        <ele>407.2</ele>
        <time>2022-04-14T14:40:52Z</time>
      </trkpt>
      <trkpt lat="46.44319" lon="5.4979">
        <ele>406</ele>
        <time>2022-04-14T14:40:54Z</time>
      </trkpt>
      <trkpt lat="46.44309" lon="5.49781">
        <ele>405.8</ele>
        <time>2022-04-14T14:40:55Z</time>
      </trkpt>
      <trkpt lat="46.44272" lon="5.49757">
        <ele>405</ele>
        <time>2022-04-14T14:40:59Z</time>
      </trkpt>
      <trkpt lat="46.44264" lon="5.49749">
        <ele>404.8</ele>
        <time>2022-04-14T14:41:00Z</time>
      </trkpt>
      <trkpt lat="46.4425" lon="5.4973">
        <ele>404.6</ele>
        <time>2022-04-14T14:41:02Z</time>
      </trkpt>
      <trkpt lat="46.44237" lon="5.49709">
        <ele>404.6</ele>
        <time>2022-04-14T14:41:04Z</time>
      </trkpt>
      <trkpt lat="46.44205" lon="5.49672">
        <ele>404.2</ele>
        <time>2022-04-14T14:41:08Z</time>
      </trkpt>
      <trkpt lat="46.44197" lon="5.49663">
        <ele>403.8</ele>
        <time>2022-04-14T14:41:09Z</time>
      </trkpt>
      <trkpt lat="46.44167" lon="5.49626">
        <ele>403.2</ele>
        <time>2022-04-14T14:41:13Z</time>
      </trkpt>
      <trkpt lat="46.44145" lon="5.49594">
        <ele>402.4</ele>
        <time>2022-04-14T14:41:16Z</time>
      </trkpt>
      <trkpt lat="46.44123" lon="5.49565">
        <ele>402</ele>
        <time>2022-04-14T14:41:19Z</time>
      </trkpt>
      <trkpt lat="46.44108" lon="5.49547">
        <ele>401.4</ele>
        <time>2022-04-14T14:41:21Z</time>
      </trkpt>
      <trkpt lat="46.44063" lon="5.4949">
        <ele>401</ele>
        <time>2022-04-14T14:41:27Z</time>
      </trkpt>
      <trkpt lat="46.44032" lon="5.49458">
        <ele>400.4</ele>
        <time>2022-04-14T14:41:31Z</time>
      </trkpt>
      <trkpt lat="46.44016" lon="5.49439">
        <ele>399.8</ele>
        <time>2022-04-14T14:41:33Z</time>
      </trkpt>
      <trkpt lat="46.44004" lon="5.49419">
        <ele>399.4</ele>
        <time>2022-04-14T14:41:35Z</time>
      </trkpt>
      <trkpt lat="46.43986" lon="5.49386">
        <ele>398.4</ele>
        <time>2022-04-14T14:41:38Z</time>
      </trkpt>
      <trkpt lat="46.43981" lon="5.49374">
        <ele>398.2</ele>
        <time>2022-04-14T14:41:39Z</time>
      </trkpt>
      <trkpt lat="46.43957" lon="5.49314">
        <ele>397.8</ele>
        <time>2022-04-14T14:41:44Z</time>
      </trkpt>
      <trkpt lat="46.43935" lon="5.49252">
        <ele>397.4</ele>
        <time>2022-04-14T14:41:49Z</time>
      </trkpt>
      <trkpt lat="46.43923" lon="5.4923">
        <ele>397.2</ele>
        <time>2022-04-14T14:41:51Z</time>
      </trkpt>
      <trkpt lat="46.43915" lon="5.4922">
        <ele>397.2</ele>
        <time>2022-04-14T14:41:52Z</time>
      </trkpt>
      <trkpt lat="46.43908" lon="5.4921">
        <ele>397</ele>
        <time>2022-04-14T14:41:53Z</time>
      </trkpt>
      <trkpt lat="46.43872" lon="5.4916">
        <ele>396</ele>
        <time>2022-04-14T14:41:58Z</time>
      </trkpt>
      <trkpt lat="46.43865" lon="5.4915">
        <ele>396</ele>
        <time>2022-04-14T14:41:59Z</time>
      </trkpt>
      <trkpt lat="46.43857" lon="5.4914">
        <ele>395.8</ele>
        <time>2022-04-14T14:42:00Z</time>
      </trkpt>
      <trkpt lat="46.43832" lon="5.49116">
        <ele>395.2</ele>
        <time>2022-04-14T14:42:03Z</time>
      </trkpt>
      <trkpt lat="46.43816" lon="5.491">
        <ele>394.8</ele>
        <time>2022-04-14T14:42:05Z</time>
      </trkpt>
      <trkpt lat="46.43795" lon="5.49072">
        <ele>394.2</ele>
        <time>2022-04-14T14:42:08Z</time>
      </trkpt>
      <trkpt lat="46.43782" lon="5.49052">
        <ele>393.8</ele>
        <time>2022-04-14T14:42:10Z</time>
      </trkpt>
      <trkpt lat="46.43771" lon="5.4903">
        <ele>393.4</ele>
        <time>2022-04-14T14:42:12Z</time>
      </trkpt>
      <trkpt lat="46.43756" lon="5.48982">
        <ele>393</ele>
        <time>2022-04-14T14:42:16Z</time>
      </trkpt>
      <trkpt lat="46.43748" lon="5.48933">
        <ele>393</ele>
        <time>2022-04-14T14:42:20Z</time>
      </trkpt>
      <trkpt lat="46.43745" lon="5.48921">
        <ele>393</ele>
        <time>2022-04-14T14:42:21Z</time>
      </trkpt>
      <trkpt lat="46.4374" lon="5.48896">
        <ele>393</ele>
        <time>2022-04-14T14:42:23Z</time>
      </trkpt>
      <trkpt lat="46.43729" lon="5.48861">
        <ele>392.8</ele>
        <time>2022-04-14T14:42:26Z</time>
      </trkpt>
      <trkpt lat="46.43726" lon="5.4885">
        <ele>392.8</ele>
        <time>2022-04-14T14:42:27Z</time>
      </trkpt>
      <trkpt lat="46.43712" lon="5.48806">
        <ele>392.8</ele>
        <time>2022-04-14T14:42:31Z</time>
      </trkpt>
      <trkpt lat="46.43703" lon="5.48772">
        <ele>392.6</ele>
        <time>2022-04-14T14:42:34Z</time>
      </trkpt>
      <trkpt lat="46.43703" lon="5.4876">
        <ele>392.8</ele>
        <time>2022-04-14T14:42:35Z</time>
      </trkpt>
      <trkpt lat="46.43705" lon="5.48748">
        <ele>392.8</ele>
        <time>2022-04-14T14:42:36Z</time>
      </trkpt>
      <trkpt lat="46.43713" lon="5.48727">
        <ele>393</ele>
        <time>2022-04-14T14:42:38Z</time>
      </trkpt>
      <trkpt lat="46.43722" lon="5.48708">
        <ele>393</ele>
        <time>2022-04-14T14:42:40Z</time>
      </trkpt>
      <trkpt lat="46.43726" lon="5.48687">
        <ele>393.2</ele>
        <time>2022-04-14T14:42:42Z</time>
      </trkpt>
      <trkpt lat="46.43719" lon="5.48668">
        <ele>393</ele>
        <time>2022-04-14T14:42:44Z</time>
      </trkpt>
      <trkpt lat="46.43715" lon="5.48661">
        <ele>393</ele>
        <time>2022-04-14T14:42:45Z</time>
      </trkpt>
      <trkpt lat="46.43692" lon="5.48631">
        <ele>393.4</ele>
        <time>2022-04-14T14:42:50Z</time>
      </trkpt>
      <trkpt lat="46.43683" lon="5.48619">
        <ele>394</ele>
        <time>2022-04-14T14:42:52Z</time>
      </trkpt>
      <trkpt lat="46.43671" lon="5.48602">
        <ele>395</ele>
        <time>2022-04-14T14:42:55Z</time>
      </trkpt>
      <trkpt lat="46.43655" lon="5.48579">
        <ele>396.2</ele>
        <time>2022-04-14T14:42:59Z</time>
      </trkpt>
      <trkpt lat="46.43651" lon="5.48573">
        <ele>396.8</ele>
        <time>2022-04-14T14:43:00Z</time>
      </trkpt>
      <trkpt lat="46.43648" lon="5.48567">
        <ele>397.2</ele>
        <time>2022-04-14T14:43:01Z</time>
      </trkpt>
      <trkpt lat="46.43645" lon="5.48561">
        <ele>397.8</ele>
        <time>2022-04-14T14:43:02Z</time>
      </trkpt>
      <trkpt lat="46.43637" lon="5.48539">
        <ele>399.2</ele>
        <time>2022-04-14T14:43:05Z</time>
      </trkpt>
      <trkpt lat="46.43635" lon="5.48532">
        <ele>399.4</ele>
        <time>2022-04-14T14:43:06Z</time>
      </trkpt>
      <trkpt lat="46.4363" lon="5.48508">
        <ele>400.2</ele>
        <time>2022-04-14T14:43:09Z</time>
      </trkpt>
      <trkpt lat="46.43625" lon="5.4849">
        <ele>400.4</ele>
        <time>2022-04-14T14:43:11Z</time>
      </trkpt>
      <trkpt lat="46.43614" lon="5.48471">
        <ele>400.4</ele>
        <time>2022-04-14T14:43:13Z</time>
      </trkpt>
      <trkpt lat="46.436" lon="5.48455">
        <ele>400.4</ele>
        <time>2022-04-14T14:43:15Z</time>
      </trkpt>
      <trkpt lat="46.43583" lon="5.48442">
        <ele>400</ele>
        <time>2022-04-14T14:43:17Z</time>
      </trkpt>
      <trkpt lat="46.43565" lon="5.4843">
        <ele>399</ele>
        <time>2022-04-14T14:43:19Z</time>
      </trkpt>
      <trkpt lat="46.43546" lon="5.48418">
        <ele>398</ele>
        <time>2022-04-14T14:43:21Z</time>
      </trkpt>
      <trkpt lat="46.43527" lon="5.48409">
        <ele>397.2</ele>
        <time>2022-04-14T14:43:23Z</time>
      </trkpt>
      <trkpt lat="46.43518" lon="5.48404">
        <ele>396.8</ele>
        <time>2022-04-14T14:43:24Z</time>
      </trkpt>
      <trkpt lat="46.43501" lon="5.48394">
        <ele>396.2</ele>
        <time>2022-04-14T14:43:26Z</time>
      </trkpt>
      <trkpt lat="46.43486" lon="5.4838">
        <ele>395.4</ele>
        <time>2022-04-14T14:43:28Z</time>
      </trkpt>
      <trkpt lat="46.43462" lon="5.48342">
        <ele>395</ele>
        <time>2022-04-14T14:43:32Z</time>
      </trkpt>
      <trkpt lat="46.43448" lon="5.48315">
        <ele>395.2</ele>
        <time>2022-04-14T14:43:35Z</time>
      </trkpt>
      <trkpt lat="46.4344" lon="5.48299">
        <ele>395.6</ele>
        <time>2022-04-14T14:43:37Z</time>
      </trkpt>
      <trkpt lat="46.43428" lon="5.48278">
        <ele>396.6</ele>
        <time>2022-04-14T14:43:40Z</time>
      </trkpt>
      <trkpt lat="46.43419" lon="5.48262">
        <ele>397.2</ele>
        <time>2022-04-14T14:43:43Z</time>
      </trkpt>
      <trkpt lat="46.43413" lon="5.48252">
        <ele>397.8</ele>
        <time>2022-04-14T14:43:45Z</time>
      </trkpt>
      <trkpt lat="46.43408" lon="5.48242">
        <ele>399</ele>
        <time>2022-04-14T14:43:47Z</time>
      </trkpt>
      <trkpt lat="46.43404" lon="5.48234">
        <ele>400.4</ele>
        <time>2022-04-14T14:43:49Z</time>
      </trkpt>
      <trkpt lat="46.434" lon="5.48225">
        <ele>400.6</ele>
        <time>2022-04-14T14:43:51Z</time>
      </trkpt>
      <trkpt lat="46.43395" lon="5.48215">
        <ele>402</ele>
        <time>2022-04-14T14:43:53Z</time>
      </trkpt>
      <trkpt lat="46.43386" lon="5.48201">
        <ele>403.4</ele>
        <time>2022-04-14T14:43:56Z</time>
      </trkpt>
      <trkpt lat="46.43383" lon="5.48197">
        <ele>403.8</ele>
        <time>2022-04-14T14:43:57Z</time>
      </trkpt>
      <trkpt lat="46.43372" lon="5.48184">
        <ele>404.8</ele>
        <time>2022-04-14T14:44:00Z</time>
      </trkpt>
      <trkpt lat="46.4336" lon="5.48169">
        <ele>405.8</ele>
        <time>2022-04-14T14:44:04Z</time>
      </trkpt>
      <trkpt lat="46.43357" lon="5.48166">
        <ele>405.8</ele>
        <time>2022-04-14T14:44:05Z</time>
      </trkpt>
      <trkpt lat="46.43344" lon="5.48151">
        <ele>406.8</ele>
        <time>2022-04-14T14:44:09Z</time>
      </trkpt>
      <trkpt lat="46.43332" lon="5.4814">
        <ele>407.6</ele>
        <time>2022-04-14T14:44:12Z</time>
      </trkpt>
      <trkpt lat="46.43324" lon="5.48134">
        <ele>408.2</ele>
        <time>2022-04-14T14:44:14Z</time>
      </trkpt>
      <trkpt lat="46.43312" lon="5.48132">
        <ele>409</ele>
        <time>2022-04-14T14:44:17Z</time>
      </trkpt>
      <trkpt lat="46.43303" lon="5.48134">
        <ele>409.4</ele>
        <time>2022-04-14T14:44:19Z</time>
      </trkpt>
      <trkpt lat="46.43283" lon="5.48133">
        <ele>410.6</ele>
        <time>2022-04-14T14:44:23Z</time>
      </trkpt>
      <trkpt lat="46.43279" lon="5.48133">
        <ele>411</ele>
        <time>2022-04-14T14:44:24Z</time>
      </trkpt>
      <trkpt lat="46.43264" lon="5.48124">
        <ele>411.2</ele>
        <time>2022-04-14T14:44:27Z</time>
      </trkpt>
      <trkpt lat="46.43234" lon="5.48105">
        <ele>411.8</ele>
        <time>2022-04-14T14:44:33Z</time>
      </trkpt>
      <trkpt lat="46.43225" lon="5.481">
        <ele>411.8</ele>
        <time>2022-04-14T14:44:35Z</time>
      </trkpt>
      <trkpt lat="46.43203" lon="5.48088">
        <ele>413</ele>
        <time>2022-04-14T14:44:40Z</time>
      </trkpt>
      <trkpt lat="46.43195" lon="5.48081">
        <ele>413.6</ele>
        <time>2022-04-14T14:44:42Z</time>
      </trkpt>
      <trkpt lat="46.43186" lon="5.48075">
        <ele>414.2</ele>
        <time>2022-04-14T14:44:44Z</time>
      </trkpt>
      <trkpt lat="46.43174" lon="5.48066">
        <ele>415</ele>
        <time>2022-04-14T14:44:47Z</time>
      </trkpt>
      <trkpt lat="46.4317" lon="5.48063">
        <ele>415.4</ele>
        <time>2022-04-14T14:44:48Z</time>
      </trkpt>
      <trkpt lat="46.43162" lon="5.48056">
        <ele>416.2</ele>
        <time>2022-04-14T14:44:50Z</time>
      </trkpt>
      <trkpt lat="46.43158" lon="5.48052">
        <ele>416.4</ele>
        <time>2022-04-14T14:44:51Z</time>
      </trkpt>
      <trkpt lat="46.43143" lon="5.48033">
        <ele>417</ele>
        <time>2022-04-14T14:44:55Z</time>
      </trkpt>
      <trkpt lat="46.43134" lon="5.48017">
        <ele>417.4</ele>
        <time>2022-04-14T14:44:58Z</time>
      </trkpt>
      <trkpt lat="46.43128" lon="5.48006">
        <ele>417.8</ele>
        <time>2022-04-14T14:45:00Z</time>
      </trkpt>
      <trkpt lat="46.43125" lon="5.48001">
        <ele>417.8</ele>
        <time>2022-04-14T14:45:01Z</time>
      </trkpt>
      <trkpt lat="46.43116" lon="5.47983">
        <ele>418.4</ele>
        <time>2022-04-14T14:45:04Z</time>
      </trkpt>
      <trkpt lat="46.43111" lon="5.47971">
        <ele>419</ele>
        <time>2022-04-14T14:45:06Z</time>
      </trkpt>
      <trkpt lat="46.43091" lon="5.47932">
        <ele>419.4</ele>
        <time>2022-04-14T14:45:12Z</time>
      </trkpt>
      <trkpt lat="46.43063" lon="5.47895">
        <ele>419.4</ele>
        <time>2022-04-14T14:45:18Z</time>
      </trkpt>
      <trkpt lat="46.43055" lon="5.47883">
        <ele>419.4</ele>
        <time>2022-04-14T14:45:20Z</time>
      </trkpt>
      <trkpt lat="46.4305" lon="5.47869">
        <ele>419.4</ele>
        <time>2022-04-14T14:45:22Z</time>
      </trkpt>
      <trkpt lat="46.43049" lon="5.47849">
        <ele>419.4</ele>
        <time>2022-04-14T14:45:24Z</time>
      </trkpt>
      <trkpt lat="46.4305" lon="5.47839">
        <ele>419.4</ele>
        <time>2022-04-14T14:45:25Z</time>
      </trkpt>
      <trkpt lat="46.43053" lon="5.4783">
        <ele>419.4</ele>
        <time>2022-04-14T14:45:26Z</time>
      </trkpt>
      <trkpt lat="46.43059" lon="5.47811">
        <ele>419.4</ele>
        <time>2022-04-14T14:45:28Z</time>
      </trkpt>
      <trkpt lat="46.43068" lon="5.47748">
        <ele>418.6</ele>
        <time>2022-04-14T14:45:34Z</time>
      </trkpt>
      <trkpt lat="46.43069" lon="5.47728">
        <ele>418.6</ele>
        <time>2022-04-14T14:45:36Z</time>
      </trkpt>
      <trkpt lat="46.43067" lon="5.47707">
        <ele>418.4</ele>
        <time>2022-04-14T14:45:38Z</time>
      </trkpt>
      <trkpt lat="46.43063" lon="5.47697">
        <ele>418.4</ele>
        <time>2022-04-14T14:45:39Z</time>
      </trkpt>
      <trkpt lat="46.43058" lon="5.47688">
        <ele>418.4</ele>
        <time>2022-04-14T14:45:40Z</time>
      </trkpt>
      <trkpt lat="46.43044" lon="5.47672">
        <ele>418.2</ele>
        <time>2022-04-14T14:45:42Z</time>
      </trkpt>
      <trkpt lat="46.43031" lon="5.47655">
        <ele>418</ele>
        <time>2022-04-14T14:45:44Z</time>
      </trkpt>
      <trkpt lat="46.43022" lon="5.47634">
        <ele>418</ele>
        <time>2022-04-14T14:45:46Z</time>
      </trkpt>
      <trkpt lat="46.43017" lon="5.47623">
        <ele>417.8</ele>
        <time>2022-04-14T14:45:47Z</time>
      </trkpt>
      <trkpt lat="46.43006" lon="5.47601">
        <ele>415.8</ele>
        <time>2022-04-14T14:45:49Z</time>
      </trkpt>
      <trkpt lat="46.42999" lon="5.47592">
        <ele>415.6</ele>
        <time>2022-04-14T14:45:50Z</time>
      </trkpt>
      <trkpt lat="46.42991" lon="5.47584">
        <ele>415.2</ele>
        <time>2022-04-14T14:45:51Z</time>
      </trkpt>
      <trkpt lat="46.42974" lon="5.47572">
        <ele>414.2</ele>
        <time>2022-04-14T14:45:53Z</time>
      </trkpt>
      <trkpt lat="46.42955" lon="5.47561">
        <ele>413.2</ele>
        <time>2022-04-14T14:45:55Z</time>
      </trkpt>
      <trkpt lat="46.42945" lon="5.47555">
        <ele>411.8</ele>
        <time>2022-04-14T14:45:56Z</time>
      </trkpt>
      <trkpt lat="46.42923" lon="5.47545">
        <ele>410.6</ele>
        <time>2022-04-14T14:45:58Z</time>
      </trkpt>
      <trkpt lat="46.42913" lon="5.47542">
        <ele>410.2</ele>
        <time>2022-04-14T14:45:59Z</time>
      </trkpt>
      <trkpt lat="46.42902" lon="5.4754">
        <ele>409.8</ele>
        <time>2022-04-14T14:46:00Z</time>
      </trkpt>
      <trkpt lat="46.42885" lon="5.47536">
        <ele>409.2</ele>
        <time>2022-04-14T14:46:02Z</time>
      </trkpt>
      <trkpt lat="46.42879" lon="5.47531">
        <ele>408.2</ele>
        <time>2022-04-14T14:46:03Z</time>
      </trkpt>
      <trkpt lat="46.42877" lon="5.47522">
        <ele>407.6</ele>
        <time>2022-04-14T14:46:04Z</time>
      </trkpt>
      <trkpt lat="46.42877" lon="5.47514">
        <ele>406.8</ele>
        <time>2022-04-14T14:46:05Z</time>
      </trkpt>
      <trkpt lat="46.42879" lon="5.47507">
        <ele>406.4</ele>
        <time>2022-04-14T14:46:06Z</time>
      </trkpt>
      <trkpt lat="46.42884" lon="5.47503">
        <ele>405.6</ele>
        <time>2022-04-14T14:46:07Z</time>
      </trkpt>
      <trkpt lat="46.42892" lon="5.47502">
        <ele>405.4</ele>
        <time>2022-04-14T14:46:08Z</time>
      </trkpt>
      <trkpt lat="46.42911" lon="5.47503">
        <ele>404.4</ele>
        <time>2022-04-14T14:46:10Z</time>
      </trkpt>
      <trkpt lat="46.4292" lon="5.47503">
        <ele>403.6</ele>
        <time>2022-04-14T14:46:11Z</time>
      </trkpt>
      <trkpt lat="46.4293" lon="5.47503">
        <ele>403.2</ele>
        <time>2022-04-14T14:46:12Z</time>
      </trkpt>
      <trkpt lat="46.42941" lon="5.47502">
        <ele>402.8</ele>
        <time>2022-04-14T14:46:13Z</time>
      </trkpt>
      <trkpt lat="46.42962" lon="5.47497">
        <ele>402</ele>
        <time>2022-04-14T14:46:15Z</time>
      </trkpt>
      <trkpt lat="46.42972" lon="5.47495">
        <ele>401</ele>
        <time>2022-04-14T14:46:16Z</time>
      </trkpt>
      <trkpt lat="46.42983" lon="5.47491">
        <ele>400.4</ele>
        <time>2022-04-14T14:46:17Z</time>
      </trkpt>
      <trkpt lat="46.43004" lon="5.47485">
        <ele>398.4</ele>
        <time>2022-04-14T14:46:19Z</time>
      </trkpt>
      <trkpt lat="46.43024" lon="5.47478">
        <ele>397</ele>
        <time>2022-04-14T14:46:21Z</time>
      </trkpt>
      <trkpt lat="46.43033" lon="5.47474">
        <ele>396.8</ele>
        <time>2022-04-14T14:46:22Z</time>
      </trkpt>
      <trkpt lat="46.43043" lon="5.47468">
        <ele>396.2</ele>
        <time>2022-04-14T14:46:23Z</time>
      </trkpt>
      <trkpt lat="46.43052" lon="5.47462">
        <ele>396</ele>
        <time>2022-04-14T14:46:24Z</time>
      </trkpt>
      <trkpt lat="46.43069" lon="5.47445">
        <ele>394.6</ele>
        <time>2022-04-14T14:46:26Z</time>
      </trkpt>
      <trkpt lat="46.43102" lon="5.47408">
        <ele>393.6</ele>
        <time>2022-04-14T14:46:30Z</time>
      </trkpt>
      <trkpt lat="46.4312" lon="5.47393">
        <ele>392.6</ele>
        <time>2022-04-14T14:46:32Z</time>
      </trkpt>
      <trkpt lat="46.43129" lon="5.47387">
        <ele>392.2</ele>
        <time>2022-04-14T14:46:33Z</time>
      </trkpt>
      <trkpt lat="46.43148" lon="5.47374">
        <ele>390.8</ele>
        <time>2022-04-14T14:46:35Z</time>
      </trkpt>
      <trkpt lat="46.43166" lon="5.47361">
        <ele>389.6</ele>
        <time>2022-04-14T14:46:37Z</time>
      </trkpt>
      <trkpt lat="46.43184" lon="5.47347">
        <ele>388.4</ele>
        <time>2022-04-14T14:46:39Z</time>
      </trkpt>
      <trkpt lat="46.43193" lon="5.4734">
        <ele>388</ele>
        <time>2022-04-14T14:46:40Z</time>
      </trkpt>
      <trkpt lat="46.43201" lon="5.47332">
        <ele>387.6</ele>
        <time>2022-04-14T14:46:41Z</time>
      </trkpt>
      <trkpt lat="46.43209" lon="5.47322">
        <ele>387.2</ele>
        <time>2022-04-14T14:46:42Z</time>
      </trkpt>
      <trkpt lat="46.43217" lon="5.47312">
        <ele>386.8</ele>
        <time>2022-04-14T14:46:43Z</time>
      </trkpt>
      <trkpt lat="46.43223" lon="5.473">
        <ele>386.4</ele>
        <time>2022-04-14T14:46:44Z</time>
      </trkpt>
      <trkpt lat="46.43228" lon="5.47287">
        <ele>386.2</ele>
        <time>2022-04-14T14:46:45Z</time>
      </trkpt>
      <trkpt lat="46.4323" lon="5.47272">
        <ele>385.8</ele>
        <time>2022-04-14T14:46:46Z</time>
      </trkpt>
      <trkpt lat="46.43231" lon="5.47256">
        <ele>385.6</ele>
        <time>2022-04-14T14:46:47Z</time>
      </trkpt>
      <trkpt lat="46.43226" lon="5.47225">
        <ele>384.6</ele>
        <time>2022-04-14T14:46:49Z</time>
      </trkpt>
      <trkpt lat="46.43208" lon="5.47165">
        <ele>382.4</ele>
        <time>2022-04-14T14:46:53Z</time>
      </trkpt>
      <trkpt lat="46.43201" lon="5.47151">
        <ele>382</ele>
        <time>2022-04-14T14:46:54Z</time>
      </trkpt>
      <trkpt lat="46.43194" lon="5.47139">
        <ele>381.4</ele>
        <time>2022-04-14T14:46:55Z</time>
      </trkpt>
      <trkpt lat="46.43186" lon="5.47127">
        <ele>380.8</ele>
        <time>2022-04-14T14:46:56Z</time>
      </trkpt>
      <trkpt lat="46.43167" lon="5.47107">
        <ele>380</ele>
        <time>2022-04-14T14:46:58Z</time>
      </trkpt>
      <trkpt lat="46.43148" lon="5.4709">
        <ele>379.4</ele>
        <time>2022-04-14T14:47:00Z</time>
      </trkpt>
      <trkpt lat="46.43139" lon="5.47082">
        <ele>379</ele>
        <time>2022-04-14T14:47:01Z</time>
      </trkpt>
      <trkpt lat="46.43121" lon="5.47065">
        <ele>378.4</ele>
        <time>2022-04-14T14:47:03Z</time>
      </trkpt>
      <trkpt lat="46.43114" lon="5.47055">
        <ele>378</ele>
        <time>2022-04-14T14:47:04Z</time>
      </trkpt>
      <trkpt lat="46.43109" lon="5.47043">
        <ele>377.6</ele>
        <time>2022-04-14T14:47:05Z</time>
      </trkpt>
      <trkpt lat="46.43106" lon="5.47016">
        <ele>377</ele>
        <time>2022-04-14T14:47:07Z</time>
      </trkpt>
      <trkpt lat="46.43108" lon="5.47002">
        <ele>376.8</ele>
        <time>2022-04-14T14:47:08Z</time>
      </trkpt>
      <trkpt lat="46.43117" lon="5.46961">
        <ele>375.6</ele>
        <time>2022-04-14T14:47:11Z</time>
      </trkpt>
      <trkpt lat="46.43121" lon="5.46948">
        <ele>375.6</ele>
        <time>2022-04-14T14:47:12Z</time>
      </trkpt>
      <trkpt lat="46.43145" lon="5.46873">
        <ele>374.6</ele>
        <time>2022-04-14T14:47:18Z</time>
      </trkpt>
      <trkpt lat="46.43164" lon="5.46801">
        <ele>374.4</ele>
        <time>2022-04-14T14:47:24Z</time>
      </trkpt>
      <trkpt lat="46.4317" lon="5.46756">
        <ele>375</ele>
        <time>2022-04-14T14:47:28Z</time>
      </trkpt>
      <trkpt lat="46.43174" lon="5.46723">
        <ele>375.8</ele>
        <time>2022-04-14T14:47:31Z</time>
      </trkpt>
      <trkpt lat="46.43178" lon="5.46699">
        <ele>376</ele>
        <time>2022-04-14T14:47:33Z</time>
      </trkpt>
      <trkpt lat="46.43191" lon="5.46628">
        <ele>376.2</ele>
        <time>2022-04-14T14:47:39Z</time>
      </trkpt>
      <trkpt lat="46.43209" lon="5.46591">
        <ele>376.2</ele>
        <time>2022-04-14T14:47:43Z</time>
      </trkpt>
      <trkpt lat="46.43223" lon="5.46568">
        <ele>376.8</ele>
        <time>2022-04-14T14:47:46Z</time>
      </trkpt>
      <trkpt lat="46.43237" lon="5.46548">
        <ele>377</ele>
        <time>2022-04-14T14:47:49Z</time>
      </trkpt>
      <trkpt lat="46.43265" lon="5.46514">
        <ele>378</ele>
        <time>2022-04-14T14:47:55Z</time>
      </trkpt>
      <trkpt lat="46.43269" lon="5.46507">
        <ele>378</ele>
        <time>2022-04-14T14:47:56Z</time>
      </trkpt>
      <trkpt lat="46.43277" lon="5.46493">
        <ele>378.2</ele>
        <time>2022-04-14T14:47:58Z</time>
      </trkpt>
      <trkpt lat="46.43287" lon="5.46469">
        <ele>378</ele>
        <time>2022-04-14T14:48:01Z</time>
      </trkpt>
      <trkpt lat="46.43299" lon="5.46411">
        <ele>377.6</ele>
        <time>2022-04-14T14:48:07Z</time>
      </trkpt>
      <trkpt lat="46.43316" lon="5.46343">
        <ele>377.4</ele>
        <time>2022-04-14T14:48:14Z</time>
      </trkpt>
      <trkpt lat="46.43345" lon="5.46272">
        <ele>377.4</ele>
        <time>2022-04-14T14:48:22Z</time>
      </trkpt>
      <trkpt lat="46.43378" lon="5.46217">
        <ele>377</ele>
        <time>2022-04-14T14:48:29Z</time>
      </trkpt>
      <trkpt lat="46.43414" lon="5.46186">
        <ele>375.6</ele>
        <time>2022-04-14T14:48:34Z</time>
      </trkpt>
      <trkpt lat="46.4343" lon="5.46174">
        <ele>374.6</ele>
        <time>2022-04-14T14:48:36Z</time>
      </trkpt>
      <trkpt lat="46.43451" lon="5.46155">
        <ele>373.4</ele>
        <time>2022-04-14T14:48:39Z</time>
      </trkpt>
      <trkpt lat="46.43465" lon="5.46143">
        <ele>372.8</ele>
        <time>2022-04-14T14:48:41Z</time>
      </trkpt>
      <trkpt lat="46.43478" lon="5.46131">
        <ele>372.4</ele>
        <time>2022-04-14T14:48:43Z</time>
      </trkpt>
      <trkpt lat="46.4351" lon="5.46103">
        <ele>372.2</ele>
        <time>2022-04-14T14:48:48Z</time>
      </trkpt>
      <trkpt lat="46.43552" lon="5.46083">
        <ele>372.2</ele>
        <time>2022-04-14T14:48:54Z</time>
      </trkpt>
      <trkpt lat="46.43608" lon="5.46069">
        <ele>372.2</ele>
        <time>2022-04-14T14:49:02Z</time>
      </trkpt>
      <trkpt lat="46.43616" lon="5.46068">
        <ele>372.2</ele>
        <time>2022-04-14T14:49:03Z</time>
      </trkpt>
      <trkpt lat="46.43661" lon="5.46056">
        <ele>372.2</ele>
        <time>2022-04-14T14:49:09Z</time>
      </trkpt>
      <trkpt lat="46.43676" lon="5.46047">
        <ele>371.8</ele>
        <time>2022-04-14T14:49:11Z</time>
      </trkpt>
      <trkpt lat="46.43688" lon="5.46032">
        <ele>371.6</ele>
        <time>2022-04-14T14:49:13Z</time>
      </trkpt>
      <trkpt lat="46.43694" lon="5.46024">
        <ele>371.4</ele>
        <time>2022-04-14T14:49:14Z</time>
      </trkpt>
      <trkpt lat="46.43699" lon="5.46015">
        <ele>371.2</ele>
        <time>2022-04-14T14:49:15Z</time>
      </trkpt>
      <trkpt lat="46.43733" lon="5.45968">
        <ele>370.4</ele>
        <time>2022-04-14T14:49:21Z</time>
      </trkpt>
      <trkpt lat="46.43767" lon="5.45929">
        <ele>370.6</ele>
        <time>2022-04-14T14:49:27Z</time>
      </trkpt>
      <trkpt lat="46.43784" lon="5.45911">
        <ele>370.6</ele>
        <time>2022-04-14T14:49:30Z</time>
      </trkpt>
      <trkpt lat="46.43796" lon="5.45904">
        <ele>370.8</ele>
        <time>2022-04-14T14:49:32Z</time>
      </trkpt>
      <trkpt lat="46.43841" lon="5.45885">
        <ele>371.4</ele>
        <time>2022-04-14T14:49:39Z</time>
      </trkpt>
      <trkpt lat="46.43878" lon="5.45865">
        <ele>371.4</ele>
        <time>2022-04-14T14:49:45Z</time>
      </trkpt>
      <trkpt lat="46.43889" lon="5.45855">
        <ele>371.4</ele>
        <time>2022-04-14T14:49:47Z</time>
      </trkpt>
      <trkpt lat="46.43896" lon="5.45845">
        <ele>371.2</ele>
        <time>2022-04-14T14:49:49Z</time>
      </trkpt>
      <trkpt lat="46.439" lon="5.45834">
        <ele>371</ele>
        <time>2022-04-14T14:49:52Z</time>
      </trkpt>
      <trkpt lat="46.439" lon="5.45834">
        <ele>370.8</ele>
        <time>2022-04-14T14:49:55Z</time>
      </trkpt>
      <trkpt lat="46.43901" lon="5.45817">
        <ele>370.6</ele>
        <time>2022-04-14T14:50:55Z</time>
      </trkpt>
      <trkpt lat="46.43901" lon="5.45811">
        <ele>370.6</ele>
        <time>2022-04-14T14:50:57Z</time>
      </trkpt>
      <trkpt lat="46.43896" lon="5.45792">
        <ele>370.6</ele>
        <time>2022-04-14T14:51:02Z</time>
      </trkpt>
      <trkpt lat="46.43889" lon="5.45772">
        <ele>370.6</ele>
        <time>2022-04-14T14:51:05Z</time>
      </trkpt>
      <trkpt lat="46.4388" lon="5.45742">
        <ele>370.6</ele>
        <time>2022-04-14T14:51:09Z</time>
      </trkpt>
      <trkpt lat="46.43879" lon="5.45735">
        <ele>370.6</ele>
        <time>2022-04-14T14:51:10Z</time>
      </trkpt>
      <trkpt lat="46.43879" lon="5.45721">
        <ele>370.8</ele>
        <time>2022-04-14T14:51:12Z</time>
      </trkpt>
      <trkpt lat="46.43881" lon="5.45708">
        <ele>371.2</ele>
        <time>2022-04-14T14:51:14Z</time>
      </trkpt>
      <trkpt lat="46.43883" lon="5.45702">
        <ele>371.2</ele>
        <time>2022-04-14T14:51:15Z</time>
      </trkpt>
      <trkpt lat="46.43886" lon="5.45698">
        <ele>371.2</ele>
        <time>2022-04-14T14:51:16Z</time>
      </trkpt>
      <trkpt lat="46.43891" lon="5.45695">
        <ele>371.2</ele>
        <time>2022-04-14T14:51:17Z</time>
      </trkpt>
      <trkpt lat="46.43923" lon="5.45692">
        <ele>371.2</ele>
        <time>2022-04-14T14:51:22Z</time>
      </trkpt>
      <trkpt lat="46.43951" lon="5.45687">
        <ele>370.8</ele>
        <time>2022-04-14T14:51:26Z</time>
      </trkpt>
      <trkpt lat="46.43984" lon="5.45681">
        <ele>370</ele>
        <time>2022-04-14T14:51:31Z</time>
      </trkpt>
      <trkpt lat="46.4404" lon="5.45671">
        <ele>370.2</ele>
        <time>2022-04-14T14:51:40Z</time>
      </trkpt>
      <trkpt lat="46.44094" lon="5.45661">
        <ele>371.4</ele>
        <time>2022-04-14T14:51:49Z</time>
      </trkpt>
      <trkpt lat="46.44118" lon="5.45657">
        <ele>371.8</ele>
        <time>2022-04-14T14:51:53Z</time>
      </trkpt>
      <trkpt lat="46.44142" lon="5.45652">
        <ele>372.2</ele>
        <time>2022-04-14T14:51:57Z</time>
      </trkpt>
      <trkpt lat="46.44196" lon="5.45641">
        <ele>372</ele>
        <time>2022-04-14T14:52:06Z</time>
      </trkpt>
      <trkpt lat="46.44248" lon="5.45633">
        <ele>372.8</ele>
        <time>2022-04-14T14:52:15Z</time>
      </trkpt>
      <trkpt lat="46.4426" lon="5.45632">
        <ele>373</ele>
        <time>2022-04-14T14:52:17Z</time>
      </trkpt>
      <trkpt lat="46.44301" lon="5.45634">
        <ele>373.8</ele>
        <time>2022-04-14T14:52:24Z</time>
      </trkpt>
      <trkpt lat="46.44318" lon="5.45636">
        <ele>374</ele>
        <time>2022-04-14T14:52:27Z</time>
      </trkpt>
      <trkpt lat="46.44346" lon="5.45638">
        <ele>374.8</ele>
        <time>2022-04-14T14:52:32Z</time>
      </trkpt>
      <trkpt lat="46.44369" lon="5.45641">
        <ele>375.2</ele>
        <time>2022-04-14T14:52:36Z</time>
      </trkpt>
      <trkpt lat="46.44401" lon="5.45644">
        <ele>375.6</ele>
        <time>2022-04-14T14:52:42Z</time>
      </trkpt>
      <trkpt lat="46.44418" lon="5.45646">
        <ele>376.2</ele>
        <time>2022-04-14T14:52:45Z</time>
      </trkpt>
      <trkpt lat="46.44455" lon="5.4565">
        <ele>377.4</ele>
        <time>2022-04-14T14:52:52Z</time>
      </trkpt>
      <trkpt lat="46.4446" lon="5.45651">
        <ele>377.4</ele>
        <time>2022-04-14T14:52:53Z</time>
      </trkpt>
      <trkpt lat="46.44516" lon="5.45662">
        <ele>378.2</ele>
        <time>2022-04-14T14:53:03Z</time>
      </trkpt>
      <trkpt lat="46.44535" lon="5.45667">
        <ele>378.4</ele>
        <time>2022-04-14T14:53:06Z</time>
      </trkpt>
      <trkpt lat="46.44563" lon="5.45675">
        <ele>378.4</ele>
        <time>2022-04-14T14:53:10Z</time>
      </trkpt>
      <trkpt lat="46.44617" lon="5.45692">
        <ele>378.2</ele>
        <time>2022-04-14T14:53:18Z</time>
      </trkpt>
      <trkpt lat="46.44664" lon="5.45707">
        <ele>377.6</ele>
        <time>2022-04-14T14:53:25Z</time>
      </trkpt>
      <trkpt lat="46.44701" lon="5.45721">
        <ele>377.8</ele>
        <time>2022-04-14T14:53:31Z</time>
      </trkpt>
      <trkpt lat="46.44744" lon="5.45741">
        <ele>378</ele>
        <time>2022-04-14T14:53:38Z</time>
      </trkpt>
      <trkpt lat="46.44787" lon="5.45764">
        <ele>378.2</ele>
        <time>2022-04-14T14:53:45Z</time>
      </trkpt>
      <trkpt lat="46.44843" lon="5.45797">
        <ele>379.2</ele>
        <time>2022-04-14T14:53:54Z</time>
      </trkpt>
      <trkpt lat="46.4486" lon="5.45806">
        <ele>379.6</ele>
        <time>2022-04-14T14:53:57Z</time>
      </trkpt>
      <trkpt lat="46.44889" lon="5.45823">
        <ele>380</ele>
        <time>2022-04-14T14:54:02Z</time>
      </trkpt>
      <trkpt lat="46.44939" lon="5.45852">
        <ele>380.2</ele>
        <time>2022-04-14T14:54:10Z</time>
      </trkpt>
      <trkpt lat="46.44946" lon="5.45856">
        <ele>380.2</ele>
        <time>2022-04-14T14:54:11Z</time>
      </trkpt>
      <trkpt lat="46.44997" lon="5.45887">
        <ele>379</ele>
        <time>2022-04-14T14:54:18Z</time>
      </trkpt>
      <trkpt lat="46.45004" lon="5.45891">
        <ele>378.6</ele>
        <time>2022-04-14T14:54:19Z</time>
      </trkpt>
      <trkpt lat="46.45028" lon="5.45905">
        <ele>377.4</ele>
        <time>2022-04-14T14:54:22Z</time>
      </trkpt>
      <trkpt lat="46.45075" lon="5.45932">
        <ele>376.2</ele>
        <time>2022-04-14T14:54:28Z</time>
      </trkpt>
      <trkpt lat="46.45126" lon="5.4596">
        <ele>375.6</ele>
        <time>2022-04-14T14:54:35Z</time>
      </trkpt>
      <trkpt lat="46.45167" lon="5.45992">
        <ele>376.4</ele>
        <time>2022-04-14T14:54:42Z</time>
      </trkpt>
      <trkpt lat="46.4519" lon="5.46009">
        <ele>377.4</ele>
        <time>2022-04-14T14:54:46Z</time>
      </trkpt>
      <trkpt lat="46.45202" lon="5.46017">
        <ele>377.6</ele>
        <time>2022-04-14T14:54:48Z</time>
      </trkpt>
      <trkpt lat="46.45207" lon="5.4602">
        <ele>377.8</ele>
        <time>2022-04-14T14:54:49Z</time>
      </trkpt>
      <trkpt lat="46.45212" lon="5.46024">
        <ele>378</ele>
        <time>2022-04-14T14:54:50Z</time>
      </trkpt>
      <trkpt lat="46.45226" lon="5.46036">
        <ele>378.4</ele>
        <time>2022-04-14T14:54:53Z</time>
      </trkpt>
      <trkpt lat="46.45235" lon="5.46042">
        <ele>379</ele>
        <time>2022-04-14T14:54:55Z</time>
      </trkpt>
      <trkpt lat="46.45245" lon="5.46042">
        <ele>379.6</ele>
        <time>2022-04-14T14:54:57Z</time>
      </trkpt>
      <trkpt lat="46.45254" lon="5.46034">
        <ele>379.8</ele>
        <time>2022-04-14T14:54:59Z</time>
      </trkpt>
      <trkpt lat="46.45257" lon="5.46026">
        <ele>380</ele>
        <time>2022-04-14T14:55:00Z</time>
      </trkpt>
      <trkpt lat="46.45266" lon="5.46">
        <ele>380</ele>
        <time>2022-04-14T14:55:03Z</time>
      </trkpt>
      <trkpt lat="46.45273" lon="5.4598">
        <ele>380</ele>
        <time>2022-04-14T14:55:05Z</time>
      </trkpt>
      <trkpt lat="46.45285" lon="5.4592">
        <ele>378.8</ele>
        <time>2022-04-14T14:55:10Z</time>
      </trkpt>
      <trkpt lat="46.45288" lon="5.45908">
        <ele>378.2</ele>
        <time>2022-04-14T14:55:11Z</time>
      </trkpt>
      <trkpt lat="46.45303" lon="5.45859">
        <ele>376.8</ele>
        <time>2022-04-14T14:55:15Z</time>
      </trkpt>
      <trkpt lat="46.45311" lon="5.45835">
        <ele>375.2</ele>
        <time>2022-04-14T14:55:17Z</time>
      </trkpt>
      <trkpt lat="46.4532" lon="5.458">
        <ele>374</ele>
        <time>2022-04-14T14:55:20Z</time>
      </trkpt>
      <trkpt lat="46.45328" lon="5.45741">
        <ele>373.4</ele>
        <time>2022-04-14T14:55:25Z</time>
      </trkpt>
      <trkpt lat="46.45338" lon="5.45674">
        <ele>373.4</ele>
        <time>2022-04-14T14:55:31Z</time>
      </trkpt>
      <trkpt lat="46.45344" lon="5.45641">
        <ele>373.4</ele>
        <time>2022-04-14T14:55:34Z</time>
      </trkpt>
      <trkpt lat="46.4535" lon="5.45622">
        <ele>373.4</ele>
        <time>2022-04-14T14:55:36Z</time>
      </trkpt>
      <trkpt lat="46.45355" lon="5.45614">
        <ele>373.4</ele>
        <time>2022-04-14T14:55:37Z</time>
      </trkpt>
      <trkpt lat="46.45367" lon="5.45604">
        <ele>373.2</ele>
        <time>2022-04-14T14:55:39Z</time>
      </trkpt>
      <trkpt lat="46.4538" lon="5.45598">
        <ele>373</ele>
        <time>2022-04-14T14:55:41Z</time>
      </trkpt>
      <trkpt lat="46.45393" lon="5.45596">
        <ele>373</ele>
        <time>2022-04-14T14:55:43Z</time>
      </trkpt>
      <trkpt lat="46.45399" lon="5.45596">
        <ele>373</ele>
        <time>2022-04-14T14:55:44Z</time>
      </trkpt>
      <trkpt lat="46.45405" lon="5.45598">
        <ele>373</ele>
        <time>2022-04-14T14:55:45Z</time>
      </trkpt>
      <trkpt lat="46.45418" lon="5.45604">
        <ele>373</ele>
        <time>2022-04-14T14:55:47Z</time>
      </trkpt>
      <trkpt lat="46.45449" lon="5.4563">
        <ele>374</ele>
        <time>2022-04-14T14:55:53Z</time>
      </trkpt>
      <trkpt lat="46.45469" lon="5.45646">
        <ele>375.4</ele>
        <time>2022-04-14T14:55:57Z</time>
      </trkpt>
      <trkpt lat="46.45484" lon="5.45657">
        <ele>375.8</ele>
        <time>2022-04-14T14:56:00Z</time>
      </trkpt>
      <trkpt lat="46.45509" lon="5.45671">
        <ele>376.4</ele>
        <time>2022-04-14T14:56:05Z</time>
      </trkpt>
      <trkpt lat="46.45527" lon="5.45681">
        <ele>377.4</ele>
        <time>2022-04-14T14:56:09Z</time>
      </trkpt>
      <trkpt lat="46.45532" lon="5.45683">
        <ele>377.6</ele>
        <time>2022-04-14T14:56:10Z</time>
      </trkpt>
      <trkpt lat="46.45554" lon="5.45693">
        <ele>378.8</ele>
        <time>2022-04-14T14:56:15Z</time>
      </trkpt>
      <trkpt lat="46.45566" lon="5.45698">
        <ele>379.8</ele>
        <time>2022-04-14T14:56:18Z</time>
      </trkpt>
      <trkpt lat="46.45575" lon="5.45701">
        <ele>380.2</ele>
        <time>2022-04-14T14:56:20Z</time>
      </trkpt>
      <trkpt lat="46.45587" lon="5.45705">
        <ele>381.4</ele>
        <time>2022-04-14T14:56:23Z</time>
      </trkpt>
      <trkpt lat="46.45604" lon="5.45704">
        <ele>382.4</ele>
        <time>2022-04-14T14:56:27Z</time>
      </trkpt>
      <trkpt lat="46.45628" lon="5.45696">
        <ele>383.4</ele>
        <time>2022-04-14T14:56:32Z</time>
      </trkpt>
      <trkpt lat="46.45632" lon="5.45693">
        <ele>383.4</ele>
        <time>2022-04-14T14:56:33Z</time>
      </trkpt>
      <trkpt lat="46.4566" lon="5.45678">
        <ele>384.4</ele>
        <time>2022-04-14T14:56:39Z</time>
      </trkpt>
      <trkpt lat="46.45665" lon="5.45675">
        <ele>384.4</ele>
        <time>2022-04-14T14:56:40Z</time>
      </trkpt>
      <trkpt lat="46.45702" lon="5.45652">
        <ele>385.6</ele>
        <time>2022-04-14T14:56:48Z</time>
      </trkpt>
      <trkpt lat="46.45707" lon="5.45649">
        <ele>385.8</ele>
        <time>2022-04-14T14:56:49Z</time>
      </trkpt>
      <trkpt lat="46.45722" lon="5.4564">
        <ele>386.8</ele>
        <time>2022-04-14T14:56:52Z</time>
      </trkpt>
      <trkpt lat="46.45759" lon="5.45619">
        <ele>387.2</ele>
        <time>2022-04-14T14:56:59Z</time>
      </trkpt>
      <trkpt lat="46.4581" lon="5.45589">
        <ele>386.8</ele>
        <time>2022-04-14T14:57:08Z</time>
      </trkpt>
      <trkpt lat="46.45857" lon="5.45564">
        <ele>386.2</ele>
        <time>2022-04-14T14:57:15Z</time>
      </trkpt>
      <trkpt lat="46.45864" lon="5.45559">
        <ele>385.8</ele>
        <time>2022-04-14T14:57:16Z</time>
      </trkpt>
      <trkpt lat="46.45894" lon="5.45542">
        <ele>384.4</ele>
        <time>2022-04-14T14:57:20Z</time>
      </trkpt>
      <trkpt lat="46.45918" lon="5.45529">
        <ele>383.2</ele>
        <time>2022-04-14T14:57:23Z</time>
      </trkpt>
      <trkpt lat="46.45948" lon="5.45512">
        <ele>381.8</ele>
        <time>2022-04-14T14:57:27Z</time>
      </trkpt>
      <trkpt lat="46.45977" lon="5.45495">
        <ele>380.6</ele>
        <time>2022-04-14T14:57:31Z</time>
      </trkpt>
      <trkpt lat="46.45984" lon="5.45491">
        <ele>380.4</ele>
        <time>2022-04-14T14:57:32Z</time>
      </trkpt>
      <trkpt lat="46.46026" lon="5.45466">
        <ele>379.6</ele>
        <time>2022-04-14T14:57:38Z</time>
      </trkpt>
      <trkpt lat="46.46033" lon="5.45462">
        <ele>379.4</ele>
        <time>2022-04-14T14:57:39Z</time>
      </trkpt>
      <trkpt lat="46.46088" lon="5.45428">
        <ele>378.8</ele>
        <time>2022-04-14T14:57:47Z</time>
      </trkpt>
      <trkpt lat="46.46095" lon="5.45424">
        <ele>378.6</ele>
        <time>2022-04-14T14:57:48Z</time>
      </trkpt>
      <trkpt lat="46.46102" lon="5.4542">
        <ele>378.6</ele>
        <time>2022-04-14T14:57:49Z</time>
      </trkpt>
      <trkpt lat="46.46151" lon="5.45387">
        <ele>378</ele>
        <time>2022-04-14T14:57:56Z</time>
      </trkpt>
      <trkpt lat="46.46158" lon="5.45382">
        <ele>378</ele>
        <time>2022-04-14T14:57:57Z</time>
      </trkpt>
      <trkpt lat="46.46178" lon="5.45368">
        <ele>377.6</ele>
        <time>2022-04-14T14:58:00Z</time>
      </trkpt>
      <trkpt lat="46.46211" lon="5.45345">
        <ele>377.2</ele>
        <time>2022-04-14T14:58:05Z</time>
      </trkpt>
      <trkpt lat="46.46262" lon="5.45307">
        <ele>376.8</ele>
        <time>2022-04-14T14:58:13Z</time>
      </trkpt>
      <trkpt lat="46.46268" lon="5.45302">
        <ele>376.8</ele>
        <time>2022-04-14T14:58:14Z</time>
      </trkpt>
      <trkpt lat="46.463" lon="5.45276">
        <ele>376.4</ele>
        <time>2022-04-14T14:58:19Z</time>
      </trkpt>
      <trkpt lat="46.46319" lon="5.45261">
        <ele>376.6</ele>
        <time>2022-04-14T14:58:22Z</time>
      </trkpt>
      <trkpt lat="46.46373" lon="5.45225">
        <ele>376.6</ele>
        <time>2022-04-14T14:58:30Z</time>
      </trkpt>
      <trkpt lat="46.464" lon="5.45212">
        <ele>376.6</ele>
        <time>2022-04-14T14:58:34Z</time>
      </trkpt>
      <trkpt lat="46.46413" lon="5.45211">
        <ele>377</ele>
        <time>2022-04-14T14:58:36Z</time>
      </trkpt>
      <trkpt lat="46.4642" lon="5.45211">
        <ele>377.2</ele>
        <time>2022-04-14T14:58:37Z</time>
      </trkpt>
      <trkpt lat="46.46446" lon="5.45221">
        <ele>377.6</ele>
        <time>2022-04-14T14:58:41Z</time>
      </trkpt>
      <trkpt lat="46.4648" lon="5.45236">
        <ele>377.6</ele>
        <time>2022-04-14T14:58:46Z</time>
      </trkpt>
    </trkseg>
  </trk>
</gpx>